<?xml version="1.0" encoding="UTF-8" standalone="no" ?>
<gpx xmlns="http://www.topografix.com/GPX/1/1" xmlns:xsi="http://www.w3.org/2001/XMLSchema-instance" xsi:schemaLocation="http://www.topografix.com/GPX/1/1 http://www.topografix.com/GPX/1/1/gpx.xsd" version="1.1" creator="VisuGPX - https://www.visugpx.com">
  <metadata>
    <name>Prépa TransV dans les gorges de la Loire</name>
    <desc><![CDATA[Sortie bien costaude.
Tres technique en descente par endroit. Portage et poussage dans certains D ]]></desc>
  </metadata>
  <trk>
    <name><![CDATA[08 MAI 2014 avec Raph et Denis]]></name>
    <trkseg>
      <trkpt lat="45.36471" lon="4.13476">
        <ele>732.66</ele>
        <time>2014-05-08T04:40:09Z</time>
      </trkpt>
      <trkpt lat="45.3647" lon="4.13478">
        <ele>733.14</ele>
        <time>2014-05-08T04:40:26Z</time>
      </trkpt>
      <trkpt lat="45.36472" lon="4.13477">
        <ele>731.7</ele>
        <time>2014-05-08T04:40:37Z</time>
      </trkpt>
      <trkpt lat="45.3647" lon="4.13475">
        <ele>731.7</ele>
        <time>2014-05-08T04:40:57Z</time>
      </trkpt>
      <trkpt lat="45.36473" lon="4.13477">
        <ele>732.66</ele>
        <time>2014-05-08T04:41:14Z</time>
      </trkpt>
      <trkpt lat="45.36474" lon="4.13476">
        <ele>732.66</ele>
        <time>2014-05-08T04:41:18Z</time>
      </trkpt>
      <trkpt lat="45.36473" lon="4.13477">
        <ele>733.62</ele>
        <time>2014-05-08T04:41:39Z</time>
      </trkpt>
      <trkpt lat="45.36473" lon="4.13477">
        <ele>733.14</ele>
        <time>2014-05-08T04:41:40Z</time>
      </trkpt>
      <trkpt lat="45.36474" lon="4.13478">
        <ele>732.66</ele>
        <time>2014-05-08T04:41:46Z</time>
      </trkpt>
      <trkpt lat="45.36477" lon="4.13478">
        <ele>732.66</ele>
        <time>2014-05-08T04:42:07Z</time>
      </trkpt>
      <trkpt lat="45.36476" lon="4.13476">
        <ele>732.66</ele>
        <time>2014-05-08T04:42:33Z</time>
      </trkpt>
      <trkpt lat="45.36476" lon="4.13476">
        <ele>732.66</ele>
        <time>2014-05-08T04:43:06Z</time>
      </trkpt>
      <trkpt lat="45.36472" lon="4.13477">
        <ele>732.66</ele>
        <time>2014-05-08T04:43:25Z</time>
      </trkpt>
      <trkpt lat="45.3647" lon="4.13475">
        <ele>733.62</ele>
        <time>2014-05-08T04:43:37Z</time>
      </trkpt>
      <trkpt lat="45.36467" lon="4.13474">
        <ele>733.14</ele>
        <time>2014-05-08T04:44:04Z</time>
      </trkpt>
      <trkpt lat="45.36469" lon="4.13477">
        <ele>732.66</ele>
        <time>2014-05-08T04:44:18Z</time>
      </trkpt>
      <trkpt lat="45.3647" lon="4.13475">
        <ele>733.14</ele>
        <time>2014-05-08T04:44:33Z</time>
      </trkpt>
      <trkpt lat="45.36472" lon="4.13474">
        <ele>733.14</ele>
        <time>2014-05-08T04:45:10Z</time>
      </trkpt>
      <trkpt lat="45.36471" lon="4.13475">
        <ele>734.1</ele>
        <time>2014-05-08T04:45:19Z</time>
      </trkpt>
      <trkpt lat="45.36467" lon="4.13478">
        <ele>734.1</ele>
        <time>2014-05-08T04:45:23Z</time>
      </trkpt>
      <trkpt lat="45.36453" lon="4.13483">
        <ele>736.99</ele>
        <time>2014-05-08T04:45:30Z</time>
      </trkpt>
      <trkpt lat="45.36431" lon="4.13496">
        <ele>740.35</ele>
        <time>2014-05-08T04:45:44Z</time>
      </trkpt>
      <trkpt lat="45.36428" lon="4.135">
        <ele>740.83</ele>
        <time>2014-05-08T04:45:48Z</time>
      </trkpt>
      <trkpt lat="45.36443" lon="4.13533">
        <ele>741.31</ele>
        <time>2014-05-08T04:46:02Z</time>
      </trkpt>
      <trkpt lat="45.36475" lon="4.13579">
        <ele>740.83</ele>
        <time>2014-05-08T04:46:15Z</time>
      </trkpt>
      <trkpt lat="45.36477" lon="4.13585">
        <ele>740.35</ele>
        <time>2014-05-08T04:46:16Z</time>
      </trkpt>
      <trkpt lat="45.36498" lon="4.13644">
        <ele>739.39</ele>
        <time>2014-05-08T04:46:27Z</time>
      </trkpt>
      <trkpt lat="45.365" lon="4.13651">
        <ele>739.87</ele>
        <time>2014-05-08T04:46:28Z</time>
      </trkpt>
      <trkpt lat="45.36502" lon="4.13664">
        <ele>738.43</ele>
        <time>2014-05-08T04:46:30Z</time>
      </trkpt>
      <trkpt lat="45.36502" lon="4.13671">
        <ele>738.43</ele>
        <time>2014-05-08T04:46:31Z</time>
      </trkpt>
      <trkpt lat="45.36502" lon="4.13678">
        <ele>737.95</ele>
        <time>2014-05-08T04:46:32Z</time>
      </trkpt>
      <trkpt lat="45.36502" lon="4.13685">
        <ele>737.47</ele>
        <time>2014-05-08T04:46:33Z</time>
      </trkpt>
      <trkpt lat="45.36501" lon="4.13692">
        <ele>736.51</ele>
        <time>2014-05-08T04:46:34Z</time>
      </trkpt>
      <trkpt lat="45.36499" lon="4.13698">
        <ele>736.03</ele>
        <time>2014-05-08T04:46:35Z</time>
      </trkpt>
      <trkpt lat="45.36497" lon="4.13705">
        <ele>735.55</ele>
        <time>2014-05-08T04:46:36Z</time>
      </trkpt>
      <trkpt lat="45.36494" lon="4.1371">
        <ele>734.1</ele>
        <time>2014-05-08T04:46:37Z</time>
      </trkpt>
      <trkpt lat="45.36491" lon="4.13716">
        <ele>733.62</ele>
        <time>2014-05-08T04:46:38Z</time>
      </trkpt>
      <trkpt lat="45.36485" lon="4.13722">
        <ele>733.62</ele>
        <time>2014-05-08T04:46:39Z</time>
      </trkpt>
      <trkpt lat="45.36434" lon="4.13787">
        <ele>730.26</ele>
        <time>2014-05-08T04:46:49Z</time>
      </trkpt>
      <trkpt lat="45.36431" lon="4.13792">
        <ele>730.74</ele>
        <time>2014-05-08T04:46:50Z</time>
      </trkpt>
      <trkpt lat="45.36412" lon="4.13826">
        <ele>734.1</ele>
        <time>2014-05-08T04:46:57Z</time>
      </trkpt>
      <trkpt lat="45.36369" lon="4.1389">
        <ele>736.51</ele>
        <time>2014-05-08T04:47:12Z</time>
      </trkpt>
      <trkpt lat="45.36365" lon="4.13897">
        <ele>737.95</ele>
        <time>2014-05-08T04:47:14Z</time>
      </trkpt>
      <trkpt lat="45.3633" lon="4.13938">
        <ele>739.87</ele>
        <time>2014-05-08T04:47:29Z</time>
      </trkpt>
      <trkpt lat="45.36317" lon="4.13949">
        <ele>739.39</ele>
        <time>2014-05-08T04:47:34Z</time>
      </trkpt>
      <trkpt lat="45.36319" lon="4.13946">
        <ele>737.95</ele>
        <time>2014-05-08T04:47:49Z</time>
      </trkpt>
      <trkpt lat="45.36318" lon="4.13949">
        <ele>738.43</ele>
        <time>2014-05-08T04:47:58Z</time>
      </trkpt>
      <trkpt lat="45.36316" lon="4.13952">
        <ele>738.43</ele>
        <time>2014-05-08T04:47:59Z</time>
      </trkpt>
      <trkpt lat="45.36305" lon="4.13964">
        <ele>738.91</ele>
        <time>2014-05-08T04:48:03Z</time>
      </trkpt>
      <trkpt lat="45.36301" lon="4.13967">
        <ele>737.95</ele>
        <time>2014-05-08T04:48:04Z</time>
      </trkpt>
      <trkpt lat="45.36296" lon="4.1397">
        <ele>738.43</ele>
        <time>2014-05-08T04:48:05Z</time>
      </trkpt>
      <trkpt lat="45.36275" lon="4.13982">
        <ele>735.55</ele>
        <time>2014-05-08T04:48:09Z</time>
      </trkpt>
      <trkpt lat="45.36182" lon="4.14047">
        <ele>734.1</ele>
        <time>2014-05-08T04:48:25Z</time>
      </trkpt>
      <trkpt lat="45.36163" lon="4.14068">
        <ele>734.58</ele>
        <time>2014-05-08T04:48:30Z</time>
      </trkpt>
      <trkpt lat="45.36159" lon="4.14071">
        <ele>734.1</ele>
        <time>2014-05-08T04:48:31Z</time>
      </trkpt>
      <trkpt lat="45.36144" lon="4.14082">
        <ele>733.14</ele>
        <time>2014-05-08T04:48:34Z</time>
      </trkpt>
      <trkpt lat="45.3614" lon="4.14087">
        <ele>734.1</ele>
        <time>2014-05-08T04:48:35Z</time>
      </trkpt>
      <trkpt lat="45.36135" lon="4.14093">
        <ele>732.66</ele>
        <time>2014-05-08T04:48:36Z</time>
      </trkpt>
      <trkpt lat="45.36131" lon="4.14101">
        <ele>732.18</ele>
        <time>2014-05-08T04:48:37Z</time>
      </trkpt>
      <trkpt lat="45.36129" lon="4.14109">
        <ele>731.22</ele>
        <time>2014-05-08T04:48:38Z</time>
      </trkpt>
      <trkpt lat="45.36128" lon="4.14118">
        <ele>731.22</ele>
        <time>2014-05-08T04:48:39Z</time>
      </trkpt>
      <trkpt lat="45.36127" lon="4.14128">
        <ele>730.74</ele>
        <time>2014-05-08T04:48:40Z</time>
      </trkpt>
      <trkpt lat="45.36125" lon="4.14178">
        <ele>727.37</ele>
        <time>2014-05-08T04:48:45Z</time>
      </trkpt>
      <trkpt lat="45.36125" lon="4.14189">
        <ele>726.41</ele>
        <time>2014-05-08T04:48:46Z</time>
      </trkpt>
      <trkpt lat="45.36121" lon="4.14222">
        <ele>724.97</ele>
        <time>2014-05-08T04:48:49Z</time>
      </trkpt>
      <trkpt lat="45.36117" lon="4.14264">
        <ele>722.57</ele>
        <time>2014-05-08T04:48:53Z</time>
      </trkpt>
      <trkpt lat="45.36117" lon="4.14298">
        <ele>721.61</ele>
        <time>2014-05-08T04:48:56Z</time>
      </trkpt>
      <trkpt lat="45.36119" lon="4.14309">
        <ele>721.13</ele>
        <time>2014-05-08T04:48:57Z</time>
      </trkpt>
      <trkpt lat="45.36132" lon="4.14382">
        <ele>718.72</ele>
        <time>2014-05-08T04:49:05Z</time>
      </trkpt>
      <trkpt lat="45.36132" lon="4.14412">
        <ele>717.28</ele>
        <time>2014-05-08T04:49:08Z</time>
      </trkpt>
      <trkpt lat="45.36125" lon="4.14469">
        <ele>714.4</ele>
        <time>2014-05-08T04:49:13Z</time>
      </trkpt>
      <trkpt lat="45.36125" lon="4.14481">
        <ele>713.44</ele>
        <time>2014-05-08T04:49:14Z</time>
      </trkpt>
      <trkpt lat="45.36125" lon="4.14494">
        <ele>711.99</ele>
        <time>2014-05-08T04:49:15Z</time>
      </trkpt>
      <trkpt lat="45.36127" lon="4.14507">
        <ele>711.03</ele>
        <time>2014-05-08T04:49:16Z</time>
      </trkpt>
      <trkpt lat="45.36129" lon="4.1452">
        <ele>710.55</ele>
        <time>2014-05-08T04:49:17Z</time>
      </trkpt>
      <trkpt lat="45.36133" lon="4.14546">
        <ele>707.67</ele>
        <time>2014-05-08T04:49:19Z</time>
      </trkpt>
      <trkpt lat="45.36133" lon="4.14571">
        <ele>706.23</ele>
        <time>2014-05-08T04:49:21Z</time>
      </trkpt>
      <trkpt lat="45.3613" lon="4.14675">
        <ele>702.38</ele>
        <time>2014-05-08T04:49:30Z</time>
      </trkpt>
      <trkpt lat="45.36141" lon="4.14769">
        <ele>700.46</ele>
        <time>2014-05-08T04:49:40Z</time>
      </trkpt>
      <trkpt lat="45.36142" lon="4.14776">
        <ele>700.46</ele>
        <time>2014-05-08T04:49:41Z</time>
      </trkpt>
      <trkpt lat="45.36144" lon="4.14784">
        <ele>699.98</ele>
        <time>2014-05-08T04:49:42Z</time>
      </trkpt>
      <trkpt lat="45.36171" lon="4.14839">
        <ele>699.02</ele>
        <time>2014-05-08T04:49:54Z</time>
      </trkpt>
      <trkpt lat="45.36186" lon="4.14889">
        <ele>694.69</ele>
        <time>2014-05-08T04:50:06Z</time>
      </trkpt>
      <trkpt lat="45.36187" lon="4.14903">
        <ele>693.73</ele>
        <time>2014-05-08T04:50:08Z</time>
      </trkpt>
      <trkpt lat="45.36187" lon="4.14924">
        <ele>689.4</ele>
        <time>2014-05-08T04:50:11Z</time>
      </trkpt>
      <trkpt lat="45.36188" lon="4.14932">
        <ele>689.88</ele>
        <time>2014-05-08T04:50:12Z</time>
      </trkpt>
      <trkpt lat="45.3619" lon="4.14948">
        <ele>686.52</ele>
        <time>2014-05-08T04:50:14Z</time>
      </trkpt>
      <trkpt lat="45.36191" lon="4.14973">
        <ele>682.67</ele>
        <time>2014-05-08T04:50:17Z</time>
      </trkpt>
      <trkpt lat="45.36191" lon="4.14991">
        <ele>680.75</ele>
        <time>2014-05-08T04:50:19Z</time>
      </trkpt>
      <trkpt lat="45.3619" lon="4.15">
        <ele>679.79</ele>
        <time>2014-05-08T04:50:20Z</time>
      </trkpt>
      <trkpt lat="45.36187" lon="4.1503">
        <ele>676.42</ele>
        <time>2014-05-08T04:50:23Z</time>
      </trkpt>
      <trkpt lat="45.36183" lon="4.15057">
        <ele>672.58</ele>
        <time>2014-05-08T04:50:26Z</time>
      </trkpt>
      <trkpt lat="45.36178" lon="4.15084">
        <ele>668.73</ele>
        <time>2014-05-08T04:50:29Z</time>
      </trkpt>
      <trkpt lat="45.36171" lon="4.15111">
        <ele>665.37</ele>
        <time>2014-05-08T04:50:33Z</time>
      </trkpt>
      <trkpt lat="45.36165" lon="4.15124">
        <ele>662.49</ele>
        <time>2014-05-08T04:50:37Z</time>
      </trkpt>
      <trkpt lat="45.36159" lon="4.15127">
        <ele>661.04</ele>
        <time>2014-05-08T04:50:40Z</time>
      </trkpt>
      <trkpt lat="45.36156" lon="4.15128">
        <ele>659.6</ele>
        <time>2014-05-08T04:50:41Z</time>
      </trkpt>
      <trkpt lat="45.3615" lon="4.15124">
        <ele>656.72</ele>
        <time>2014-05-08T04:50:44Z</time>
      </trkpt>
      <trkpt lat="45.36145" lon="4.15116">
        <ele>655.76</ele>
        <time>2014-05-08T04:50:46Z</time>
      </trkpt>
      <trkpt lat="45.36133" lon="4.15099">
        <ele>652.87</ele>
        <time>2014-05-08T04:50:50Z</time>
      </trkpt>
      <trkpt lat="45.36129" lon="4.15094">
        <ele>652.39</ele>
        <time>2014-05-08T04:50:51Z</time>
      </trkpt>
      <trkpt lat="45.36109" lon="4.15081">
        <ele>650.47</ele>
        <time>2014-05-08T04:51:00Z</time>
      </trkpt>
      <trkpt lat="45.36108" lon="4.15082">
        <ele>651.43</ele>
        <time>2014-05-08T04:51:01Z</time>
      </trkpt>
      <trkpt lat="45.36103" lon="4.15094">
        <ele>646.14</ele>
        <time>2014-05-08T04:51:06Z</time>
      </trkpt>
      <trkpt lat="45.36101" lon="4.15111">
        <ele>640.38</ele>
        <time>2014-05-08T04:51:10Z</time>
      </trkpt>
      <trkpt lat="45.36102" lon="4.1512">
        <ele>637.97</ele>
        <time>2014-05-08T04:51:13Z</time>
      </trkpt>
      <trkpt lat="45.36104" lon="4.15127">
        <ele>634.61</ele>
        <time>2014-05-08T04:51:17Z</time>
      </trkpt>
      <trkpt lat="45.36104" lon="4.15129">
        <ele>635.09</ele>
        <time>2014-05-08T04:51:19Z</time>
      </trkpt>
      <trkpt lat="45.36104" lon="4.15139">
        <ele>631.24</ele>
        <time>2014-05-08T04:51:23Z</time>
      </trkpt>
      <trkpt lat="45.36103" lon="4.15154">
        <ele>626.92</ele>
        <time>2014-05-08T04:51:27Z</time>
      </trkpt>
      <trkpt lat="45.36102" lon="4.15162">
        <ele>625.47</ele>
        <time>2014-05-08T04:51:30Z</time>
      </trkpt>
      <trkpt lat="45.36099" lon="4.15186">
        <ele>624.51</ele>
        <time>2014-05-08T04:51:42Z</time>
      </trkpt>
      <trkpt lat="45.36099" lon="4.152">
        <ele>621.15</ele>
        <time>2014-05-08T04:51:51Z</time>
      </trkpt>
      <trkpt lat="45.36098" lon="4.15203">
        <ele>620.19</ele>
        <time>2014-05-08T04:51:53Z</time>
      </trkpt>
      <trkpt lat="45.36098" lon="4.15211">
        <ele>618.26</ele>
        <time>2014-05-08T04:51:56Z</time>
      </trkpt>
      <trkpt lat="45.36099" lon="4.15217">
        <ele>615.86</ele>
        <time>2014-05-08T04:52:00Z</time>
      </trkpt>
      <trkpt lat="45.36102" lon="4.15224">
        <ele>612.98</ele>
        <time>2014-05-08T04:52:05Z</time>
      </trkpt>
      <trkpt lat="45.36103" lon="4.15231">
        <ele>610.09</ele>
        <time>2014-05-08T04:52:09Z</time>
      </trkpt>
      <trkpt lat="45.36106" lon="4.15245">
        <ele>606.73</ele>
        <time>2014-05-08T04:52:14Z</time>
      </trkpt>
      <trkpt lat="45.36106" lon="4.15251">
        <ele>604.81</ele>
        <time>2014-05-08T04:52:16Z</time>
      </trkpt>
      <trkpt lat="45.36115" lon="4.15268">
        <ele>599.52</ele>
        <time>2014-05-08T04:52:21Z</time>
      </trkpt>
      <trkpt lat="45.36122" lon="4.1528">
        <ele>598.08</ele>
        <time>2014-05-08T04:52:23Z</time>
      </trkpt>
      <trkpt lat="45.36131" lon="4.15289">
        <ele>597.12</ele>
        <time>2014-05-08T04:52:25Z</time>
      </trkpt>
      <trkpt lat="45.36143" lon="4.15299">
        <ele>593.75</ele>
        <time>2014-05-08T04:52:28Z</time>
      </trkpt>
      <trkpt lat="45.36151" lon="4.15305">
        <ele>590.39</ele>
        <time>2014-05-08T04:52:30Z</time>
      </trkpt>
      <trkpt lat="45.36158" lon="4.15311">
        <ele>588.46</ele>
        <time>2014-05-08T04:52:32Z</time>
      </trkpt>
      <trkpt lat="45.36162" lon="4.15315">
        <ele>587.02</ele>
        <time>2014-05-08T04:52:33Z</time>
      </trkpt>
      <trkpt lat="45.36165" lon="4.15318">
        <ele>586.06</ele>
        <time>2014-05-08T04:52:34Z</time>
      </trkpt>
      <trkpt lat="45.36171" lon="4.15325">
        <ele>585.1</ele>
        <time>2014-05-08T04:52:36Z</time>
      </trkpt>
      <trkpt lat="45.36176" lon="4.1533">
        <ele>584.62</ele>
        <time>2014-05-08T04:52:37Z</time>
      </trkpt>
      <trkpt lat="45.36191" lon="4.15339">
        <ele>582.22</ele>
        <time>2014-05-08T04:52:40Z</time>
      </trkpt>
      <trkpt lat="45.36217" lon="4.15359">
        <ele>576.45</ele>
        <time>2014-05-08T04:52:44Z</time>
      </trkpt>
      <trkpt lat="45.36237" lon="4.15378">
        <ele>572.12</ele>
        <time>2014-05-08T04:52:47Z</time>
      </trkpt>
      <trkpt lat="45.36258" lon="4.15396">
        <ele>568.28</ele>
        <time>2014-05-08T04:52:51Z</time>
      </trkpt>
      <trkpt lat="45.36269" lon="4.15405">
        <ele>564.91</ele>
        <time>2014-05-08T04:52:53Z</time>
      </trkpt>
      <trkpt lat="45.36287" lon="4.15419">
        <ele>561.07</ele>
        <time>2014-05-08T04:52:56Z</time>
      </trkpt>
      <trkpt lat="45.36298" lon="4.15427">
        <ele>557.7</ele>
        <time>2014-05-08T04:52:58Z</time>
      </trkpt>
      <trkpt lat="45.36307" lon="4.15435">
        <ele>555.3</ele>
        <time>2014-05-08T04:53:00Z</time>
      </trkpt>
      <trkpt lat="45.36322" lon="4.15451">
        <ele>551.45</ele>
        <time>2014-05-08T04:53:03Z</time>
      </trkpt>
      <trkpt lat="45.36356" lon="4.1547">
        <ele>549.53</ele>
        <time>2014-05-08T04:53:13Z</time>
      </trkpt>
      <trkpt lat="45.36389" lon="4.15461">
        <ele>549.05</ele>
        <time>2014-05-08T04:53:27Z</time>
      </trkpt>
      <trkpt lat="45.36423" lon="4.15443">
        <ele>548.57</ele>
        <time>2014-05-08T04:53:36Z</time>
      </trkpt>
      <trkpt lat="45.36427" lon="4.15445">
        <ele>548.09</ele>
        <time>2014-05-08T04:53:37Z</time>
      </trkpt>
      <trkpt lat="45.36433" lon="4.15453">
        <ele>549.05</ele>
        <time>2014-05-08T04:53:40Z</time>
      </trkpt>
      <trkpt lat="45.36435" lon="4.15455">
        <ele>549.53</ele>
        <time>2014-05-08T04:53:41Z</time>
      </trkpt>
      <trkpt lat="45.36439" lon="4.15455">
        <ele>550.01</ele>
        <time>2014-05-08T04:53:42Z</time>
      </trkpt>
      <trkpt lat="45.36446" lon="4.15461">
        <ele>553.38</ele>
        <time>2014-05-08T04:53:51Z</time>
      </trkpt>
      <trkpt lat="45.36446" lon="4.15463">
        <ele>553.38</ele>
        <time>2014-05-08T04:53:52Z</time>
      </trkpt>
      <trkpt lat="45.36447" lon="4.15464">
        <ele>553.38</ele>
        <time>2014-05-08T04:53:53Z</time>
      </trkpt>
      <trkpt lat="45.36459" lon="4.15483">
        <ele>554.34</ele>
        <time>2014-05-08T04:54:07Z</time>
      </trkpt>
      <trkpt lat="45.36457" lon="4.15503">
        <ele>557.22</ele>
        <time>2014-05-08T04:54:15Z</time>
      </trkpt>
      <trkpt lat="45.36438" lon="4.15522">
        <ele>560.59</ele>
        <time>2014-05-08T04:54:29Z</time>
      </trkpt>
      <trkpt lat="45.36407" lon="4.1554">
        <ele>563.47</ele>
        <time>2014-05-08T04:54:43Z</time>
      </trkpt>
      <trkpt lat="45.36384" lon="4.15588">
        <ele>566.35</ele>
        <time>2014-05-08T04:55:01Z</time>
      </trkpt>
      <trkpt lat="45.36364" lon="4.15629">
        <ele>569.24</ele>
        <time>2014-05-08T04:55:18Z</time>
      </trkpt>
      <trkpt lat="45.36345" lon="4.15663">
        <ele>573.08</ele>
        <time>2014-05-08T04:55:33Z</time>
      </trkpt>
      <trkpt lat="45.36344" lon="4.15666">
        <ele>572.6</ele>
        <time>2014-05-08T04:55:34Z</time>
      </trkpt>
      <trkpt lat="45.36337" lon="4.1569">
        <ele>575.97</ele>
        <time>2014-05-08T04:55:44Z</time>
      </trkpt>
      <trkpt lat="45.36335" lon="4.15716">
        <ele>575.97</ele>
        <time>2014-05-08T04:55:53Z</time>
      </trkpt>
      <trkpt lat="45.36337" lon="4.15738">
        <ele>579.33</ele>
        <time>2014-05-08T04:56:03Z</time>
      </trkpt>
      <trkpt lat="45.3634" lon="4.1577">
        <ele>582.7</ele>
        <time>2014-05-08T04:56:14Z</time>
      </trkpt>
      <trkpt lat="45.36344" lon="4.15789">
        <ele>583.18</ele>
        <time>2014-05-08T04:56:19Z</time>
      </trkpt>
      <trkpt lat="45.36345" lon="4.15789">
        <ele>584.14</ele>
        <time>2014-05-08T04:56:23Z</time>
      </trkpt>
      <trkpt lat="45.36347" lon="4.15777">
        <ele>586.54</ele>
        <time>2014-05-08T04:56:30Z</time>
      </trkpt>
      <trkpt lat="45.3635" lon="4.15766">
        <ele>587.5</ele>
        <time>2014-05-08T04:56:36Z</time>
      </trkpt>
      <trkpt lat="45.36359" lon="4.15739">
        <ele>590.87</ele>
        <time>2014-05-08T04:56:50Z</time>
      </trkpt>
      <trkpt lat="45.3636" lon="4.15736">
        <ele>591.35</ele>
        <time>2014-05-08T04:56:51Z</time>
      </trkpt>
      <trkpt lat="45.36368" lon="4.15714">
        <ele>593.75</ele>
        <time>2014-05-08T04:57:02Z</time>
      </trkpt>
      <trkpt lat="45.36395" lon="4.15693">
        <ele>597.12</ele>
        <time>2014-05-08T04:57:20Z</time>
      </trkpt>
      <trkpt lat="45.36407" lon="4.15676">
        <ele>599.04</ele>
        <time>2014-05-08T04:57:31Z</time>
      </trkpt>
      <trkpt lat="45.3642" lon="4.15664">
        <ele>602.4</ele>
        <time>2014-05-08T04:57:41Z</time>
      </trkpt>
      <trkpt lat="45.36452" lon="4.15647">
        <ele>606.25</ele>
        <time>2014-05-08T04:57:57Z</time>
      </trkpt>
      <trkpt lat="45.36475" lon="4.15642">
        <ele>609.61</ele>
        <time>2014-05-08T04:58:10Z</time>
      </trkpt>
      <trkpt lat="45.36505" lon="4.15638">
        <ele>612.98</ele>
        <time>2014-05-08T04:58:28Z</time>
      </trkpt>
      <trkpt lat="45.36529" lon="4.15633">
        <ele>615.86</ele>
        <time>2014-05-08T04:58:44Z</time>
      </trkpt>
      <trkpt lat="45.36552" lon="4.15621">
        <ele>619.23</ele>
        <time>2014-05-08T04:58:58Z</time>
      </trkpt>
      <trkpt lat="45.36582" lon="4.15612">
        <ele>622.59</ele>
        <time>2014-05-08T04:59:15Z</time>
      </trkpt>
      <trkpt lat="45.36583" lon="4.15612">
        <ele>622.59</ele>
        <time>2014-05-08T04:59:16Z</time>
      </trkpt>
      <trkpt lat="45.36618" lon="4.15613">
        <ele>624.99</ele>
        <time>2014-05-08T04:59:33Z</time>
      </trkpt>
      <trkpt lat="45.36646" lon="4.15618">
        <ele>628.36</ele>
        <time>2014-05-08T04:59:49Z</time>
      </trkpt>
      <trkpt lat="45.36674" lon="4.15626">
        <ele>631.24</ele>
        <time>2014-05-08T05:00:05Z</time>
      </trkpt>
      <trkpt lat="45.3668" lon="4.1563">
        <ele>631.72</ele>
        <time>2014-05-08T05:00:09Z</time>
      </trkpt>
      <trkpt lat="45.36689" lon="4.15635">
        <ele>634.13</ele>
        <time>2014-05-08T05:00:15Z</time>
      </trkpt>
      <trkpt lat="45.36707" lon="4.1565">
        <ele>637.01</ele>
        <time>2014-05-08T05:00:29Z</time>
      </trkpt>
      <trkpt lat="45.36732" lon="4.15678">
        <ele>640.38</ele>
        <time>2014-05-08T05:00:47Z</time>
      </trkpt>
      <trkpt lat="45.36749" lon="4.15696">
        <ele>643.26</ele>
        <time>2014-05-08T05:01:00Z</time>
      </trkpt>
      <trkpt lat="45.36776" lon="4.1572">
        <ele>647.1</ele>
        <time>2014-05-08T05:01:19Z</time>
      </trkpt>
      <trkpt lat="45.36795" lon="4.15739">
        <ele>650.47</ele>
        <time>2014-05-08T05:01:32Z</time>
      </trkpt>
      <trkpt lat="45.36811" lon="4.15748">
        <ele>651.91</ele>
        <time>2014-05-08T05:01:42Z</time>
      </trkpt>
      <trkpt lat="45.36825" lon="4.1576">
        <ele>652.87</ele>
        <time>2014-05-08T05:01:53Z</time>
      </trkpt>
      <trkpt lat="45.36826" lon="4.15761">
        <ele>653.83</ele>
        <time>2014-05-08T05:01:54Z</time>
      </trkpt>
      <trkpt lat="45.36828" lon="4.15761">
        <ele>653.83</ele>
        <time>2014-05-08T05:01:55Z</time>
      </trkpt>
      <trkpt lat="45.36829" lon="4.15763">
        <ele>653.83</ele>
        <time>2014-05-08T05:01:56Z</time>
      </trkpt>
      <trkpt lat="45.36831" lon="4.15764">
        <ele>653.83</ele>
        <time>2014-05-08T05:01:57Z</time>
      </trkpt>
      <trkpt lat="45.36835" lon="4.15769">
        <ele>654.8</ele>
        <time>2014-05-08T05:02:00Z</time>
      </trkpt>
      <trkpt lat="45.36853" lon="4.15779">
        <ele>658.16</ele>
        <time>2014-05-08T05:02:10Z</time>
      </trkpt>
      <trkpt lat="45.36885" lon="4.15794">
        <ele>661.52</ele>
        <time>2014-05-08T05:02:28Z</time>
      </trkpt>
      <trkpt lat="45.36892" lon="4.15796">
        <ele>662.01</ele>
        <time>2014-05-08T05:02:33Z</time>
      </trkpt>
      <trkpt lat="45.36902" lon="4.15798">
        <ele>663.45</ele>
        <time>2014-05-08T05:02:38Z</time>
      </trkpt>
      <trkpt lat="45.3693" lon="4.15807">
        <ele>666.33</ele>
        <time>2014-05-08T05:02:53Z</time>
      </trkpt>
      <trkpt lat="45.36935" lon="4.15808">
        <ele>667.29</ele>
        <time>2014-05-08T05:02:57Z</time>
      </trkpt>
      <trkpt lat="45.36939" lon="4.15811">
        <ele>667.77</ele>
        <time>2014-05-08T05:03:00Z</time>
      </trkpt>
      <trkpt lat="45.3694" lon="4.15812">
        <ele>669.22</ele>
        <time>2014-05-08T05:03:01Z</time>
      </trkpt>
      <trkpt lat="45.3694" lon="4.15813">
        <ele>669.22</ele>
        <time>2014-05-08T05:03:02Z</time>
      </trkpt>
      <trkpt lat="45.36941" lon="4.15815">
        <ele>668.73</ele>
        <time>2014-05-08T05:03:03Z</time>
      </trkpt>
      <trkpt lat="45.36941" lon="4.15816">
        <ele>669.22</ele>
        <time>2014-05-08T05:03:04Z</time>
      </trkpt>
      <trkpt lat="45.36941" lon="4.15817">
        <ele>670.18</ele>
        <time>2014-05-08T05:03:05Z</time>
      </trkpt>
      <trkpt lat="45.36942" lon="4.15818">
        <ele>670.66</ele>
        <time>2014-05-08T05:03:06Z</time>
      </trkpt>
      <trkpt lat="45.36935" lon="4.15827">
        <ele>671.62</ele>
        <time>2014-05-08T05:03:18Z</time>
      </trkpt>
      <trkpt lat="45.36934" lon="4.15828">
        <ele>672.1</ele>
        <time>2014-05-08T05:03:19Z</time>
      </trkpt>
      <trkpt lat="45.3692" lon="4.15834">
        <ele>675.46</ele>
        <time>2014-05-08T05:03:29Z</time>
      </trkpt>
      <trkpt lat="45.36896" lon="4.15851">
        <ele>678.83</ele>
        <time>2014-05-08T05:03:44Z</time>
      </trkpt>
      <trkpt lat="45.36873" lon="4.15858">
        <ele>682.19</ele>
        <time>2014-05-08T05:03:58Z</time>
      </trkpt>
      <trkpt lat="45.36856" lon="4.15865">
        <ele>685.08</ele>
        <time>2014-05-08T05:04:11Z</time>
      </trkpt>
      <trkpt lat="45.36828" lon="4.15886">
        <ele>687.96</ele>
        <time>2014-05-08T05:04:29Z</time>
      </trkpt>
      <trkpt lat="45.36821" lon="4.15925">
        <ele>690.84</ele>
        <time>2014-05-08T05:04:45Z</time>
      </trkpt>
      <trkpt lat="45.36836" lon="4.15955">
        <ele>695.17</ele>
        <time>2014-05-08T05:05:00Z</time>
      </trkpt>
      <trkpt lat="45.36846" lon="4.15961">
        <ele>696.13</ele>
        <time>2014-05-08T05:05:06Z</time>
      </trkpt>
      <trkpt lat="45.36875" lon="4.1598">
        <ele>699.02</ele>
        <time>2014-05-08T05:05:22Z</time>
      </trkpt>
      <trkpt lat="45.36917" lon="4.16001">
        <ele>702.38</ele>
        <time>2014-05-08T05:05:43Z</time>
      </trkpt>
      <trkpt lat="45.36943" lon="4.16013">
        <ele>705.26</ele>
        <time>2014-05-08T05:05:57Z</time>
      </trkpt>
      <trkpt lat="45.36967" lon="4.16034">
        <ele>708.63</ele>
        <time>2014-05-08T05:06:12Z</time>
      </trkpt>
      <trkpt lat="45.36985" lon="4.16054">
        <ele>711.99</ele>
        <time>2014-05-08T05:06:25Z</time>
      </trkpt>
      <trkpt lat="45.36989" lon="4.16056">
        <ele>712.95</ele>
        <time>2014-05-08T05:06:27Z</time>
      </trkpt>
      <trkpt lat="45.3701" lon="4.16045">
        <ele>714.88</ele>
        <time>2014-05-08T05:06:40Z</time>
      </trkpt>
      <trkpt lat="45.37054" lon="4.16012">
        <ele>718.24</ele>
        <time>2014-05-08T05:07:03Z</time>
      </trkpt>
      <trkpt lat="45.37089" lon="4.15993">
        <ele>721.61</ele>
        <time>2014-05-08T05:07:19Z</time>
      </trkpt>
      <trkpt lat="45.37123" lon="4.15981">
        <ele>725.45</ele>
        <time>2014-05-08T05:07:34Z</time>
      </trkpt>
      <trkpt lat="45.37133" lon="4.1598">
        <ele>726.41</ele>
        <time>2014-05-08T05:07:38Z</time>
      </trkpt>
      <trkpt lat="45.37171" lon="4.15979">
        <ele>729.3</ele>
        <time>2014-05-08T05:07:53Z</time>
      </trkpt>
      <trkpt lat="45.37221" lon="4.15972">
        <ele>730.74</ele>
        <time>2014-05-08T05:08:12Z</time>
      </trkpt>
      <trkpt lat="45.37272" lon="4.15976">
        <ele>731.22</ele>
        <time>2014-05-08T05:08:28Z</time>
      </trkpt>
      <trkpt lat="45.37274" lon="4.15979">
        <ele>731.22</ele>
        <time>2014-05-08T05:08:39Z</time>
      </trkpt>
      <trkpt lat="45.37276" lon="4.15981">
        <ele>731.7</ele>
        <time>2014-05-08T05:08:54Z</time>
      </trkpt>
      <trkpt lat="45.37279" lon="4.15978">
        <ele>731.22</ele>
        <time>2014-05-08T05:09:11Z</time>
      </trkpt>
      <trkpt lat="45.37278" lon="4.1598">
        <ele>730.74</ele>
        <time>2014-05-08T05:09:39Z</time>
      </trkpt>
      <trkpt lat="45.37278" lon="4.15984">
        <ele>730.74</ele>
        <time>2014-05-08T05:10:11Z</time>
      </trkpt>
      <trkpt lat="45.37278" lon="4.15981">
        <ele>731.22</ele>
        <time>2014-05-08T05:10:31Z</time>
      </trkpt>
      <trkpt lat="45.37275" lon="4.15977">
        <ele>731.7</ele>
        <time>2014-05-08T05:10:54Z</time>
      </trkpt>
      <trkpt lat="45.37276" lon="4.15977">
        <ele>731.22</ele>
        <time>2014-05-08T05:11:12Z</time>
      </trkpt>
      <trkpt lat="45.37277" lon="4.15977">
        <ele>731.7</ele>
        <time>2014-05-08T05:11:13Z</time>
      </trkpt>
      <trkpt lat="45.37278" lon="4.15978">
        <ele>731.7</ele>
        <time>2014-05-08T05:11:14Z</time>
      </trkpt>
      <trkpt lat="45.37279" lon="4.15978">
        <ele>731.7</ele>
        <time>2014-05-08T05:11:15Z</time>
      </trkpt>
      <trkpt lat="45.37281" lon="4.15978">
        <ele>731.7</ele>
        <time>2014-05-08T05:11:16Z</time>
      </trkpt>
      <trkpt lat="45.37321" lon="4.15967">
        <ele>732.18</ele>
        <time>2014-05-08T05:11:31Z</time>
      </trkpt>
      <trkpt lat="45.37369" lon="4.15952">
        <ele>735.07</ele>
        <time>2014-05-08T05:11:47Z</time>
      </trkpt>
      <trkpt lat="45.37415" lon="4.15941">
        <ele>738.91</ele>
        <time>2014-05-08T05:12:04Z</time>
      </trkpt>
      <trkpt lat="45.3744" lon="4.15937">
        <ele>741.79</ele>
        <time>2014-05-08T05:12:16Z</time>
      </trkpt>
      <trkpt lat="45.37455" lon="4.15935">
        <ele>745.16</ele>
        <time>2014-05-08T05:12:24Z</time>
      </trkpt>
      <trkpt lat="45.37456" lon="4.15935">
        <ele>745.16</ele>
        <time>2014-05-08T05:12:25Z</time>
      </trkpt>
      <trkpt lat="45.37482" lon="4.15928">
        <ele>748.52</ele>
        <time>2014-05-08T05:12:39Z</time>
      </trkpt>
      <trkpt lat="45.37512" lon="4.15924">
        <ele>752.37</ele>
        <time>2014-05-08T05:12:55Z</time>
      </trkpt>
      <trkpt lat="45.37531" lon="4.15918">
        <ele>755.25</ele>
        <time>2014-05-08T05:13:06Z</time>
      </trkpt>
      <trkpt lat="45.37555" lon="4.1589">
        <ele>757.66</ele>
        <time>2014-05-08T05:13:22Z</time>
      </trkpt>
      <trkpt lat="45.37584" lon="4.1586">
        <ele>761.02</ele>
        <time>2014-05-08T05:13:40Z</time>
      </trkpt>
      <trkpt lat="45.3761" lon="4.1582">
        <ele>763.9</ele>
        <time>2014-05-08T05:13:58Z</time>
      </trkpt>
      <trkpt lat="45.37651" lon="4.1578">
        <ele>761.98</ele>
        <time>2014-05-08T05:14:17Z</time>
      </trkpt>
      <trkpt lat="45.37715" lon="4.15724">
        <ele>760.54</ele>
        <time>2014-05-08T05:14:36Z</time>
      </trkpt>
      <trkpt lat="45.37765" lon="4.15677">
        <ele>760.54</ele>
        <time>2014-05-08T05:14:50Z</time>
      </trkpt>
      <trkpt lat="45.37814" lon="4.15682">
        <ele>763.42</ele>
        <time>2014-05-08T05:15:04Z</time>
      </trkpt>
      <trkpt lat="45.37829" lon="4.15682">
        <ele>765.35</ele>
        <time>2014-05-08T05:15:08Z</time>
      </trkpt>
      <trkpt lat="45.37834" lon="4.15681">
        <ele>765.83</ele>
        <time>2014-05-08T05:15:10Z</time>
      </trkpt>
      <trkpt lat="45.37837" lon="4.15682">
        <ele>765.83</ele>
        <time>2014-05-08T05:15:11Z</time>
      </trkpt>
      <trkpt lat="45.37838" lon="4.15684">
        <ele>766.31</ele>
        <time>2014-05-08T05:15:12Z</time>
      </trkpt>
      <trkpt lat="45.37839" lon="4.15686">
        <ele>765.35</ele>
        <time>2014-05-08T05:15:13Z</time>
      </trkpt>
      <trkpt lat="45.37841" lon="4.15689">
        <ele>766.31</ele>
        <time>2014-05-08T05:15:14Z</time>
      </trkpt>
      <trkpt lat="45.37853" lon="4.15738">
        <ele>767.75</ele>
        <time>2014-05-08T05:15:29Z</time>
      </trkpt>
      <trkpt lat="45.37869" lon="4.15757">
        <ele>771.11</ele>
        <time>2014-05-08T05:15:39Z</time>
      </trkpt>
      <trkpt lat="45.37889" lon="4.15743">
        <ele>772.56</ele>
        <time>2014-05-08T05:15:51Z</time>
      </trkpt>
      <trkpt lat="45.37921" lon="4.15693">
        <ele>773.04</ele>
        <time>2014-05-08T05:16:09Z</time>
      </trkpt>
      <trkpt lat="45.37964" lon="4.15639">
        <ele>772.08</ele>
        <time>2014-05-08T05:16:24Z</time>
      </trkpt>
      <trkpt lat="45.38003" lon="4.15554">
        <ele>771.11</ele>
        <time>2014-05-08T05:16:42Z</time>
      </trkpt>
      <trkpt lat="45.38009" lon="4.15551">
        <ele>771.6</ele>
        <time>2014-05-08T05:16:44Z</time>
      </trkpt>
      <trkpt lat="45.38011" lon="4.15552">
        <ele>771.11</ele>
        <time>2014-05-08T05:16:45Z</time>
      </trkpt>
      <trkpt lat="45.38014" lon="4.15554">
        <ele>772.08</ele>
        <time>2014-05-08T05:16:46Z</time>
      </trkpt>
      <trkpt lat="45.38017" lon="4.15555">
        <ele>772.56</ele>
        <time>2014-05-08T05:16:47Z</time>
      </trkpt>
      <trkpt lat="45.3802" lon="4.15557">
        <ele>772.56</ele>
        <time>2014-05-08T05:16:48Z</time>
      </trkpt>
      <trkpt lat="45.38022" lon="4.15558">
        <ele>772.08</ele>
        <time>2014-05-08T05:16:49Z</time>
      </trkpt>
      <trkpt lat="45.3803" lon="4.1557">
        <ele>774</ele>
        <time>2014-05-08T05:16:54Z</time>
      </trkpt>
      <trkpt lat="45.38036" lon="4.15624">
        <ele>775.44</ele>
        <time>2014-05-08T05:17:10Z</time>
      </trkpt>
      <trkpt lat="45.38037" lon="4.15685">
        <ele>778.32</ele>
        <time>2014-05-08T05:17:29Z</time>
      </trkpt>
      <trkpt lat="45.38039" lon="4.15729">
        <ele>781.69</ele>
        <time>2014-05-08T05:17:41Z</time>
      </trkpt>
      <trkpt lat="45.38047" lon="4.1576">
        <ele>785.05</ele>
        <time>2014-05-08T05:17:53Z</time>
      </trkpt>
      <trkpt lat="45.38051" lon="4.15794">
        <ele>787.94</ele>
        <time>2014-05-08T05:18:07Z</time>
      </trkpt>
      <trkpt lat="45.38055" lon="4.15819">
        <ele>791.3</ele>
        <time>2014-05-08T05:18:20Z</time>
      </trkpt>
      <trkpt lat="45.38057" lon="4.15832">
        <ele>792.74</ele>
        <time>2014-05-08T05:18:27Z</time>
      </trkpt>
      <trkpt lat="45.38064" lon="4.15836">
        <ele>794.67</ele>
        <time>2014-05-08T05:18:34Z</time>
      </trkpt>
      <trkpt lat="45.38065" lon="4.15833">
        <ele>796.11</ele>
        <time>2014-05-08T05:18:37Z</time>
      </trkpt>
      <trkpt lat="45.38068" lon="4.15824">
        <ele>798.03</ele>
        <time>2014-05-08T05:18:42Z</time>
      </trkpt>
      <trkpt lat="45.38077" lon="4.15808">
        <ele>800.92</ele>
        <time>2014-05-08T05:18:53Z</time>
      </trkpt>
      <trkpt lat="45.38094" lon="4.15792">
        <ele>804.28</ele>
        <time>2014-05-08T05:19:08Z</time>
      </trkpt>
      <trkpt lat="45.38096" lon="4.1579">
        <ele>804.28</ele>
        <time>2014-05-08T05:19:09Z</time>
      </trkpt>
      <trkpt lat="45.38098" lon="4.1579">
        <ele>804.76</ele>
        <time>2014-05-08T05:19:10Z</time>
      </trkpt>
      <trkpt lat="45.381" lon="4.15791">
        <ele>805.24</ele>
        <time>2014-05-08T05:19:11Z</time>
      </trkpt>
      <trkpt lat="45.38101" lon="4.15791">
        <ele>805.24</ele>
        <time>2014-05-08T05:19:12Z</time>
      </trkpt>
      <trkpt lat="45.38101" lon="4.15793">
        <ele>805.24</ele>
        <time>2014-05-08T05:19:13Z</time>
      </trkpt>
      <trkpt lat="45.38101" lon="4.15794">
        <ele>805.24</ele>
        <time>2014-05-08T05:19:14Z</time>
      </trkpt>
      <trkpt lat="45.38101" lon="4.15796">
        <ele>806.68</ele>
        <time>2014-05-08T05:19:15Z</time>
      </trkpt>
      <trkpt lat="45.38101" lon="4.15798">
        <ele>806.68</ele>
        <time>2014-05-08T05:19:16Z</time>
      </trkpt>
      <trkpt lat="45.38101" lon="4.158">
        <ele>807.16</ele>
        <time>2014-05-08T05:19:17Z</time>
      </trkpt>
      <trkpt lat="45.381" lon="4.1581">
        <ele>807.64</ele>
        <time>2014-05-08T05:19:23Z</time>
      </trkpt>
      <trkpt lat="45.38101" lon="4.15812">
        <ele>807.64</ele>
        <time>2014-05-08T05:19:24Z</time>
      </trkpt>
      <trkpt lat="45.38102" lon="4.15814">
        <ele>808.61</ele>
        <time>2014-05-08T05:19:25Z</time>
      </trkpt>
      <trkpt lat="45.38103" lon="4.15816">
        <ele>807.64</ele>
        <time>2014-05-08T05:19:26Z</time>
      </trkpt>
      <trkpt lat="45.38105" lon="4.15819">
        <ele>808.13</ele>
        <time>2014-05-08T05:19:27Z</time>
      </trkpt>
      <trkpt lat="45.38124" lon="4.15854">
        <ele>809.57</ele>
        <time>2014-05-08T05:19:45Z</time>
      </trkpt>
      <trkpt lat="45.38147" lon="4.15919">
        <ele>808.61</ele>
        <time>2014-05-08T05:19:57Z</time>
      </trkpt>
      <trkpt lat="45.38121" lon="4.15992">
        <ele>807.64</ele>
        <time>2014-05-08T05:20:10Z</time>
      </trkpt>
      <trkpt lat="45.38113" lon="4.16015">
        <ele>807.16</ele>
        <time>2014-05-08T05:20:14Z</time>
      </trkpt>
      <trkpt lat="45.38111" lon="4.16021">
        <ele>807.64</ele>
        <time>2014-05-08T05:20:15Z</time>
      </trkpt>
      <trkpt lat="45.3811" lon="4.16027">
        <ele>807.16</ele>
        <time>2014-05-08T05:20:16Z</time>
      </trkpt>
      <trkpt lat="45.38109" lon="4.16034">
        <ele>807.16</ele>
        <time>2014-05-08T05:20:17Z</time>
      </trkpt>
      <trkpt lat="45.38108" lon="4.16041">
        <ele>807.16</ele>
        <time>2014-05-08T05:20:18Z</time>
      </trkpt>
      <trkpt lat="45.38107" lon="4.16047">
        <ele>807.64</ele>
        <time>2014-05-08T05:20:19Z</time>
      </trkpt>
      <trkpt lat="45.38102" lon="4.16094">
        <ele>809.57</ele>
        <time>2014-05-08T05:20:27Z</time>
      </trkpt>
      <trkpt lat="45.38096" lon="4.16144">
        <ele>811.49</ele>
        <time>2014-05-08T05:20:37Z</time>
      </trkpt>
      <trkpt lat="45.38097" lon="4.16149">
        <ele>811.01</ele>
        <time>2014-05-08T05:20:38Z</time>
      </trkpt>
      <trkpt lat="45.381" lon="4.16155">
        <ele>811.01</ele>
        <time>2014-05-08T05:20:39Z</time>
      </trkpt>
      <trkpt lat="45.38102" lon="4.16161">
        <ele>811.49</ele>
        <time>2014-05-08T05:20:40Z</time>
      </trkpt>
      <trkpt lat="45.38106" lon="4.16167">
        <ele>811.49</ele>
        <time>2014-05-08T05:20:41Z</time>
      </trkpt>
      <trkpt lat="45.3811" lon="4.16172">
        <ele>811.49</ele>
        <time>2014-05-08T05:20:42Z</time>
      </trkpt>
      <trkpt lat="45.38113" lon="4.16177">
        <ele>810.53</ele>
        <time>2014-05-08T05:20:43Z</time>
      </trkpt>
      <trkpt lat="45.38117" lon="4.16182">
        <ele>811.01</ele>
        <time>2014-05-08T05:20:44Z</time>
      </trkpt>
      <trkpt lat="45.38133" lon="4.16211">
        <ele>810.05</ele>
        <time>2014-05-08T05:20:50Z</time>
      </trkpt>
      <trkpt lat="45.38135" lon="4.16217">
        <ele>810.05</ele>
        <time>2014-05-08T05:20:51Z</time>
      </trkpt>
      <trkpt lat="45.38155" lon="4.16291">
        <ele>807.16</ele>
        <time>2014-05-08T05:21:01Z</time>
      </trkpt>
      <trkpt lat="45.38177" lon="4.16394">
        <ele>803.8</ele>
        <time>2014-05-08T05:21:13Z</time>
      </trkpt>
      <trkpt lat="45.38197" lon="4.16454">
        <ele>801.4</ele>
        <time>2014-05-08T05:21:21Z</time>
      </trkpt>
      <trkpt lat="45.38202" lon="4.16456">
        <ele>800.92</ele>
        <time>2014-05-08T05:21:22Z</time>
      </trkpt>
      <trkpt lat="45.38206" lon="4.16456">
        <ele>799.47</ele>
        <time>2014-05-08T05:21:23Z</time>
      </trkpt>
      <trkpt lat="45.38211" lon="4.16454">
        <ele>799.95</ele>
        <time>2014-05-08T05:21:24Z</time>
      </trkpt>
      <trkpt lat="45.38216" lon="4.16452">
        <ele>799.47</ele>
        <time>2014-05-08T05:21:25Z</time>
      </trkpt>
      <trkpt lat="45.38221" lon="4.1645">
        <ele>799.47</ele>
        <time>2014-05-08T05:21:26Z</time>
      </trkpt>
      <trkpt lat="45.38255" lon="4.16432">
        <ele>797.55</ele>
        <time>2014-05-08T05:21:32Z</time>
      </trkpt>
      <trkpt lat="45.38281" lon="4.16428">
        <ele>793.71</ele>
        <time>2014-05-08T05:21:36Z</time>
      </trkpt>
      <trkpt lat="45.38287" lon="4.16428">
        <ele>793.22</ele>
        <time>2014-05-08T05:21:37Z</time>
      </trkpt>
      <trkpt lat="45.38293" lon="4.16429">
        <ele>791.78</ele>
        <time>2014-05-08T05:21:38Z</time>
      </trkpt>
      <trkpt lat="45.38303" lon="4.16432">
        <ele>788.42</ele>
        <time>2014-05-08T05:21:40Z</time>
      </trkpt>
      <trkpt lat="45.38309" lon="4.16435">
        <ele>787.94</ele>
        <time>2014-05-08T05:21:41Z</time>
      </trkpt>
      <trkpt lat="45.38314" lon="4.1644">
        <ele>786.98</ele>
        <time>2014-05-08T05:21:42Z</time>
      </trkpt>
      <trkpt lat="45.38318" lon="4.16448">
        <ele>784.57</ele>
        <time>2014-05-08T05:21:43Z</time>
      </trkpt>
      <trkpt lat="45.38323" lon="4.16457">
        <ele>782.65</ele>
        <time>2014-05-08T05:21:44Z</time>
      </trkpt>
      <trkpt lat="45.38332" lon="4.16475">
        <ele>779.29</ele>
        <time>2014-05-08T05:21:46Z</time>
      </trkpt>
      <trkpt lat="45.38342" lon="4.16492">
        <ele>774.48</ele>
        <time>2014-05-08T05:21:48Z</time>
      </trkpt>
      <trkpt lat="45.38351" lon="4.16508">
        <ele>771.6</ele>
        <time>2014-05-08T05:21:50Z</time>
      </trkpt>
      <trkpt lat="45.38362" lon="4.16527">
        <ele>767.27</ele>
        <time>2014-05-08T05:21:53Z</time>
      </trkpt>
      <trkpt lat="45.38371" lon="4.16541">
        <ele>762.94</ele>
        <time>2014-05-08T05:21:57Z</time>
      </trkpt>
      <trkpt lat="45.38375" lon="4.16544">
        <ele>759.1</ele>
        <time>2014-05-08T05:21:59Z</time>
      </trkpt>
      <trkpt lat="45.38383" lon="4.16554">
        <ele>756.69</ele>
        <time>2014-05-08T05:22:02Z</time>
      </trkpt>
      <trkpt lat="45.38409" lon="4.16593">
        <ele>754.29</ele>
        <time>2014-05-08T05:22:12Z</time>
      </trkpt>
      <trkpt lat="45.3843" lon="4.16596">
        <ele>752.85</ele>
        <time>2014-05-08T05:22:15Z</time>
      </trkpt>
      <trkpt lat="45.38453" lon="4.16597">
        <ele>751.89</ele>
        <time>2014-05-08T05:22:19Z</time>
      </trkpt>
      <trkpt lat="45.38479" lon="4.16587">
        <ele>751.89</ele>
        <time>2014-05-08T05:22:24Z</time>
      </trkpt>
      <trkpt lat="45.38483" lon="4.16587">
        <ele>751.89</ele>
        <time>2014-05-08T05:22:25Z</time>
      </trkpt>
      <trkpt lat="45.38487" lon="4.16588">
        <ele>752.37</ele>
        <time>2014-05-08T05:22:26Z</time>
      </trkpt>
      <trkpt lat="45.38505" lon="4.16589">
        <ele>755.25</ele>
        <time>2014-05-08T05:22:33Z</time>
      </trkpt>
      <trkpt lat="45.38511" lon="4.16595">
        <ele>757.18</ele>
        <time>2014-05-08T05:22:37Z</time>
      </trkpt>
      <trkpt lat="45.38509" lon="4.16602">
        <ele>760.06</ele>
        <time>2014-05-08T05:22:42Z</time>
      </trkpt>
      <trkpt lat="45.38504" lon="4.1661">
        <ele>761.98</ele>
        <time>2014-05-08T05:22:49Z</time>
      </trkpt>
      <trkpt lat="45.38506" lon="4.16629">
        <ele>765.35</ele>
        <time>2014-05-08T05:22:57Z</time>
      </trkpt>
      <trkpt lat="45.38524" lon="4.16679">
        <ele>767.75</ele>
        <time>2014-05-08T05:23:16Z</time>
      </trkpt>
      <trkpt lat="45.38533" lon="4.16692">
        <ele>769.19</ele>
        <time>2014-05-08T05:23:21Z</time>
      </trkpt>
      <trkpt lat="45.38548" lon="4.1672">
        <ele>771.6</ele>
        <time>2014-05-08T05:23:29Z</time>
      </trkpt>
      <trkpt lat="45.38574" lon="4.16782">
        <ele>769.67</ele>
        <time>2014-05-08T05:23:45Z</time>
      </trkpt>
      <trkpt lat="45.38592" lon="4.16847">
        <ele>770.15</ele>
        <time>2014-05-08T05:23:59Z</time>
      </trkpt>
      <trkpt lat="45.38598" lon="4.16859">
        <ele>770.15</ele>
        <time>2014-05-08T05:24:01Z</time>
      </trkpt>
      <trkpt lat="45.38601" lon="4.16862">
        <ele>769.67</ele>
        <time>2014-05-08T05:24:02Z</time>
      </trkpt>
      <trkpt lat="45.38607" lon="4.16866">
        <ele>768.71</ele>
        <time>2014-05-08T05:24:03Z</time>
      </trkpt>
      <trkpt lat="45.38652" lon="4.16915">
        <ele>771.11</ele>
        <time>2014-05-08T05:24:16Z</time>
      </trkpt>
      <trkpt lat="45.38665" lon="4.16944">
        <ele>774.48</ele>
        <time>2014-05-08T05:24:25Z</time>
      </trkpt>
      <trkpt lat="45.38685" lon="4.16993">
        <ele>777.36</ele>
        <time>2014-05-08T05:24:42Z</time>
      </trkpt>
      <trkpt lat="45.38684" lon="4.17029">
        <ele>780.73</ele>
        <time>2014-05-08T05:24:53Z</time>
      </trkpt>
      <trkpt lat="45.38683" lon="4.17077">
        <ele>784.57</ele>
        <time>2014-05-08T05:25:09Z</time>
      </trkpt>
      <trkpt lat="45.38686" lon="4.17124">
        <ele>787.94</ele>
        <time>2014-05-08T05:25:24Z</time>
      </trkpt>
      <trkpt lat="45.38687" lon="4.17157">
        <ele>791.78</ele>
        <time>2014-05-08T05:25:35Z</time>
      </trkpt>
      <trkpt lat="45.38691" lon="4.17194">
        <ele>795.15</ele>
        <time>2014-05-08T05:25:48Z</time>
      </trkpt>
      <trkpt lat="45.38696" lon="4.17207">
        <ele>796.59</ele>
        <time>2014-05-08T05:25:52Z</time>
      </trkpt>
      <trkpt lat="45.38709" lon="4.17237">
        <ele>800.44</ele>
        <time>2014-05-08T05:26:04Z</time>
      </trkpt>
      <trkpt lat="45.38709" lon="4.17239">
        <ele>800.44</ele>
        <time>2014-05-08T05:26:05Z</time>
      </trkpt>
      <trkpt lat="45.38715" lon="4.17274">
        <ele>803.8</ele>
        <time>2014-05-08T05:26:19Z</time>
      </trkpt>
      <trkpt lat="45.38714" lon="4.17282">
        <ele>805.72</ele>
        <time>2014-05-08T05:26:22Z</time>
      </trkpt>
      <trkpt lat="45.38711" lon="4.17296">
        <ele>807.64</ele>
        <time>2014-05-08T05:26:28Z</time>
      </trkpt>
      <trkpt lat="45.38712" lon="4.17299">
        <ele>807.64</ele>
        <time>2014-05-08T05:26:29Z</time>
      </trkpt>
      <trkpt lat="45.38713" lon="4.17302">
        <ele>808.13</ele>
        <time>2014-05-08T05:26:30Z</time>
      </trkpt>
      <trkpt lat="45.38714" lon="4.17304">
        <ele>808.13</ele>
        <time>2014-05-08T05:26:31Z</time>
      </trkpt>
      <trkpt lat="45.38716" lon="4.17306">
        <ele>807.64</ele>
        <time>2014-05-08T05:26:32Z</time>
      </trkpt>
      <trkpt lat="45.38744" lon="4.17324">
        <ele>810.53</ele>
        <time>2014-05-08T05:26:50Z</time>
      </trkpt>
      <trkpt lat="45.38754" lon="4.1733">
        <ele>812.93</ele>
        <time>2014-05-08T05:26:56Z</time>
      </trkpt>
      <trkpt lat="45.38778" lon="4.17337">
        <ele>815.34</ele>
        <time>2014-05-08T05:27:09Z</time>
      </trkpt>
      <trkpt lat="45.38788" lon="4.17366">
        <ele>816.78</ele>
        <time>2014-05-08T05:27:22Z</time>
      </trkpt>
      <trkpt lat="45.38791" lon="4.17419">
        <ele>818.7</ele>
        <time>2014-05-08T05:27:40Z</time>
      </trkpt>
      <trkpt lat="45.38799" lon="4.17448">
        <ele>821.58</ele>
        <time>2014-05-08T05:27:50Z</time>
      </trkpt>
      <trkpt lat="45.38823" lon="4.17467">
        <ele>824.95</ele>
        <time>2014-05-08T05:28:03Z</time>
      </trkpt>
      <trkpt lat="45.38842" lon="4.17491">
        <ele>827.83</ele>
        <time>2014-05-08T05:28:15Z</time>
      </trkpt>
      <trkpt lat="45.38856" lon="4.17508">
        <ele>831.2</ele>
        <time>2014-05-08T05:28:24Z</time>
      </trkpt>
      <trkpt lat="45.38882" lon="4.17522">
        <ele>834.56</ele>
        <time>2014-05-08T05:28:38Z</time>
      </trkpt>
      <trkpt lat="45.38921" lon="4.1753">
        <ele>836.96</ele>
        <time>2014-05-08T05:28:54Z</time>
      </trkpt>
      <trkpt lat="45.3895" lon="4.1758">
        <ele>838.41</ele>
        <time>2014-05-08T05:29:12Z</time>
      </trkpt>
      <trkpt lat="45.38954" lon="4.17594">
        <ele>839.37</ele>
        <time>2014-05-08T05:29:16Z</time>
      </trkpt>
      <trkpt lat="45.38975" lon="4.17641">
        <ele>839.37</ele>
        <time>2014-05-08T05:29:30Z</time>
      </trkpt>
      <trkpt lat="45.38985" lon="4.17677">
        <ele>838.41</ele>
        <time>2014-05-08T05:29:36Z</time>
      </trkpt>
      <trkpt lat="45.38989" lon="4.17684">
        <ele>836.96</ele>
        <time>2014-05-08T05:29:37Z</time>
      </trkpt>
      <trkpt lat="45.38994" lon="4.17689">
        <ele>836</ele>
        <time>2014-05-08T05:29:38Z</time>
      </trkpt>
      <trkpt lat="45.39" lon="4.17692">
        <ele>836</ele>
        <time>2014-05-08T05:29:39Z</time>
      </trkpt>
      <trkpt lat="45.39007" lon="4.17694">
        <ele>834.56</ele>
        <time>2014-05-08T05:29:40Z</time>
      </trkpt>
      <trkpt lat="45.39015" lon="4.17694">
        <ele>834.56</ele>
        <time>2014-05-08T05:29:41Z</time>
      </trkpt>
      <trkpt lat="45.39023" lon="4.17695">
        <ele>833.6</ele>
        <time>2014-05-08T05:29:42Z</time>
      </trkpt>
      <trkpt lat="45.39033" lon="4.17698">
        <ele>833.12</ele>
        <time>2014-05-08T05:29:43Z</time>
      </trkpt>
      <trkpt lat="45.39053" lon="4.17707">
        <ele>829.76</ele>
        <time>2014-05-08T05:29:45Z</time>
      </trkpt>
      <trkpt lat="45.39087" lon="4.17722">
        <ele>826.39</ele>
        <time>2014-05-08T05:29:48Z</time>
      </trkpt>
      <trkpt lat="45.39123" lon="4.17737">
        <ele>823.03</ele>
        <time>2014-05-08T05:29:51Z</time>
      </trkpt>
      <trkpt lat="45.3918" lon="4.17757">
        <ele>820.14</ele>
        <time>2014-05-08T05:29:56Z</time>
      </trkpt>
      <trkpt lat="45.3919" lon="4.17758">
        <ele>819.66</ele>
        <time>2014-05-08T05:29:57Z</time>
      </trkpt>
      <trkpt lat="45.39219" lon="4.17759">
        <ele>818.22</ele>
        <time>2014-05-08T05:30:00Z</time>
      </trkpt>
      <trkpt lat="45.39229" lon="4.17764">
        <ele>817.74</ele>
        <time>2014-05-08T05:30:01Z</time>
      </trkpt>
      <trkpt lat="45.39238" lon="4.17769">
        <ele>818.22</ele>
        <time>2014-05-08T05:30:02Z</time>
      </trkpt>
      <trkpt lat="45.39306" lon="4.17837">
        <ele>816.78</ele>
        <time>2014-05-08T05:30:12Z</time>
      </trkpt>
      <trkpt lat="45.3931" lon="4.17844">
        <ele>816.78</ele>
        <time>2014-05-08T05:30:13Z</time>
      </trkpt>
      <trkpt lat="45.39312" lon="4.17852">
        <ele>816.3</ele>
        <time>2014-05-08T05:30:14Z</time>
      </trkpt>
      <trkpt lat="45.39312" lon="4.1786">
        <ele>817.26</ele>
        <time>2014-05-08T05:30:15Z</time>
      </trkpt>
      <trkpt lat="45.39311" lon="4.17869">
        <ele>816.3</ele>
        <time>2014-05-08T05:30:16Z</time>
      </trkpt>
      <trkpt lat="45.39304" lon="4.17985">
        <ele>813.41</ele>
        <time>2014-05-08T05:30:27Z</time>
      </trkpt>
      <trkpt lat="45.3928" lon="4.18091">
        <ele>809.57</ele>
        <time>2014-05-08T05:30:36Z</time>
      </trkpt>
      <trkpt lat="45.39249" lon="4.18177">
        <ele>806.2</ele>
        <time>2014-05-08T05:30:44Z</time>
      </trkpt>
      <trkpt lat="45.39245" lon="4.18187">
        <ele>805.72</ele>
        <time>2014-05-08T05:30:45Z</time>
      </trkpt>
      <trkpt lat="45.3923" lon="4.18229">
        <ele>801.88</ele>
        <time>2014-05-08T05:30:49Z</time>
      </trkpt>
      <trkpt lat="45.39228" lon="4.1824">
        <ele>800.92</ele>
        <time>2014-05-08T05:30:50Z</time>
      </trkpt>
      <trkpt lat="45.39228" lon="4.18252">
        <ele>799.95</ele>
        <time>2014-05-08T05:30:51Z</time>
      </trkpt>
      <trkpt lat="45.39228" lon="4.18264">
        <ele>798.99</ele>
        <time>2014-05-08T05:30:52Z</time>
      </trkpt>
      <trkpt lat="45.39228" lon="4.18277">
        <ele>798.03</ele>
        <time>2014-05-08T05:30:53Z</time>
      </trkpt>
      <trkpt lat="45.39228" lon="4.18363">
        <ele>795.63</ele>
        <time>2014-05-08T05:31:00Z</time>
      </trkpt>
      <trkpt lat="45.39231" lon="4.18383">
        <ele>796.59</ele>
        <time>2014-05-08T05:31:02Z</time>
      </trkpt>
      <trkpt lat="45.39246" lon="4.18438">
        <ele>796.59</ele>
        <time>2014-05-08T05:31:09Z</time>
      </trkpt>
      <trkpt lat="45.39261" lon="4.18468">
        <ele>795.15</ele>
        <time>2014-05-08T05:31:13Z</time>
      </trkpt>
      <trkpt lat="45.39267" lon="4.18471">
        <ele>795.15</ele>
        <time>2014-05-08T05:31:14Z</time>
      </trkpt>
      <trkpt lat="45.39274" lon="4.18471">
        <ele>794.67</ele>
        <time>2014-05-08T05:31:15Z</time>
      </trkpt>
      <trkpt lat="45.39283" lon="4.1847">
        <ele>793.71</ele>
        <time>2014-05-08T05:31:16Z</time>
      </trkpt>
      <trkpt lat="45.39291" lon="4.18467">
        <ele>793.22</ele>
        <time>2014-05-08T05:31:17Z</time>
      </trkpt>
      <trkpt lat="45.39329" lon="4.18459">
        <ele>789.86</ele>
        <time>2014-05-08T05:31:21Z</time>
      </trkpt>
      <trkpt lat="45.39339" lon="4.1846">
        <ele>789.86</ele>
        <time>2014-05-08T05:31:22Z</time>
      </trkpt>
      <trkpt lat="45.39348" lon="4.18461">
        <ele>789.38</ele>
        <time>2014-05-08T05:31:23Z</time>
      </trkpt>
      <trkpt lat="45.39356" lon="4.18463">
        <ele>788.9</ele>
        <time>2014-05-08T05:31:24Z</time>
      </trkpt>
      <trkpt lat="45.39363" lon="4.18467">
        <ele>789.86</ele>
        <time>2014-05-08T05:31:25Z</time>
      </trkpt>
      <trkpt lat="45.39369" lon="4.18469">
        <ele>789.86</ele>
        <time>2014-05-08T05:31:26Z</time>
      </trkpt>
      <trkpt lat="45.39378" lon="4.18472">
        <ele>792.74</ele>
        <time>2014-05-08T05:31:28Z</time>
      </trkpt>
      <trkpt lat="45.39387" lon="4.18476">
        <ele>794.19</ele>
        <time>2014-05-08T05:31:35Z</time>
      </trkpt>
      <trkpt lat="45.3939" lon="4.18471">
        <ele>796.11</ele>
        <time>2014-05-08T05:31:47Z</time>
      </trkpt>
      <trkpt lat="45.39412" lon="4.18481">
        <ele>798.99</ele>
        <time>2014-05-08T05:31:56Z</time>
      </trkpt>
      <trkpt lat="45.3946" lon="4.185">
        <ele>802.84</ele>
        <time>2014-05-08T05:32:10Z</time>
      </trkpt>
      <trkpt lat="45.39519" lon="4.18543">
        <ele>805.72</ele>
        <time>2014-05-08T05:32:29Z</time>
      </trkpt>
      <trkpt lat="45.39576" lon="4.18565">
        <ele>805.24</ele>
        <time>2014-05-08T05:32:44Z</time>
      </trkpt>
      <trkpt lat="45.39581" lon="4.18564">
        <ele>805.24</ele>
        <time>2014-05-08T05:32:45Z</time>
      </trkpt>
      <trkpt lat="45.39625" lon="4.1856">
        <ele>802.84</ele>
        <time>2014-05-08T05:32:52Z</time>
      </trkpt>
      <trkpt lat="45.39707" lon="4.18539">
        <ele>799.47</ele>
        <time>2014-05-08T05:33:05Z</time>
      </trkpt>
      <trkpt lat="45.39746" lon="4.18515">
        <ele>799.47</ele>
        <time>2014-05-08T05:33:12Z</time>
      </trkpt>
      <trkpt lat="45.39752" lon="4.18513">
        <ele>799.47</ele>
        <time>2014-05-08T05:33:13Z</time>
      </trkpt>
      <trkpt lat="45.39758" lon="4.18512">
        <ele>799.47</ele>
        <time>2014-05-08T05:33:14Z</time>
      </trkpt>
      <trkpt lat="45.39765" lon="4.18512">
        <ele>799.95</ele>
        <time>2014-05-08T05:33:15Z</time>
      </trkpt>
      <trkpt lat="45.39771" lon="4.18513">
        <ele>799.95</ele>
        <time>2014-05-08T05:33:16Z</time>
      </trkpt>
      <trkpt lat="45.39777" lon="4.18515">
        <ele>799.95</ele>
        <time>2014-05-08T05:33:17Z</time>
      </trkpt>
      <trkpt lat="45.39783" lon="4.18517">
        <ele>800.44</ele>
        <time>2014-05-08T05:33:18Z</time>
      </trkpt>
      <trkpt lat="45.39811" lon="4.18528">
        <ele>801.88</ele>
        <time>2014-05-08T05:33:23Z</time>
      </trkpt>
      <trkpt lat="45.39846" lon="4.18533">
        <ele>805.24</ele>
        <time>2014-05-08T05:33:33Z</time>
      </trkpt>
      <trkpt lat="45.39866" lon="4.18523">
        <ele>806.68</ele>
        <time>2014-05-08T05:33:39Z</time>
      </trkpt>
      <trkpt lat="45.39923" lon="4.18503">
        <ele>809.09</ele>
        <time>2014-05-08T05:33:56Z</time>
      </trkpt>
      <trkpt lat="45.39985" lon="4.18483">
        <ele>808.61</ele>
        <time>2014-05-08T05:34:13Z</time>
      </trkpt>
      <trkpt lat="45.40037" lon="4.18497">
        <ele>810.05</ele>
        <time>2014-05-08T05:34:26Z</time>
      </trkpt>
      <trkpt lat="45.40041" lon="4.185">
        <ele>809.57</ele>
        <time>2014-05-08T05:34:27Z</time>
      </trkpt>
      <trkpt lat="45.40099" lon="4.1856">
        <ele>809.57</ele>
        <time>2014-05-08T05:34:43Z</time>
      </trkpt>
      <trkpt lat="45.40103" lon="4.18564">
        <ele>809.09</ele>
        <time>2014-05-08T05:34:44Z</time>
      </trkpt>
      <trkpt lat="45.40107" lon="4.18566">
        <ele>808.61</ele>
        <time>2014-05-08T05:34:45Z</time>
      </trkpt>
      <trkpt lat="45.40112" lon="4.18569">
        <ele>808.61</ele>
        <time>2014-05-08T05:34:46Z</time>
      </trkpt>
      <trkpt lat="45.40118" lon="4.1857">
        <ele>808.13</ele>
        <time>2014-05-08T05:34:47Z</time>
      </trkpt>
      <trkpt lat="45.40124" lon="4.1857">
        <ele>807.64</ele>
        <time>2014-05-08T05:34:48Z</time>
      </trkpt>
      <trkpt lat="45.40148" lon="4.18574">
        <ele>806.2</ele>
        <time>2014-05-08T05:34:52Z</time>
      </trkpt>
      <trkpt lat="45.40153" lon="4.18577">
        <ele>806.68</ele>
        <time>2014-05-08T05:34:53Z</time>
      </trkpt>
      <trkpt lat="45.40158" lon="4.18583">
        <ele>805.72</ele>
        <time>2014-05-08T05:34:54Z</time>
      </trkpt>
      <trkpt lat="45.40161" lon="4.18589">
        <ele>806.2</ele>
        <time>2014-05-08T05:34:55Z</time>
      </trkpt>
      <trkpt lat="45.40164" lon="4.18596">
        <ele>806.68</ele>
        <time>2014-05-08T05:34:56Z</time>
      </trkpt>
      <trkpt lat="45.40167" lon="4.18604">
        <ele>806.2</ele>
        <time>2014-05-08T05:34:57Z</time>
      </trkpt>
      <trkpt lat="45.40168" lon="4.18612">
        <ele>806.2</ele>
        <time>2014-05-08T05:34:58Z</time>
      </trkpt>
      <trkpt lat="45.40168" lon="4.1862">
        <ele>807.16</ele>
        <time>2014-05-08T05:34:59Z</time>
      </trkpt>
      <trkpt lat="45.40202" lon="4.18729">
        <ele>808.13</ele>
        <time>2014-05-08T05:35:16Z</time>
      </trkpt>
      <trkpt lat="45.40237" lon="4.1881">
        <ele>808.13</ele>
        <time>2014-05-08T05:35:29Z</time>
      </trkpt>
      <trkpt lat="45.4024" lon="4.18816">
        <ele>808.13</ele>
        <time>2014-05-08T05:35:30Z</time>
      </trkpt>
      <trkpt lat="45.40244" lon="4.18821">
        <ele>808.61</ele>
        <time>2014-05-08T05:35:31Z</time>
      </trkpt>
      <trkpt lat="45.40248" lon="4.18825">
        <ele>808.61</ele>
        <time>2014-05-08T05:35:32Z</time>
      </trkpt>
      <trkpt lat="45.40252" lon="4.18829">
        <ele>808.61</ele>
        <time>2014-05-08T05:35:33Z</time>
      </trkpt>
      <trkpt lat="45.40257" lon="4.18833">
        <ele>809.09</ele>
        <time>2014-05-08T05:35:34Z</time>
      </trkpt>
      <trkpt lat="45.40261" lon="4.18836">
        <ele>809.09</ele>
        <time>2014-05-08T05:35:35Z</time>
      </trkpt>
      <trkpt lat="45.40265" lon="4.18839">
        <ele>808.61</ele>
        <time>2014-05-08T05:35:36Z</time>
      </trkpt>
      <trkpt lat="45.40279" lon="4.18846">
        <ele>808.61</ele>
        <time>2014-05-08T05:35:39Z</time>
      </trkpt>
      <trkpt lat="45.40284" lon="4.18847">
        <ele>809.09</ele>
        <time>2014-05-08T05:35:40Z</time>
      </trkpt>
      <trkpt lat="45.40289" lon="4.18846">
        <ele>808.61</ele>
        <time>2014-05-08T05:35:41Z</time>
      </trkpt>
      <trkpt lat="45.40293" lon="4.18845">
        <ele>808.61</ele>
        <time>2014-05-08T05:35:42Z</time>
      </trkpt>
      <trkpt lat="45.40297" lon="4.18843">
        <ele>808.13</ele>
        <time>2014-05-08T05:35:43Z</time>
      </trkpt>
      <trkpt lat="45.40301" lon="4.18842">
        <ele>808.13</ele>
        <time>2014-05-08T05:35:44Z</time>
      </trkpt>
      <trkpt lat="45.40305" lon="4.18844">
        <ele>808.61</ele>
        <time>2014-05-08T05:35:45Z</time>
      </trkpt>
      <trkpt lat="45.40309" lon="4.18847">
        <ele>808.61</ele>
        <time>2014-05-08T05:35:46Z</time>
      </trkpt>
      <trkpt lat="45.40312" lon="4.18852">
        <ele>808.13</ele>
        <time>2014-05-08T05:35:47Z</time>
      </trkpt>
      <trkpt lat="45.40315" lon="4.18857">
        <ele>807.64</ele>
        <time>2014-05-08T05:35:48Z</time>
      </trkpt>
      <trkpt lat="45.40348" lon="4.18903">
        <ele>806.2</ele>
        <time>2014-05-08T05:35:57Z</time>
      </trkpt>
      <trkpt lat="45.40353" lon="4.18907">
        <ele>806.2</ele>
        <time>2014-05-08T05:35:58Z</time>
      </trkpt>
      <trkpt lat="45.40357" lon="4.1891">
        <ele>805.72</ele>
        <time>2014-05-08T05:35:59Z</time>
      </trkpt>
      <trkpt lat="45.40362" lon="4.18911">
        <ele>805.72</ele>
        <time>2014-05-08T05:36:00Z</time>
      </trkpt>
      <trkpt lat="45.40365" lon="4.18911">
        <ele>806.2</ele>
        <time>2014-05-08T05:36:01Z</time>
      </trkpt>
      <trkpt lat="45.40368" lon="4.18912">
        <ele>804.76</ele>
        <time>2014-05-08T05:36:02Z</time>
      </trkpt>
      <trkpt lat="45.4037" lon="4.18915">
        <ele>805.72</ele>
        <time>2014-05-08T05:36:03Z</time>
      </trkpt>
      <trkpt lat="45.40372" lon="4.1892">
        <ele>805.24</ele>
        <time>2014-05-08T05:36:04Z</time>
      </trkpt>
      <trkpt lat="45.40406" lon="4.19019">
        <ele>803.8</ele>
        <time>2014-05-08T05:36:18Z</time>
      </trkpt>
      <trkpt lat="45.40413" lon="4.19041">
        <ele>802.36</ele>
        <time>2014-05-08T05:36:21Z</time>
      </trkpt>
      <trkpt lat="45.40461" lon="4.19151">
        <ele>801.88</ele>
        <time>2014-05-08T05:36:37Z</time>
      </trkpt>
      <trkpt lat="45.40541" lon="4.19265">
        <ele>801.88</ele>
        <time>2014-05-08T05:36:57Z</time>
      </trkpt>
      <trkpt lat="45.40601" lon="4.19349">
        <ele>802.36</ele>
        <time>2014-05-08T05:37:14Z</time>
      </trkpt>
      <trkpt lat="45.40635" lon="4.19386">
        <ele>802.36</ele>
        <time>2014-05-08T05:37:22Z</time>
      </trkpt>
      <trkpt lat="45.4064" lon="4.1939">
        <ele>801.88</ele>
        <time>2014-05-08T05:37:23Z</time>
      </trkpt>
      <trkpt lat="45.40645" lon="4.19392">
        <ele>801.88</ele>
        <time>2014-05-08T05:37:24Z</time>
      </trkpt>
      <trkpt lat="45.40728" lon="4.19431">
        <ele>802.84</ele>
        <time>2014-05-08T05:37:40Z</time>
      </trkpt>
      <trkpt lat="45.40747" lon="4.19442">
        <ele>803.32</ele>
        <time>2014-05-08T05:37:44Z</time>
      </trkpt>
      <trkpt lat="45.40819" lon="4.19477">
        <ele>801.88</ele>
        <time>2014-05-08T05:37:57Z</time>
      </trkpt>
      <trkpt lat="45.40901" lon="4.19521">
        <ele>801.4</ele>
        <time>2014-05-08T05:38:12Z</time>
      </trkpt>
      <trkpt lat="45.40983" lon="4.19582">
        <ele>798.99</ele>
        <time>2014-05-08T05:38:27Z</time>
      </trkpt>
      <trkpt lat="45.41051" lon="4.19633">
        <ele>796.59</ele>
        <time>2014-05-08T05:38:38Z</time>
      </trkpt>
      <trkpt lat="45.41118" lon="4.19682">
        <ele>793.22</ele>
        <time>2014-05-08T05:38:48Z</time>
      </trkpt>
      <trkpt lat="45.41162" lon="4.19705">
        <ele>790.82</ele>
        <time>2014-05-08T05:38:54Z</time>
      </trkpt>
      <trkpt lat="45.41194" lon="4.1972">
        <ele>789.38</ele>
        <time>2014-05-08T05:39:00Z</time>
      </trkpt>
      <trkpt lat="45.41196" lon="4.19725">
        <ele>789.38</ele>
        <time>2014-05-08T05:39:01Z</time>
      </trkpt>
      <trkpt lat="45.41196" lon="4.19732">
        <ele>789.38</ele>
        <time>2014-05-08T05:39:02Z</time>
      </trkpt>
      <trkpt lat="45.41196" lon="4.19739">
        <ele>788.9</ele>
        <time>2014-05-08T05:39:03Z</time>
      </trkpt>
      <trkpt lat="45.41196" lon="4.19748">
        <ele>788.42</ele>
        <time>2014-05-08T05:39:04Z</time>
      </trkpt>
      <trkpt lat="45.41193" lon="4.19822">
        <ele>784.09</ele>
        <time>2014-05-08T05:39:11Z</time>
      </trkpt>
      <trkpt lat="45.41193" lon="4.19834">
        <ele>783.61</ele>
        <time>2014-05-08T05:39:12Z</time>
      </trkpt>
      <trkpt lat="45.41198" lon="4.19881">
        <ele>781.69</ele>
        <time>2014-05-08T05:39:16Z</time>
      </trkpt>
      <trkpt lat="45.4121" lon="4.19939">
        <ele>779.29</ele>
        <time>2014-05-08T05:39:21Z</time>
      </trkpt>
      <trkpt lat="45.41225" lon="4.19979">
        <ele>777.36</ele>
        <time>2014-05-08T05:39:25Z</time>
      </trkpt>
      <trkpt lat="45.41228" lon="4.19989">
        <ele>776.4</ele>
        <time>2014-05-08T05:39:26Z</time>
      </trkpt>
      <trkpt lat="45.41231" lon="4.2">
        <ele>776.4</ele>
        <time>2014-05-08T05:39:27Z</time>
      </trkpt>
      <trkpt lat="45.4124" lon="4.20047">
        <ele>772.56</ele>
        <time>2014-05-08T05:39:31Z</time>
      </trkpt>
      <trkpt lat="45.41243" lon="4.20059">
        <ele>772.56</ele>
        <time>2014-05-08T05:39:32Z</time>
      </trkpt>
      <trkpt lat="45.41255" lon="4.2011">
        <ele>769.67</ele>
        <time>2014-05-08T05:39:36Z</time>
      </trkpt>
      <trkpt lat="45.41265" lon="4.20149">
        <ele>766.31</ele>
        <time>2014-05-08T05:39:39Z</time>
      </trkpt>
      <trkpt lat="45.41268" lon="4.2016">
        <ele>765.35</ele>
        <time>2014-05-08T05:39:40Z</time>
      </trkpt>
      <trkpt lat="45.41272" lon="4.20169">
        <ele>764.39</ele>
        <time>2014-05-08T05:39:41Z</time>
      </trkpt>
      <trkpt lat="45.41275" lon="4.20175">
        <ele>764.39</ele>
        <time>2014-05-08T05:39:42Z</time>
      </trkpt>
      <trkpt lat="45.4128" lon="4.2018">
        <ele>762.94</ele>
        <time>2014-05-08T05:39:43Z</time>
      </trkpt>
      <trkpt lat="45.41287" lon="4.20183">
        <ele>762.94</ele>
        <time>2014-05-08T05:39:44Z</time>
      </trkpt>
      <trkpt lat="45.41294" lon="4.20187">
        <ele>762.46</ele>
        <time>2014-05-08T05:39:45Z</time>
      </trkpt>
      <trkpt lat="45.41342" lon="4.20211">
        <ele>759.58</ele>
        <time>2014-05-08T05:39:51Z</time>
      </trkpt>
      <trkpt lat="45.4135" lon="4.20216">
        <ele>759.1</ele>
        <time>2014-05-08T05:39:52Z</time>
      </trkpt>
      <trkpt lat="45.41414" lon="4.20253">
        <ele>756.21</ele>
        <time>2014-05-08T05:40:00Z</time>
      </trkpt>
      <trkpt lat="45.41474" lon="4.20289">
        <ele>752.37</ele>
        <time>2014-05-08T05:40:07Z</time>
      </trkpt>
      <trkpt lat="45.41526" lon="4.2032">
        <ele>749.97</ele>
        <time>2014-05-08T05:40:13Z</time>
      </trkpt>
      <trkpt lat="45.41571" lon="4.20366">
        <ele>748.04</ele>
        <time>2014-05-08T05:40:20Z</time>
      </trkpt>
      <trkpt lat="45.41574" lon="4.20373">
        <ele>748.04</ele>
        <time>2014-05-08T05:40:21Z</time>
      </trkpt>
      <trkpt lat="45.41577" lon="4.20381">
        <ele>747.56</ele>
        <time>2014-05-08T05:40:22Z</time>
      </trkpt>
      <trkpt lat="45.41581" lon="4.20388">
        <ele>747.08</ele>
        <time>2014-05-08T05:40:23Z</time>
      </trkpt>
      <trkpt lat="45.41585" lon="4.20394">
        <ele>746.6</ele>
        <time>2014-05-08T05:40:24Z</time>
      </trkpt>
      <trkpt lat="45.41591" lon="4.20399">
        <ele>746.12</ele>
        <time>2014-05-08T05:40:25Z</time>
      </trkpt>
      <trkpt lat="45.41612" lon="4.20418">
        <ele>743.24</ele>
        <time>2014-05-08T05:40:28Z</time>
      </trkpt>
      <trkpt lat="45.41628" lon="4.20429">
        <ele>741.79</ele>
        <time>2014-05-08T05:40:30Z</time>
      </trkpt>
      <trkpt lat="45.41652" lon="4.20442">
        <ele>740.83</ele>
        <time>2014-05-08T05:40:33Z</time>
      </trkpt>
      <trkpt lat="45.41658" lon="4.20448">
        <ele>740.35</ele>
        <time>2014-05-08T05:40:34Z</time>
      </trkpt>
      <trkpt lat="45.41663" lon="4.20454">
        <ele>740.35</ele>
        <time>2014-05-08T05:40:35Z</time>
      </trkpt>
      <trkpt lat="45.41667" lon="4.2046">
        <ele>740.35</ele>
        <time>2014-05-08T05:40:36Z</time>
      </trkpt>
      <trkpt lat="45.4167" lon="4.20467">
        <ele>740.35</ele>
        <time>2014-05-08T05:40:37Z</time>
      </trkpt>
      <trkpt lat="45.41672" lon="4.20474">
        <ele>739.87</ele>
        <time>2014-05-08T05:40:38Z</time>
      </trkpt>
      <trkpt lat="45.41673" lon="4.2048">
        <ele>740.83</ele>
        <time>2014-05-08T05:40:39Z</time>
      </trkpt>
      <trkpt lat="45.41674" lon="4.20486">
        <ele>740.35</ele>
        <time>2014-05-08T05:40:40Z</time>
      </trkpt>
      <trkpt lat="45.41673" lon="4.20491">
        <ele>740.83</ele>
        <time>2014-05-08T05:40:41Z</time>
      </trkpt>
      <trkpt lat="45.41671" lon="4.20494">
        <ele>741.31</ele>
        <time>2014-05-08T05:40:42Z</time>
      </trkpt>
      <trkpt lat="45.41665" lon="4.20496">
        <ele>741.79</ele>
        <time>2014-05-08T05:40:43Z</time>
      </trkpt>
      <trkpt lat="45.4166" lon="4.20498">
        <ele>742.28</ele>
        <time>2014-05-08T05:40:44Z</time>
      </trkpt>
      <trkpt lat="45.41632" lon="4.20529">
        <ele>746.12</ele>
        <time>2014-05-08T05:40:55Z</time>
      </trkpt>
      <trkpt lat="45.41618" lon="4.20555">
        <ele>749.49</ele>
        <time>2014-05-08T05:41:05Z</time>
      </trkpt>
      <trkpt lat="45.416" lon="4.20591">
        <ele>752.37</ele>
        <time>2014-05-08T05:41:18Z</time>
      </trkpt>
      <trkpt lat="45.41598" lon="4.20596">
        <ele>753.33</ele>
        <time>2014-05-08T05:41:20Z</time>
      </trkpt>
      <trkpt lat="45.41565" lon="4.20655">
        <ele>755.25</ele>
        <time>2014-05-08T05:41:41Z</time>
      </trkpt>
      <trkpt lat="45.41551" lon="4.20707">
        <ele>759.1</ele>
        <time>2014-05-08T05:41:57Z</time>
      </trkpt>
      <trkpt lat="45.41518" lon="4.20756">
        <ele>760.54</ele>
        <time>2014-05-08T05:42:16Z</time>
      </trkpt>
      <trkpt lat="45.4149" lon="4.20807">
        <ele>762.94</ele>
        <time>2014-05-08T05:42:35Z</time>
      </trkpt>
      <trkpt lat="45.41495" lon="4.20829">
        <ele>764.87</ele>
        <time>2014-05-08T05:42:41Z</time>
      </trkpt>
      <trkpt lat="45.41508" lon="4.20871">
        <ele>768.71</ele>
        <time>2014-05-08T05:42:55Z</time>
      </trkpt>
      <trkpt lat="45.41517" lon="4.20943">
        <ele>771.11</ele>
        <time>2014-05-08T05:43:16Z</time>
      </trkpt>
      <trkpt lat="45.4152" lon="4.20993">
        <ele>774.96</ele>
        <time>2014-05-08T05:43:30Z</time>
      </trkpt>
      <trkpt lat="45.41525" lon="4.21064">
        <ele>776.88</ele>
        <time>2014-05-08T05:43:49Z</time>
      </trkpt>
      <trkpt lat="45.41522" lon="4.21135">
        <ele>777.84</ele>
        <time>2014-05-08T05:44:06Z</time>
      </trkpt>
      <trkpt lat="45.41518" lon="4.21207">
        <ele>780.73</ele>
        <time>2014-05-08T05:44:22Z</time>
      </trkpt>
      <trkpt lat="45.41511" lon="4.21223">
        <ele>782.65</ele>
        <time>2014-05-08T05:44:27Z</time>
      </trkpt>
      <trkpt lat="45.41501" lon="4.21281">
        <ele>782.17</ele>
        <time>2014-05-08T05:44:41Z</time>
      </trkpt>
      <trkpt lat="45.415" lon="4.213">
        <ele>781.69</ele>
        <time>2014-05-08T05:44:44Z</time>
      </trkpt>
      <trkpt lat="45.415" lon="4.21306">
        <ele>781.69</ele>
        <time>2014-05-08T05:44:45Z</time>
      </trkpt>
      <trkpt lat="45.41501" lon="4.21312">
        <ele>782.65</ele>
        <time>2014-05-08T05:44:46Z</time>
      </trkpt>
      <trkpt lat="45.41512" lon="4.2141">
        <ele>784.57</ele>
        <time>2014-05-08T05:45:01Z</time>
      </trkpt>
      <trkpt lat="45.41524" lon="4.21484">
        <ele>785.53</ele>
        <time>2014-05-08T05:45:16Z</time>
      </trkpt>
      <trkpt lat="45.41525" lon="4.21495">
        <ele>784.57</ele>
        <time>2014-05-08T05:45:18Z</time>
      </trkpt>
      <trkpt lat="45.41525" lon="4.21501">
        <ele>784.57</ele>
        <time>2014-05-08T05:45:19Z</time>
      </trkpt>
      <trkpt lat="45.41524" lon="4.21508">
        <ele>785.05</ele>
        <time>2014-05-08T05:45:20Z</time>
      </trkpt>
      <trkpt lat="45.41512" lon="4.21565">
        <ele>784.09</ele>
        <time>2014-05-08T05:45:29Z</time>
      </trkpt>
      <trkpt lat="45.41506" lon="4.21634">
        <ele>780.25</ele>
        <time>2014-05-08T05:45:37Z</time>
      </trkpt>
      <trkpt lat="45.41504" lon="4.21646">
        <ele>778.81</ele>
        <time>2014-05-08T05:45:38Z</time>
      </trkpt>
      <trkpt lat="45.41503" lon="4.21657">
        <ele>778.32</ele>
        <time>2014-05-08T05:45:39Z</time>
      </trkpt>
      <trkpt lat="45.41502" lon="4.21668">
        <ele>777.84</ele>
        <time>2014-05-08T05:45:40Z</time>
      </trkpt>
      <trkpt lat="45.41508" lon="4.21732">
        <ele>774</ele>
        <time>2014-05-08T05:45:45Z</time>
      </trkpt>
      <trkpt lat="45.41516" lon="4.21809">
        <ele>772.08</ele>
        <time>2014-05-08T05:45:51Z</time>
      </trkpt>
      <trkpt lat="45.41516" lon="4.21834">
        <ele>772.08</ele>
        <time>2014-05-08T05:45:53Z</time>
      </trkpt>
      <trkpt lat="45.41514" lon="4.21844">
        <ele>771.6</ele>
        <time>2014-05-08T05:45:54Z</time>
      </trkpt>
      <trkpt lat="45.41511" lon="4.21852">
        <ele>771.11</ele>
        <time>2014-05-08T05:45:55Z</time>
      </trkpt>
      <trkpt lat="45.41508" lon="4.21859">
        <ele>770.63</ele>
        <time>2014-05-08T05:45:56Z</time>
      </trkpt>
      <trkpt lat="45.41503" lon="4.21865">
        <ele>770.63</ele>
        <time>2014-05-08T05:45:57Z</time>
      </trkpt>
      <trkpt lat="45.41498" lon="4.21871">
        <ele>770.63</ele>
        <time>2014-05-08T05:45:58Z</time>
      </trkpt>
      <trkpt lat="45.41493" lon="4.21875">
        <ele>770.15</ele>
        <time>2014-05-08T05:45:59Z</time>
      </trkpt>
      <trkpt lat="45.41485" lon="4.21875">
        <ele>770.15</ele>
        <time>2014-05-08T05:46:00Z</time>
      </trkpt>
      <trkpt lat="45.41479" lon="4.21878">
        <ele>770.15</ele>
        <time>2014-05-08T05:46:01Z</time>
      </trkpt>
      <trkpt lat="45.41473" lon="4.21881">
        <ele>770.15</ele>
        <time>2014-05-08T05:46:02Z</time>
      </trkpt>
      <trkpt lat="45.41468" lon="4.21885">
        <ele>770.63</ele>
        <time>2014-05-08T05:46:03Z</time>
      </trkpt>
      <trkpt lat="45.41462" lon="4.2189">
        <ele>770.63</ele>
        <time>2014-05-08T05:46:04Z</time>
      </trkpt>
      <trkpt lat="45.41458" lon="4.21896">
        <ele>770.63</ele>
        <time>2014-05-08T05:46:05Z</time>
      </trkpt>
      <trkpt lat="45.41453" lon="4.21902">
        <ele>770.63</ele>
        <time>2014-05-08T05:46:06Z</time>
      </trkpt>
      <trkpt lat="45.41397" lon="4.21995">
        <ele>771.6</ele>
        <time>2014-05-08T05:46:22Z</time>
      </trkpt>
      <trkpt lat="45.41349" lon="4.2209">
        <ele>772.56</ele>
        <time>2014-05-08T05:46:41Z</time>
      </trkpt>
      <trkpt lat="45.41327" lon="4.22151">
        <ele>775.92</ele>
        <time>2014-05-08T05:46:54Z</time>
      </trkpt>
      <trkpt lat="45.41325" lon="4.22155">
        <ele>775.92</ele>
        <time>2014-05-08T05:46:55Z</time>
      </trkpt>
      <trkpt lat="45.41305" lon="4.22193">
        <ele>779.29</ele>
        <time>2014-05-08T05:47:07Z</time>
      </trkpt>
      <trkpt lat="45.41286" lon="4.22238">
        <ele>782.65</ele>
        <time>2014-05-08T05:47:20Z</time>
      </trkpt>
      <trkpt lat="45.41259" lon="4.22304">
        <ele>785.05</ele>
        <time>2014-05-08T05:47:38Z</time>
      </trkpt>
      <trkpt lat="45.41221" lon="4.22386">
        <ele>786.98</ele>
        <time>2014-05-08T05:47:58Z</time>
      </trkpt>
      <trkpt lat="45.41184" lon="4.2246">
        <ele>789.38</ele>
        <time>2014-05-08T05:48:17Z</time>
      </trkpt>
      <trkpt lat="45.41142" lon="4.22527">
        <ele>787.94</ele>
        <time>2014-05-08T05:48:32Z</time>
      </trkpt>
      <trkpt lat="45.411" lon="4.22604">
        <ele>784.57</ele>
        <time>2014-05-08T05:48:45Z</time>
      </trkpt>
      <trkpt lat="45.41089" lon="4.22627">
        <ele>781.69</ele>
        <time>2014-05-08T05:48:48Z</time>
      </trkpt>
      <trkpt lat="45.41087" lon="4.22634">
        <ele>781.69</ele>
        <time>2014-05-08T05:48:49Z</time>
      </trkpt>
      <trkpt lat="45.4108" lon="4.22653">
        <ele>779.77</ele>
        <time>2014-05-08T05:48:52Z</time>
      </trkpt>
      <trkpt lat="45.41078" lon="4.22667">
        <ele>778.32</ele>
        <time>2014-05-08T05:48:55Z</time>
      </trkpt>
      <trkpt lat="45.41079" lon="4.2267">
        <ele>777.36</ele>
        <time>2014-05-08T05:48:56Z</time>
      </trkpt>
      <trkpt lat="45.41081" lon="4.22672">
        <ele>778.32</ele>
        <time>2014-05-08T05:48:57Z</time>
      </trkpt>
      <trkpt lat="45.41084" lon="4.22673">
        <ele>777.84</ele>
        <time>2014-05-08T05:48:58Z</time>
      </trkpt>
      <trkpt lat="45.41086" lon="4.22675">
        <ele>777.36</ele>
        <time>2014-05-08T05:48:59Z</time>
      </trkpt>
      <trkpt lat="45.41089" lon="4.22675">
        <ele>777.36</ele>
        <time>2014-05-08T05:49:00Z</time>
      </trkpt>
      <trkpt lat="45.41092" lon="4.22676">
        <ele>776.4</ele>
        <time>2014-05-08T05:49:01Z</time>
      </trkpt>
      <trkpt lat="45.41113" lon="4.22682">
        <ele>774.96</ele>
        <time>2014-05-08T05:49:06Z</time>
      </trkpt>
      <trkpt lat="45.41114" lon="4.22686">
        <ele>773.52</ele>
        <time>2014-05-08T05:49:07Z</time>
      </trkpt>
      <trkpt lat="45.41115" lon="4.2269">
        <ele>772.56</ele>
        <time>2014-05-08T05:49:08Z</time>
      </trkpt>
      <trkpt lat="45.41115" lon="4.22694">
        <ele>772.56</ele>
        <time>2014-05-08T05:49:09Z</time>
      </trkpt>
      <trkpt lat="45.41115" lon="4.22699">
        <ele>771.11</ele>
        <time>2014-05-08T05:49:10Z</time>
      </trkpt>
      <trkpt lat="45.41113" lon="4.22704">
        <ele>770.63</ele>
        <time>2014-05-08T05:49:11Z</time>
      </trkpt>
      <trkpt lat="45.41112" lon="4.2271">
        <ele>769.19</ele>
        <time>2014-05-08T05:49:12Z</time>
      </trkpt>
      <trkpt lat="45.41109" lon="4.22716">
        <ele>767.75</ele>
        <time>2014-05-08T05:49:13Z</time>
      </trkpt>
      <trkpt lat="45.41096" lon="4.22742">
        <ele>763.42</ele>
        <time>2014-05-08T05:49:17Z</time>
      </trkpt>
      <trkpt lat="45.41082" lon="4.22771">
        <ele>760.06</ele>
        <time>2014-05-08T05:49:21Z</time>
      </trkpt>
      <trkpt lat="45.41081" lon="4.22778">
        <ele>759.1</ele>
        <time>2014-05-08T05:49:22Z</time>
      </trkpt>
      <trkpt lat="45.41082" lon="4.22787">
        <ele>757.18</ele>
        <time>2014-05-08T05:49:23Z</time>
      </trkpt>
      <trkpt lat="45.41083" lon="4.22794">
        <ele>755.73</ele>
        <time>2014-05-08T05:49:24Z</time>
      </trkpt>
      <trkpt lat="45.41085" lon="4.22801">
        <ele>754.29</ele>
        <time>2014-05-08T05:49:25Z</time>
      </trkpt>
      <trkpt lat="45.41088" lon="4.22806">
        <ele>752.85</ele>
        <time>2014-05-08T05:49:26Z</time>
      </trkpt>
      <trkpt lat="45.4109" lon="4.22822">
        <ele>749.97</ele>
        <time>2014-05-08T05:49:30Z</time>
      </trkpt>
      <trkpt lat="45.41091" lon="4.22833">
        <ele>747.56</ele>
        <time>2014-05-08T05:49:33Z</time>
      </trkpt>
      <trkpt lat="45.41098" lon="4.22836">
        <ele>747.08</ele>
        <time>2014-05-08T05:49:37Z</time>
      </trkpt>
      <trkpt lat="45.411" lon="4.22836">
        <ele>746.6</ele>
        <time>2014-05-08T05:49:38Z</time>
      </trkpt>
      <trkpt lat="45.41102" lon="4.22835">
        <ele>746.12</ele>
        <time>2014-05-08T05:49:39Z</time>
      </trkpt>
      <trkpt lat="45.41104" lon="4.22834">
        <ele>745.16</ele>
        <time>2014-05-08T05:49:40Z</time>
      </trkpt>
      <trkpt lat="45.41106" lon="4.22832">
        <ele>745.64</ele>
        <time>2014-05-08T05:49:41Z</time>
      </trkpt>
      <trkpt lat="45.41114" lon="4.22821">
        <ele>740.83</ele>
        <time>2014-05-08T05:49:45Z</time>
      </trkpt>
      <trkpt lat="45.41119" lon="4.22819">
        <ele>738.91</ele>
        <time>2014-05-08T05:49:47Z</time>
      </trkpt>
      <trkpt lat="45.41121" lon="4.22819">
        <ele>737.47</ele>
        <time>2014-05-08T05:49:48Z</time>
      </trkpt>
      <trkpt lat="45.41123" lon="4.22822">
        <ele>736.51</ele>
        <time>2014-05-08T05:49:49Z</time>
      </trkpt>
      <trkpt lat="45.41125" lon="4.22827">
        <ele>734.58</ele>
        <time>2014-05-08T05:49:50Z</time>
      </trkpt>
      <trkpt lat="45.41127" lon="4.22832">
        <ele>733.62</ele>
        <time>2014-05-08T05:49:51Z</time>
      </trkpt>
      <trkpt lat="45.41132" lon="4.22855">
        <ele>730.26</ele>
        <time>2014-05-08T05:49:54Z</time>
      </trkpt>
      <trkpt lat="45.41136" lon="4.22879">
        <ele>727.37</ele>
        <time>2014-05-08T05:49:57Z</time>
      </trkpt>
      <trkpt lat="45.41135" lon="4.22902">
        <ele>724.97</ele>
        <time>2014-05-08T05:50:06Z</time>
      </trkpt>
      <trkpt lat="45.41135" lon="4.22911">
        <ele>725.93</ele>
        <time>2014-05-08T05:50:13Z</time>
      </trkpt>
      <trkpt lat="45.41126" lon="4.22925">
        <ele>722.09</ele>
        <time>2014-05-08T05:50:21Z</time>
      </trkpt>
      <trkpt lat="45.41127" lon="4.22927">
        <ele>722.09</ele>
        <time>2014-05-08T05:50:22Z</time>
      </trkpt>
      <trkpt lat="45.41128" lon="4.22935">
        <ele>720.16</ele>
        <time>2014-05-08T05:50:25Z</time>
      </trkpt>
      <trkpt lat="45.4113" lon="4.22948">
        <ele>716.8</ele>
        <time>2014-05-08T05:50:29Z</time>
      </trkpt>
      <trkpt lat="45.41131" lon="4.22961">
        <ele>713.92</ele>
        <time>2014-05-08T05:50:36Z</time>
      </trkpt>
      <trkpt lat="45.41133" lon="4.22963">
        <ele>714.4</ele>
        <time>2014-05-08T05:50:48Z</time>
      </trkpt>
      <trkpt lat="45.41131" lon="4.22963">
        <ele>714.4</ele>
        <time>2014-05-08T05:50:49Z</time>
      </trkpt>
      <trkpt lat="45.41122" lon="4.22961">
        <ele>711.99</ele>
        <time>2014-05-08T05:50:52Z</time>
      </trkpt>
      <trkpt lat="45.41102" lon="4.22965">
        <ele>708.15</ele>
        <time>2014-05-08T05:50:59Z</time>
      </trkpt>
      <trkpt lat="45.41101" lon="4.2297">
        <ele>707.67</ele>
        <time>2014-05-08T05:51:00Z</time>
      </trkpt>
      <trkpt lat="45.41091" lon="4.23005">
        <ele>704.3</ele>
        <time>2014-05-08T05:51:06Z</time>
      </trkpt>
      <trkpt lat="45.41085" lon="4.23015">
        <ele>703.34</ele>
        <time>2014-05-08T05:51:08Z</time>
      </trkpt>
      <trkpt lat="45.4106" lon="4.23027">
        <ele>699.5</ele>
        <time>2014-05-08T05:51:14Z</time>
      </trkpt>
      <trkpt lat="45.41016" lon="4.23042">
        <ele>696.13</ele>
        <time>2014-05-08T05:51:22Z</time>
      </trkpt>
      <trkpt lat="45.40984" lon="4.23064">
        <ele>693.25</ele>
        <time>2014-05-08T05:51:28Z</time>
      </trkpt>
      <trkpt lat="45.40959" lon="4.23086">
        <ele>689.4</ele>
        <time>2014-05-08T05:51:33Z</time>
      </trkpt>
      <trkpt lat="45.40935" lon="4.23101">
        <ele>690.36</ele>
        <time>2014-05-08T05:51:42Z</time>
      </trkpt>
      <trkpt lat="45.40937" lon="4.23105">
        <ele>691.33</ele>
        <time>2014-05-08T05:51:57Z</time>
      </trkpt>
      <trkpt lat="45.4094" lon="4.23103">
        <ele>692.77</ele>
        <time>2014-05-08T05:52:00Z</time>
      </trkpt>
      <trkpt lat="45.40941" lon="4.23102">
        <ele>692.29</ele>
        <time>2014-05-08T05:52:01Z</time>
      </trkpt>
      <trkpt lat="45.40951" lon="4.23096">
        <ele>695.17</ele>
        <time>2014-05-08T05:52:07Z</time>
      </trkpt>
      <trkpt lat="45.40978" lon="4.23078">
        <ele>699.02</ele>
        <time>2014-05-08T05:52:20Z</time>
      </trkpt>
      <trkpt lat="45.4098" lon="4.23077">
        <ele>699.02</ele>
        <time>2014-05-08T05:52:21Z</time>
      </trkpt>
      <trkpt lat="45.41018" lon="4.23067">
        <ele>702.38</ele>
        <time>2014-05-08T05:52:39Z</time>
      </trkpt>
      <trkpt lat="45.41022" lon="4.23065">
        <ele>703.34</ele>
        <time>2014-05-08T05:52:41Z</time>
      </trkpt>
      <trkpt lat="45.4106" lon="4.23043">
        <ele>706.71</ele>
        <time>2014-05-08T05:52:58Z</time>
      </trkpt>
      <trkpt lat="45.41076" lon="4.23016">
        <ele>709.59</ele>
        <time>2014-05-08T05:53:12Z</time>
      </trkpt>
      <trkpt lat="45.41078" lon="4.23009">
        <ele>711.03</ele>
        <time>2014-05-08T05:53:16Z</time>
      </trkpt>
      <trkpt lat="45.41093" lon="4.22987">
        <ele>712.47</ele>
        <time>2014-05-08T05:53:27Z</time>
      </trkpt>
      <trkpt lat="45.41112" lon="4.22982">
        <ele>715.36</ele>
        <time>2014-05-08T05:53:37Z</time>
      </trkpt>
      <trkpt lat="45.41119" lon="4.22984">
        <ele>714.88</ele>
        <time>2014-05-08T05:53:42Z</time>
      </trkpt>
      <trkpt lat="45.4112" lon="4.22985">
        <ele>714.4</ele>
        <time>2014-05-08T05:53:43Z</time>
      </trkpt>
      <trkpt lat="45.41121" lon="4.22987">
        <ele>713.92</ele>
        <time>2014-05-08T05:53:44Z</time>
      </trkpt>
      <trkpt lat="45.41122" lon="4.22989">
        <ele>713.44</ele>
        <time>2014-05-08T05:53:45Z</time>
      </trkpt>
      <trkpt lat="45.41123" lon="4.22994">
        <ele>712.47</ele>
        <time>2014-05-08T05:53:47Z</time>
      </trkpt>
      <trkpt lat="45.41123" lon="4.23006">
        <ele>710.55</ele>
        <time>2014-05-08T05:53:50Z</time>
      </trkpt>
      <trkpt lat="45.41126" lon="4.23026">
        <ele>707.19</ele>
        <time>2014-05-08T05:53:54Z</time>
      </trkpt>
      <trkpt lat="45.41127" lon="4.2303">
        <ele>706.71</ele>
        <time>2014-05-08T05:53:55Z</time>
      </trkpt>
      <trkpt lat="45.41132" lon="4.23049">
        <ele>702.86</ele>
        <time>2014-05-08T05:53:59Z</time>
      </trkpt>
      <trkpt lat="45.41139" lon="4.23068">
        <ele>700.46</ele>
        <time>2014-05-08T05:54:02Z</time>
      </trkpt>
      <trkpt lat="45.41149" lon="4.23088">
        <ele>697.57</ele>
        <time>2014-05-08T05:54:06Z</time>
      </trkpt>
      <trkpt lat="45.41161" lon="4.23118">
        <ele>693.73</ele>
        <time>2014-05-08T05:54:13Z</time>
      </trkpt>
      <trkpt lat="45.41173" lon="4.23135">
        <ele>689.88</ele>
        <time>2014-05-08T05:54:18Z</time>
      </trkpt>
      <trkpt lat="45.41175" lon="4.23139">
        <ele>689.88</ele>
        <time>2014-05-08T05:54:19Z</time>
      </trkpt>
      <trkpt lat="45.41181" lon="4.23158">
        <ele>684.6</ele>
        <time>2014-05-08T05:54:23Z</time>
      </trkpt>
      <trkpt lat="45.41186" lon="4.2317">
        <ele>681.23</ele>
        <time>2014-05-08T05:54:27Z</time>
      </trkpt>
      <trkpt lat="45.412" lon="4.2318">
        <ele>677.39</ele>
        <time>2014-05-08T05:54:32Z</time>
      </trkpt>
      <trkpt lat="45.41213" lon="4.23185">
        <ele>674.02</ele>
        <time>2014-05-08T05:54:35Z</time>
      </trkpt>
      <trkpt lat="45.41222" lon="4.23192">
        <ele>673.06</ele>
        <time>2014-05-08T05:54:38Z</time>
      </trkpt>
      <trkpt lat="45.41219" lon="4.23207">
        <ele>671.14</ele>
        <time>2014-05-08T05:54:48Z</time>
      </trkpt>
      <trkpt lat="45.41217" lon="4.23208">
        <ele>672.1</ele>
        <time>2014-05-08T05:54:50Z</time>
      </trkpt>
      <trkpt lat="45.41216" lon="4.23209">
        <ele>671.62</ele>
        <time>2014-05-08T05:54:51Z</time>
      </trkpt>
      <trkpt lat="45.41184" lon="4.23213">
        <ele>670.66</ele>
        <time>2014-05-08T05:55:04Z</time>
      </trkpt>
      <trkpt lat="45.41173" lon="4.23217">
        <ele>667.29</ele>
        <time>2014-05-08T05:55:09Z</time>
      </trkpt>
      <trkpt lat="45.41169" lon="4.23218">
        <ele>667.29</ele>
        <time>2014-05-08T05:55:10Z</time>
      </trkpt>
      <trkpt lat="45.41156" lon="4.23213">
        <ele>664.89</ele>
        <time>2014-05-08T05:55:14Z</time>
      </trkpt>
      <trkpt lat="45.41144" lon="4.23207">
        <ele>662.97</ele>
        <time>2014-05-08T05:55:17Z</time>
      </trkpt>
      <trkpt lat="45.41117" lon="4.23222">
        <ele>661.52</ele>
        <time>2014-05-08T05:55:31Z</time>
      </trkpt>
      <trkpt lat="45.41114" lon="4.23219">
        <ele>662.01</ele>
        <time>2014-05-08T05:55:37Z</time>
      </trkpt>
      <trkpt lat="45.41112" lon="4.23217">
        <ele>662.01</ele>
        <time>2014-05-08T05:55:38Z</time>
      </trkpt>
      <trkpt lat="45.41089" lon="4.23186">
        <ele>661.52</ele>
        <time>2014-05-08T05:55:56Z</time>
      </trkpt>
      <trkpt lat="45.41086" lon="4.23181">
        <ele>661.04</ele>
        <time>2014-05-08T05:55:57Z</time>
      </trkpt>
      <trkpt lat="45.41084" lon="4.23176">
        <ele>660.56</ele>
        <time>2014-05-08T05:55:58Z</time>
      </trkpt>
      <trkpt lat="45.41081" lon="4.23173">
        <ele>659.6</ele>
        <time>2014-05-08T05:55:59Z</time>
      </trkpt>
      <trkpt lat="45.41079" lon="4.2317">
        <ele>660.56</ele>
        <time>2014-05-08T05:56:00Z</time>
      </trkpt>
      <trkpt lat="45.41076" lon="4.23168">
        <ele>660.08</ele>
        <time>2014-05-08T05:56:01Z</time>
      </trkpt>
      <trkpt lat="45.4106" lon="4.23179">
        <ele>657.2</ele>
        <time>2014-05-08T05:56:08Z</time>
      </trkpt>
      <trkpt lat="45.41053" lon="4.23194">
        <ele>656.24</ele>
        <time>2014-05-08T05:56:12Z</time>
      </trkpt>
      <trkpt lat="45.41048" lon="4.23206">
        <ele>652.87</ele>
        <time>2014-05-08T05:56:17Z</time>
      </trkpt>
      <trkpt lat="45.41047" lon="4.23208">
        <ele>650.95</ele>
        <time>2014-05-08T05:56:18Z</time>
      </trkpt>
      <trkpt lat="45.41036" lon="4.23216">
        <ele>647.1</ele>
        <time>2014-05-08T05:56:22Z</time>
      </trkpt>
      <trkpt lat="45.41031" lon="4.23225">
        <ele>643.74</ele>
        <time>2014-05-08T05:56:25Z</time>
      </trkpt>
      <trkpt lat="45.41033" lon="4.23233">
        <ele>640.86</ele>
        <time>2014-05-08T05:56:28Z</time>
      </trkpt>
      <trkpt lat="45.41034" lon="4.23236">
        <ele>640.38</ele>
        <time>2014-05-08T05:56:29Z</time>
      </trkpt>
      <trkpt lat="45.41034" lon="4.23243">
        <ele>639.41</ele>
        <time>2014-05-08T05:56:31Z</time>
      </trkpt>
      <trkpt lat="45.41032" lon="4.23246">
        <ele>639.41</ele>
        <time>2014-05-08T05:56:32Z</time>
      </trkpt>
      <trkpt lat="45.41032" lon="4.23249">
        <ele>638.45</ele>
        <time>2014-05-08T05:56:33Z</time>
      </trkpt>
      <trkpt lat="45.41023" lon="4.23271">
        <ele>635.57</ele>
        <time>2014-05-08T05:56:38Z</time>
      </trkpt>
      <trkpt lat="45.41016" lon="4.23295">
        <ele>631.24</ele>
        <time>2014-05-08T05:56:42Z</time>
      </trkpt>
      <trkpt lat="45.41011" lon="4.23318">
        <ele>628.84</ele>
        <time>2014-05-08T05:56:45Z</time>
      </trkpt>
      <trkpt lat="45.41002" lon="4.2334">
        <ele>626.92</ele>
        <time>2014-05-08T05:56:55Z</time>
      </trkpt>
      <trkpt lat="45.41004" lon="4.23343">
        <ele>625.96</ele>
        <time>2014-05-08T05:56:56Z</time>
      </trkpt>
      <trkpt lat="45.41005" lon="4.23354">
        <ele>624.51</ele>
        <time>2014-05-08T05:56:59Z</time>
      </trkpt>
      <trkpt lat="45.40985" lon="4.2338">
        <ele>622.59</ele>
        <time>2014-05-08T05:57:13Z</time>
      </trkpt>
      <trkpt lat="45.40986" lon="4.23382">
        <ele>623.07</ele>
        <time>2014-05-08T05:57:21Z</time>
      </trkpt>
      <trkpt lat="45.40984" lon="4.2339">
        <ele>624.03</ele>
        <time>2014-05-08T05:57:41Z</time>
      </trkpt>
      <trkpt lat="45.40983" lon="4.23391">
        <ele>623.07</ele>
        <time>2014-05-08T05:58:02Z</time>
      </trkpt>
      <trkpt lat="45.40986" lon="4.23398">
        <ele>622.59</ele>
        <time>2014-05-08T05:58:21Z</time>
      </trkpt>
      <trkpt lat="45.40984" lon="4.23392">
        <ele>623.55</ele>
        <time>2014-05-08T05:58:42Z</time>
      </trkpt>
      <trkpt lat="45.40984" lon="4.23392">
        <ele>623.55</ele>
        <time>2014-05-08T05:59:00Z</time>
      </trkpt>
      <trkpt lat="45.40983" lon="4.23392">
        <ele>622.11</ele>
        <time>2014-05-08T05:59:03Z</time>
      </trkpt>
      <trkpt lat="45.40982" lon="4.23389">
        <ele>622.59</ele>
        <time>2014-05-08T05:59:19Z</time>
      </trkpt>
      <trkpt lat="45.40986" lon="4.23383">
        <ele>622.59</ele>
        <time>2014-05-08T05:59:45Z</time>
      </trkpt>
      <trkpt lat="45.40987" lon="4.23392">
        <ele>622.11</ele>
        <time>2014-05-08T06:00:20Z</time>
      </trkpt>
      <trkpt lat="45.40986" lon="4.23379">
        <ele>623.07</ele>
        <time>2014-05-08T06:00:51Z</time>
      </trkpt>
      <trkpt lat="45.40991" lon="4.23382">
        <ele>622.11</ele>
        <time>2014-05-08T06:01:37Z</time>
      </trkpt>
      <trkpt lat="45.40989" lon="4.23385">
        <ele>622.59</ele>
        <time>2014-05-08T06:02:01Z</time>
      </trkpt>
      <trkpt lat="45.40983" lon="4.23387">
        <ele>621.63</ele>
        <time>2014-05-08T06:02:16Z</time>
      </trkpt>
      <trkpt lat="45.40981" lon="4.23387">
        <ele>620.67</ele>
        <time>2014-05-08T06:02:17Z</time>
      </trkpt>
      <trkpt lat="45.40979" lon="4.23388">
        <ele>620.67</ele>
        <time>2014-05-08T06:02:18Z</time>
      </trkpt>
      <trkpt lat="45.40955" lon="4.23395">
        <ele>618.26</ele>
        <time>2014-05-08T06:02:25Z</time>
      </trkpt>
      <trkpt lat="45.40938" lon="4.23406">
        <ele>615.86</ele>
        <time>2014-05-08T06:02:29Z</time>
      </trkpt>
      <trkpt lat="45.40916" lon="4.23419">
        <ele>613.94</ele>
        <time>2014-05-08T06:02:33Z</time>
      </trkpt>
      <trkpt lat="45.40872" lon="4.23436">
        <ele>610.57</ele>
        <time>2014-05-08T06:02:39Z</time>
      </trkpt>
      <trkpt lat="45.40832" lon="4.23471">
        <ele>608.17</ele>
        <time>2014-05-08T06:02:49Z</time>
      </trkpt>
      <trkpt lat="45.40772" lon="4.23536">
        <ele>608.17</ele>
        <time>2014-05-08T06:03:06Z</time>
      </trkpt>
      <trkpt lat="45.4074" lon="4.2358">
        <ele>604.81</ele>
        <time>2014-05-08T06:03:14Z</time>
      </trkpt>
      <trkpt lat="45.4072" lon="4.23601">
        <ele>602.4</ele>
        <time>2014-05-08T06:03:19Z</time>
      </trkpt>
      <trkpt lat="45.40706" lon="4.23614">
        <ele>599.04</ele>
        <time>2014-05-08T06:03:22Z</time>
      </trkpt>
      <trkpt lat="45.407" lon="4.23635">
        <ele>594.71</ele>
        <time>2014-05-08T06:03:27Z</time>
      </trkpt>
      <trkpt lat="45.407" lon="4.23647">
        <ele>592.31</ele>
        <time>2014-05-08T06:03:30Z</time>
      </trkpt>
      <trkpt lat="45.40702" lon="4.23663">
        <ele>589.43</ele>
        <time>2014-05-08T06:03:34Z</time>
      </trkpt>
      <trkpt lat="45.40704" lon="4.23677">
        <ele>586.06</ele>
        <time>2014-05-08T06:03:38Z</time>
      </trkpt>
      <trkpt lat="45.40704" lon="4.23679">
        <ele>585.1</ele>
        <time>2014-05-08T06:03:39Z</time>
      </trkpt>
      <trkpt lat="45.40703" lon="4.23682">
        <ele>585.1</ele>
        <time>2014-05-08T06:03:40Z</time>
      </trkpt>
      <trkpt lat="45.40702" lon="4.23684">
        <ele>585.1</ele>
        <time>2014-05-08T06:03:41Z</time>
      </trkpt>
      <trkpt lat="45.40701" lon="4.23686">
        <ele>584.62</ele>
        <time>2014-05-08T06:03:42Z</time>
      </trkpt>
      <trkpt lat="45.407" lon="4.23688">
        <ele>585.1</ele>
        <time>2014-05-08T06:03:43Z</time>
      </trkpt>
      <trkpt lat="45.40699" lon="4.23691">
        <ele>584.62</ele>
        <time>2014-05-08T06:03:44Z</time>
      </trkpt>
      <trkpt lat="45.40694" lon="4.2371">
        <ele>583.18</ele>
        <time>2014-05-08T06:03:56Z</time>
      </trkpt>
      <trkpt lat="45.40682" lon="4.23719">
        <ele>581.25</ele>
        <time>2014-05-08T06:04:04Z</time>
      </trkpt>
      <trkpt lat="45.40683" lon="4.23722">
        <ele>580.77</ele>
        <time>2014-05-08T06:04:05Z</time>
      </trkpt>
      <trkpt lat="45.40684" lon="4.23726">
        <ele>578.37</ele>
        <time>2014-05-08T06:04:06Z</time>
      </trkpt>
      <trkpt lat="45.40686" lon="4.2373">
        <ele>578.37</ele>
        <time>2014-05-08T06:04:07Z</time>
      </trkpt>
      <trkpt lat="45.40686" lon="4.23733">
        <ele>576.93</ele>
        <time>2014-05-08T06:04:08Z</time>
      </trkpt>
      <trkpt lat="45.40686" lon="4.23735">
        <ele>576.45</ele>
        <time>2014-05-08T06:04:09Z</time>
      </trkpt>
      <trkpt lat="45.40685" lon="4.23738">
        <ele>575.49</ele>
        <time>2014-05-08T06:04:10Z</time>
      </trkpt>
      <trkpt lat="45.40683" lon="4.23741">
        <ele>575.01</ele>
        <time>2014-05-08T06:04:11Z</time>
      </trkpt>
      <trkpt lat="45.40681" lon="4.23745">
        <ele>574.04</ele>
        <time>2014-05-08T06:04:12Z</time>
      </trkpt>
      <trkpt lat="45.40679" lon="4.23748">
        <ele>573.56</ele>
        <time>2014-05-08T06:04:13Z</time>
      </trkpt>
      <trkpt lat="45.40678" lon="4.23751">
        <ele>572.6</ele>
        <time>2014-05-08T06:04:14Z</time>
      </trkpt>
      <trkpt lat="45.40677" lon="4.23753">
        <ele>572.12</ele>
        <time>2014-05-08T06:04:15Z</time>
      </trkpt>
      <trkpt lat="45.40677" lon="4.23756">
        <ele>571.64</ele>
        <time>2014-05-08T06:04:16Z</time>
      </trkpt>
      <trkpt lat="45.40677" lon="4.2376">
        <ele>571.64</ele>
        <time>2014-05-08T06:04:17Z</time>
      </trkpt>
      <trkpt lat="45.40677" lon="4.23763">
        <ele>570.2</ele>
        <time>2014-05-08T06:04:18Z</time>
      </trkpt>
      <trkpt lat="45.40677" lon="4.23767">
        <ele>570.68</ele>
        <time>2014-05-08T06:04:19Z</time>
      </trkpt>
      <trkpt lat="45.40676" lon="4.2377">
        <ele>569.72</ele>
        <time>2014-05-08T06:04:20Z</time>
      </trkpt>
      <trkpt lat="45.40676" lon="4.23774">
        <ele>568.76</ele>
        <time>2014-05-08T06:04:21Z</time>
      </trkpt>
      <trkpt lat="45.40675" lon="4.23778">
        <ele>566.83</ele>
        <time>2014-05-08T06:04:22Z</time>
      </trkpt>
      <trkpt lat="45.40674" lon="4.23782">
        <ele>565.87</ele>
        <time>2014-05-08T06:04:23Z</time>
      </trkpt>
      <trkpt lat="45.40672" lon="4.2379">
        <ele>562.99</ele>
        <time>2014-05-08T06:04:25Z</time>
      </trkpt>
      <trkpt lat="45.40663" lon="4.23802">
        <ele>559.62</ele>
        <time>2014-05-08T06:04:28Z</time>
      </trkpt>
      <trkpt lat="45.40652" lon="4.23822">
        <ele>556.74</ele>
        <time>2014-05-08T06:04:32Z</time>
      </trkpt>
      <trkpt lat="45.40649" lon="4.23839">
        <ele>554.82</ele>
        <time>2014-05-08T06:04:36Z</time>
      </trkpt>
      <trkpt lat="45.40648" lon="4.23853">
        <ele>552.9</ele>
        <time>2014-05-08T06:04:39Z</time>
      </trkpt>
      <trkpt lat="45.40646" lon="4.23868">
        <ele>549.53</ele>
        <time>2014-05-08T06:04:43Z</time>
      </trkpt>
      <trkpt lat="45.40646" lon="4.23872">
        <ele>549.53</ele>
        <time>2014-05-08T06:04:44Z</time>
      </trkpt>
      <trkpt lat="45.4065" lon="4.2389">
        <ele>547.61</ele>
        <time>2014-05-08T06:04:48Z</time>
      </trkpt>
      <trkpt lat="45.4065" lon="4.23923">
        <ele>544.72</ele>
        <time>2014-05-08T06:04:55Z</time>
      </trkpt>
      <trkpt lat="45.40655" lon="4.23972">
        <ele>542.32</ele>
        <time>2014-05-08T06:05:08Z</time>
      </trkpt>
      <trkpt lat="45.4066" lon="4.23982">
        <ele>542.8</ele>
        <time>2014-05-08T06:05:34Z</time>
      </trkpt>
      <trkpt lat="45.4066" lon="4.23983">
        <ele>542.8</ele>
        <time>2014-05-08T06:05:58Z</time>
      </trkpt>
      <trkpt lat="45.40658" lon="4.23982">
        <ele>541.36</ele>
        <time>2014-05-08T06:06:21Z</time>
      </trkpt>
      <trkpt lat="45.40656" lon="4.23985">
        <ele>541.84</ele>
        <time>2014-05-08T06:06:50Z</time>
      </trkpt>
      <trkpt lat="45.40658" lon="4.23988">
        <ele>541.36</ele>
        <time>2014-05-08T06:07:29Z</time>
      </trkpt>
      <trkpt lat="45.40659" lon="4.23987">
        <ele>541.36</ele>
        <time>2014-05-08T06:08:06Z</time>
      </trkpt>
      <trkpt lat="45.4066" lon="4.23988">
        <ele>540.88</ele>
        <time>2014-05-08T06:08:41Z</time>
      </trkpt>
      <trkpt lat="45.40659" lon="4.23987">
        <ele>541.36</ele>
        <time>2014-05-08T06:09:08Z</time>
      </trkpt>
      <trkpt lat="45.40658" lon="4.23986">
        <ele>541.36</ele>
        <time>2014-05-08T06:09:22Z</time>
      </trkpt>
      <trkpt lat="45.40661" lon="4.23986">
        <ele>541.36</ele>
        <time>2014-05-08T06:09:45Z</time>
      </trkpt>
      <trkpt lat="45.40659" lon="4.23983">
        <ele>541.36</ele>
        <time>2014-05-08T06:10:00Z</time>
      </trkpt>
      <trkpt lat="45.40658" lon="4.23988">
        <ele>540.88</ele>
        <time>2014-05-08T06:10:03Z</time>
      </trkpt>
      <trkpt lat="45.40656" lon="4.24012">
        <ele>537.51</ele>
        <time>2014-05-08T06:10:11Z</time>
      </trkpt>
      <trkpt lat="45.40662" lon="4.24054">
        <ele>535.59</ele>
        <time>2014-05-08T06:10:21Z</time>
      </trkpt>
      <trkpt lat="45.40662" lon="4.24057">
        <ele>535.11</ele>
        <time>2014-05-08T06:10:22Z</time>
      </trkpt>
      <trkpt lat="45.40662" lon="4.2406">
        <ele>534.63</ele>
        <time>2014-05-08T06:10:23Z</time>
      </trkpt>
      <trkpt lat="45.40662" lon="4.24063">
        <ele>534.15</ele>
        <time>2014-05-08T06:10:24Z</time>
      </trkpt>
      <trkpt lat="45.40661" lon="4.24066">
        <ele>533.67</ele>
        <time>2014-05-08T06:10:25Z</time>
      </trkpt>
      <trkpt lat="45.40661" lon="4.24069">
        <ele>532.23</ele>
        <time>2014-05-08T06:10:26Z</time>
      </trkpt>
      <trkpt lat="45.40662" lon="4.24072">
        <ele>531.75</ele>
        <time>2014-05-08T06:10:27Z</time>
      </trkpt>
      <trkpt lat="45.40663" lon="4.24074">
        <ele>531.27</ele>
        <time>2014-05-08T06:10:28Z</time>
      </trkpt>
      <trkpt lat="45.40664" lon="4.24076">
        <ele>530.79</ele>
        <time>2014-05-08T06:10:29Z</time>
      </trkpt>
      <trkpt lat="45.40665" lon="4.24079">
        <ele>530.79</ele>
        <time>2014-05-08T06:10:30Z</time>
      </trkpt>
      <trkpt lat="45.40666" lon="4.24081">
        <ele>529.82</ele>
        <time>2014-05-08T06:10:31Z</time>
      </trkpt>
      <trkpt lat="45.40666" lon="4.24083">
        <ele>529.82</ele>
        <time>2014-05-08T06:10:32Z</time>
      </trkpt>
      <trkpt lat="45.40665" lon="4.24085">
        <ele>528.86</ele>
        <time>2014-05-08T06:10:33Z</time>
      </trkpt>
      <trkpt lat="45.40666" lon="4.24088">
        <ele>528.38</ele>
        <time>2014-05-08T06:10:34Z</time>
      </trkpt>
      <trkpt lat="45.40667" lon="4.24091">
        <ele>527.42</ele>
        <time>2014-05-08T06:10:35Z</time>
      </trkpt>
      <trkpt lat="45.40669" lon="4.24092">
        <ele>526.46</ele>
        <time>2014-05-08T06:10:36Z</time>
      </trkpt>
      <trkpt lat="45.40671" lon="4.24093">
        <ele>525.98</ele>
        <time>2014-05-08T06:10:37Z</time>
      </trkpt>
      <trkpt lat="45.40672" lon="4.24095">
        <ele>526.46</ele>
        <time>2014-05-08T06:10:38Z</time>
      </trkpt>
      <trkpt lat="45.40673" lon="4.24096">
        <ele>525.5</ele>
        <time>2014-05-08T06:10:39Z</time>
      </trkpt>
      <trkpt lat="45.40674" lon="4.24098">
        <ele>525.02</ele>
        <time>2014-05-08T06:10:40Z</time>
      </trkpt>
      <trkpt lat="45.40673" lon="4.24101">
        <ele>524.06</ele>
        <time>2014-05-08T06:10:41Z</time>
      </trkpt>
      <trkpt lat="45.40673" lon="4.24103">
        <ele>524.06</ele>
        <time>2014-05-08T06:10:42Z</time>
      </trkpt>
      <trkpt lat="45.40673" lon="4.24106">
        <ele>523.58</ele>
        <time>2014-05-08T06:10:43Z</time>
      </trkpt>
      <trkpt lat="45.40675" lon="4.24108">
        <ele>523.09</ele>
        <time>2014-05-08T06:10:44Z</time>
      </trkpt>
      <trkpt lat="45.40676" lon="4.2411">
        <ele>522.61</ele>
        <time>2014-05-08T06:10:45Z</time>
      </trkpt>
      <trkpt lat="45.40678" lon="4.24112">
        <ele>521.65</ele>
        <time>2014-05-08T06:10:46Z</time>
      </trkpt>
      <trkpt lat="45.40679" lon="4.24115">
        <ele>521.65</ele>
        <time>2014-05-08T06:10:47Z</time>
      </trkpt>
      <trkpt lat="45.4068" lon="4.24118">
        <ele>521.17</ele>
        <time>2014-05-08T06:10:48Z</time>
      </trkpt>
      <trkpt lat="45.40681" lon="4.24121">
        <ele>520.21</ele>
        <time>2014-05-08T06:10:49Z</time>
      </trkpt>
      <trkpt lat="45.40682" lon="4.24124">
        <ele>519.25</ele>
        <time>2014-05-08T06:10:50Z</time>
      </trkpt>
      <trkpt lat="45.40682" lon="4.24126">
        <ele>519.25</ele>
        <time>2014-05-08T06:10:51Z</time>
      </trkpt>
      <trkpt lat="45.40683" lon="4.24128">
        <ele>518.29</ele>
        <time>2014-05-08T06:10:52Z</time>
      </trkpt>
      <trkpt lat="45.40683" lon="4.24131">
        <ele>518.29</ele>
        <time>2014-05-08T06:10:53Z</time>
      </trkpt>
      <trkpt lat="45.40683" lon="4.24134">
        <ele>517.33</ele>
        <time>2014-05-08T06:10:54Z</time>
      </trkpt>
      <trkpt lat="45.40683" lon="4.24137">
        <ele>516.85</ele>
        <time>2014-05-08T06:10:55Z</time>
      </trkpt>
      <trkpt lat="45.40683" lon="4.2414">
        <ele>516.37</ele>
        <time>2014-05-08T06:10:56Z</time>
      </trkpt>
      <trkpt lat="45.40683" lon="4.24143">
        <ele>516.37</ele>
        <time>2014-05-08T06:10:57Z</time>
      </trkpt>
      <trkpt lat="45.40682" lon="4.24152">
        <ele>514.44</ele>
        <time>2014-05-08T06:11:00Z</time>
      </trkpt>
      <trkpt lat="45.40683" lon="4.24156">
        <ele>513.48</ele>
        <time>2014-05-08T06:11:01Z</time>
      </trkpt>
      <trkpt lat="45.40684" lon="4.24158">
        <ele>513</ele>
        <time>2014-05-08T06:11:02Z</time>
      </trkpt>
      <trkpt lat="45.40686" lon="4.24161">
        <ele>512.52</ele>
        <time>2014-05-08T06:11:03Z</time>
      </trkpt>
      <trkpt lat="45.40686" lon="4.24163">
        <ele>511.56</ele>
        <time>2014-05-08T06:11:04Z</time>
      </trkpt>
      <trkpt lat="45.40685" lon="4.24166">
        <ele>511.56</ele>
        <time>2014-05-08T06:11:05Z</time>
      </trkpt>
      <trkpt lat="45.40685" lon="4.24169">
        <ele>511.56</ele>
        <time>2014-05-08T06:11:06Z</time>
      </trkpt>
      <trkpt lat="45.40686" lon="4.24173">
        <ele>510.6</ele>
        <time>2014-05-08T06:11:07Z</time>
      </trkpt>
      <trkpt lat="45.40687" lon="4.24176">
        <ele>509.64</ele>
        <time>2014-05-08T06:11:08Z</time>
      </trkpt>
      <trkpt lat="45.40689" lon="4.2418">
        <ele>509.64</ele>
        <time>2014-05-08T06:11:09Z</time>
      </trkpt>
      <trkpt lat="45.40696" lon="4.2419">
        <ele>508.19</ele>
        <time>2014-05-08T06:11:12Z</time>
      </trkpt>
      <trkpt lat="45.40706" lon="4.24211">
        <ele>505.31</ele>
        <time>2014-05-08T06:11:18Z</time>
      </trkpt>
      <trkpt lat="45.40718" lon="4.24239">
        <ele>502.91</ele>
        <time>2014-05-08T06:11:26Z</time>
      </trkpt>
      <trkpt lat="45.40719" lon="4.24241">
        <ele>502.43</ele>
        <time>2014-05-08T06:11:27Z</time>
      </trkpt>
      <trkpt lat="45.40721" lon="4.24243">
        <ele>501.95</ele>
        <time>2014-05-08T06:11:28Z</time>
      </trkpt>
      <trkpt lat="45.40723" lon="4.24245">
        <ele>501.95</ele>
        <time>2014-05-08T06:11:29Z</time>
      </trkpt>
      <trkpt lat="45.40723" lon="4.24247">
        <ele>500.5</ele>
        <time>2014-05-08T06:11:30Z</time>
      </trkpt>
      <trkpt lat="45.40725" lon="4.2425">
        <ele>500.02</ele>
        <time>2014-05-08T06:11:31Z</time>
      </trkpt>
      <trkpt lat="45.40729" lon="4.24261">
        <ele>498.1</ele>
        <time>2014-05-08T06:11:35Z</time>
      </trkpt>
      <trkpt lat="45.40731" lon="4.24263">
        <ele>497.14</ele>
        <time>2014-05-08T06:11:36Z</time>
      </trkpt>
      <trkpt lat="45.40731" lon="4.24265">
        <ele>496.66</ele>
        <time>2014-05-08T06:11:37Z</time>
      </trkpt>
      <trkpt lat="45.40732" lon="4.24268">
        <ele>496.18</ele>
        <time>2014-05-08T06:11:38Z</time>
      </trkpt>
      <trkpt lat="45.40733" lon="4.2427">
        <ele>495.22</ele>
        <time>2014-05-08T06:11:39Z</time>
      </trkpt>
      <trkpt lat="45.40733" lon="4.24272">
        <ele>495.22</ele>
        <time>2014-05-08T06:11:40Z</time>
      </trkpt>
      <trkpt lat="45.40733" lon="4.24274">
        <ele>494.26</ele>
        <time>2014-05-08T06:11:41Z</time>
      </trkpt>
      <trkpt lat="45.40734" lon="4.24278">
        <ele>492.33</ele>
        <time>2014-05-08T06:11:45Z</time>
      </trkpt>
      <trkpt lat="45.40739" lon="4.24288">
        <ele>490.41</ele>
        <time>2014-05-08T06:11:56Z</time>
      </trkpt>
      <trkpt lat="45.4074" lon="4.24293">
        <ele>488.49</ele>
        <time>2014-05-08T06:12:08Z</time>
      </trkpt>
      <trkpt lat="45.40742" lon="4.24296">
        <ele>488.01</ele>
        <time>2014-05-08T06:12:11Z</time>
      </trkpt>
      <trkpt lat="45.40743" lon="4.24297">
        <ele>488.01</ele>
        <time>2014-05-08T06:12:12Z</time>
      </trkpt>
      <trkpt lat="45.40744" lon="4.24299">
        <ele>487.05</ele>
        <time>2014-05-08T06:12:13Z</time>
      </trkpt>
      <trkpt lat="45.40746" lon="4.24302">
        <ele>487.53</ele>
        <time>2014-05-08T06:12:14Z</time>
      </trkpt>
      <trkpt lat="45.40746" lon="4.24305">
        <ele>487.05</ele>
        <time>2014-05-08T06:12:15Z</time>
      </trkpt>
      <trkpt lat="45.40747" lon="4.24307">
        <ele>486.56</ele>
        <time>2014-05-08T06:12:16Z</time>
      </trkpt>
      <trkpt lat="45.40749" lon="4.24315">
        <ele>484.64</ele>
        <time>2014-05-08T06:12:27Z</time>
      </trkpt>
      <trkpt lat="45.40754" lon="4.24319">
        <ele>481.76</ele>
        <time>2014-05-08T06:12:39Z</time>
      </trkpt>
      <trkpt lat="45.40754" lon="4.24328">
        <ele>481.28</ele>
        <time>2014-05-08T06:12:49Z</time>
      </trkpt>
      <trkpt lat="45.40755" lon="4.24333">
        <ele>480.8</ele>
        <time>2014-05-08T06:12:56Z</time>
      </trkpt>
      <trkpt lat="45.40757" lon="4.24336">
        <ele>480.32</ele>
        <time>2014-05-08T06:12:58Z</time>
      </trkpt>
      <trkpt lat="45.40758" lon="4.24339">
        <ele>479.84</ele>
        <time>2014-05-08T06:12:59Z</time>
      </trkpt>
      <trkpt lat="45.40758" lon="4.24342">
        <ele>479.35</ele>
        <time>2014-05-08T06:13:00Z</time>
      </trkpt>
      <trkpt lat="45.40758" lon="4.24346">
        <ele>477.91</ele>
        <time>2014-05-08T06:13:06Z</time>
      </trkpt>
      <trkpt lat="45.40758" lon="4.2435">
        <ele>477.43</ele>
        <time>2014-05-08T06:13:18Z</time>
      </trkpt>
      <trkpt lat="45.40755" lon="4.24353">
        <ele>476.47</ele>
        <time>2014-05-08T06:13:31Z</time>
      </trkpt>
      <trkpt lat="45.40759" lon="4.2436">
        <ele>475.51</ele>
        <time>2014-05-08T06:13:41Z</time>
      </trkpt>
      <trkpt lat="45.4076" lon="4.2436">
        <ele>475.03</ele>
        <time>2014-05-08T06:13:42Z</time>
      </trkpt>
      <trkpt lat="45.40764" lon="4.2436">
        <ele>475.03</ele>
        <time>2014-05-08T06:13:44Z</time>
      </trkpt>
      <trkpt lat="45.40766" lon="4.24357">
        <ele>473.59</ele>
        <time>2014-05-08T06:13:46Z</time>
      </trkpt>
      <trkpt lat="45.40767" lon="4.24354">
        <ele>473.11</ele>
        <time>2014-05-08T06:13:47Z</time>
      </trkpt>
      <trkpt lat="45.40767" lon="4.24351">
        <ele>472.63</ele>
        <time>2014-05-08T06:13:48Z</time>
      </trkpt>
      <trkpt lat="45.40773" lon="4.24326">
        <ele>470.22</ele>
        <time>2014-05-08T06:13:59Z</time>
      </trkpt>
      <trkpt lat="45.40774" lon="4.24324">
        <ele>469.74</ele>
        <time>2014-05-08T06:14:03Z</time>
      </trkpt>
      <trkpt lat="45.40774" lon="4.24326">
        <ele>466.86</ele>
        <time>2014-05-08T06:14:14Z</time>
      </trkpt>
      <trkpt lat="45.40775" lon="4.24327">
        <ele>466.86</ele>
        <time>2014-05-08T06:14:15Z</time>
      </trkpt>
      <trkpt lat="45.40776" lon="4.24328">
        <ele>466.86</ele>
        <time>2014-05-08T06:14:16Z</time>
      </trkpt>
      <trkpt lat="45.40777" lon="4.2433">
        <ele>465.42</ele>
        <time>2014-05-08T06:14:17Z</time>
      </trkpt>
      <trkpt lat="45.40778" lon="4.24332">
        <ele>465.42</ele>
        <time>2014-05-08T06:14:18Z</time>
      </trkpt>
      <trkpt lat="45.40778" lon="4.24335">
        <ele>464.93</ele>
        <time>2014-05-08T06:14:19Z</time>
      </trkpt>
      <trkpt lat="45.40783" lon="4.24346">
        <ele>461.57</ele>
        <time>2014-05-08T06:14:23Z</time>
      </trkpt>
      <trkpt lat="45.40784" lon="4.2435">
        <ele>461.57</ele>
        <time>2014-05-08T06:14:24Z</time>
      </trkpt>
      <trkpt lat="45.40787" lon="4.24357">
        <ele>461.09</ele>
        <time>2014-05-08T06:14:36Z</time>
      </trkpt>
      <trkpt lat="45.40793" lon="4.24363">
        <ele>460.61</ele>
        <time>2014-05-08T06:14:52Z</time>
      </trkpt>
      <trkpt lat="45.40793" lon="4.24364">
        <ele>457.24</ele>
        <time>2014-05-08T06:14:53Z</time>
      </trkpt>
      <trkpt lat="45.40792" lon="4.24365">
        <ele>458.21</ele>
        <time>2014-05-08T06:14:54Z</time>
      </trkpt>
      <trkpt lat="45.40792" lon="4.24366">
        <ele>460.13</ele>
        <time>2014-05-08T06:14:56Z</time>
      </trkpt>
      <trkpt lat="45.4079" lon="4.24364">
        <ele>459.65</ele>
        <time>2014-05-08T06:15:29Z</time>
      </trkpt>
      <trkpt lat="45.40789" lon="4.24365">
        <ele>458.69</ele>
        <time>2014-05-08T06:15:34Z</time>
      </trkpt>
      <trkpt lat="45.4079" lon="4.24367">
        <ele>460.61</ele>
        <time>2014-05-08T06:15:48Z</time>
      </trkpt>
      <trkpt lat="45.4079" lon="4.24366">
        <ele>461.57</ele>
        <time>2014-05-08T06:15:56Z</time>
      </trkpt>
      <trkpt lat="45.4079" lon="4.24365">
        <ele>460.61</ele>
        <time>2014-05-08T06:15:58Z</time>
      </trkpt>
      <trkpt lat="45.40795" lon="4.24363">
        <ele>460.61</ele>
        <time>2014-05-08T06:16:18Z</time>
      </trkpt>
      <trkpt lat="45.40795" lon="4.24368">
        <ele>460.61</ele>
        <time>2014-05-08T06:16:36Z</time>
      </trkpt>
      <trkpt lat="45.40792" lon="4.24372">
        <ele>460.13</ele>
        <time>2014-05-08T06:17:04Z</time>
      </trkpt>
      <trkpt lat="45.40791" lon="4.24367">
        <ele>460.61</ele>
        <time>2014-05-08T06:17:34Z</time>
      </trkpt>
      <trkpt lat="45.4079" lon="4.24364">
        <ele>459.65</ele>
        <time>2014-05-08T06:17:52Z</time>
      </trkpt>
      <trkpt lat="45.40791" lon="4.24365">
        <ele>459.17</ele>
        <time>2014-05-08T06:18:24Z</time>
      </trkpt>
      <trkpt lat="45.40788" lon="4.24364">
        <ele>461.09</ele>
        <time>2014-05-08T06:18:50Z</time>
      </trkpt>
      <trkpt lat="45.40787" lon="4.24364">
        <ele>457.72</ele>
        <time>2014-05-08T06:18:52Z</time>
      </trkpt>
      <trkpt lat="45.40787" lon="4.24364">
        <ele>459.17</ele>
        <time>2014-05-08T06:18:53Z</time>
      </trkpt>
      <trkpt lat="45.40786" lon="4.24361">
        <ele>459.17</ele>
        <time>2014-05-08T06:19:02Z</time>
      </trkpt>
      <trkpt lat="45.40786" lon="4.24359">
        <ele>458.69</ele>
        <time>2014-05-08T06:19:34Z</time>
      </trkpt>
      <trkpt lat="45.4079" lon="4.2436">
        <ele>459.17</ele>
        <time>2014-05-08T06:20:12Z</time>
      </trkpt>
      <trkpt lat="45.4079" lon="4.24367">
        <ele>459.65</ele>
        <time>2014-05-08T06:20:40Z</time>
      </trkpt>
      <trkpt lat="45.40789" lon="4.24361">
        <ele>459.17</ele>
        <time>2014-05-08T06:21:01Z</time>
      </trkpt>
      <trkpt lat="45.40785" lon="4.24392">
        <ele>459.65</ele>
        <time>2014-05-08T06:21:14Z</time>
      </trkpt>
      <trkpt lat="45.40776" lon="4.24413">
        <ele>458.69</ele>
        <time>2014-05-08T06:21:19Z</time>
      </trkpt>
      <trkpt lat="45.40772" lon="4.24413">
        <ele>458.69</ele>
        <time>2014-05-08T06:21:20Z</time>
      </trkpt>
      <trkpt lat="45.40769" lon="4.24411">
        <ele>458.21</ele>
        <time>2014-05-08T06:21:21Z</time>
      </trkpt>
      <trkpt lat="45.40764" lon="4.24408">
        <ele>457.24</ele>
        <time>2014-05-08T06:21:22Z</time>
      </trkpt>
      <trkpt lat="45.4076" lon="4.24403">
        <ele>457.24</ele>
        <time>2014-05-08T06:21:23Z</time>
      </trkpt>
      <trkpt lat="45.40756" lon="4.24399">
        <ele>456.28</ele>
        <time>2014-05-08T06:21:24Z</time>
      </trkpt>
      <trkpt lat="45.40753" lon="4.24396">
        <ele>456.28</ele>
        <time>2014-05-08T06:21:25Z</time>
      </trkpt>
      <trkpt lat="45.40749" lon="4.24394">
        <ele>455.8</ele>
        <time>2014-05-08T06:21:26Z</time>
      </trkpt>
      <trkpt lat="45.40748" lon="4.24393">
        <ele>455.32</ele>
        <time>2014-05-08T06:21:27Z</time>
      </trkpt>
      <trkpt lat="45.40747" lon="4.24394">
        <ele>455.32</ele>
        <time>2014-05-08T06:21:28Z</time>
      </trkpt>
      <trkpt lat="45.40748" lon="4.24398">
        <ele>454.84</ele>
        <time>2014-05-08T06:21:29Z</time>
      </trkpt>
      <trkpt lat="45.4075" lon="4.24401">
        <ele>454.84</ele>
        <time>2014-05-08T06:21:30Z</time>
      </trkpt>
      <trkpt lat="45.40753" lon="4.24405">
        <ele>454.84</ele>
        <time>2014-05-08T06:21:31Z</time>
      </trkpt>
      <trkpt lat="45.40766" lon="4.2443">
        <ele>452.44</ele>
        <time>2014-05-08T06:21:35Z</time>
      </trkpt>
      <trkpt lat="45.40769" lon="4.24439">
        <ele>452.44</ele>
        <time>2014-05-08T06:21:36Z</time>
      </trkpt>
      <trkpt lat="45.40791" lon="4.24498">
        <ele>450.03</ele>
        <time>2014-05-08T06:21:42Z</time>
      </trkpt>
      <trkpt lat="45.40816" lon="4.24562">
        <ele>447.15</ele>
        <time>2014-05-08T06:21:48Z</time>
      </trkpt>
      <trkpt lat="45.40845" lon="4.24708">
        <ele>445.23</ele>
        <time>2014-05-08T06:22:00Z</time>
      </trkpt>
      <trkpt lat="45.40851" lon="4.24862">
        <ele>444.75</ele>
        <time>2014-05-08T06:22:16Z</time>
      </trkpt>
      <trkpt lat="45.40854" lon="4.24914">
        <ele>445.71</ele>
        <time>2014-05-08T06:22:23Z</time>
      </trkpt>
      <trkpt lat="45.40852" lon="4.24927">
        <ele>444.75</ele>
        <time>2014-05-08T06:22:25Z</time>
      </trkpt>
      <trkpt lat="45.40852" lon="4.24934">
        <ele>445.23</ele>
        <time>2014-05-08T06:22:26Z</time>
      </trkpt>
      <trkpt lat="45.40851" lon="4.24941">
        <ele>445.23</ele>
        <time>2014-05-08T06:22:27Z</time>
      </trkpt>
      <trkpt lat="45.40852" lon="4.24947">
        <ele>445.71</ele>
        <time>2014-05-08T06:22:28Z</time>
      </trkpt>
      <trkpt lat="45.40854" lon="4.24954">
        <ele>445.23</ele>
        <time>2014-05-08T06:22:29Z</time>
      </trkpt>
      <trkpt lat="45.40857" lon="4.2496">
        <ele>445.71</ele>
        <time>2014-05-08T06:22:30Z</time>
      </trkpt>
      <trkpt lat="45.4086" lon="4.24967">
        <ele>445.71</ele>
        <time>2014-05-08T06:22:31Z</time>
      </trkpt>
      <trkpt lat="45.40862" lon="4.24971">
        <ele>445.23</ele>
        <time>2014-05-08T06:22:32Z</time>
      </trkpt>
      <trkpt lat="45.40862" lon="4.24974">
        <ele>445.23</ele>
        <time>2014-05-08T06:22:34Z</time>
      </trkpt>
      <trkpt lat="45.4086" lon="4.24974">
        <ele>445.71</ele>
        <time>2014-05-08T06:22:35Z</time>
      </trkpt>
      <trkpt lat="45.40859" lon="4.24972">
        <ele>445.71</ele>
        <time>2014-05-08T06:22:36Z</time>
      </trkpt>
      <trkpt lat="45.40857" lon="4.24966">
        <ele>444.27</ele>
        <time>2014-05-08T06:22:39Z</time>
      </trkpt>
      <trkpt lat="45.40861" lon="4.24951">
        <ele>444.75</ele>
        <time>2014-05-08T06:22:49Z</time>
      </trkpt>
      <trkpt lat="45.40865" lon="4.24949">
        <ele>445.23</ele>
        <time>2014-05-08T06:22:50Z</time>
      </trkpt>
      <trkpt lat="45.40868" lon="4.24951">
        <ele>445.71</ele>
        <time>2014-05-08T06:22:51Z</time>
      </trkpt>
      <trkpt lat="45.4091" lon="4.25066">
        <ele>444.75</ele>
        <time>2014-05-08T06:23:05Z</time>
      </trkpt>
      <trkpt lat="45.40912" lon="4.25073">
        <ele>444.75</ele>
        <time>2014-05-08T06:23:06Z</time>
      </trkpt>
      <trkpt lat="45.40928" lon="4.25095">
        <ele>444.27</ele>
        <time>2014-05-08T06:23:13Z</time>
      </trkpt>
      <trkpt lat="45.40929" lon="4.2509">
        <ele>443.79</ele>
        <time>2014-05-08T06:23:14Z</time>
      </trkpt>
      <trkpt lat="45.40947" lon="4.25049">
        <ele>442.82</ele>
        <time>2014-05-08T06:23:19Z</time>
      </trkpt>
      <trkpt lat="45.40952" lon="4.25042">
        <ele>441.86</ele>
        <time>2014-05-08T06:23:20Z</time>
      </trkpt>
      <trkpt lat="45.40956" lon="4.25037">
        <ele>443.31</ele>
        <time>2014-05-08T06:23:21Z</time>
      </trkpt>
      <trkpt lat="45.4096" lon="4.25035">
        <ele>443.31</ele>
        <time>2014-05-08T06:23:22Z</time>
      </trkpt>
      <trkpt lat="45.40965" lon="4.25035">
        <ele>444.27</ele>
        <time>2014-05-08T06:23:23Z</time>
      </trkpt>
      <trkpt lat="45.40969" lon="4.25034">
        <ele>443.79</ele>
        <time>2014-05-08T06:23:24Z</time>
      </trkpt>
      <trkpt lat="45.40973" lon="4.25035">
        <ele>444.75</ele>
        <time>2014-05-08T06:23:25Z</time>
      </trkpt>
      <trkpt lat="45.40977" lon="4.25035">
        <ele>445.23</ele>
        <time>2014-05-08T06:23:26Z</time>
      </trkpt>
      <trkpt lat="45.40981" lon="4.25036">
        <ele>446.19</ele>
        <time>2014-05-08T06:23:27Z</time>
      </trkpt>
      <trkpt lat="45.40985" lon="4.25037">
        <ele>446.19</ele>
        <time>2014-05-08T06:23:28Z</time>
      </trkpt>
      <trkpt lat="45.40989" lon="4.25037">
        <ele>447.15</ele>
        <time>2014-05-08T06:23:29Z</time>
      </trkpt>
      <trkpt lat="45.41012" lon="4.25047">
        <ele>450.52</ele>
        <time>2014-05-08T06:23:37Z</time>
      </trkpt>
      <trkpt lat="45.41015" lon="4.25049">
        <ele>451</ele>
        <time>2014-05-08T06:23:38Z</time>
      </trkpt>
      <trkpt lat="45.4106" lon="4.2506">
        <ele>451.96</ele>
        <time>2014-05-08T06:23:51Z</time>
      </trkpt>
      <trkpt lat="45.41158" lon="4.25057">
        <ele>451</ele>
        <time>2014-05-08T06:24:09Z</time>
      </trkpt>
      <trkpt lat="45.4118" lon="4.25051">
        <ele>450.52</ele>
        <time>2014-05-08T06:24:13Z</time>
      </trkpt>
      <trkpt lat="45.41186" lon="4.25048">
        <ele>451.96</ele>
        <time>2014-05-08T06:24:14Z</time>
      </trkpt>
      <trkpt lat="45.41191" lon="4.25044">
        <ele>451.48</ele>
        <time>2014-05-08T06:24:15Z</time>
      </trkpt>
      <trkpt lat="45.41246" lon="4.24971">
        <ele>453.4</ele>
        <time>2014-05-08T06:24:30Z</time>
      </trkpt>
      <trkpt lat="45.41287" lon="4.24899">
        <ele>454.36</ele>
        <time>2014-05-08T06:24:42Z</time>
      </trkpt>
      <trkpt lat="45.41291" lon="4.24894">
        <ele>454.36</ele>
        <time>2014-05-08T06:24:43Z</time>
      </trkpt>
      <trkpt lat="45.41296" lon="4.24891">
        <ele>454.84</ele>
        <time>2014-05-08T06:24:44Z</time>
      </trkpt>
      <trkpt lat="45.413" lon="4.24888">
        <ele>454.36</ele>
        <time>2014-05-08T06:24:45Z</time>
      </trkpt>
      <trkpt lat="45.41305" lon="4.24886">
        <ele>454.84</ele>
        <time>2014-05-08T06:24:46Z</time>
      </trkpt>
      <trkpt lat="45.4131" lon="4.24885">
        <ele>455.32</ele>
        <time>2014-05-08T06:24:47Z</time>
      </trkpt>
      <trkpt lat="45.41315" lon="4.24885">
        <ele>455.32</ele>
        <time>2014-05-08T06:24:48Z</time>
      </trkpt>
      <trkpt lat="45.4132" lon="4.24885">
        <ele>455.32</ele>
        <time>2014-05-08T06:24:49Z</time>
      </trkpt>
      <trkpt lat="45.4139" lon="4.24919">
        <ele>454.84</ele>
        <time>2014-05-08T06:25:03Z</time>
      </trkpt>
      <trkpt lat="45.41409" lon="4.24933">
        <ele>454.36</ele>
        <time>2014-05-08T06:25:07Z</time>
      </trkpt>
      <trkpt lat="45.41413" lon="4.24939">
        <ele>454.36</ele>
        <time>2014-05-08T06:25:08Z</time>
      </trkpt>
      <trkpt lat="45.41417" lon="4.24945">
        <ele>454.36</ele>
        <time>2014-05-08T06:25:09Z</time>
      </trkpt>
      <trkpt lat="45.4142" lon="4.24952">
        <ele>453.88</ele>
        <time>2014-05-08T06:25:10Z</time>
      </trkpt>
      <trkpt lat="45.41422" lon="4.2496">
        <ele>453.88</ele>
        <time>2014-05-08T06:25:11Z</time>
      </trkpt>
      <trkpt lat="45.41425" lon="4.24968">
        <ele>452.92</ele>
        <time>2014-05-08T06:25:12Z</time>
      </trkpt>
      <trkpt lat="45.41449" lon="4.25032">
        <ele>450.03</ele>
        <time>2014-05-08T06:25:20Z</time>
      </trkpt>
      <trkpt lat="45.41457" lon="4.25048">
        <ele>449.07</ele>
        <time>2014-05-08T06:25:22Z</time>
      </trkpt>
      <trkpt lat="45.41461" lon="4.25054">
        <ele>449.07</ele>
        <time>2014-05-08T06:25:23Z</time>
      </trkpt>
      <trkpt lat="45.41465" lon="4.25057">
        <ele>448.59</ele>
        <time>2014-05-08T06:25:24Z</time>
      </trkpt>
      <trkpt lat="45.4147" lon="4.25059">
        <ele>448.59</ele>
        <time>2014-05-08T06:25:25Z</time>
      </trkpt>
      <trkpt lat="45.41476" lon="4.2506">
        <ele>448.59</ele>
        <time>2014-05-08T06:25:26Z</time>
      </trkpt>
      <trkpt lat="45.41578" lon="4.25055">
        <ele>447.63</ele>
        <time>2014-05-08T06:25:43Z</time>
      </trkpt>
      <trkpt lat="45.4169" lon="4.25047">
        <ele>447.15</ele>
        <time>2014-05-08T06:26:01Z</time>
      </trkpt>
      <trkpt lat="45.41725" lon="4.2502">
        <ele>450.03</ele>
        <time>2014-05-08T06:26:09Z</time>
      </trkpt>
      <trkpt lat="45.41738" lon="4.24982">
        <ele>452.92</ele>
        <time>2014-05-08T06:26:16Z</time>
      </trkpt>
      <trkpt lat="45.4177" lon="4.24961">
        <ele>453.88</ele>
        <time>2014-05-08T06:26:26Z</time>
      </trkpt>
      <trkpt lat="45.4181" lon="4.24961">
        <ele>453.4</ele>
        <time>2014-05-08T06:26:39Z</time>
      </trkpt>
      <trkpt lat="45.41847" lon="4.24995">
        <ele>451.48</ele>
        <time>2014-05-08T06:26:47Z</time>
      </trkpt>
      <trkpt lat="45.41901" lon="4.2505">
        <ele>448.59</ele>
        <time>2014-05-08T06:26:57Z</time>
      </trkpt>
      <trkpt lat="45.41937" lon="4.25083">
        <ele>449.07</ele>
        <time>2014-05-08T06:27:05Z</time>
      </trkpt>
      <trkpt lat="45.41944" lon="4.25119">
        <ele>452.44</ele>
        <time>2014-05-08T06:27:13Z</time>
      </trkpt>
      <trkpt lat="45.41953" lon="4.25153">
        <ele>455.32</ele>
        <time>2014-05-08T06:27:23Z</time>
      </trkpt>
      <trkpt lat="45.41965" lon="4.2519">
        <ele>458.69</ele>
        <time>2014-05-08T06:27:36Z</time>
      </trkpt>
      <trkpt lat="45.41968" lon="4.25196">
        <ele>459.65</ele>
        <time>2014-05-08T06:27:38Z</time>
      </trkpt>
      <trkpt lat="45.41998" lon="4.25252">
        <ele>462.53</ele>
        <time>2014-05-08T06:27:56Z</time>
      </trkpt>
      <trkpt lat="45.42039" lon="4.25312">
        <ele>462.05</ele>
        <time>2014-05-08T06:28:13Z</time>
      </trkpt>
      <trkpt lat="45.4206" lon="4.25353">
        <ele>463.49</ele>
        <time>2014-05-08T06:28:25Z</time>
      </trkpt>
      <trkpt lat="45.42095" lon="4.25353">
        <ele>464.93</ele>
        <time>2014-05-08T06:28:37Z</time>
      </trkpt>
      <trkpt lat="45.42139" lon="4.25385">
        <ele>466.38</ele>
        <time>2014-05-08T06:28:51Z</time>
      </trkpt>
      <trkpt lat="45.4217" lon="4.25373">
        <ele>464.45</ele>
        <time>2014-05-08T06:29:02Z</time>
      </trkpt>
      <trkpt lat="45.42176" lon="4.25369">
        <ele>463.01</ele>
        <time>2014-05-08T06:29:04Z</time>
      </trkpt>
      <trkpt lat="45.42229" lon="4.25344">
        <ele>462.05</ele>
        <time>2014-05-08T06:29:17Z</time>
      </trkpt>
      <trkpt lat="45.42282" lon="4.25323">
        <ele>462.53</ele>
        <time>2014-05-08T06:29:31Z</time>
      </trkpt>
      <trkpt lat="45.42302" lon="4.25251">
        <ele>461.09</ele>
        <time>2014-05-08T06:29:43Z</time>
      </trkpt>
      <trkpt lat="45.42305" lon="4.25245">
        <ele>460.61</ele>
        <time>2014-05-08T06:29:44Z</time>
      </trkpt>
      <trkpt lat="45.42308" lon="4.25239">
        <ele>462.05</ele>
        <time>2014-05-08T06:29:45Z</time>
      </trkpt>
      <trkpt lat="45.42311" lon="4.25235">
        <ele>461.09</ele>
        <time>2014-05-08T06:29:46Z</time>
      </trkpt>
      <trkpt lat="45.42315" lon="4.25231">
        <ele>461.09</ele>
        <time>2014-05-08T06:29:47Z</time>
      </trkpt>
      <trkpt lat="45.42319" lon="4.25229">
        <ele>460.61</ele>
        <time>2014-05-08T06:29:48Z</time>
      </trkpt>
      <trkpt lat="45.42323" lon="4.25227">
        <ele>460.61</ele>
        <time>2014-05-08T06:29:49Z</time>
      </trkpt>
      <trkpt lat="45.42362" lon="4.25243">
        <ele>461.57</ele>
        <time>2014-05-08T06:29:59Z</time>
      </trkpt>
      <trkpt lat="45.42366" lon="4.25241">
        <ele>461.57</ele>
        <time>2014-05-08T06:30:00Z</time>
      </trkpt>
      <trkpt lat="45.4237" lon="4.25237">
        <ele>461.09</ele>
        <time>2014-05-08T06:30:01Z</time>
      </trkpt>
      <trkpt lat="45.42378" lon="4.25229">
        <ele>460.13</ele>
        <time>2014-05-08T06:30:03Z</time>
      </trkpt>
      <trkpt lat="45.42392" lon="4.25217">
        <ele>456.76</ele>
        <time>2014-05-08T06:30:07Z</time>
      </trkpt>
      <trkpt lat="45.42421" lon="4.25208">
        <ele>452.92</ele>
        <time>2014-05-08T06:30:14Z</time>
      </trkpt>
      <trkpt lat="45.42461" lon="4.25191">
        <ele>450.03</ele>
        <time>2014-05-08T06:30:23Z</time>
      </trkpt>
      <trkpt lat="45.42474" lon="4.25182">
        <ele>446.67</ele>
        <time>2014-05-08T06:30:26Z</time>
      </trkpt>
      <trkpt lat="45.42507" lon="4.25159">
        <ele>443.79</ele>
        <time>2014-05-08T06:30:33Z</time>
      </trkpt>
      <trkpt lat="45.42526" lon="4.25143">
        <ele>441.38</ele>
        <time>2014-05-08T06:30:36Z</time>
      </trkpt>
      <trkpt lat="45.42554" lon="4.25126">
        <ele>439.46</ele>
        <time>2014-05-08T06:30:40Z</time>
      </trkpt>
      <trkpt lat="45.42651" lon="4.25044">
        <ele>442.34</ele>
        <time>2014-05-08T06:30:58Z</time>
      </trkpt>
      <trkpt lat="45.42697" lon="4.24996">
        <ele>446.19</ele>
        <time>2014-05-08T06:31:11Z</time>
      </trkpt>
      <trkpt lat="45.427" lon="4.24994">
        <ele>446.19</ele>
        <time>2014-05-08T06:31:12Z</time>
      </trkpt>
      <trkpt lat="45.42745" lon="4.24963">
        <ele>448.11</ele>
        <time>2014-05-08T06:31:29Z</time>
      </trkpt>
      <trkpt lat="45.42797" lon="4.24935">
        <ele>447.63</ele>
        <time>2014-05-08T06:31:41Z</time>
      </trkpt>
      <trkpt lat="45.42809" lon="4.24934">
        <ele>446.67</ele>
        <time>2014-05-08T06:31:43Z</time>
      </trkpt>
      <trkpt lat="45.42842" lon="4.24931">
        <ele>443.31</ele>
        <time>2014-05-08T06:31:48Z</time>
      </trkpt>
      <trkpt lat="45.42878" lon="4.24917">
        <ele>441.38</ele>
        <time>2014-05-08T06:31:53Z</time>
      </trkpt>
      <trkpt lat="45.42893" lon="4.24914">
        <ele>440.42</ele>
        <time>2014-05-08T06:31:55Z</time>
      </trkpt>
      <trkpt lat="45.429" lon="4.24914">
        <ele>440.42</ele>
        <time>2014-05-08T06:31:56Z</time>
      </trkpt>
      <trkpt lat="45.42906" lon="4.24915">
        <ele>440.9</ele>
        <time>2014-05-08T06:31:57Z</time>
      </trkpt>
      <trkpt lat="45.42913" lon="4.24917">
        <ele>440.9</ele>
        <time>2014-05-08T06:31:58Z</time>
      </trkpt>
      <trkpt lat="45.42919" lon="4.24919">
        <ele>441.86</ele>
        <time>2014-05-08T06:31:59Z</time>
      </trkpt>
      <trkpt lat="45.42998" lon="4.24952">
        <ele>439.94</ele>
        <time>2014-05-08T06:32:13Z</time>
      </trkpt>
      <trkpt lat="45.43003" lon="4.24952">
        <ele>439.94</ele>
        <time>2014-05-08T06:32:14Z</time>
      </trkpt>
      <trkpt lat="45.43018" lon="4.24951">
        <ele>440.9</ele>
        <time>2014-05-08T06:32:18Z</time>
      </trkpt>
      <trkpt lat="45.43021" lon="4.24947">
        <ele>440.42</ele>
        <time>2014-05-08T06:32:19Z</time>
      </trkpt>
      <trkpt lat="45.43044" lon="4.24913">
        <ele>442.34</ele>
        <time>2014-05-08T06:32:26Z</time>
      </trkpt>
      <trkpt lat="45.43048" lon="4.2491">
        <ele>442.34</ele>
        <time>2014-05-08T06:32:27Z</time>
      </trkpt>
      <trkpt lat="45.43052" lon="4.24908">
        <ele>443.31</ele>
        <time>2014-05-08T06:32:28Z</time>
      </trkpt>
      <trkpt lat="45.43056" lon="4.24906">
        <ele>443.79</ele>
        <time>2014-05-08T06:32:29Z</time>
      </trkpt>
      <trkpt lat="45.43059" lon="4.24905">
        <ele>444.27</ele>
        <time>2014-05-08T06:32:30Z</time>
      </trkpt>
      <trkpt lat="45.43067" lon="4.24903">
        <ele>445.23</ele>
        <time>2014-05-08T06:32:32Z</time>
      </trkpt>
      <trkpt lat="45.43118" lon="4.24907">
        <ele>446.19</ele>
        <time>2014-05-08T06:32:47Z</time>
      </trkpt>
      <trkpt lat="45.43152" lon="4.24911">
        <ele>442.82</ele>
        <time>2014-05-08T06:32:56Z</time>
      </trkpt>
      <trkpt lat="45.43161" lon="4.24909">
        <ele>441.86</ele>
        <time>2014-05-08T06:32:58Z</time>
      </trkpt>
      <trkpt lat="45.43177" lon="4.24905">
        <ele>440.42</ele>
        <time>2014-05-08T06:33:01Z</time>
      </trkpt>
      <trkpt lat="45.4323" lon="4.24892">
        <ele>443.31</ele>
        <time>2014-05-08T06:33:10Z</time>
      </trkpt>
      <trkpt lat="45.433" lon="4.24891">
        <ele>443.31</ele>
        <time>2014-05-08T06:33:23Z</time>
      </trkpt>
      <trkpt lat="45.43302" lon="4.24893">
        <ele>443.31</ele>
        <time>2014-05-08T06:33:24Z</time>
      </trkpt>
      <trkpt lat="45.43302" lon="4.24895">
        <ele>443.79</ele>
        <time>2014-05-08T06:33:25Z</time>
      </trkpt>
      <trkpt lat="45.43301" lon="4.24896">
        <ele>444.27</ele>
        <time>2014-05-08T06:33:26Z</time>
      </trkpt>
      <trkpt lat="45.433" lon="4.24907">
        <ele>445.23</ele>
        <time>2014-05-08T06:33:30Z</time>
      </trkpt>
      <trkpt lat="45.43301" lon="4.2491">
        <ele>445.71</ele>
        <time>2014-05-08T06:33:31Z</time>
      </trkpt>
      <trkpt lat="45.43313" lon="4.24917">
        <ele>449.07</ele>
        <time>2014-05-08T06:33:38Z</time>
      </trkpt>
      <trkpt lat="45.43359" lon="4.24899">
        <ele>446.19</ele>
        <time>2014-05-08T06:33:52Z</time>
      </trkpt>
      <trkpt lat="45.43369" lon="4.24893">
        <ele>445.71</ele>
        <time>2014-05-08T06:33:54Z</time>
      </trkpt>
      <trkpt lat="45.43379" lon="4.24885">
        <ele>444.75</ele>
        <time>2014-05-08T06:33:56Z</time>
      </trkpt>
      <trkpt lat="45.43383" lon="4.2488">
        <ele>443.31</ele>
        <time>2014-05-08T06:33:57Z</time>
      </trkpt>
      <trkpt lat="45.43388" lon="4.24875">
        <ele>442.34</ele>
        <time>2014-05-08T06:33:58Z</time>
      </trkpt>
      <trkpt lat="45.43393" lon="4.24868">
        <ele>441.86</ele>
        <time>2014-05-08T06:33:59Z</time>
      </trkpt>
      <trkpt lat="45.43429" lon="4.24815">
        <ele>438.98</ele>
        <time>2014-05-08T06:34:06Z</time>
      </trkpt>
      <trkpt lat="45.43442" lon="4.24792">
        <ele>438.98</ele>
        <time>2014-05-08T06:34:10Z</time>
      </trkpt>
      <trkpt lat="45.43445" lon="4.24787">
        <ele>438.5</ele>
        <time>2014-05-08T06:34:11Z</time>
      </trkpt>
      <trkpt lat="45.43449" lon="4.24783">
        <ele>438.02</ele>
        <time>2014-05-08T06:34:12Z</time>
      </trkpt>
      <trkpt lat="45.43484" lon="4.24767">
        <ele>441.38</ele>
        <time>2014-05-08T06:34:22Z</time>
      </trkpt>
      <trkpt lat="45.43517" lon="4.24752">
        <ele>444.27</ele>
        <time>2014-05-08T06:34:38Z</time>
      </trkpt>
      <trkpt lat="45.43532" lon="4.24726">
        <ele>447.15</ele>
        <time>2014-05-08T06:34:48Z</time>
      </trkpt>
      <trkpt lat="45.4355" lon="4.24706">
        <ele>450.52</ele>
        <time>2014-05-08T06:35:00Z</time>
      </trkpt>
      <trkpt lat="45.43571" lon="4.24671">
        <ele>453.88</ele>
        <time>2014-05-08T06:35:14Z</time>
      </trkpt>
      <trkpt lat="45.43574" lon="4.24658">
        <ele>453.88</ele>
        <time>2014-05-08T06:35:22Z</time>
      </trkpt>
      <trkpt lat="45.4358" lon="4.24652">
        <ele>456.28</ele>
        <time>2014-05-08T06:35:26Z</time>
      </trkpt>
      <trkpt lat="45.43588" lon="4.24645">
        <ele>459.17</ele>
        <time>2014-05-08T06:35:31Z</time>
      </trkpt>
      <trkpt lat="45.43622" lon="4.24673">
        <ele>456.28</ele>
        <time>2014-05-08T06:35:42Z</time>
      </trkpt>
      <trkpt lat="45.43624" lon="4.24681">
        <ele>455.32</ele>
        <time>2014-05-08T06:35:43Z</time>
      </trkpt>
      <trkpt lat="45.43627" lon="4.24689">
        <ele>455.32</ele>
        <time>2014-05-08T06:35:44Z</time>
      </trkpt>
      <trkpt lat="45.43629" lon="4.24698">
        <ele>455.32</ele>
        <time>2014-05-08T06:35:45Z</time>
      </trkpt>
      <trkpt lat="45.43637" lon="4.24806">
        <ele>453.88</ele>
        <time>2014-05-08T06:36:00Z</time>
      </trkpt>
      <trkpt lat="45.43639" lon="4.24905">
        <ele>453.88</ele>
        <time>2014-05-08T06:36:15Z</time>
      </trkpt>
      <trkpt lat="45.43638" lon="4.2492">
        <ele>453.4</ele>
        <time>2014-05-08T06:36:17Z</time>
      </trkpt>
      <trkpt lat="45.43647" lon="4.25049">
        <ele>454.36</ele>
        <time>2014-05-08T06:36:34Z</time>
      </trkpt>
      <trkpt lat="45.43657" lon="4.25093">
        <ele>457.24</ele>
        <time>2014-05-08T06:36:43Z</time>
      </trkpt>
      <trkpt lat="45.43674" lon="4.25115">
        <ele>461.09</ele>
        <time>2014-05-08T06:36:55Z</time>
      </trkpt>
      <trkpt lat="45.43693" lon="4.25149">
        <ele>461.09</ele>
        <time>2014-05-08T06:37:08Z</time>
      </trkpt>
      <trkpt lat="45.43727" lon="4.2518">
        <ele>464.93</ele>
        <time>2014-05-08T06:37:25Z</time>
      </trkpt>
      <trkpt lat="45.43739" lon="4.25197">
        <ele>467.82</ele>
        <time>2014-05-08T06:37:35Z</time>
      </trkpt>
      <trkpt lat="45.43756" lon="4.25218">
        <ele>471.66</ele>
        <time>2014-05-08T06:37:48Z</time>
      </trkpt>
      <trkpt lat="45.43761" lon="4.25222">
        <ele>472.63</ele>
        <time>2014-05-08T06:37:52Z</time>
      </trkpt>
      <trkpt lat="45.43773" lon="4.25232">
        <ele>475.51</ele>
        <time>2014-05-08T06:38:11Z</time>
      </trkpt>
      <trkpt lat="45.43782" lon="4.25244">
        <ele>478.87</ele>
        <time>2014-05-08T06:38:28Z</time>
      </trkpt>
      <trkpt lat="45.43793" lon="4.25261">
        <ele>481.76</ele>
        <time>2014-05-08T06:38:44Z</time>
      </trkpt>
      <trkpt lat="45.438" lon="4.25264">
        <ele>485.12</ele>
        <time>2014-05-08T06:38:56Z</time>
      </trkpt>
      <trkpt lat="45.43816" lon="4.25272">
        <ele>488.97</ele>
        <time>2014-05-08T06:39:16Z</time>
      </trkpt>
      <trkpt lat="45.43827" lon="4.25274">
        <ele>491.37</ele>
        <time>2014-05-08T06:39:35Z</time>
      </trkpt>
      <trkpt lat="45.43832" lon="4.25289">
        <ele>495.22</ele>
        <time>2014-05-08T06:39:47Z</time>
      </trkpt>
      <trkpt lat="45.43832" lon="4.25291">
        <ele>495.22</ele>
        <time>2014-05-08T06:39:48Z</time>
      </trkpt>
      <trkpt lat="45.43837" lon="4.25306">
        <ele>498.58</ele>
        <time>2014-05-08T06:40:03Z</time>
      </trkpt>
      <trkpt lat="45.4385" lon="4.25328">
        <ele>501.95</ele>
        <time>2014-05-08T06:40:22Z</time>
      </trkpt>
      <trkpt lat="45.4386" lon="4.25333">
        <ele>504.83</ele>
        <time>2014-05-08T06:40:38Z</time>
      </trkpt>
      <trkpt lat="45.43871" lon="4.25344">
        <ele>506.27</ele>
        <time>2014-05-08T06:40:59Z</time>
      </trkpt>
      <trkpt lat="45.43874" lon="4.2535">
        <ele>507.23</ele>
        <time>2014-05-08T06:41:03Z</time>
      </trkpt>
      <trkpt lat="45.43875" lon="4.25352">
        <ele>507.71</ele>
        <time>2014-05-08T06:41:04Z</time>
      </trkpt>
      <trkpt lat="45.43889" lon="4.25379">
        <ele>510.6</ele>
        <time>2014-05-08T06:41:16Z</time>
      </trkpt>
      <trkpt lat="45.43891" lon="4.25386">
        <ele>512.04</ele>
        <time>2014-05-08T06:41:19Z</time>
      </trkpt>
      <trkpt lat="45.43898" lon="4.25424">
        <ele>515.4</ele>
        <time>2014-05-08T06:41:35Z</time>
      </trkpt>
      <trkpt lat="45.43893" lon="4.25448">
        <ele>518.29</ele>
        <time>2014-05-08T06:41:45Z</time>
      </trkpt>
      <trkpt lat="45.43888" lon="4.25514">
        <ele>521.65</ele>
        <time>2014-05-08T06:42:07Z</time>
      </trkpt>
      <trkpt lat="45.43878" lon="4.25591">
        <ele>521.65</ele>
        <time>2014-05-08T06:42:26Z</time>
      </trkpt>
      <trkpt lat="45.43877" lon="4.25635">
        <ele>518.77</ele>
        <time>2014-05-08T06:42:32Z</time>
      </trkpt>
      <trkpt lat="45.43875" lon="4.25661">
        <ele>517.81</ele>
        <time>2014-05-08T06:42:36Z</time>
      </trkpt>
      <trkpt lat="45.43881" lon="4.25697">
        <ele>520.69</ele>
        <time>2014-05-08T06:42:45Z</time>
      </trkpt>
      <trkpt lat="45.43911" lon="4.25743">
        <ele>522.61</ele>
        <time>2014-05-08T06:42:59Z</time>
      </trkpt>
      <trkpt lat="45.43928" lon="4.25799">
        <ele>522.13</ele>
        <time>2014-05-08T06:43:10Z</time>
      </trkpt>
      <trkpt lat="45.4395" lon="4.25866">
        <ele>522.61</ele>
        <time>2014-05-08T06:43:23Z</time>
      </trkpt>
      <trkpt lat="45.43988" lon="4.25924">
        <ele>524.54</ele>
        <time>2014-05-08T06:43:39Z</time>
      </trkpt>
      <trkpt lat="45.44015" lon="4.25988">
        <ele>527.42</ele>
        <time>2014-05-08T06:43:58Z</time>
      </trkpt>
      <trkpt lat="45.44028" lon="4.2602">
        <ele>528.86</ele>
        <time>2014-05-08T06:44:07Z</time>
      </trkpt>
      <trkpt lat="45.44078" lon="4.26069">
        <ele>528.86</ele>
        <time>2014-05-08T06:44:24Z</time>
      </trkpt>
      <trkpt lat="45.44131" lon="4.26136">
        <ele>527.42</ele>
        <time>2014-05-08T06:44:39Z</time>
      </trkpt>
      <trkpt lat="45.44177" lon="4.26171">
        <ele>523.58</ele>
        <time>2014-05-08T06:44:50Z</time>
      </trkpt>
      <trkpt lat="45.44185" lon="4.26175">
        <ele>522.13</ele>
        <time>2014-05-08T06:44:53Z</time>
      </trkpt>
      <trkpt lat="45.44197" lon="4.2618">
        <ele>521.65</ele>
        <time>2014-05-08T06:44:56Z</time>
      </trkpt>
      <trkpt lat="45.44202" lon="4.2618">
        <ele>521.17</ele>
        <time>2014-05-08T06:44:57Z</time>
      </trkpt>
      <trkpt lat="45.44206" lon="4.26178">
        <ele>521.17</ele>
        <time>2014-05-08T06:44:58Z</time>
      </trkpt>
      <trkpt lat="45.44211" lon="4.26176">
        <ele>520.69</ele>
        <time>2014-05-08T06:44:59Z</time>
      </trkpt>
      <trkpt lat="45.44216" lon="4.26173">
        <ele>520.21</ele>
        <time>2014-05-08T06:45:00Z</time>
      </trkpt>
      <trkpt lat="45.44221" lon="4.2617">
        <ele>520.69</ele>
        <time>2014-05-08T06:45:01Z</time>
      </trkpt>
      <trkpt lat="45.44237" lon="4.2616">
        <ele>519.25</ele>
        <time>2014-05-08T06:45:04Z</time>
      </trkpt>
      <trkpt lat="45.44271" lon="4.26136">
        <ele>515.88</ele>
        <time>2014-05-08T06:45:10Z</time>
      </trkpt>
      <trkpt lat="45.44277" lon="4.2613">
        <ele>514.92</ele>
        <time>2014-05-08T06:45:12Z</time>
      </trkpt>
      <trkpt lat="45.44279" lon="4.26127">
        <ele>513.96</ele>
        <time>2014-05-08T06:45:17Z</time>
      </trkpt>
      <trkpt lat="45.44247" lon="4.26156">
        <ele>512.04</ele>
        <time>2014-05-08T06:45:26Z</time>
      </trkpt>
      <trkpt lat="45.44236" lon="4.26176">
        <ele>510.12</ele>
        <time>2014-05-08T06:45:29Z</time>
      </trkpt>
      <trkpt lat="45.44222" lon="4.26205">
        <ele>507.23</ele>
        <time>2014-05-08T06:45:33Z</time>
      </trkpt>
      <trkpt lat="45.44212" lon="4.26228">
        <ele>504.35</ele>
        <time>2014-05-08T06:45:36Z</time>
      </trkpt>
      <trkpt lat="45.44206" lon="4.26241">
        <ele>501.46</ele>
        <time>2014-05-08T06:45:38Z</time>
      </trkpt>
      <trkpt lat="45.44203" lon="4.26245">
        <ele>500.02</ele>
        <time>2014-05-08T06:45:39Z</time>
      </trkpt>
      <trkpt lat="45.44199" lon="4.26249">
        <ele>499.54</ele>
        <time>2014-05-08T06:45:40Z</time>
      </trkpt>
      <trkpt lat="45.44195" lon="4.26252">
        <ele>499.06</ele>
        <time>2014-05-08T06:45:41Z</time>
      </trkpt>
      <trkpt lat="45.44191" lon="4.26253">
        <ele>497.14</ele>
        <time>2014-05-08T06:45:42Z</time>
      </trkpt>
      <trkpt lat="45.44187" lon="4.26254">
        <ele>496.18</ele>
        <time>2014-05-08T06:45:43Z</time>
      </trkpt>
      <trkpt lat="45.44166" lon="4.26258">
        <ele>492.33</ele>
        <time>2014-05-08T06:45:47Z</time>
      </trkpt>
      <trkpt lat="45.44162" lon="4.2626">
        <ele>491.37</ele>
        <time>2014-05-08T06:45:48Z</time>
      </trkpt>
      <trkpt lat="45.44155" lon="4.26265">
        <ele>489.93</ele>
        <time>2014-05-08T06:45:50Z</time>
      </trkpt>
      <trkpt lat="45.44154" lon="4.26269">
        <ele>489.45</ele>
        <time>2014-05-08T06:45:51Z</time>
      </trkpt>
      <trkpt lat="45.44154" lon="4.26273">
        <ele>488.97</ele>
        <time>2014-05-08T06:45:52Z</time>
      </trkpt>
      <trkpt lat="45.44155" lon="4.26277">
        <ele>488.97</ele>
        <time>2014-05-08T06:45:53Z</time>
      </trkpt>
      <trkpt lat="45.44158" lon="4.26279">
        <ele>488.97</ele>
        <time>2014-05-08T06:45:54Z</time>
      </trkpt>
      <trkpt lat="45.4416" lon="4.26281">
        <ele>488.01</ele>
        <time>2014-05-08T06:45:55Z</time>
      </trkpt>
      <trkpt lat="45.44201" lon="4.26306">
        <ele>485.12</ele>
        <time>2014-05-08T06:46:05Z</time>
      </trkpt>
      <trkpt lat="45.44212" lon="4.26315">
        <ele>482.24</ele>
        <time>2014-05-08T06:46:08Z</time>
      </trkpt>
      <trkpt lat="45.44227" lon="4.26315">
        <ele>478.87</ele>
        <time>2014-05-08T06:46:12Z</time>
      </trkpt>
      <trkpt lat="45.44233" lon="4.26307">
        <ele>477.91</ele>
        <time>2014-05-08T06:46:14Z</time>
      </trkpt>
      <trkpt lat="45.44239" lon="4.26299">
        <ele>476.47</ele>
        <time>2014-05-08T06:46:16Z</time>
      </trkpt>
      <trkpt lat="45.44275" lon="4.26246">
        <ele>473.59</ele>
        <time>2014-05-08T06:46:32Z</time>
      </trkpt>
      <trkpt lat="45.44311" lon="4.26265">
        <ele>469.74</ele>
        <time>2014-05-08T06:46:40Z</time>
      </trkpt>
      <trkpt lat="45.44336" lon="4.26298">
        <ele>466.38</ele>
        <time>2014-05-08T06:46:46Z</time>
      </trkpt>
      <trkpt lat="45.44338" lon="4.26305">
        <ele>465.9</ele>
        <time>2014-05-08T06:46:48Z</time>
      </trkpt>
      <trkpt lat="45.44338" lon="4.26307">
        <ele>465.9</ele>
        <time>2014-05-08T06:46:49Z</time>
      </trkpt>
      <trkpt lat="45.44336" lon="4.26324">
        <ele>463.97</ele>
        <time>2014-05-08T06:46:54Z</time>
      </trkpt>
      <trkpt lat="45.44334" lon="4.26336">
        <ele>465.42</ele>
        <time>2014-05-08T06:46:58Z</time>
      </trkpt>
      <trkpt lat="45.44319" lon="4.26396">
        <ele>462.05</ele>
        <time>2014-05-08T06:47:12Z</time>
      </trkpt>
      <trkpt lat="45.44336" lon="4.26454">
        <ele>462.53</ele>
        <time>2014-05-08T06:47:20Z</time>
      </trkpt>
      <trkpt lat="45.44345" lon="4.26473">
        <ele>462.53</ele>
        <time>2014-05-08T06:47:23Z</time>
      </trkpt>
      <trkpt lat="45.44366" lon="4.26503">
        <ele>462.05</ele>
        <time>2014-05-08T06:47:26Z</time>
      </trkpt>
      <trkpt lat="45.44372" lon="4.26508">
        <ele>462.05</ele>
        <time>2014-05-08T06:47:27Z</time>
      </trkpt>
      <trkpt lat="45.44435" lon="4.26543">
        <ele>460.13</ele>
        <time>2014-05-08T06:47:36Z</time>
      </trkpt>
      <trkpt lat="45.4446" lon="4.2656">
        <ele>455.8</ele>
        <time>2014-05-08T06:47:40Z</time>
      </trkpt>
      <trkpt lat="45.44466" lon="4.26563">
        <ele>454.84</ele>
        <time>2014-05-08T06:47:41Z</time>
      </trkpt>
      <trkpt lat="45.44471" lon="4.26566">
        <ele>453.88</ele>
        <time>2014-05-08T06:47:42Z</time>
      </trkpt>
      <trkpt lat="45.44474" lon="4.26568">
        <ele>452.92</ele>
        <time>2014-05-08T06:47:43Z</time>
      </trkpt>
      <trkpt lat="45.44476" lon="4.2657">
        <ele>452.92</ele>
        <time>2014-05-08T06:47:44Z</time>
      </trkpt>
      <trkpt lat="45.44476" lon="4.26572">
        <ele>452.44</ele>
        <time>2014-05-08T06:47:45Z</time>
      </trkpt>
      <trkpt lat="45.44475" lon="4.26575">
        <ele>451.96</ele>
        <time>2014-05-08T06:47:46Z</time>
      </trkpt>
      <trkpt lat="45.44473" lon="4.26578">
        <ele>451.48</ele>
        <time>2014-05-08T06:47:47Z</time>
      </trkpt>
      <trkpt lat="45.44469" lon="4.26582">
        <ele>450.52</ele>
        <time>2014-05-08T06:47:48Z</time>
      </trkpt>
      <trkpt lat="45.4446" lon="4.26589">
        <ele>449.55</ele>
        <time>2014-05-08T06:47:50Z</time>
      </trkpt>
      <trkpt lat="45.44395" lon="4.26652">
        <ele>451</ele>
        <time>2014-05-08T06:48:04Z</time>
      </trkpt>
      <trkpt lat="45.44393" lon="4.26656">
        <ele>451</ele>
        <time>2014-05-08T06:48:05Z</time>
      </trkpt>
      <trkpt lat="45.4437" lon="4.26697">
        <ele>454.36</ele>
        <time>2014-05-08T06:48:15Z</time>
      </trkpt>
      <trkpt lat="45.44367" lon="4.2678">
        <ele>456.28</ele>
        <time>2014-05-08T06:48:31Z</time>
      </trkpt>
      <trkpt lat="45.4436" lon="4.26883">
        <ele>457.72</ele>
        <time>2014-05-08T06:48:51Z</time>
      </trkpt>
      <trkpt lat="45.44333" lon="4.26952">
        <ele>458.21</ele>
        <time>2014-05-08T06:49:05Z</time>
      </trkpt>
      <trkpt lat="45.44294" lon="4.27027">
        <ele>459.65</ele>
        <time>2014-05-08T06:49:24Z</time>
      </trkpt>
      <trkpt lat="45.44254" lon="4.27128">
        <ele>459.65</ele>
        <time>2014-05-08T06:49:45Z</time>
      </trkpt>
      <trkpt lat="45.4425" lon="4.27176">
        <ele>460.13</ele>
        <time>2014-05-08T06:49:59Z</time>
      </trkpt>
      <trkpt lat="45.44251" lon="4.27178">
        <ele>460.61</ele>
        <time>2014-05-08T06:50:00Z</time>
      </trkpt>
      <trkpt lat="45.4425" lon="4.2718">
        <ele>460.61</ele>
        <time>2014-05-08T06:50:01Z</time>
      </trkpt>
      <trkpt lat="45.44249" lon="4.27182">
        <ele>460.61</ele>
        <time>2014-05-08T06:50:02Z</time>
      </trkpt>
      <trkpt lat="45.44248" lon="4.27184">
        <ele>460.61</ele>
        <time>2014-05-08T06:50:03Z</time>
      </trkpt>
      <trkpt lat="45.44242" lon="4.27228">
        <ele>463.49</ele>
        <time>2014-05-08T06:50:14Z</time>
      </trkpt>
      <trkpt lat="45.44227" lon="4.27266">
        <ele>465.42</ele>
        <time>2014-05-08T06:50:29Z</time>
      </trkpt>
      <trkpt lat="45.44222" lon="4.27278">
        <ele>466.86</ele>
        <time>2014-05-08T06:50:32Z</time>
      </trkpt>
      <trkpt lat="45.44221" lon="4.27301">
        <ele>470.22</ele>
        <time>2014-05-08T06:50:40Z</time>
      </trkpt>
      <trkpt lat="45.44211" lon="4.27352">
        <ele>471.18</ele>
        <time>2014-05-08T06:50:57Z</time>
      </trkpt>
      <trkpt lat="45.44213" lon="4.27393">
        <ele>471.18</ele>
        <time>2014-05-08T06:51:11Z</time>
      </trkpt>
      <trkpt lat="45.44222" lon="4.27402">
        <ele>472.63</ele>
        <time>2014-05-08T06:51:18Z</time>
      </trkpt>
      <trkpt lat="45.44224" lon="4.274">
        <ele>474.07</ele>
        <time>2014-05-08T06:51:20Z</time>
      </trkpt>
      <trkpt lat="45.44227" lon="4.27394">
        <ele>475.99</ele>
        <time>2014-05-08T06:51:24Z</time>
      </trkpt>
      <trkpt lat="45.44232" lon="4.27384">
        <ele>477.91</ele>
        <time>2014-05-08T06:51:30Z</time>
      </trkpt>
      <trkpt lat="45.4424" lon="4.27372">
        <ele>479.84</ele>
        <time>2014-05-08T06:51:37Z</time>
      </trkpt>
      <trkpt lat="45.44249" lon="4.27355">
        <ele>483.2</ele>
        <time>2014-05-08T06:51:45Z</time>
      </trkpt>
      <trkpt lat="45.44261" lon="4.27334">
        <ele>486.56</ele>
        <time>2014-05-08T06:51:55Z</time>
      </trkpt>
      <trkpt lat="45.4427" lon="4.27318">
        <ele>489.93</ele>
        <time>2014-05-08T06:52:08Z</time>
      </trkpt>
      <trkpt lat="45.4428" lon="4.27304">
        <ele>492.33</ele>
        <time>2014-05-08T06:52:17Z</time>
      </trkpt>
      <trkpt lat="45.4429" lon="4.27292">
        <ele>495.7</ele>
        <time>2014-05-08T06:52:26Z</time>
      </trkpt>
      <trkpt lat="45.44313" lon="4.27281">
        <ele>498.1</ele>
        <time>2014-05-08T06:52:45Z</time>
      </trkpt>
      <trkpt lat="45.44327" lon="4.27277">
        <ele>500.02</ele>
        <time>2014-05-08T06:52:55Z</time>
      </trkpt>
      <trkpt lat="45.4435" lon="4.27269">
        <ele>503.39</ele>
        <time>2014-05-08T06:53:14Z</time>
      </trkpt>
      <trkpt lat="45.44358" lon="4.27253">
        <ele>505.31</ele>
        <time>2014-05-08T06:53:23Z</time>
      </trkpt>
      <trkpt lat="45.44364" lon="4.27227">
        <ele>508.67</ele>
        <time>2014-05-08T06:53:36Z</time>
      </trkpt>
      <trkpt lat="45.44367" lon="4.27226">
        <ele>510.6</ele>
        <time>2014-05-08T06:53:41Z</time>
      </trkpt>
      <trkpt lat="45.44377" lon="4.27221">
        <ele>513</ele>
        <time>2014-05-08T06:53:49Z</time>
      </trkpt>
      <trkpt lat="45.44379" lon="4.27219">
        <ele>513</ele>
        <time>2014-05-08T06:53:50Z</time>
      </trkpt>
      <trkpt lat="45.44392" lon="4.27209">
        <ele>516.37</ele>
        <time>2014-05-08T06:54:01Z</time>
      </trkpt>
      <trkpt lat="45.44415" lon="4.27184">
        <ele>519.25</ele>
        <time>2014-05-08T06:54:22Z</time>
      </trkpt>
      <trkpt lat="45.4443" lon="4.27167">
        <ele>522.13</ele>
        <time>2014-05-08T06:54:35Z</time>
      </trkpt>
      <trkpt lat="45.44436" lon="4.27161">
        <ele>523.09</ele>
        <time>2014-05-08T06:54:39Z</time>
      </trkpt>
      <trkpt lat="45.44446" lon="4.27147">
        <ele>526.46</ele>
        <time>2014-05-08T06:54:49Z</time>
      </trkpt>
      <trkpt lat="45.44473" lon="4.2713">
        <ele>529.82</ele>
        <time>2014-05-08T06:55:09Z</time>
      </trkpt>
      <trkpt lat="45.44497" lon="4.27115">
        <ele>533.19</ele>
        <time>2014-05-08T06:55:28Z</time>
      </trkpt>
      <trkpt lat="45.44514" lon="4.27106">
        <ele>535.59</ele>
        <time>2014-05-08T06:55:40Z</time>
      </trkpt>
      <trkpt lat="45.44544" lon="4.27089">
        <ele>538.48</ele>
        <time>2014-05-08T06:56:00Z</time>
      </trkpt>
      <trkpt lat="45.44561" lon="4.2706">
        <ele>541.84</ele>
        <time>2014-05-08T06:56:16Z</time>
      </trkpt>
      <trkpt lat="45.44565" lon="4.27036">
        <ele>544.72</ele>
        <time>2014-05-08T06:56:25Z</time>
      </trkpt>
      <trkpt lat="45.44568" lon="4.27021">
        <ele>548.09</ele>
        <time>2014-05-08T06:56:33Z</time>
      </trkpt>
      <trkpt lat="45.44569" lon="4.27018">
        <ele>547.61</ele>
        <time>2014-05-08T06:56:34Z</time>
      </trkpt>
      <trkpt lat="45.44576" lon="4.26996">
        <ele>549.53</ele>
        <time>2014-05-08T06:56:48Z</time>
      </trkpt>
      <trkpt lat="45.44591" lon="4.26986">
        <ele>552.41</ele>
        <time>2014-05-08T06:57:01Z</time>
      </trkpt>
      <trkpt lat="45.44614" lon="4.2699">
        <ele>555.78</ele>
        <time>2014-05-08T06:57:15Z</time>
      </trkpt>
      <trkpt lat="45.44626" lon="4.26991">
        <ele>557.7</ele>
        <time>2014-05-08T06:57:22Z</time>
      </trkpt>
      <trkpt lat="45.44651" lon="4.27">
        <ele>561.07</ele>
        <time>2014-05-08T06:57:38Z</time>
      </trkpt>
      <trkpt lat="45.44663" lon="4.27016">
        <ele>564.43</ele>
        <time>2014-05-08T06:57:48Z</time>
      </trkpt>
      <trkpt lat="45.44678" lon="4.27025">
        <ele>567.8</ele>
        <time>2014-05-08T06:57:59Z</time>
      </trkpt>
      <trkpt lat="45.44695" lon="4.27034">
        <ele>567.8</ele>
        <time>2014-05-08T06:58:17Z</time>
      </trkpt>
      <trkpt lat="45.44694" lon="4.27035">
        <ele>567.8</ele>
        <time>2014-05-08T06:58:18Z</time>
      </trkpt>
      <trkpt lat="45.44668" lon="4.27059">
        <ele>571.16</ele>
        <time>2014-05-08T06:58:32Z</time>
      </trkpt>
      <trkpt lat="45.4465" lon="4.27102">
        <ele>574.53</ele>
        <time>2014-05-08T06:58:49Z</time>
      </trkpt>
      <trkpt lat="45.44658" lon="4.27147">
        <ele>577.89</ele>
        <time>2014-05-08T06:59:04Z</time>
      </trkpt>
      <trkpt lat="45.44662" lon="4.27147">
        <ele>578.37</ele>
        <time>2014-05-08T06:59:07Z</time>
      </trkpt>
      <trkpt lat="45.44706" lon="4.27131">
        <ele>580.29</ele>
        <time>2014-05-08T06:59:24Z</time>
      </trkpt>
      <trkpt lat="45.4476" lon="4.27111">
        <ele>578.85</ele>
        <time>2014-05-08T06:59:40Z</time>
      </trkpt>
      <trkpt lat="45.44822" lon="4.2708">
        <ele>579.81</ele>
        <time>2014-05-08T06:59:58Z</time>
      </trkpt>
      <trkpt lat="45.44857" lon="4.27086">
        <ele>581.73</ele>
        <time>2014-05-08T07:00:11Z</time>
      </trkpt>
      <trkpt lat="45.44866" lon="4.27103">
        <ele>583.66</ele>
        <time>2014-05-08T07:00:17Z</time>
      </trkpt>
      <trkpt lat="45.44898" lon="4.27109">
        <ele>583.66</ele>
        <time>2014-05-08T07:00:28Z</time>
      </trkpt>
      <trkpt lat="45.44958" lon="4.27085">
        <ele>585.1</ele>
        <time>2014-05-08T07:00:44Z</time>
      </trkpt>
      <trkpt lat="45.45017" lon="4.2706">
        <ele>586.06</ele>
        <time>2014-05-08T07:01:00Z</time>
      </trkpt>
      <trkpt lat="45.45084" lon="4.27038">
        <ele>587.5</ele>
        <time>2014-05-08T07:01:19Z</time>
      </trkpt>
      <trkpt lat="45.45113" lon="4.27028">
        <ele>590.39</ele>
        <time>2014-05-08T07:01:29Z</time>
      </trkpt>
      <trkpt lat="45.45147" lon="4.27011">
        <ele>593.75</ele>
        <time>2014-05-08T07:01:42Z</time>
      </trkpt>
      <trkpt lat="45.45183" lon="4.26971">
        <ele>593.75</ele>
        <time>2014-05-08T07:01:58Z</time>
      </trkpt>
      <trkpt lat="45.45229" lon="4.26901">
        <ele>590.39</ele>
        <time>2014-05-08T07:02:11Z</time>
      </trkpt>
      <trkpt lat="45.45301" lon="4.26835">
        <ele>593.27</ele>
        <time>2014-05-08T07:02:30Z</time>
      </trkpt>
      <trkpt lat="45.4534" lon="4.26795">
        <ele>596.15</ele>
        <time>2014-05-08T07:02:42Z</time>
      </trkpt>
      <trkpt lat="45.45379" lon="4.26749">
        <ele>598.56</ele>
        <time>2014-05-08T07:02:57Z</time>
      </trkpt>
      <trkpt lat="45.45411" lon="4.26707">
        <ele>601.44</ele>
        <time>2014-05-08T07:03:11Z</time>
      </trkpt>
      <trkpt lat="45.45427" lon="4.26683">
        <ele>603.36</ele>
        <time>2014-05-08T07:03:19Z</time>
      </trkpt>
      <trkpt lat="45.45455" lon="4.26657">
        <ele>604.33</ele>
        <time>2014-05-08T07:03:33Z</time>
      </trkpt>
      <trkpt lat="45.45488" lon="4.2659">
        <ele>602.88</ele>
        <time>2014-05-08T07:03:47Z</time>
      </trkpt>
      <trkpt lat="45.45513" lon="4.26515">
        <ele>599.52</ele>
        <time>2014-05-08T07:03:56Z</time>
      </trkpt>
      <trkpt lat="45.4552" lon="4.26488">
        <ele>598.56</ele>
        <time>2014-05-08T07:03:59Z</time>
      </trkpt>
      <trkpt lat="45.45542" lon="4.26428">
        <ele>596.64</ele>
        <time>2014-05-08T07:04:06Z</time>
      </trkpt>
      <trkpt lat="45.45547" lon="4.26421">
        <ele>596.64</ele>
        <time>2014-05-08T07:04:07Z</time>
      </trkpt>
      <trkpt lat="45.45554" lon="4.26419">
        <ele>595.67</ele>
        <time>2014-05-08T07:04:08Z</time>
      </trkpt>
      <trkpt lat="45.4556" lon="4.26415">
        <ele>595.19</ele>
        <time>2014-05-08T07:04:09Z</time>
      </trkpt>
      <trkpt lat="45.45567" lon="4.26411">
        <ele>594.71</ele>
        <time>2014-05-08T07:04:10Z</time>
      </trkpt>
      <trkpt lat="45.45575" lon="4.26407">
        <ele>593.75</ele>
        <time>2014-05-08T07:04:11Z</time>
      </trkpt>
      <trkpt lat="45.45583" lon="4.26404">
        <ele>593.75</ele>
        <time>2014-05-08T07:04:12Z</time>
      </trkpt>
      <trkpt lat="45.4561" lon="4.26396">
        <ele>589.91</ele>
        <time>2014-05-08T07:04:15Z</time>
      </trkpt>
      <trkpt lat="45.45642" lon="4.26391">
        <ele>587.98</ele>
        <time>2014-05-08T07:04:18Z</time>
      </trkpt>
      <trkpt lat="45.45674" lon="4.2638">
        <ele>586.06</ele>
        <time>2014-05-08T07:04:21Z</time>
      </trkpt>
      <trkpt lat="45.45694" lon="4.26369">
        <ele>585.1</ele>
        <time>2014-05-08T07:04:23Z</time>
      </trkpt>
      <trkpt lat="45.45702" lon="4.26362">
        <ele>585.1</ele>
        <time>2014-05-08T07:04:24Z</time>
      </trkpt>
      <trkpt lat="45.45709" lon="4.26351">
        <ele>585.1</ele>
        <time>2014-05-08T07:04:25Z</time>
      </trkpt>
      <trkpt lat="45.45715" lon="4.2634">
        <ele>585.1</ele>
        <time>2014-05-08T07:04:26Z</time>
      </trkpt>
      <trkpt lat="45.45719" lon="4.26328">
        <ele>584.62</ele>
        <time>2014-05-08T07:04:27Z</time>
      </trkpt>
      <trkpt lat="45.45727" lon="4.263">
        <ele>583.18</ele>
        <time>2014-05-08T07:04:30Z</time>
      </trkpt>
      <trkpt lat="45.45729" lon="4.26294">
        <ele>583.18</ele>
        <time>2014-05-08T07:04:31Z</time>
      </trkpt>
      <trkpt lat="45.45732" lon="4.2629">
        <ele>583.18</ele>
        <time>2014-05-08T07:04:32Z</time>
      </trkpt>
      <trkpt lat="45.45736" lon="4.26287">
        <ele>582.7</ele>
        <time>2014-05-08T07:04:33Z</time>
      </trkpt>
      <trkpt lat="45.45739" lon="4.26286">
        <ele>583.18</ele>
        <time>2014-05-08T07:04:34Z</time>
      </trkpt>
      <trkpt lat="45.45742" lon="4.26286">
        <ele>582.7</ele>
        <time>2014-05-08T07:04:35Z</time>
      </trkpt>
      <trkpt lat="45.45757" lon="4.26284">
        <ele>581.73</ele>
        <time>2014-05-08T07:04:39Z</time>
      </trkpt>
      <trkpt lat="45.45761" lon="4.26282">
        <ele>582.22</ele>
        <time>2014-05-08T07:04:40Z</time>
      </trkpt>
      <trkpt lat="45.45766" lon="4.26273">
        <ele>581.25</ele>
        <time>2014-05-08T07:04:42Z</time>
      </trkpt>
      <trkpt lat="45.45773" lon="4.26254">
        <ele>580.29</ele>
        <time>2014-05-08T07:04:45Z</time>
      </trkpt>
      <trkpt lat="45.45785" lon="4.26233">
        <ele>579.81</ele>
        <time>2014-05-08T07:04:48Z</time>
      </trkpt>
      <trkpt lat="45.45795" lon="4.2622">
        <ele>578.85</ele>
        <time>2014-05-08T07:04:50Z</time>
      </trkpt>
      <trkpt lat="45.45812" lon="4.26204">
        <ele>577.89</ele>
        <time>2014-05-08T07:04:53Z</time>
      </trkpt>
      <trkpt lat="45.45818" lon="4.262">
        <ele>578.37</ele>
        <time>2014-05-08T07:04:54Z</time>
      </trkpt>
      <trkpt lat="45.45833" lon="4.26198">
        <ele>578.85</ele>
        <time>2014-05-08T07:04:56Z</time>
      </trkpt>
      <trkpt lat="45.4584" lon="4.26197">
        <ele>577.89</ele>
        <time>2014-05-08T07:04:57Z</time>
      </trkpt>
      <trkpt lat="45.4586" lon="4.26192">
        <ele>577.41</ele>
        <time>2014-05-08T07:05:00Z</time>
      </trkpt>
      <trkpt lat="45.45865" lon="4.26189">
        <ele>577.41</ele>
        <time>2014-05-08T07:05:01Z</time>
      </trkpt>
      <trkpt lat="45.45869" lon="4.26185">
        <ele>577.41</ele>
        <time>2014-05-08T07:05:02Z</time>
      </trkpt>
      <trkpt lat="45.45873" lon="4.26178">
        <ele>576.93</ele>
        <time>2014-05-08T07:05:03Z</time>
      </trkpt>
      <trkpt lat="45.45877" lon="4.26172">
        <ele>576.93</ele>
        <time>2014-05-08T07:05:04Z</time>
      </trkpt>
      <trkpt lat="45.4588" lon="4.26165">
        <ele>577.89</ele>
        <time>2014-05-08T07:05:05Z</time>
      </trkpt>
      <trkpt lat="45.45882" lon="4.26157">
        <ele>577.41</ele>
        <time>2014-05-08T07:05:06Z</time>
      </trkpt>
      <trkpt lat="45.45884" lon="4.26149">
        <ele>577.41</ele>
        <time>2014-05-08T07:05:07Z</time>
      </trkpt>
      <trkpt lat="45.45887" lon="4.26143">
        <ele>575.97</ele>
        <time>2014-05-08T07:05:08Z</time>
      </trkpt>
      <trkpt lat="45.45892" lon="4.26138">
        <ele>575.97</ele>
        <time>2014-05-08T07:05:09Z</time>
      </trkpt>
      <trkpt lat="45.45897" lon="4.26135">
        <ele>575.49</ele>
        <time>2014-05-08T07:05:10Z</time>
      </trkpt>
      <trkpt lat="45.45903" lon="4.26132">
        <ele>575.97</ele>
        <time>2014-05-08T07:05:11Z</time>
      </trkpt>
      <trkpt lat="45.45953" lon="4.26112">
        <ele>578.37</ele>
        <time>2014-05-08T07:05:18Z</time>
      </trkpt>
      <trkpt lat="45.45958" lon="4.26107">
        <ele>578.85</ele>
        <time>2014-05-08T07:05:19Z</time>
      </trkpt>
      <trkpt lat="45.45961" lon="4.26103">
        <ele>579.33</ele>
        <time>2014-05-08T07:05:20Z</time>
      </trkpt>
      <trkpt lat="45.45971" lon="4.26088">
        <ele>578.85</ele>
        <time>2014-05-08T07:05:31Z</time>
      </trkpt>
      <trkpt lat="45.4597" lon="4.26088">
        <ele>578.37</ele>
        <time>2014-05-08T07:06:00Z</time>
      </trkpt>
      <trkpt lat="45.45967" lon="4.26088">
        <ele>578.37</ele>
        <time>2014-05-08T07:06:35Z</time>
      </trkpt>
      <trkpt lat="45.45967" lon="4.26092">
        <ele>578.37</ele>
        <time>2014-05-08T07:06:57Z</time>
      </trkpt>
      <trkpt lat="45.45969" lon="4.26089">
        <ele>576.93</ele>
        <time>2014-05-08T07:07:17Z</time>
      </trkpt>
      <trkpt lat="45.45972" lon="4.26085">
        <ele>576.93</ele>
        <time>2014-05-08T07:08:00Z</time>
      </trkpt>
      <trkpt lat="45.45972" lon="4.26085">
        <ele>576.93</ele>
        <time>2014-05-08T07:08:33Z</time>
      </trkpt>
      <trkpt lat="45.45973" lon="4.26083">
        <ele>575.97</ele>
        <time>2014-05-08T07:09:11Z</time>
      </trkpt>
      <trkpt lat="45.45972" lon="4.26087">
        <ele>576.93</ele>
        <time>2014-05-08T07:09:27Z</time>
      </trkpt>
      <trkpt lat="45.45972" lon="4.26093">
        <ele>576.93</ele>
        <time>2014-05-08T07:09:52Z</time>
      </trkpt>
      <trkpt lat="45.45973" lon="4.26093">
        <ele>577.89</ele>
        <time>2014-05-08T07:10:09Z</time>
      </trkpt>
      <trkpt lat="45.45975" lon="4.26092">
        <ele>576.93</ele>
        <time>2014-05-08T07:10:22Z</time>
      </trkpt>
      <trkpt lat="45.45987" lon="4.26093">
        <ele>575.97</ele>
        <time>2014-05-08T07:10:28Z</time>
      </trkpt>
      <trkpt lat="45.45988" lon="4.26092">
        <ele>575.97</ele>
        <time>2014-05-08T07:10:29Z</time>
      </trkpt>
      <trkpt lat="45.4599" lon="4.2609">
        <ele>575.97</ele>
        <time>2014-05-08T07:10:30Z</time>
      </trkpt>
      <trkpt lat="45.45992" lon="4.26086">
        <ele>575.97</ele>
        <time>2014-05-08T07:10:32Z</time>
      </trkpt>
      <trkpt lat="45.45994" lon="4.26084">
        <ele>574.53</ele>
        <time>2014-05-08T07:10:33Z</time>
      </trkpt>
      <trkpt lat="45.45996" lon="4.26083">
        <ele>574.04</ele>
        <time>2014-05-08T07:10:34Z</time>
      </trkpt>
      <trkpt lat="45.45997" lon="4.26082">
        <ele>573.56</ele>
        <time>2014-05-08T07:10:35Z</time>
      </trkpt>
      <trkpt lat="45.46" lon="4.26082">
        <ele>573.56</ele>
        <time>2014-05-08T07:10:36Z</time>
      </trkpt>
      <trkpt lat="45.46023" lon="4.2608">
        <ele>569.24</ele>
        <time>2014-05-08T07:10:43Z</time>
      </trkpt>
      <trkpt lat="45.46027" lon="4.26078">
        <ele>569.72</ele>
        <time>2014-05-08T07:10:44Z</time>
      </trkpt>
      <trkpt lat="45.4604" lon="4.2607">
        <ele>567.8</ele>
        <time>2014-05-08T07:10:48Z</time>
      </trkpt>
      <trkpt lat="45.46062" lon="4.26062">
        <ele>564.91</ele>
        <time>2014-05-08T07:10:56Z</time>
      </trkpt>
      <trkpt lat="45.46079" lon="4.26061">
        <ele>561.55</ele>
        <time>2014-05-08T07:11:06Z</time>
      </trkpt>
      <trkpt lat="45.46085" lon="4.26061">
        <ele>560.11</ele>
        <time>2014-05-08T07:11:08Z</time>
      </trkpt>
      <trkpt lat="45.46094" lon="4.26061">
        <ele>557.22</ele>
        <time>2014-05-08T07:11:11Z</time>
      </trkpt>
      <trkpt lat="45.46101" lon="4.26058">
        <ele>555.78</ele>
        <time>2014-05-08T07:11:14Z</time>
      </trkpt>
      <trkpt lat="45.46103" lon="4.26056">
        <ele>554.82</ele>
        <time>2014-05-08T07:11:15Z</time>
      </trkpt>
      <trkpt lat="45.46105" lon="4.26053">
        <ele>554.34</ele>
        <time>2014-05-08T07:11:16Z</time>
      </trkpt>
      <trkpt lat="45.46107" lon="4.26051">
        <ele>553.38</ele>
        <time>2014-05-08T07:11:17Z</time>
      </trkpt>
      <trkpt lat="45.4611" lon="4.26049">
        <ele>552.9</ele>
        <time>2014-05-08T07:11:18Z</time>
      </trkpt>
      <trkpt lat="45.46111" lon="4.26047">
        <ele>552.41</ele>
        <time>2014-05-08T07:11:19Z</time>
      </trkpt>
      <trkpt lat="45.46113" lon="4.26045">
        <ele>552.41</ele>
        <time>2014-05-08T07:11:20Z</time>
      </trkpt>
      <trkpt lat="45.46114" lon="4.26044">
        <ele>551.45</ele>
        <time>2014-05-08T07:11:21Z</time>
      </trkpt>
      <trkpt lat="45.46116" lon="4.26043">
        <ele>550.97</ele>
        <time>2014-05-08T07:11:22Z</time>
      </trkpt>
      <trkpt lat="45.46117" lon="4.26043">
        <ele>550.49</ele>
        <time>2014-05-08T07:11:23Z</time>
      </trkpt>
      <trkpt lat="45.46118" lon="4.26044">
        <ele>550.49</ele>
        <time>2014-05-08T07:11:24Z</time>
      </trkpt>
      <trkpt lat="45.46119" lon="4.26046">
        <ele>550.49</ele>
        <time>2014-05-08T07:11:25Z</time>
      </trkpt>
      <trkpt lat="45.46121" lon="4.26048">
        <ele>549.53</ele>
        <time>2014-05-08T07:11:26Z</time>
      </trkpt>
      <trkpt lat="45.46122" lon="4.26052">
        <ele>549.53</ele>
        <time>2014-05-08T07:11:27Z</time>
      </trkpt>
      <trkpt lat="45.46127" lon="4.26073">
        <ele>546.65</ele>
        <time>2014-05-08T07:11:32Z</time>
      </trkpt>
      <trkpt lat="45.46126" lon="4.26086">
        <ele>544.72</ele>
        <time>2014-05-08T07:11:35Z</time>
      </trkpt>
      <trkpt lat="45.46128" lon="4.26088">
        <ele>544.24</ele>
        <time>2014-05-08T07:11:36Z</time>
      </trkpt>
      <trkpt lat="45.4613" lon="4.26093">
        <ele>543.28</ele>
        <time>2014-05-08T07:11:37Z</time>
      </trkpt>
      <trkpt lat="45.46133" lon="4.26095">
        <ele>542.8</ele>
        <time>2014-05-08T07:11:38Z</time>
      </trkpt>
      <trkpt lat="45.46137" lon="4.26095">
        <ele>541.36</ele>
        <time>2014-05-08T07:11:39Z</time>
      </trkpt>
      <trkpt lat="45.4614" lon="4.26095">
        <ele>541.36</ele>
        <time>2014-05-08T07:11:40Z</time>
      </trkpt>
      <trkpt lat="45.46144" lon="4.26093">
        <ele>540.88</ele>
        <time>2014-05-08T07:11:41Z</time>
      </trkpt>
      <trkpt lat="45.46148" lon="4.26091">
        <ele>539.92</ele>
        <time>2014-05-08T07:11:42Z</time>
      </trkpt>
      <trkpt lat="45.46162" lon="4.2608">
        <ele>537.03</ele>
        <time>2014-05-08T07:11:45Z</time>
      </trkpt>
      <trkpt lat="45.46167" lon="4.26077">
        <ele>535.59</ele>
        <time>2014-05-08T07:11:46Z</time>
      </trkpt>
      <trkpt lat="45.46173" lon="4.26074">
        <ele>534.63</ele>
        <time>2014-05-08T07:11:47Z</time>
      </trkpt>
      <trkpt lat="45.46183" lon="4.2607">
        <ele>532.23</ele>
        <time>2014-05-08T07:11:49Z</time>
      </trkpt>
      <trkpt lat="45.462" lon="4.26061">
        <ele>528.38</ele>
        <time>2014-05-08T07:11:52Z</time>
      </trkpt>
      <trkpt lat="45.46229" lon="4.26053">
        <ele>524.06</ele>
        <time>2014-05-08T07:11:56Z</time>
      </trkpt>
      <trkpt lat="45.46243" lon="4.26053">
        <ele>523.09</ele>
        <time>2014-05-08T07:11:58Z</time>
      </trkpt>
      <trkpt lat="45.4625" lon="4.26054">
        <ele>522.13</ele>
        <time>2014-05-08T07:11:59Z</time>
      </trkpt>
      <trkpt lat="45.46256" lon="4.26057">
        <ele>521.65</ele>
        <time>2014-05-08T07:12:00Z</time>
      </trkpt>
      <trkpt lat="45.46262" lon="4.26061">
        <ele>520.69</ele>
        <time>2014-05-08T07:12:01Z</time>
      </trkpt>
      <trkpt lat="45.46267" lon="4.26066">
        <ele>519.73</ele>
        <time>2014-05-08T07:12:02Z</time>
      </trkpt>
      <trkpt lat="45.46283" lon="4.26078">
        <ele>517.81</ele>
        <time>2014-05-08T07:12:05Z</time>
      </trkpt>
      <trkpt lat="45.46298" lon="4.26087">
        <ele>514.92</ele>
        <time>2014-05-08T07:12:08Z</time>
      </trkpt>
      <trkpt lat="45.46313" lon="4.26094">
        <ele>511.56</ele>
        <time>2014-05-08T07:12:11Z</time>
      </trkpt>
      <trkpt lat="45.46331" lon="4.261">
        <ele>508.19</ele>
        <time>2014-05-08T07:12:14Z</time>
      </trkpt>
      <trkpt lat="45.46352" lon="4.26099">
        <ele>504.83</ele>
        <time>2014-05-08T07:12:18Z</time>
      </trkpt>
      <trkpt lat="45.46356" lon="4.26098">
        <ele>503.87</ele>
        <time>2014-05-08T07:12:19Z</time>
      </trkpt>
      <trkpt lat="45.46362" lon="4.26098">
        <ele>502.43</ele>
        <time>2014-05-08T07:12:20Z</time>
      </trkpt>
      <trkpt lat="45.4638" lon="4.26096">
        <ele>499.06</ele>
        <time>2014-05-08T07:12:23Z</time>
      </trkpt>
      <trkpt lat="45.46402" lon="4.26089">
        <ele>494.74</ele>
        <time>2014-05-08T07:12:27Z</time>
      </trkpt>
      <trkpt lat="45.46407" lon="4.26086">
        <ele>493.29</ele>
        <time>2014-05-08T07:12:28Z</time>
      </trkpt>
      <trkpt lat="45.46422" lon="4.26076">
        <ele>488.97</ele>
        <time>2014-05-08T07:12:31Z</time>
      </trkpt>
      <trkpt lat="45.46438" lon="4.26063">
        <ele>485.12</ele>
        <time>2014-05-08T07:12:34Z</time>
      </trkpt>
      <trkpt lat="45.4646" lon="4.2604">
        <ele>481.76</ele>
        <time>2014-05-08T07:12:38Z</time>
      </trkpt>
      <trkpt lat="45.46469" lon="4.26029">
        <ele>479.35</ele>
        <time>2014-05-08T07:12:40Z</time>
      </trkpt>
      <trkpt lat="45.46474" lon="4.26023">
        <ele>479.84</ele>
        <time>2014-05-08T07:12:41Z</time>
      </trkpt>
      <trkpt lat="45.46492" lon="4.25998">
        <ele>475.99</ele>
        <time>2014-05-08T07:12:45Z</time>
      </trkpt>
      <trkpt lat="45.46501" lon="4.25985">
        <ele>474.55</ele>
        <time>2014-05-08T07:12:47Z</time>
      </trkpt>
      <trkpt lat="45.46515" lon="4.25966">
        <ele>470.22</ele>
        <time>2014-05-08T07:12:50Z</time>
      </trkpt>
      <trkpt lat="45.4652" lon="4.25958">
        <ele>468.78</ele>
        <time>2014-05-08T07:12:51Z</time>
      </trkpt>
      <trkpt lat="45.46524" lon="4.2595">
        <ele>467.34</ele>
        <time>2014-05-08T07:12:52Z</time>
      </trkpt>
      <trkpt lat="45.46527" lon="4.25943">
        <ele>466.38</ele>
        <time>2014-05-08T07:12:53Z</time>
      </trkpt>
      <trkpt lat="45.46532" lon="4.25928">
        <ele>464.45</ele>
        <time>2014-05-08T07:12:55Z</time>
      </trkpt>
      <trkpt lat="45.46534" lon="4.25923">
        <ele>463.97</ele>
        <time>2014-05-08T07:12:56Z</time>
      </trkpt>
      <trkpt lat="45.46537" lon="4.2592">
        <ele>463.49</ele>
        <time>2014-05-08T07:12:57Z</time>
      </trkpt>
      <trkpt lat="45.4654" lon="4.25917">
        <ele>462.53</ele>
        <time>2014-05-08T07:12:58Z</time>
      </trkpt>
      <trkpt lat="45.46543" lon="4.25914">
        <ele>461.57</ele>
        <time>2014-05-08T07:12:59Z</time>
      </trkpt>
      <trkpt lat="45.46545" lon="4.25915">
        <ele>460.61</ele>
        <time>2014-05-08T07:13:00Z</time>
      </trkpt>
      <trkpt lat="45.46546" lon="4.25916">
        <ele>458.69</ele>
        <time>2014-05-08T07:13:01Z</time>
      </trkpt>
      <trkpt lat="45.46548" lon="4.25918">
        <ele>458.21</ele>
        <time>2014-05-08T07:13:02Z</time>
      </trkpt>
      <trkpt lat="45.46549" lon="4.25922">
        <ele>457.72</ele>
        <time>2014-05-08T07:13:03Z</time>
      </trkpt>
      <trkpt lat="45.4655" lon="4.25927">
        <ele>456.76</ele>
        <time>2014-05-08T07:13:04Z</time>
      </trkpt>
      <trkpt lat="45.4655" lon="4.25932">
        <ele>455.8</ele>
        <time>2014-05-08T07:13:05Z</time>
      </trkpt>
      <trkpt lat="45.46551" lon="4.25937">
        <ele>454.84</ele>
        <time>2014-05-08T07:13:06Z</time>
      </trkpt>
      <trkpt lat="45.46549" lon="4.25955">
        <ele>453.4</ele>
        <time>2014-05-08T07:13:09Z</time>
      </trkpt>
      <trkpt lat="45.46545" lon="4.25968">
        <ele>451.48</ele>
        <time>2014-05-08T07:13:11Z</time>
      </trkpt>
      <trkpt lat="45.46543" lon="4.25975">
        <ele>451</ele>
        <time>2014-05-08T07:13:12Z</time>
      </trkpt>
      <trkpt lat="45.46539" lon="4.25982">
        <ele>450.52</ele>
        <time>2014-05-08T07:13:13Z</time>
      </trkpt>
      <trkpt lat="45.46523" lon="4.26016">
        <ele>447.63</ele>
        <time>2014-05-08T07:13:17Z</time>
      </trkpt>
      <trkpt lat="45.46519" lon="4.26026">
        <ele>447.15</ele>
        <time>2014-05-08T07:13:18Z</time>
      </trkpt>
      <trkpt lat="45.46508" lon="4.26061">
        <ele>444.27</ele>
        <time>2014-05-08T07:13:22Z</time>
      </trkpt>
      <trkpt lat="45.46452" lon="4.26161">
        <ele>444.27</ele>
        <time>2014-05-08T07:13:37Z</time>
      </trkpt>
      <trkpt lat="45.46416" lon="4.26197">
        <ele>444.27</ele>
        <time>2014-05-08T07:13:51Z</time>
      </trkpt>
      <trkpt lat="45.46367" lon="4.26269">
        <ele>444.75</ele>
        <time>2014-05-08T07:14:13Z</time>
      </trkpt>
      <trkpt lat="45.46353" lon="4.26305">
        <ele>447.63</ele>
        <time>2014-05-08T07:14:23Z</time>
      </trkpt>
      <trkpt lat="45.46348" lon="4.26388">
        <ele>448.59</ele>
        <time>2014-05-08T07:14:41Z</time>
      </trkpt>
      <trkpt lat="45.46354" lon="4.26429">
        <ele>448.59</ele>
        <time>2014-05-08T07:14:52Z</time>
      </trkpt>
      <trkpt lat="45.46364" lon="4.2649">
        <ele>450.03</ele>
        <time>2014-05-08T07:15:08Z</time>
      </trkpt>
      <trkpt lat="45.46387" lon="4.2655">
        <ele>451.96</ele>
        <time>2014-05-08T07:15:26Z</time>
      </trkpt>
      <trkpt lat="45.464" lon="4.26552">
        <ele>450.52</ele>
        <time>2014-05-08T07:15:31Z</time>
      </trkpt>
      <trkpt lat="45.46401" lon="4.26553">
        <ele>450.03</ele>
        <time>2014-05-08T07:15:32Z</time>
      </trkpt>
      <trkpt lat="45.46401" lon="4.26556">
        <ele>450.03</ele>
        <time>2014-05-08T07:15:33Z</time>
      </trkpt>
      <trkpt lat="45.46402" lon="4.26558">
        <ele>451</ele>
        <time>2014-05-08T07:15:34Z</time>
      </trkpt>
      <trkpt lat="45.46402" lon="4.26562">
        <ele>450.52</ele>
        <time>2014-05-08T07:15:35Z</time>
      </trkpt>
      <trkpt lat="45.46402" lon="4.26565">
        <ele>450.52</ele>
        <time>2014-05-08T07:15:36Z</time>
      </trkpt>
      <trkpt lat="45.46404" lon="4.26616">
        <ele>453.88</ele>
        <time>2014-05-08T07:15:51Z</time>
      </trkpt>
      <trkpt lat="45.46407" lon="4.26621">
        <ele>452.92</ele>
        <time>2014-05-08T07:15:54Z</time>
      </trkpt>
      <trkpt lat="45.46444" lon="4.26663">
        <ele>453.88</ele>
        <time>2014-05-08T07:16:11Z</time>
      </trkpt>
      <trkpt lat="45.46466" lon="4.26673">
        <ele>455.8</ele>
        <time>2014-05-08T07:16:20Z</time>
      </trkpt>
      <trkpt lat="45.46467" lon="4.26676">
        <ele>455.8</ele>
        <time>2014-05-08T07:16:21Z</time>
      </trkpt>
      <trkpt lat="45.46468" lon="4.26678">
        <ele>455.32</ele>
        <time>2014-05-08T07:16:22Z</time>
      </trkpt>
      <trkpt lat="45.46489" lon="4.26716">
        <ele>457.72</ele>
        <time>2014-05-08T07:16:37Z</time>
      </trkpt>
      <trkpt lat="45.46489" lon="4.26719">
        <ele>457.24</ele>
        <time>2014-05-08T07:16:38Z</time>
      </trkpt>
      <trkpt lat="45.46489" lon="4.26721">
        <ele>457.24</ele>
        <time>2014-05-08T07:16:39Z</time>
      </trkpt>
      <trkpt lat="45.46488" lon="4.26724">
        <ele>456.76</ele>
        <time>2014-05-08T07:16:40Z</time>
      </trkpt>
      <trkpt lat="45.46487" lon="4.26729">
        <ele>456.76</ele>
        <time>2014-05-08T07:16:41Z</time>
      </trkpt>
      <trkpt lat="45.46487" lon="4.26734">
        <ele>456.76</ele>
        <time>2014-05-08T07:16:42Z</time>
      </trkpt>
      <trkpt lat="45.46487" lon="4.26739">
        <ele>456.76</ele>
        <time>2014-05-08T07:16:43Z</time>
      </trkpt>
      <trkpt lat="45.4649" lon="4.26814">
        <ele>458.21</ele>
        <time>2014-05-08T07:17:01Z</time>
      </trkpt>
      <trkpt lat="45.46523" lon="4.26865">
        <ele>459.17</ele>
        <time>2014-05-08T07:17:16Z</time>
      </trkpt>
      <trkpt lat="45.46551" lon="4.26865">
        <ele>462.53</ele>
        <time>2014-05-08T07:17:34Z</time>
      </trkpt>
      <trkpt lat="45.46577" lon="4.26853">
        <ele>465.9</ele>
        <time>2014-05-08T07:17:50Z</time>
      </trkpt>
      <trkpt lat="45.46593" lon="4.2685">
        <ele>468.3</ele>
        <time>2014-05-08T07:18:02Z</time>
      </trkpt>
      <trkpt lat="45.46611" lon="4.26839">
        <ele>471.66</ele>
        <time>2014-05-08T07:18:14Z</time>
      </trkpt>
      <trkpt lat="45.46629" lon="4.26826">
        <ele>474.55</ele>
        <time>2014-05-08T07:18:27Z</time>
      </trkpt>
      <trkpt lat="45.46632" lon="4.26819">
        <ele>476.47</ele>
        <time>2014-05-08T07:18:31Z</time>
      </trkpt>
      <trkpt lat="45.46625" lon="4.26811">
        <ele>476.95</ele>
        <time>2014-05-08T07:18:38Z</time>
      </trkpt>
      <trkpt lat="45.46601" lon="4.26803">
        <ele>480.32</ele>
        <time>2014-05-08T07:18:54Z</time>
      </trkpt>
      <trkpt lat="45.46594" lon="4.26796">
        <ele>481.76</ele>
        <time>2014-05-08T07:18:59Z</time>
      </trkpt>
      <trkpt lat="45.46571" lon="4.26777">
        <ele>485.12</ele>
        <time>2014-05-08T07:19:18Z</time>
      </trkpt>
      <trkpt lat="45.46573" lon="4.26772">
        <ele>485.6</ele>
        <time>2014-05-08T07:19:40Z</time>
      </trkpt>
      <trkpt lat="45.46573" lon="4.26771">
        <ele>486.08</ele>
        <time>2014-05-08T07:19:41Z</time>
      </trkpt>
      <trkpt lat="45.46581" lon="4.26762">
        <ele>489.45</ele>
        <time>2014-05-08T07:19:51Z</time>
      </trkpt>
      <trkpt lat="45.46583" lon="4.26756">
        <ele>490.41</ele>
        <time>2014-05-08T07:19:55Z</time>
      </trkpt>
      <trkpt lat="45.46591" lon="4.26742">
        <ele>492.81</ele>
        <time>2014-05-08T07:20:03Z</time>
      </trkpt>
      <trkpt lat="45.46594" lon="4.26728">
        <ele>493.77</ele>
        <time>2014-05-08T07:20:09Z</time>
      </trkpt>
      <trkpt lat="45.46602" lon="4.26706">
        <ele>495.22</ele>
        <time>2014-05-08T07:20:19Z</time>
      </trkpt>
      <trkpt lat="45.46603" lon="4.26705">
        <ele>495.7</ele>
        <time>2014-05-08T07:20:20Z</time>
      </trkpt>
      <trkpt lat="45.46604" lon="4.26703">
        <ele>495.7</ele>
        <time>2014-05-08T07:20:21Z</time>
      </trkpt>
      <trkpt lat="45.46617" lon="4.26693">
        <ele>499.06</ele>
        <time>2014-05-08T07:20:30Z</time>
      </trkpt>
      <trkpt lat="45.46618" lon="4.26691">
        <ele>498.58</ele>
        <time>2014-05-08T07:20:31Z</time>
      </trkpt>
      <trkpt lat="45.4662" lon="4.26688">
        <ele>499.54</ele>
        <time>2014-05-08T07:20:32Z</time>
      </trkpt>
      <trkpt lat="45.46621" lon="4.26687">
        <ele>499.06</ele>
        <time>2014-05-08T07:20:33Z</time>
      </trkpt>
      <trkpt lat="45.46623" lon="4.26685">
        <ele>499.06</ele>
        <time>2014-05-08T07:20:34Z</time>
      </trkpt>
      <trkpt lat="45.46625" lon="4.26682">
        <ele>499.06</ele>
        <time>2014-05-08T07:20:35Z</time>
      </trkpt>
      <trkpt lat="45.46632" lon="4.26674">
        <ele>502.43</ele>
        <time>2014-05-08T07:20:49Z</time>
      </trkpt>
      <trkpt lat="45.46629" lon="4.26678">
        <ele>502.91</ele>
        <time>2014-05-08T07:20:52Z</time>
      </trkpt>
      <trkpt lat="45.46623" lon="4.26714">
        <ele>505.79</ele>
        <time>2014-05-08T07:21:09Z</time>
      </trkpt>
      <trkpt lat="45.4664" lon="4.26726">
        <ele>508.19</ele>
        <time>2014-05-08T07:21:22Z</time>
      </trkpt>
      <trkpt lat="45.46659" lon="4.26713">
        <ele>512.04</ele>
        <time>2014-05-08T07:21:36Z</time>
      </trkpt>
      <trkpt lat="45.46662" lon="4.26711">
        <ele>512.52</ele>
        <time>2014-05-08T07:21:39Z</time>
      </trkpt>
      <trkpt lat="45.4668" lon="4.26697">
        <ele>515.88</ele>
        <time>2014-05-08T07:21:53Z</time>
      </trkpt>
      <trkpt lat="45.46703" lon="4.26691">
        <ele>519.25</ele>
        <time>2014-05-08T07:22:12Z</time>
      </trkpt>
      <trkpt lat="45.46718" lon="4.26689">
        <ele>522.61</ele>
        <time>2014-05-08T07:22:25Z</time>
      </trkpt>
      <trkpt lat="45.46734" lon="4.26681">
        <ele>525.02</ele>
        <time>2014-05-08T07:22:43Z</time>
      </trkpt>
      <trkpt lat="45.4674" lon="4.26683">
        <ele>525.5</ele>
        <time>2014-05-08T07:22:52Z</time>
      </trkpt>
      <trkpt lat="45.4675" lon="4.26681">
        <ele>527.9</ele>
        <time>2014-05-08T07:22:59Z</time>
      </trkpt>
      <trkpt lat="45.46768" lon="4.2668">
        <ele>531.27</ele>
        <time>2014-05-08T07:23:13Z</time>
      </trkpt>
      <trkpt lat="45.46769" lon="4.2668">
        <ele>531.27</ele>
        <time>2014-05-08T07:23:14Z</time>
      </trkpt>
      <trkpt lat="45.46811" lon="4.26688">
        <ele>533.67</ele>
        <time>2014-05-08T07:23:38Z</time>
      </trkpt>
      <trkpt lat="45.46833" lon="4.26692">
        <ele>537.03</ele>
        <time>2014-05-08T07:23:50Z</time>
      </trkpt>
      <trkpt lat="45.46871" lon="4.26683">
        <ele>538.48</ele>
        <time>2014-05-08T07:24:07Z</time>
      </trkpt>
      <trkpt lat="45.46926" lon="4.26662">
        <ele>540.88</ele>
        <time>2014-05-08T07:24:28Z</time>
      </trkpt>
      <trkpt lat="45.46984" lon="4.26669">
        <ele>540.88</ele>
        <time>2014-05-08T07:24:44Z</time>
      </trkpt>
      <trkpt lat="45.46991" lon="4.26671">
        <ele>542.32</ele>
        <time>2014-05-08T07:24:47Z</time>
      </trkpt>
      <trkpt lat="45.46992" lon="4.26669">
        <ele>542.8</ele>
        <time>2014-05-08T07:24:48Z</time>
      </trkpt>
      <trkpt lat="45.46993" lon="4.26667">
        <ele>542.32</ele>
        <time>2014-05-08T07:24:49Z</time>
      </trkpt>
      <trkpt lat="45.47006" lon="4.26598">
        <ele>541.36</ele>
        <time>2014-05-08T07:25:01Z</time>
      </trkpt>
      <trkpt lat="45.47033" lon="4.26502">
        <ele>543.28</ele>
        <time>2014-05-08T07:25:21Z</time>
      </trkpt>
      <trkpt lat="45.47056" lon="4.26475">
        <ele>543.28</ele>
        <time>2014-05-08T07:25:29Z</time>
      </trkpt>
      <trkpt lat="45.47059" lon="4.26472">
        <ele>543.28</ele>
        <time>2014-05-08T07:25:30Z</time>
      </trkpt>
      <trkpt lat="45.47063" lon="4.26469">
        <ele>542.8</ele>
        <time>2014-05-08T07:25:31Z</time>
      </trkpt>
      <trkpt lat="45.47097" lon="4.26438">
        <ele>538.96</ele>
        <time>2014-05-08T07:25:38Z</time>
      </trkpt>
      <trkpt lat="45.47107" lon="4.26429">
        <ele>536.07</ele>
        <time>2014-05-08T07:25:40Z</time>
      </trkpt>
      <trkpt lat="45.47117" lon="4.2642">
        <ele>533.67</ele>
        <time>2014-05-08T07:25:42Z</time>
      </trkpt>
      <trkpt lat="45.4712" lon="4.26414">
        <ele>532.71</ele>
        <time>2014-05-08T07:25:43Z</time>
      </trkpt>
      <trkpt lat="45.47123" lon="4.26408">
        <ele>532.23</ele>
        <time>2014-05-08T07:25:44Z</time>
      </trkpt>
      <trkpt lat="45.47125" lon="4.26402">
        <ele>531.27</ele>
        <time>2014-05-08T07:25:45Z</time>
      </trkpt>
      <trkpt lat="45.47126" lon="4.26395">
        <ele>531.27</ele>
        <time>2014-05-08T07:25:46Z</time>
      </trkpt>
      <trkpt lat="45.47126" lon="4.26388">
        <ele>531.27</ele>
        <time>2014-05-08T07:25:47Z</time>
      </trkpt>
      <trkpt lat="45.47126" lon="4.26381">
        <ele>531.27</ele>
        <time>2014-05-08T07:25:48Z</time>
      </trkpt>
      <trkpt lat="45.47125" lon="4.26375">
        <ele>530.79</ele>
        <time>2014-05-08T07:25:49Z</time>
      </trkpt>
      <trkpt lat="45.47124" lon="4.26368">
        <ele>530.3</ele>
        <time>2014-05-08T07:25:50Z</time>
      </trkpt>
      <trkpt lat="45.47122" lon="4.26361">
        <ele>530.3</ele>
        <time>2014-05-08T07:25:51Z</time>
      </trkpt>
      <trkpt lat="45.4712" lon="4.26353">
        <ele>529.82</ele>
        <time>2014-05-08T07:25:52Z</time>
      </trkpt>
      <trkpt lat="45.47117" lon="4.26346">
        <ele>530.3</ele>
        <time>2014-05-08T07:25:53Z</time>
      </trkpt>
      <trkpt lat="45.47069" lon="4.26233">
        <ele>526.94</ele>
        <time>2014-05-08T07:26:08Z</time>
      </trkpt>
      <trkpt lat="45.47068" lon="4.26225">
        <ele>526.46</ele>
        <time>2014-05-08T07:26:09Z</time>
      </trkpt>
      <trkpt lat="45.47066" lon="4.26174">
        <ele>525.5</ele>
        <time>2014-05-08T07:26:15Z</time>
      </trkpt>
      <trkpt lat="45.47096" lon="4.26088">
        <ele>524.54</ele>
        <time>2014-05-08T07:26:28Z</time>
      </trkpt>
      <trkpt lat="45.47119" lon="4.25987">
        <ele>522.61</ele>
        <time>2014-05-08T07:26:41Z</time>
      </trkpt>
      <trkpt lat="45.47147" lon="4.25826">
        <ele>520.69</ele>
        <time>2014-05-08T07:27:01Z</time>
      </trkpt>
      <trkpt lat="45.47153" lon="4.25792">
        <ele>517.81</ele>
        <time>2014-05-08T07:27:06Z</time>
      </trkpt>
      <trkpt lat="45.47157" lon="4.25752">
        <ele>514.92</ele>
        <time>2014-05-08T07:27:11Z</time>
      </trkpt>
      <trkpt lat="45.47159" lon="4.25689">
        <ele>511.56</ele>
        <time>2014-05-08T07:27:20Z</time>
      </trkpt>
      <trkpt lat="45.4716" lon="4.25672">
        <ele>509.64</ele>
        <time>2014-05-08T07:27:23Z</time>
      </trkpt>
      <trkpt lat="45.47161" lon="4.25652">
        <ele>508.19</ele>
        <time>2014-05-08T07:27:26Z</time>
      </trkpt>
      <trkpt lat="45.47159" lon="4.25615">
        <ele>505.79</ele>
        <time>2014-05-08T07:27:31Z</time>
      </trkpt>
      <trkpt lat="45.47158" lon="4.25607">
        <ele>505.79</ele>
        <time>2014-05-08T07:27:32Z</time>
      </trkpt>
      <trkpt lat="45.47155" lon="4.25601">
        <ele>505.31</ele>
        <time>2014-05-08T07:27:33Z</time>
      </trkpt>
      <trkpt lat="45.47151" lon="4.25595">
        <ele>504.83</ele>
        <time>2014-05-08T07:27:34Z</time>
      </trkpt>
      <trkpt lat="45.47147" lon="4.2559">
        <ele>505.31</ele>
        <time>2014-05-08T07:27:35Z</time>
      </trkpt>
      <trkpt lat="45.47143" lon="4.25586">
        <ele>504.83</ele>
        <time>2014-05-08T07:27:36Z</time>
      </trkpt>
      <trkpt lat="45.47137" lon="4.25582">
        <ele>504.35</ele>
        <time>2014-05-08T07:27:37Z</time>
      </trkpt>
      <trkpt lat="45.47132" lon="4.25578">
        <ele>504.35</ele>
        <time>2014-05-08T07:27:38Z</time>
      </trkpt>
      <trkpt lat="45.47048" lon="4.25503">
        <ele>505.79</ele>
        <time>2014-05-08T07:27:54Z</time>
      </trkpt>
      <trkpt lat="45.47026" lon="4.25476">
        <ele>506.75</ele>
        <time>2014-05-08T07:27:59Z</time>
      </trkpt>
      <trkpt lat="45.47021" lon="4.25472">
        <ele>505.79</ele>
        <time>2014-05-08T07:28:00Z</time>
      </trkpt>
      <trkpt lat="45.46942" lon="4.25438">
        <ele>505.31</ele>
        <time>2014-05-08T07:28:14Z</time>
      </trkpt>
      <trkpt lat="45.4689" lon="4.25428">
        <ele>502.43</ele>
        <time>2014-05-08T07:28:22Z</time>
      </trkpt>
      <trkpt lat="45.46802" lon="4.25403">
        <ele>501.46</ele>
        <time>2014-05-08T07:28:38Z</time>
      </trkpt>
      <trkpt lat="45.46786" lon="4.2539">
        <ele>499.54</ele>
        <time>2014-05-08T07:28:41Z</time>
      </trkpt>
      <trkpt lat="45.46743" lon="4.25348">
        <ele>497.14</ele>
        <time>2014-05-08T07:28:49Z</time>
      </trkpt>
      <trkpt lat="45.46732" lon="4.25335">
        <ele>495.7</ele>
        <time>2014-05-08T07:28:51Z</time>
      </trkpt>
      <trkpt lat="45.46728" lon="4.25328">
        <ele>495.7</ele>
        <time>2014-05-08T07:28:52Z</time>
      </trkpt>
      <trkpt lat="45.46724" lon="4.2532">
        <ele>494.26</ele>
        <time>2014-05-08T07:28:53Z</time>
      </trkpt>
      <trkpt lat="45.46721" lon="4.25311">
        <ele>494.26</ele>
        <time>2014-05-08T07:28:54Z</time>
      </trkpt>
      <trkpt lat="45.46718" lon="4.25302">
        <ele>494.26</ele>
        <time>2014-05-08T07:28:55Z</time>
      </trkpt>
      <trkpt lat="45.46707" lon="4.25266">
        <ele>491.85</ele>
        <time>2014-05-08T07:28:59Z</time>
      </trkpt>
      <trkpt lat="45.46691" lon="4.25218">
        <ele>488.49</ele>
        <time>2014-05-08T07:29:04Z</time>
      </trkpt>
      <trkpt lat="45.46686" lon="4.25204">
        <ele>487.05</ele>
        <time>2014-05-08T07:29:06Z</time>
      </trkpt>
      <trkpt lat="45.46679" lon="4.25187">
        <ele>488.49</ele>
        <time>2014-05-08T07:29:09Z</time>
      </trkpt>
      <trkpt lat="45.46678" lon="4.25181">
        <ele>488.01</ele>
        <time>2014-05-08T07:29:10Z</time>
      </trkpt>
      <trkpt lat="45.46678" lon="4.25174">
        <ele>487.53</ele>
        <time>2014-05-08T07:29:11Z</time>
      </trkpt>
      <trkpt lat="45.46677" lon="4.25167">
        <ele>488.01</ele>
        <time>2014-05-08T07:29:12Z</time>
      </trkpt>
      <trkpt lat="45.46678" lon="4.25159">
        <ele>487.53</ele>
        <time>2014-05-08T07:29:13Z</time>
      </trkpt>
      <trkpt lat="45.46679" lon="4.25152">
        <ele>488.01</ele>
        <time>2014-05-08T07:29:14Z</time>
      </trkpt>
      <trkpt lat="45.46681" lon="4.25144">
        <ele>486.56</ele>
        <time>2014-05-08T07:29:15Z</time>
      </trkpt>
      <trkpt lat="45.46684" lon="4.25137">
        <ele>485.6</ele>
        <time>2014-05-08T07:29:16Z</time>
      </trkpt>
      <trkpt lat="45.46687" lon="4.25129">
        <ele>483.68</ele>
        <time>2014-05-08T07:29:17Z</time>
      </trkpt>
      <trkpt lat="45.46702" lon="4.25105">
        <ele>482.24</ele>
        <time>2014-05-08T07:29:20Z</time>
      </trkpt>
      <trkpt lat="45.46709" lon="4.25096">
        <ele>480.32</ele>
        <time>2014-05-08T07:29:21Z</time>
      </trkpt>
      <trkpt lat="45.46717" lon="4.25088">
        <ele>480.8</ele>
        <time>2014-05-08T07:29:22Z</time>
      </trkpt>
      <trkpt lat="45.46747" lon="4.25053">
        <ele>477.43</ele>
        <time>2014-05-08T07:29:26Z</time>
      </trkpt>
      <trkpt lat="45.46755" lon="4.25045">
        <ele>476.95</ele>
        <time>2014-05-08T07:29:27Z</time>
      </trkpt>
      <trkpt lat="45.46787" lon="4.25015">
        <ele>474.07</ele>
        <time>2014-05-08T07:29:31Z</time>
      </trkpt>
      <trkpt lat="45.46797" lon="4.25012">
        <ele>473.11</ele>
        <time>2014-05-08T07:29:32Z</time>
      </trkpt>
      <trkpt lat="45.46806" lon="4.25009">
        <ele>472.63</ele>
        <time>2014-05-08T07:29:33Z</time>
      </trkpt>
      <trkpt lat="45.46815" lon="4.25008">
        <ele>471.18</ele>
        <time>2014-05-08T07:29:34Z</time>
      </trkpt>
      <trkpt lat="45.46822" lon="4.25009">
        <ele>470.7</ele>
        <time>2014-05-08T07:29:35Z</time>
      </trkpt>
      <trkpt lat="45.46829" lon="4.25013">
        <ele>470.22</ele>
        <time>2014-05-08T07:29:36Z</time>
      </trkpt>
      <trkpt lat="45.46836" lon="4.25017">
        <ele>470.22</ele>
        <time>2014-05-08T07:29:37Z</time>
      </trkpt>
      <trkpt lat="45.46863" lon="4.25037">
        <ele>467.34</ele>
        <time>2014-05-08T07:29:41Z</time>
      </trkpt>
      <trkpt lat="45.46876" lon="4.25044">
        <ele>465.9</ele>
        <time>2014-05-08T07:29:43Z</time>
      </trkpt>
      <trkpt lat="45.46898" lon="4.25053">
        <ele>464.45</ele>
        <time>2014-05-08T07:29:47Z</time>
      </trkpt>
      <trkpt lat="45.46903" lon="4.25053">
        <ele>464.45</ele>
        <time>2014-05-08T07:29:48Z</time>
      </trkpt>
      <trkpt lat="45.46908" lon="4.25053">
        <ele>463.97</ele>
        <time>2014-05-08T07:29:49Z</time>
      </trkpt>
      <trkpt lat="45.46912" lon="4.25051">
        <ele>462.53</ele>
        <time>2014-05-08T07:29:50Z</time>
      </trkpt>
      <trkpt lat="45.46915" lon="4.25047">
        <ele>462.05</ele>
        <time>2014-05-08T07:29:51Z</time>
      </trkpt>
      <trkpt lat="45.46918" lon="4.25044">
        <ele>461.09</ele>
        <time>2014-05-08T07:29:52Z</time>
      </trkpt>
      <trkpt lat="45.46921" lon="4.2504">
        <ele>461.09</ele>
        <time>2014-05-08T07:29:53Z</time>
      </trkpt>
      <trkpt lat="45.46923" lon="4.25037">
        <ele>461.09</ele>
        <time>2014-05-08T07:29:54Z</time>
      </trkpt>
      <trkpt lat="45.46927" lon="4.25024">
        <ele>459.65</ele>
        <time>2014-05-08T07:29:58Z</time>
      </trkpt>
      <trkpt lat="45.46928" lon="4.25019">
        <ele>459.17</ele>
        <time>2014-05-08T07:29:59Z</time>
      </trkpt>
      <trkpt lat="45.46925" lon="4.25014">
        <ele>457.72</ele>
        <time>2014-05-08T07:30:01Z</time>
      </trkpt>
      <trkpt lat="45.46916" lon="4.25007">
        <ele>454.84</ele>
        <time>2014-05-08T07:30:04Z</time>
      </trkpt>
      <trkpt lat="45.46913" lon="4.25005">
        <ele>454.36</ele>
        <time>2014-05-08T07:30:05Z</time>
      </trkpt>
      <trkpt lat="45.46905" lon="4.24999">
        <ele>453.4</ele>
        <time>2014-05-08T07:30:07Z</time>
      </trkpt>
      <trkpt lat="45.46893" lon="4.24994">
        <ele>452.44</ele>
        <time>2014-05-08T07:30:09Z</time>
      </trkpt>
      <trkpt lat="45.46887" lon="4.24992">
        <ele>451</ele>
        <time>2014-05-08T07:30:10Z</time>
      </trkpt>
      <trkpt lat="45.4688" lon="4.24989">
        <ele>451</ele>
        <time>2014-05-08T07:30:11Z</time>
      </trkpt>
      <trkpt lat="45.46873" lon="4.24985">
        <ele>450.52</ele>
        <time>2014-05-08T07:30:12Z</time>
      </trkpt>
      <trkpt lat="45.46866" lon="4.24979">
        <ele>449.55</ele>
        <time>2014-05-08T07:30:13Z</time>
      </trkpt>
      <trkpt lat="45.46859" lon="4.24973">
        <ele>449.55</ele>
        <time>2014-05-08T07:30:14Z</time>
      </trkpt>
      <trkpt lat="45.46828" lon="4.24949">
        <ele>447.15</ele>
        <time>2014-05-08T07:30:18Z</time>
      </trkpt>
      <trkpt lat="45.4678" lon="4.24938">
        <ele>444.75</ele>
        <time>2014-05-08T07:30:23Z</time>
      </trkpt>
      <trkpt lat="45.4677" lon="4.24935">
        <ele>444.75</ele>
        <time>2014-05-08T07:30:24Z</time>
      </trkpt>
      <trkpt lat="45.46761" lon="4.24931">
        <ele>444.27</ele>
        <time>2014-05-08T07:30:25Z</time>
      </trkpt>
      <trkpt lat="45.46753" lon="4.24925">
        <ele>443.79</ele>
        <time>2014-05-08T07:30:26Z</time>
      </trkpt>
      <trkpt lat="45.46745" lon="4.24917">
        <ele>443.31</ele>
        <time>2014-05-08T07:30:27Z</time>
      </trkpt>
      <trkpt lat="45.46737" lon="4.2491">
        <ele>443.79</ele>
        <time>2014-05-08T07:30:28Z</time>
      </trkpt>
      <trkpt lat="45.46714" lon="4.24885">
        <ele>442.34</ele>
        <time>2014-05-08T07:30:32Z</time>
      </trkpt>
      <trkpt lat="45.46699" lon="4.2486">
        <ele>442.34</ele>
        <time>2014-05-08T07:30:36Z</time>
      </trkpt>
      <trkpt lat="45.46689" lon="4.2481">
        <ele>441.38</ele>
        <time>2014-05-08T07:30:43Z</time>
      </trkpt>
      <trkpt lat="45.4669" lon="4.24802">
        <ele>441.86</ele>
        <time>2014-05-08T07:30:44Z</time>
      </trkpt>
      <trkpt lat="45.46691" lon="4.24795">
        <ele>441.38</ele>
        <time>2014-05-08T07:30:45Z</time>
      </trkpt>
      <trkpt lat="45.46692" lon="4.24788">
        <ele>440.9</ele>
        <time>2014-05-08T07:30:46Z</time>
      </trkpt>
      <trkpt lat="45.46694" lon="4.24781">
        <ele>440.9</ele>
        <time>2014-05-08T07:30:47Z</time>
      </trkpt>
      <trkpt lat="45.46696" lon="4.24774">
        <ele>441.38</ele>
        <time>2014-05-08T07:30:48Z</time>
      </trkpt>
      <trkpt lat="45.46699" lon="4.24767">
        <ele>440.9</ele>
        <time>2014-05-08T07:30:49Z</time>
      </trkpt>
      <trkpt lat="45.46701" lon="4.2476">
        <ele>440.42</ele>
        <time>2014-05-08T07:30:50Z</time>
      </trkpt>
      <trkpt lat="45.46704" lon="4.24754">
        <ele>440.9</ele>
        <time>2014-05-08T07:30:51Z</time>
      </trkpt>
      <trkpt lat="45.46708" lon="4.24747">
        <ele>440.42</ele>
        <time>2014-05-08T07:30:52Z</time>
      </trkpt>
      <trkpt lat="45.46712" lon="4.24742">
        <ele>440.9</ele>
        <time>2014-05-08T07:30:53Z</time>
      </trkpt>
      <trkpt lat="45.46716" lon="4.24736">
        <ele>439.94</ele>
        <time>2014-05-08T07:30:54Z</time>
      </trkpt>
      <trkpt lat="45.4672" lon="4.24732">
        <ele>440.42</ele>
        <time>2014-05-08T07:30:55Z</time>
      </trkpt>
      <trkpt lat="45.46724" lon="4.24727">
        <ele>440.42</ele>
        <time>2014-05-08T07:30:56Z</time>
      </trkpt>
      <trkpt lat="45.46806" lon="4.24623">
        <ele>439.94</ele>
        <time>2014-05-08T07:31:14Z</time>
      </trkpt>
      <trkpt lat="45.46814" lon="4.2461">
        <ele>440.42</ele>
        <time>2014-05-08T07:31:16Z</time>
      </trkpt>
      <trkpt lat="45.46818" lon="4.24602">
        <ele>440.42</ele>
        <time>2014-05-08T07:31:17Z</time>
      </trkpt>
      <trkpt lat="45.46821" lon="4.24593">
        <ele>439.94</ele>
        <time>2014-05-08T07:31:18Z</time>
      </trkpt>
      <trkpt lat="45.46823" lon="4.24584">
        <ele>439.46</ele>
        <time>2014-05-08T07:31:19Z</time>
      </trkpt>
      <trkpt lat="45.46824" lon="4.24575">
        <ele>439.46</ele>
        <time>2014-05-08T07:31:20Z</time>
      </trkpt>
      <trkpt lat="45.46826" lon="4.24565">
        <ele>438.98</ele>
        <time>2014-05-08T07:31:21Z</time>
      </trkpt>
      <trkpt lat="45.46827" lon="4.24535">
        <ele>437.54</ele>
        <time>2014-05-08T07:31:24Z</time>
      </trkpt>
      <trkpt lat="45.46827" lon="4.24472">
        <ele>435.61</ele>
        <time>2014-05-08T07:31:30Z</time>
      </trkpt>
      <trkpt lat="45.46828" lon="4.24461">
        <ele>435.61</ele>
        <time>2014-05-08T07:31:31Z</time>
      </trkpt>
      <trkpt lat="45.4683" lon="4.24452">
        <ele>436.1</ele>
        <time>2014-05-08T07:31:32Z</time>
      </trkpt>
      <trkpt lat="45.46833" lon="4.24444">
        <ele>435.61</ele>
        <time>2014-05-08T07:31:33Z</time>
      </trkpt>
      <trkpt lat="45.46836" lon="4.24437">
        <ele>436.1</ele>
        <time>2014-05-08T07:31:34Z</time>
      </trkpt>
      <trkpt lat="45.4684" lon="4.24431">
        <ele>436.1</ele>
        <time>2014-05-08T07:31:35Z</time>
      </trkpt>
      <trkpt lat="45.46845" lon="4.24427">
        <ele>436.1</ele>
        <time>2014-05-08T07:31:36Z</time>
      </trkpt>
      <trkpt lat="45.46853" lon="4.24428">
        <ele>435.61</ele>
        <time>2014-05-08T07:31:37Z</time>
      </trkpt>
      <trkpt lat="45.4686" lon="4.24431">
        <ele>435.61</ele>
        <time>2014-05-08T07:31:38Z</time>
      </trkpt>
      <trkpt lat="45.46864" lon="4.24429">
        <ele>435.61</ele>
        <time>2014-05-08T07:31:39Z</time>
      </trkpt>
      <trkpt lat="45.46869" lon="4.24428">
        <ele>435.61</ele>
        <time>2014-05-08T07:31:40Z</time>
      </trkpt>
      <trkpt lat="45.46872" lon="4.24425">
        <ele>435.13</ele>
        <time>2014-05-08T07:31:41Z</time>
      </trkpt>
      <trkpt lat="45.46873" lon="4.24423">
        <ele>435.13</ele>
        <time>2014-05-08T07:31:42Z</time>
      </trkpt>
      <trkpt lat="45.46872" lon="4.24422">
        <ele>435.13</ele>
        <time>2014-05-08T07:31:43Z</time>
      </trkpt>
      <trkpt lat="45.46871" lon="4.24421">
        <ele>435.61</ele>
        <time>2014-05-08T07:31:44Z</time>
      </trkpt>
      <trkpt lat="45.46868" lon="4.2442">
        <ele>437.06</ele>
        <time>2014-05-08T07:31:45Z</time>
      </trkpt>
      <trkpt lat="45.46867" lon="4.24419">
        <ele>437.06</ele>
        <time>2014-05-08T07:31:46Z</time>
      </trkpt>
      <trkpt lat="45.46865" lon="4.24417">
        <ele>437.54</ele>
        <time>2014-05-08T07:31:47Z</time>
      </trkpt>
      <trkpt lat="45.46864" lon="4.24414">
        <ele>438.02</ele>
        <time>2014-05-08T07:31:48Z</time>
      </trkpt>
      <trkpt lat="45.46864" lon="4.24412">
        <ele>438.98</ele>
        <time>2014-05-08T07:31:49Z</time>
      </trkpt>
      <trkpt lat="45.46864" lon="4.24409">
        <ele>438.5</ele>
        <time>2014-05-08T07:31:50Z</time>
      </trkpt>
      <trkpt lat="45.46864" lon="4.24407">
        <ele>438.98</ele>
        <time>2014-05-08T07:31:51Z</time>
      </trkpt>
      <trkpt lat="45.46865" lon="4.24404">
        <ele>439.46</ele>
        <time>2014-05-08T07:31:52Z</time>
      </trkpt>
      <trkpt lat="45.46866" lon="4.24402">
        <ele>439.46</ele>
        <time>2014-05-08T07:31:53Z</time>
      </trkpt>
      <trkpt lat="45.46867" lon="4.244">
        <ele>439.94</ele>
        <time>2014-05-08T07:31:54Z</time>
      </trkpt>
      <trkpt lat="45.46867" lon="4.2439">
        <ele>440.9</ele>
        <time>2014-05-08T07:32:07Z</time>
      </trkpt>
      <trkpt lat="45.46863" lon="4.24379">
        <ele>442.34</ele>
        <time>2014-05-08T07:32:24Z</time>
      </trkpt>
      <trkpt lat="45.46862" lon="4.24376">
        <ele>441.86</ele>
        <time>2014-05-08T07:32:40Z</time>
      </trkpt>
      <trkpt lat="45.46858" lon="4.24376">
        <ele>440.42</ele>
        <time>2014-05-08T07:33:07Z</time>
      </trkpt>
      <trkpt lat="45.46859" lon="4.24375">
        <ele>440.42</ele>
        <time>2014-05-08T07:33:42Z</time>
      </trkpt>
      <trkpt lat="45.46859" lon="4.24375">
        <ele>440.42</ele>
        <time>2014-05-08T07:34:13Z</time>
      </trkpt>
      <trkpt lat="45.46859" lon="4.24375">
        <ele>440.42</ele>
        <time>2014-05-08T07:34:46Z</time>
      </trkpt>
      <trkpt lat="45.46861" lon="4.24377">
        <ele>439.94</ele>
        <time>2014-05-08T07:35:28Z</time>
      </trkpt>
      <trkpt lat="45.46857" lon="4.2438">
        <ele>439.94</ele>
        <time>2014-05-08T07:36:09Z</time>
      </trkpt>
      <trkpt lat="45.46859" lon="4.24378">
        <ele>439.46</ele>
        <time>2014-05-08T07:36:47Z</time>
      </trkpt>
      <trkpt lat="45.46859" lon="4.24374">
        <ele>440.42</ele>
        <time>2014-05-08T07:37:04Z</time>
      </trkpt>
      <trkpt lat="45.46861" lon="4.24375">
        <ele>439.94</ele>
        <time>2014-05-08T07:37:24Z</time>
      </trkpt>
      <trkpt lat="45.46859" lon="4.24373">
        <ele>439.94</ele>
        <time>2014-05-08T07:37:48Z</time>
      </trkpt>
      <trkpt lat="45.4686" lon="4.24372">
        <ele>439.94</ele>
        <time>2014-05-08T07:38:13Z</time>
      </trkpt>
      <trkpt lat="45.4686" lon="4.24375">
        <ele>439.94</ele>
        <time>2014-05-08T07:38:33Z</time>
      </trkpt>
      <trkpt lat="45.46863" lon="4.24377">
        <ele>438.98</ele>
        <time>2014-05-08T07:38:59Z</time>
      </trkpt>
      <trkpt lat="45.4686" lon="4.24376">
        <ele>439.46</ele>
        <time>2014-05-08T07:39:06Z</time>
      </trkpt>
      <trkpt lat="45.46851" lon="4.24367">
        <ele>442.82</ele>
        <time>2014-05-08T07:39:13Z</time>
      </trkpt>
      <trkpt lat="45.46846" lon="4.24352">
        <ele>445.23</ele>
        <time>2014-05-08T07:39:21Z</time>
      </trkpt>
      <trkpt lat="45.46839" lon="4.24333">
        <ele>448.59</ele>
        <time>2014-05-08T07:39:33Z</time>
      </trkpt>
      <trkpt lat="45.46832" lon="4.24321">
        <ele>450.52</ele>
        <time>2014-05-08T07:39:40Z</time>
      </trkpt>
      <trkpt lat="45.46831" lon="4.2432">
        <ele>451</ele>
        <time>2014-05-08T07:39:41Z</time>
      </trkpt>
      <trkpt lat="45.46805" lon="4.24303">
        <ele>454.36</ele>
        <time>2014-05-08T07:39:59Z</time>
      </trkpt>
      <trkpt lat="45.46787" lon="4.24293">
        <ele>457.24</ele>
        <time>2014-05-08T07:40:13Z</time>
      </trkpt>
      <trkpt lat="45.46776" lon="4.24284">
        <ele>460.61</ele>
        <time>2014-05-08T07:40:23Z</time>
      </trkpt>
      <trkpt lat="45.46774" lon="4.24283">
        <ele>461.09</ele>
        <time>2014-05-08T07:40:24Z</time>
      </trkpt>
      <trkpt lat="45.46762" lon="4.24274">
        <ele>463.97</ele>
        <time>2014-05-08T07:40:36Z</time>
      </trkpt>
      <trkpt lat="45.46753" lon="4.24273">
        <ele>465.42</ele>
        <time>2014-05-08T07:40:42Z</time>
      </trkpt>
      <trkpt lat="45.46752" lon="4.24272">
        <ele>464.93</ele>
        <time>2014-05-08T07:40:43Z</time>
      </trkpt>
      <trkpt lat="45.46736" lon="4.24263">
        <ele>468.3</ele>
        <time>2014-05-08T07:40:56Z</time>
      </trkpt>
      <trkpt lat="45.46725" lon="4.24259">
        <ele>470.22</ele>
        <time>2014-05-08T07:41:04Z</time>
      </trkpt>
      <trkpt lat="45.46712" lon="4.24251">
        <ele>473.11</ele>
        <time>2014-05-08T07:41:16Z</time>
      </trkpt>
      <trkpt lat="45.46687" lon="4.24249">
        <ele>476.47</ele>
        <time>2014-05-08T07:41:33Z</time>
      </trkpt>
      <trkpt lat="45.46669" lon="4.24245">
        <ele>479.35</ele>
        <time>2014-05-08T07:41:46Z</time>
      </trkpt>
      <trkpt lat="45.46646" lon="4.24242">
        <ele>482.72</ele>
        <time>2014-05-08T07:42:01Z</time>
      </trkpt>
      <trkpt lat="45.4663" lon="4.24244">
        <ele>485.6</ele>
        <time>2014-05-08T07:42:14Z</time>
      </trkpt>
      <trkpt lat="45.46628" lon="4.24245">
        <ele>486.08</ele>
        <time>2014-05-08T07:42:15Z</time>
      </trkpt>
      <trkpt lat="45.46611" lon="4.24251">
        <ele>489.93</ele>
        <time>2014-05-08T07:42:26Z</time>
      </trkpt>
      <trkpt lat="45.466" lon="4.24254">
        <ele>491.85</ele>
        <time>2014-05-08T07:42:36Z</time>
      </trkpt>
      <trkpt lat="45.4658" lon="4.24244">
        <ele>494.74</ele>
        <time>2014-05-08T07:42:50Z</time>
      </trkpt>
      <trkpt lat="45.46577" lon="4.24244">
        <ele>495.7</ele>
        <time>2014-05-08T07:42:52Z</time>
      </trkpt>
      <trkpt lat="45.46556" lon="4.24241">
        <ele>499.06</ele>
        <time>2014-05-08T07:43:05Z</time>
      </trkpt>
      <trkpt lat="45.46555" lon="4.24242">
        <ele>500.02</ele>
        <time>2014-05-08T07:43:07Z</time>
      </trkpt>
      <trkpt lat="45.46535" lon="4.24247">
        <ele>503.39</ele>
        <time>2014-05-08T07:43:21Z</time>
      </trkpt>
      <trkpt lat="45.46521" lon="4.24248">
        <ele>506.27</ele>
        <time>2014-05-08T07:43:33Z</time>
      </trkpt>
      <trkpt lat="45.46508" lon="4.24246">
        <ele>509.64</ele>
        <time>2014-05-08T07:43:44Z</time>
      </trkpt>
      <trkpt lat="45.46491" lon="4.24246">
        <ele>512.52</ele>
        <time>2014-05-08T07:43:58Z</time>
      </trkpt>
      <trkpt lat="45.46475" lon="4.2425">
        <ele>515.88</ele>
        <time>2014-05-08T07:44:11Z</time>
      </trkpt>
      <trkpt lat="45.46452" lon="4.24261">
        <ele>519.25</ele>
        <time>2014-05-08T07:44:30Z</time>
      </trkpt>
      <trkpt lat="45.46436" lon="4.24267">
        <ele>522.13</ele>
        <time>2014-05-08T07:44:45Z</time>
      </trkpt>
      <trkpt lat="45.46414" lon="4.24277">
        <ele>525.98</ele>
        <time>2014-05-08T07:44:58Z</time>
      </trkpt>
      <trkpt lat="45.464" lon="4.24283">
        <ele>528.86</ele>
        <time>2014-05-08T07:45:09Z</time>
      </trkpt>
      <trkpt lat="45.46383" lon="4.24285">
        <ele>531.75</ele>
        <time>2014-05-08T07:45:23Z</time>
      </trkpt>
      <trkpt lat="45.4637" lon="4.24291">
        <ele>535.11</ele>
        <time>2014-05-08T07:45:32Z</time>
      </trkpt>
      <trkpt lat="45.46368" lon="4.24291">
        <ele>535.59</ele>
        <time>2014-05-08T07:45:33Z</time>
      </trkpt>
      <trkpt lat="45.46355" lon="4.24299">
        <ele>538.48</ele>
        <time>2014-05-08T07:45:44Z</time>
      </trkpt>
      <trkpt lat="45.46341" lon="4.24319">
        <ele>541.84</ele>
        <time>2014-05-08T07:45:59Z</time>
      </trkpt>
      <trkpt lat="45.46322" lon="4.24347">
        <ele>545.2</ele>
        <time>2014-05-08T07:46:20Z</time>
      </trkpt>
      <trkpt lat="45.4632" lon="4.24349">
        <ele>545.69</ele>
        <time>2014-05-08T07:46:22Z</time>
      </trkpt>
      <trkpt lat="45.46306" lon="4.24357">
        <ele>549.05</ele>
        <time>2014-05-08T07:46:32Z</time>
      </trkpt>
      <trkpt lat="45.463" lon="4.24359">
        <ele>550.01</ele>
        <time>2014-05-08T07:46:37Z</time>
      </trkpt>
      <trkpt lat="45.46299" lon="4.24359">
        <ele>550.01</ele>
        <time>2014-05-08T07:46:38Z</time>
      </trkpt>
      <trkpt lat="45.46298" lon="4.24359">
        <ele>550.01</ele>
        <time>2014-05-08T07:46:39Z</time>
      </trkpt>
      <trkpt lat="45.46281" lon="4.24358">
        <ele>553.86</ele>
        <time>2014-05-08T07:46:54Z</time>
      </trkpt>
      <trkpt lat="45.46261" lon="4.24366">
        <ele>556.74</ele>
        <time>2014-05-08T07:47:11Z</time>
      </trkpt>
      <trkpt lat="45.46259" lon="4.24368">
        <ele>556.74</ele>
        <time>2014-05-08T07:47:12Z</time>
      </trkpt>
      <trkpt lat="45.46257" lon="4.2437">
        <ele>557.22</ele>
        <time>2014-05-08T07:47:13Z</time>
      </trkpt>
      <trkpt lat="45.46255" lon="4.24372">
        <ele>557.22</ele>
        <time>2014-05-08T07:47:14Z</time>
      </trkpt>
      <trkpt lat="45.46254" lon="4.24374">
        <ele>557.22</ele>
        <time>2014-05-08T07:47:15Z</time>
      </trkpt>
      <trkpt lat="45.46248" lon="4.24393">
        <ele>560.11</ele>
        <time>2014-05-08T07:47:26Z</time>
      </trkpt>
      <trkpt lat="45.46245" lon="4.2443">
        <ele>563.47</ele>
        <time>2014-05-08T07:47:41Z</time>
      </trkpt>
      <trkpt lat="45.4624" lon="4.24463">
        <ele>566.83</ele>
        <time>2014-05-08T07:47:56Z</time>
      </trkpt>
      <trkpt lat="45.46234" lon="4.2449">
        <ele>570.2</ele>
        <time>2014-05-08T07:48:08Z</time>
      </trkpt>
      <trkpt lat="45.46225" lon="4.24509">
        <ele>573.08</ele>
        <time>2014-05-08T07:48:19Z</time>
      </trkpt>
      <trkpt lat="45.46215" lon="4.24536">
        <ele>576.45</ele>
        <time>2014-05-08T07:48:33Z</time>
      </trkpt>
      <trkpt lat="45.46214" lon="4.24538">
        <ele>576.93</ele>
        <time>2014-05-08T07:48:34Z</time>
      </trkpt>
      <trkpt lat="45.46189" lon="4.24565">
        <ele>578.37</ele>
        <time>2014-05-08T07:48:51Z</time>
      </trkpt>
      <trkpt lat="45.46136" lon="4.24589">
        <ele>579.81</ele>
        <time>2014-05-08T07:49:12Z</time>
      </trkpt>
      <trkpt lat="45.46135" lon="4.24588">
        <ele>579.33</ele>
        <time>2014-05-08T07:49:27Z</time>
      </trkpt>
      <trkpt lat="45.46099" lon="4.24598">
        <ele>580.77</ele>
        <time>2014-05-08T07:49:39Z</time>
      </trkpt>
      <trkpt lat="45.46045" lon="4.24616">
        <ele>577.41</ele>
        <time>2014-05-08T07:49:53Z</time>
      </trkpt>
      <trkpt lat="45.46013" lon="4.24616">
        <ele>576.45</ele>
        <time>2014-05-08T07:49:58Z</time>
      </trkpt>
      <trkpt lat="45.46007" lon="4.24615">
        <ele>576.45</ele>
        <time>2014-05-08T07:49:59Z</time>
      </trkpt>
      <trkpt lat="45.46001" lon="4.24612">
        <ele>575.97</ele>
        <time>2014-05-08T07:50:00Z</time>
      </trkpt>
      <trkpt lat="45.45991" lon="4.24608">
        <ele>575.97</ele>
        <time>2014-05-08T07:50:02Z</time>
      </trkpt>
      <trkpt lat="45.45942" lon="4.24557">
        <ele>579.33</ele>
        <time>2014-05-08T07:50:15Z</time>
      </trkpt>
      <trkpt lat="45.45927" lon="4.24534">
        <ele>580.77</ele>
        <time>2014-05-08T07:50:20Z</time>
      </trkpt>
      <trkpt lat="45.45874" lon="4.24461">
        <ele>581.73</ele>
        <time>2014-05-08T07:50:37Z</time>
      </trkpt>
      <trkpt lat="45.45834" lon="4.24377">
        <ele>583.66</ele>
        <time>2014-05-08T07:50:56Z</time>
      </trkpt>
      <trkpt lat="45.45814" lon="4.24267">
        <ele>582.7</ele>
        <time>2014-05-08T07:51:12Z</time>
      </trkpt>
      <trkpt lat="45.45771" lon="4.24154">
        <ele>582.22</ele>
        <time>2014-05-08T07:51:30Z</time>
      </trkpt>
      <trkpt lat="45.4575" lon="4.24133">
        <ele>581.25</ele>
        <time>2014-05-08T07:51:37Z</time>
      </trkpt>
      <trkpt lat="45.45745" lon="4.24132">
        <ele>581.73</ele>
        <time>2014-05-08T07:51:38Z</time>
      </trkpt>
      <trkpt lat="45.45741" lon="4.24133">
        <ele>581.73</ele>
        <time>2014-05-08T07:51:39Z</time>
      </trkpt>
      <trkpt lat="45.45733" lon="4.24133">
        <ele>580.77</ele>
        <time>2014-05-08T07:51:40Z</time>
      </trkpt>
      <trkpt lat="45.45727" lon="4.24135">
        <ele>579.33</ele>
        <time>2014-05-08T07:51:41Z</time>
      </trkpt>
      <trkpt lat="45.45722" lon="4.24137">
        <ele>578.85</ele>
        <time>2014-05-08T07:51:42Z</time>
      </trkpt>
      <trkpt lat="45.4571" lon="4.24148">
        <ele>575.97</ele>
        <time>2014-05-08T07:51:46Z</time>
      </trkpt>
      <trkpt lat="45.45701" lon="4.24156">
        <ele>573.56</ele>
        <time>2014-05-08T07:51:49Z</time>
      </trkpt>
      <trkpt lat="45.45696" lon="4.24166">
        <ele>570.2</ele>
        <time>2014-05-08T07:51:53Z</time>
      </trkpt>
      <trkpt lat="45.45689" lon="4.24168">
        <ele>568.28</ele>
        <time>2014-05-08T07:51:57Z</time>
      </trkpt>
      <trkpt lat="45.45686" lon="4.24168">
        <ele>567.32</ele>
        <time>2014-05-08T07:51:59Z</time>
      </trkpt>
      <trkpt lat="45.4568" lon="4.24169">
        <ele>563.47</ele>
        <time>2014-05-08T07:52:04Z</time>
      </trkpt>
      <trkpt lat="45.45677" lon="4.24172">
        <ele>561.55</ele>
        <time>2014-05-08T07:52:06Z</time>
      </trkpt>
      <trkpt lat="45.45677" lon="4.24173">
        <ele>561.55</ele>
        <time>2014-05-08T07:52:07Z</time>
      </trkpt>
      <trkpt lat="45.45676" lon="4.24176">
        <ele>561.55</ele>
        <time>2014-05-08T07:52:08Z</time>
      </trkpt>
      <trkpt lat="45.45678" lon="4.24189">
        <ele>558.18</ele>
        <time>2014-05-08T07:52:12Z</time>
      </trkpt>
      <trkpt lat="45.45677" lon="4.24192">
        <ele>557.7</ele>
        <time>2014-05-08T07:52:13Z</time>
      </trkpt>
      <trkpt lat="45.45677" lon="4.24197">
        <ele>556.74</ele>
        <time>2014-05-08T07:52:15Z</time>
      </trkpt>
      <trkpt lat="45.45678" lon="4.24203">
        <ele>555.3</ele>
        <time>2014-05-08T07:52:17Z</time>
      </trkpt>
      <trkpt lat="45.45678" lon="4.24205">
        <ele>554.82</ele>
        <time>2014-05-08T07:52:18Z</time>
      </trkpt>
      <trkpt lat="45.45679" lon="4.24211">
        <ele>553.86</ele>
        <time>2014-05-08T07:52:20Z</time>
      </trkpt>
      <trkpt lat="45.45679" lon="4.2425">
        <ele>557.22</ele>
        <time>2014-05-08T07:52:32Z</time>
      </trkpt>
      <trkpt lat="45.45678" lon="4.24268">
        <ele>559.14</ele>
        <time>2014-05-08T07:52:48Z</time>
      </trkpt>
      <trkpt lat="45.45668" lon="4.24284">
        <ele>562.03</ele>
        <time>2014-05-08T07:53:07Z</time>
      </trkpt>
      <trkpt lat="45.45664" lon="4.24299">
        <ele>565.39</ele>
        <time>2014-05-08T07:53:22Z</time>
      </trkpt>
      <trkpt lat="45.45661" lon="4.24287">
        <ele>568.76</ele>
        <time>2014-05-08T07:53:38Z</time>
      </trkpt>
      <trkpt lat="45.45658" lon="4.24275">
        <ele>570.2</ele>
        <time>2014-05-08T07:53:44Z</time>
      </trkpt>
      <trkpt lat="45.45654" lon="4.24274">
        <ele>571.16</ele>
        <time>2014-05-08T07:53:47Z</time>
      </trkpt>
      <trkpt lat="45.45636" lon="4.24284">
        <ele>573.08</ele>
        <time>2014-05-08T07:54:02Z</time>
      </trkpt>
      <trkpt lat="45.45617" lon="4.24306">
        <ele>576.45</ele>
        <time>2014-05-08T07:54:19Z</time>
      </trkpt>
      <trkpt lat="45.45596" lon="4.24327">
        <ele>577.41</ele>
        <time>2014-05-08T07:54:43Z</time>
      </trkpt>
      <trkpt lat="45.45592" lon="4.24332">
        <ele>577.89</ele>
        <time>2014-05-08T07:55:02Z</time>
      </trkpt>
      <trkpt lat="45.45591" lon="4.2434">
        <ele>577.41</ele>
        <time>2014-05-08T07:55:20Z</time>
      </trkpt>
      <trkpt lat="45.45593" lon="4.24341">
        <ele>578.37</ele>
        <time>2014-05-08T07:55:27Z</time>
      </trkpt>
      <trkpt lat="45.45594" lon="4.24343">
        <ele>577.41</ele>
        <time>2014-05-08T07:55:28Z</time>
      </trkpt>
      <trkpt lat="45.45627" lon="4.24382">
        <ele>576.45</ele>
        <time>2014-05-08T07:55:44Z</time>
      </trkpt>
      <trkpt lat="45.45643" lon="4.244">
        <ele>574.53</ele>
        <time>2014-05-08T07:55:49Z</time>
      </trkpt>
      <trkpt lat="45.45668" lon="4.24432">
        <ele>571.16</ele>
        <time>2014-05-08T07:55:55Z</time>
      </trkpt>
      <trkpt lat="45.45675" lon="4.24445">
        <ele>569.72</ele>
        <time>2014-05-08T07:55:57Z</time>
      </trkpt>
      <trkpt lat="45.45678" lon="4.24453">
        <ele>568.28</ele>
        <time>2014-05-08T07:55:58Z</time>
      </trkpt>
      <trkpt lat="45.4568" lon="4.2446">
        <ele>567.32</ele>
        <time>2014-05-08T07:55:59Z</time>
      </trkpt>
      <trkpt lat="45.45681" lon="4.24469">
        <ele>567.32</ele>
        <time>2014-05-08T07:56:00Z</time>
      </trkpt>
      <trkpt lat="45.45682" lon="4.24476">
        <ele>566.35</ele>
        <time>2014-05-08T07:56:01Z</time>
      </trkpt>
      <trkpt lat="45.45683" lon="4.24484">
        <ele>566.35</ele>
        <time>2014-05-08T07:56:02Z</time>
      </trkpt>
      <trkpt lat="45.45683" lon="4.24525">
        <ele>563.47</ele>
        <time>2014-05-08T07:56:07Z</time>
      </trkpt>
      <trkpt lat="45.45687" lon="4.24559">
        <ele>560.59</ele>
        <time>2014-05-08T07:56:13Z</time>
      </trkpt>
      <trkpt lat="45.45704" lon="4.24585">
        <ele>557.22</ele>
        <time>2014-05-08T07:56:21Z</time>
      </trkpt>
      <trkpt lat="45.45721" lon="4.24615">
        <ele>553.86</ele>
        <time>2014-05-08T07:56:30Z</time>
      </trkpt>
      <trkpt lat="45.45718" lon="4.24636">
        <ele>553.38</ele>
        <time>2014-05-08T07:56:40Z</time>
      </trkpt>
      <trkpt lat="45.45717" lon="4.24636">
        <ele>553.86</ele>
        <time>2014-05-08T07:56:45Z</time>
      </trkpt>
      <trkpt lat="45.45716" lon="4.24636">
        <ele>553.38</ele>
        <time>2014-05-08T07:57:08Z</time>
      </trkpt>
      <trkpt lat="45.45719" lon="4.2464">
        <ele>552.41</ele>
        <time>2014-05-08T07:57:24Z</time>
      </trkpt>
      <trkpt lat="45.45719" lon="4.24643">
        <ele>551.93</ele>
        <time>2014-05-08T07:58:06Z</time>
      </trkpt>
      <trkpt lat="45.45721" lon="4.2464">
        <ele>551.93</ele>
        <time>2014-05-08T07:58:56Z</time>
      </trkpt>
      <trkpt lat="45.45722" lon="4.24642">
        <ele>550.97</ele>
        <time>2014-05-08T07:59:46Z</time>
      </trkpt>
      <trkpt lat="45.45721" lon="4.24643">
        <ele>551.45</ele>
        <time>2014-05-08T08:00:35Z</time>
      </trkpt>
      <trkpt lat="45.45721" lon="4.24641">
        <ele>550.97</ele>
        <time>2014-05-08T08:01:23Z</time>
      </trkpt>
      <trkpt lat="45.45719" lon="4.24643">
        <ele>551.93</ele>
        <time>2014-05-08T08:02:11Z</time>
      </trkpt>
      <trkpt lat="45.45719" lon="4.24643">
        <ele>551.93</ele>
        <time>2014-05-08T08:02:12Z</time>
      </trkpt>
      <trkpt lat="45.45722" lon="4.24643">
        <ele>551.93</ele>
        <time>2014-05-08T08:02:32Z</time>
      </trkpt>
      <trkpt lat="45.4572" lon="4.24643">
        <ele>551.93</ele>
        <time>2014-05-08T08:02:54Z</time>
      </trkpt>
      <trkpt lat="45.45717" lon="4.24646">
        <ele>551.93</ele>
        <time>2014-05-08T08:03:24Z</time>
      </trkpt>
      <trkpt lat="45.45717" lon="4.24644">
        <ele>551.93</ele>
        <time>2014-05-08T08:03:31Z</time>
      </trkpt>
      <trkpt lat="45.45718" lon="4.24642">
        <ele>551.93</ele>
        <time>2014-05-08T08:03:32Z</time>
      </trkpt>
      <trkpt lat="45.45718" lon="4.2464">
        <ele>551.93</ele>
        <time>2014-05-08T08:03:33Z</time>
      </trkpt>
      <trkpt lat="45.45722" lon="4.24638">
        <ele>550.97</ele>
        <time>2014-05-08T08:03:36Z</time>
      </trkpt>
      <trkpt lat="45.45725" lon="4.24639">
        <ele>550.01</ele>
        <time>2014-05-08T08:03:38Z</time>
      </trkpt>
      <trkpt lat="45.45731" lon="4.24641">
        <ele>547.13</ele>
        <time>2014-05-08T08:03:42Z</time>
      </trkpt>
      <trkpt lat="45.45737" lon="4.24653">
        <ele>544.24</ele>
        <time>2014-05-08T08:03:48Z</time>
      </trkpt>
      <trkpt lat="45.45743" lon="4.24657">
        <ele>543.28</ele>
        <time>2014-05-08T08:04:06Z</time>
      </trkpt>
      <trkpt lat="45.45752" lon="4.24662">
        <ele>540.4</ele>
        <time>2014-05-08T08:04:20Z</time>
      </trkpt>
      <trkpt lat="45.45754" lon="4.24673">
        <ele>537.51</ele>
        <time>2014-05-08T08:04:31Z</time>
      </trkpt>
      <trkpt lat="45.45755" lon="4.24679">
        <ele>537.51</ele>
        <time>2014-05-08T08:04:39Z</time>
      </trkpt>
      <trkpt lat="45.45756" lon="4.24683">
        <ele>536.55</ele>
        <time>2014-05-08T08:04:41Z</time>
      </trkpt>
      <trkpt lat="45.45758" lon="4.24688">
        <ele>534.63</ele>
        <time>2014-05-08T08:04:44Z</time>
      </trkpt>
      <trkpt lat="45.45758" lon="4.24695">
        <ele>533.67</ele>
        <time>2014-05-08T08:04:46Z</time>
      </trkpt>
      <trkpt lat="45.45764" lon="4.24724">
        <ele>532.71</ele>
        <time>2014-05-08T08:04:59Z</time>
      </trkpt>
      <trkpt lat="45.45772" lon="4.24731">
        <ele>531.27</ele>
        <time>2014-05-08T08:05:17Z</time>
      </trkpt>
      <trkpt lat="45.45777" lon="4.24745">
        <ele>529.82</ele>
        <time>2014-05-08T08:05:33Z</time>
      </trkpt>
      <trkpt lat="45.45778" lon="4.24756">
        <ele>526.94</ele>
        <time>2014-05-08T08:05:43Z</time>
      </trkpt>
      <trkpt lat="45.4578" lon="4.24769">
        <ele>525.02</ele>
        <time>2014-05-08T08:06:00Z</time>
      </trkpt>
      <trkpt lat="45.45782" lon="4.24777">
        <ele>525.02</ele>
        <time>2014-05-08T08:06:05Z</time>
      </trkpt>
      <trkpt lat="45.45785" lon="4.2479">
        <ele>526.46</ele>
        <time>2014-05-08T08:06:20Z</time>
      </trkpt>
      <trkpt lat="45.45788" lon="4.24805">
        <ele>524.54</ele>
        <time>2014-05-08T08:06:38Z</time>
      </trkpt>
      <trkpt lat="45.45792" lon="4.24819">
        <ele>523.09</ele>
        <time>2014-05-08T08:06:56Z</time>
      </trkpt>
      <trkpt lat="45.45798" lon="4.24835">
        <ele>521.65</ele>
        <time>2014-05-08T08:07:16Z</time>
      </trkpt>
      <trkpt lat="45.458" lon="4.24836">
        <ele>521.65</ele>
        <time>2014-05-08T08:07:41Z</time>
      </trkpt>
      <trkpt lat="45.45799" lon="4.24839">
        <ele>521.65</ele>
        <time>2014-05-08T08:07:43Z</time>
      </trkpt>
      <trkpt lat="45.45799" lon="4.2484">
        <ele>521.65</ele>
        <time>2014-05-08T08:07:44Z</time>
      </trkpt>
      <trkpt lat="45.458" lon="4.24842">
        <ele>520.21</ele>
        <time>2014-05-08T08:07:45Z</time>
      </trkpt>
      <trkpt lat="45.45801" lon="4.24843">
        <ele>520.69</ele>
        <time>2014-05-08T08:07:46Z</time>
      </trkpt>
      <trkpt lat="45.45801" lon="4.24845">
        <ele>520.21</ele>
        <time>2014-05-08T08:07:47Z</time>
      </trkpt>
      <trkpt lat="45.45803" lon="4.24853">
        <ele>517.81</ele>
        <time>2014-05-08T08:07:51Z</time>
      </trkpt>
      <trkpt lat="45.45804" lon="4.2486">
        <ele>515.88</ele>
        <time>2014-05-08T08:07:55Z</time>
      </trkpt>
      <trkpt lat="45.45805" lon="4.24863">
        <ele>514.44</ele>
        <time>2014-05-08T08:07:57Z</time>
      </trkpt>
      <trkpt lat="45.45807" lon="4.24864">
        <ele>514.44</ele>
        <time>2014-05-08T08:07:58Z</time>
      </trkpt>
      <trkpt lat="45.45808" lon="4.24865">
        <ele>513.96</ele>
        <time>2014-05-08T08:07:59Z</time>
      </trkpt>
      <trkpt lat="45.4581" lon="4.24866">
        <ele>513</ele>
        <time>2014-05-08T08:08:00Z</time>
      </trkpt>
      <trkpt lat="45.45811" lon="4.24868">
        <ele>512.04</ele>
        <time>2014-05-08T08:08:01Z</time>
      </trkpt>
      <trkpt lat="45.45812" lon="4.24869">
        <ele>512.04</ele>
        <time>2014-05-08T08:08:02Z</time>
      </trkpt>
      <trkpt lat="45.45813" lon="4.24871">
        <ele>511.56</ele>
        <time>2014-05-08T08:08:03Z</time>
      </trkpt>
      <trkpt lat="45.45813" lon="4.24873">
        <ele>511.08</ele>
        <time>2014-05-08T08:08:04Z</time>
      </trkpt>
      <trkpt lat="45.45814" lon="4.24875">
        <ele>511.08</ele>
        <time>2014-05-08T08:08:05Z</time>
      </trkpt>
      <trkpt lat="45.45814" lon="4.24877">
        <ele>510.12</ele>
        <time>2014-05-08T08:08:06Z</time>
      </trkpt>
      <trkpt lat="45.45815" lon="4.24879">
        <ele>509.16</ele>
        <time>2014-05-08T08:08:07Z</time>
      </trkpt>
      <trkpt lat="45.45816" lon="4.24881">
        <ele>508.67</ele>
        <time>2014-05-08T08:08:08Z</time>
      </trkpt>
      <trkpt lat="45.45817" lon="4.24882">
        <ele>508.67</ele>
        <time>2014-05-08T08:08:09Z</time>
      </trkpt>
      <trkpt lat="45.45819" lon="4.24883">
        <ele>507.71</ele>
        <time>2014-05-08T08:08:10Z</time>
      </trkpt>
      <trkpt lat="45.4582" lon="4.24885">
        <ele>507.23</ele>
        <time>2014-05-08T08:08:11Z</time>
      </trkpt>
      <trkpt lat="45.45821" lon="4.24888">
        <ele>507.23</ele>
        <time>2014-05-08T08:08:12Z</time>
      </trkpt>
      <trkpt lat="45.45822" lon="4.24892">
        <ele>506.75</ele>
        <time>2014-05-08T08:08:13Z</time>
      </trkpt>
      <trkpt lat="45.45824" lon="4.24896">
        <ele>506.27</ele>
        <time>2014-05-08T08:08:14Z</time>
      </trkpt>
      <trkpt lat="45.45825" lon="4.24899">
        <ele>505.31</ele>
        <time>2014-05-08T08:08:15Z</time>
      </trkpt>
      <trkpt lat="45.45827" lon="4.24903">
        <ele>505.31</ele>
        <time>2014-05-08T08:08:16Z</time>
      </trkpt>
      <trkpt lat="45.45836" lon="4.24923">
        <ele>501.46</ele>
        <time>2014-05-08T08:08:22Z</time>
      </trkpt>
      <trkpt lat="45.45843" lon="4.2494">
        <ele>500.02</ele>
        <time>2014-05-08T08:08:26Z</time>
      </trkpt>
      <trkpt lat="45.45856" lon="4.24963">
        <ele>502.43</ele>
        <time>2014-05-08T08:08:34Z</time>
      </trkpt>
      <trkpt lat="45.4587" lon="4.24987">
        <ele>504.83</ele>
        <time>2014-05-08T08:08:46Z</time>
      </trkpt>
      <trkpt lat="45.45876" lon="4.25002">
        <ele>501.95</ele>
        <time>2014-05-08T08:08:52Z</time>
      </trkpt>
      <trkpt lat="45.45877" lon="4.25008">
        <ele>500.02</ele>
        <time>2014-05-08T08:08:55Z</time>
      </trkpt>
      <trkpt lat="45.45878" lon="4.25021">
        <ele>496.18</ele>
        <time>2014-05-08T08:09:00Z</time>
      </trkpt>
      <trkpt lat="45.45879" lon="4.25029">
        <ele>494.26</ele>
        <time>2014-05-08T08:09:03Z</time>
      </trkpt>
      <trkpt lat="45.45878" lon="4.25039">
        <ele>491.85</ele>
        <time>2014-05-08T08:09:07Z</time>
      </trkpt>
      <trkpt lat="45.45879" lon="4.25043">
        <ele>491.37</ele>
        <time>2014-05-08T08:09:08Z</time>
      </trkpt>
      <trkpt lat="45.4588" lon="4.25052">
        <ele>490.89</ele>
        <time>2014-05-08T08:09:10Z</time>
      </trkpt>
      <trkpt lat="45.4589" lon="4.25085">
        <ele>490.41</ele>
        <time>2014-05-08T08:09:20Z</time>
      </trkpt>
      <trkpt lat="45.45891" lon="4.25087">
        <ele>490.41</ele>
        <time>2014-05-08T08:09:21Z</time>
      </trkpt>
      <trkpt lat="45.45891" lon="4.25089">
        <ele>489.93</ele>
        <time>2014-05-08T08:09:22Z</time>
      </trkpt>
      <trkpt lat="45.45894" lon="4.25102">
        <ele>491.85</ele>
        <time>2014-05-08T08:09:37Z</time>
      </trkpt>
      <trkpt lat="45.459" lon="4.2511">
        <ele>491.85</ele>
        <time>2014-05-08T08:09:50Z</time>
      </trkpt>
      <trkpt lat="45.45901" lon="4.25112">
        <ele>491.85</ele>
        <time>2014-05-08T08:09:51Z</time>
      </trkpt>
      <trkpt lat="45.45904" lon="4.25141">
        <ele>487.53</ele>
        <time>2014-05-08T08:10:02Z</time>
      </trkpt>
      <trkpt lat="45.45905" lon="4.2515">
        <ele>486.56</ele>
        <time>2014-05-08T08:10:04Z</time>
      </trkpt>
      <trkpt lat="45.45917" lon="4.25194">
        <ele>488.01</ele>
        <time>2014-05-08T08:10:15Z</time>
      </trkpt>
      <trkpt lat="45.45919" lon="4.25199">
        <ele>488.97</ele>
        <time>2014-05-08T08:10:17Z</time>
      </trkpt>
      <trkpt lat="45.45937" lon="4.25227">
        <ele>487.05</ele>
        <time>2014-05-08T08:10:30Z</time>
      </trkpt>
      <trkpt lat="45.45956" lon="4.25248">
        <ele>484.64</ele>
        <time>2014-05-08T08:10:40Z</time>
      </trkpt>
      <trkpt lat="45.45975" lon="4.25259">
        <ele>481.28</ele>
        <time>2014-05-08T08:10:48Z</time>
      </trkpt>
      <trkpt lat="45.45977" lon="4.25261">
        <ele>480.8</ele>
        <time>2014-05-08T08:10:49Z</time>
      </trkpt>
      <trkpt lat="45.45984" lon="4.25268">
        <ele>477.43</ele>
        <time>2014-05-08T08:10:53Z</time>
      </trkpt>
      <trkpt lat="45.45985" lon="4.2527">
        <ele>476.95</ele>
        <time>2014-05-08T08:10:54Z</time>
      </trkpt>
      <trkpt lat="45.4599" lon="4.25275">
        <ele>475.03</ele>
        <time>2014-05-08T08:10:57Z</time>
      </trkpt>
      <trkpt lat="45.45994" lon="4.25278">
        <ele>471.66</ele>
        <time>2014-05-08T08:11:00Z</time>
      </trkpt>
      <trkpt lat="45.45995" lon="4.25278">
        <ele>471.18</ele>
        <time>2014-05-08T08:11:01Z</time>
      </trkpt>
      <trkpt lat="45.45996" lon="4.25278">
        <ele>470.7</ele>
        <time>2014-05-08T08:11:02Z</time>
      </trkpt>
      <trkpt lat="45.45998" lon="4.25278">
        <ele>470.22</ele>
        <time>2014-05-08T08:11:03Z</time>
      </trkpt>
      <trkpt lat="45.46006" lon="4.25279">
        <ele>466.86</ele>
        <time>2014-05-08T08:11:06Z</time>
      </trkpt>
      <trkpt lat="45.46008" lon="4.2528">
        <ele>466.38</ele>
        <time>2014-05-08T08:11:07Z</time>
      </trkpt>
      <trkpt lat="45.46012" lon="4.25286">
        <ele>464.45</ele>
        <time>2014-05-08T08:11:10Z</time>
      </trkpt>
      <trkpt lat="45.46016" lon="4.25293">
        <ele>461.09</ele>
        <time>2014-05-08T08:11:13Z</time>
      </trkpt>
      <trkpt lat="45.46026" lon="4.253">
        <ele>457.24</ele>
        <time>2014-05-08T08:11:17Z</time>
      </trkpt>
      <trkpt lat="45.46036" lon="4.25305">
        <ele>452.92</ele>
        <time>2014-05-08T08:11:20Z</time>
      </trkpt>
      <trkpt lat="45.46047" lon="4.2531">
        <ele>449.07</ele>
        <time>2014-05-08T08:11:24Z</time>
      </trkpt>
      <trkpt lat="45.46055" lon="4.25312">
        <ele>445.71</ele>
        <time>2014-05-08T08:11:28Z</time>
      </trkpt>
      <trkpt lat="45.46063" lon="4.2532">
        <ele>441.86</ele>
        <time>2014-05-08T08:11:32Z</time>
      </trkpt>
      <trkpt lat="45.46065" lon="4.25324">
        <ele>440.42</ele>
        <time>2014-05-08T08:11:41Z</time>
      </trkpt>
      <trkpt lat="45.46064" lon="4.25318">
        <ele>440.9</ele>
        <time>2014-05-08T08:11:43Z</time>
      </trkpt>
      <trkpt lat="45.46056" lon="4.2529">
        <ele>444.27</ele>
        <time>2014-05-08T08:11:51Z</time>
      </trkpt>
      <trkpt lat="45.46038" lon="4.25245">
        <ele>447.63</ele>
        <time>2014-05-08T08:12:07Z</time>
      </trkpt>
      <trkpt lat="45.46" lon="4.252">
        <ele>448.59</ele>
        <time>2014-05-08T08:12:25Z</time>
      </trkpt>
      <trkpt lat="45.45972" lon="4.25134">
        <ele>446.19</ele>
        <time>2014-05-08T08:12:39Z</time>
      </trkpt>
      <trkpt lat="45.45969" lon="4.25106">
        <ele>449.55</ele>
        <time>2014-05-08T08:12:48Z</time>
      </trkpt>
      <trkpt lat="45.45963" lon="4.25086">
        <ele>452.44</ele>
        <time>2014-05-08T08:12:59Z</time>
      </trkpt>
      <trkpt lat="45.45962" lon="4.25084">
        <ele>453.4</ele>
        <time>2014-05-08T08:13:01Z</time>
      </trkpt>
      <trkpt lat="45.45963" lon="4.25084">
        <ele>455.32</ele>
        <time>2014-05-08T08:13:05Z</time>
      </trkpt>
      <trkpt lat="45.45964" lon="4.25084">
        <ele>454.84</ele>
        <time>2014-05-08T08:13:06Z</time>
      </trkpt>
      <trkpt lat="45.45977" lon="4.25092">
        <ele>458.21</ele>
        <time>2014-05-08T08:13:18Z</time>
      </trkpt>
      <trkpt lat="45.45991" lon="4.25086">
        <ele>460.61</ele>
        <time>2014-05-08T08:13:34Z</time>
      </trkpt>
      <trkpt lat="45.45987" lon="4.25074">
        <ele>462.53</ele>
        <time>2014-05-08T08:13:42Z</time>
      </trkpt>
      <trkpt lat="45.45981" lon="4.25048">
        <ele>465.42</ele>
        <time>2014-05-08T08:13:56Z</time>
      </trkpt>
      <trkpt lat="45.45981" lon="4.25046">
        <ele>465.42</ele>
        <time>2014-05-08T08:13:57Z</time>
      </trkpt>
      <trkpt lat="45.45978" lon="4.25021">
        <ele>468.78</ele>
        <time>2014-05-08T08:14:11Z</time>
      </trkpt>
      <trkpt lat="45.45974" lon="4.24982">
        <ele>470.7</ele>
        <time>2014-05-08T08:14:31Z</time>
      </trkpt>
      <trkpt lat="45.45963" lon="4.2495">
        <ele>473.59</ele>
        <time>2014-05-08T08:14:46Z</time>
      </trkpt>
      <trkpt lat="45.45954" lon="4.24917">
        <ele>476.95</ele>
        <time>2014-05-08T08:14:59Z</time>
      </trkpt>
      <trkpt lat="45.45939" lon="4.24897">
        <ele>480.32</ele>
        <time>2014-05-08T08:15:14Z</time>
      </trkpt>
      <trkpt lat="45.45927" lon="4.24885">
        <ele>483.68</ele>
        <time>2014-05-08T08:15:24Z</time>
      </trkpt>
      <trkpt lat="45.45918" lon="4.24877">
        <ele>485.12</ele>
        <time>2014-05-08T08:15:31Z</time>
      </trkpt>
      <trkpt lat="45.4591" lon="4.2487">
        <ele>488.01</ele>
        <time>2014-05-08T08:15:42Z</time>
      </trkpt>
      <trkpt lat="45.45917" lon="4.24871">
        <ele>488.97</ele>
        <time>2014-05-08T08:15:49Z</time>
      </trkpt>
      <trkpt lat="45.45955" lon="4.2489">
        <ele>491.37</ele>
        <time>2014-05-08T08:16:10Z</time>
      </trkpt>
      <trkpt lat="45.45992" lon="4.24925">
        <ele>495.22</ele>
        <time>2014-05-08T08:16:32Z</time>
      </trkpt>
      <trkpt lat="45.46011" lon="4.24957">
        <ele>498.1</ele>
        <time>2014-05-08T08:16:49Z</time>
      </trkpt>
      <trkpt lat="45.46039" lon="4.24989">
        <ele>501.46</ele>
        <time>2014-05-08T08:17:10Z</time>
      </trkpt>
      <trkpt lat="45.4605" lon="4.24985">
        <ele>503.39</ele>
        <time>2014-05-08T08:17:22Z</time>
      </trkpt>
      <trkpt lat="45.46031" lon="4.24942">
        <ele>506.27</ele>
        <time>2014-05-08T08:17:43Z</time>
      </trkpt>
      <trkpt lat="45.46013" lon="4.249">
        <ele>509.64</ele>
        <time>2014-05-08T08:18:02Z</time>
      </trkpt>
      <trkpt lat="45.45999" lon="4.24868">
        <ele>513.48</ele>
        <time>2014-05-08T08:18:18Z</time>
      </trkpt>
      <trkpt lat="45.45991" lon="4.24842">
        <ele>516.37</ele>
        <time>2014-05-08T08:18:33Z</time>
      </trkpt>
      <trkpt lat="45.45984" lon="4.24829">
        <ele>519.25</ele>
        <time>2014-05-08T08:18:43Z</time>
      </trkpt>
      <trkpt lat="45.45984" lon="4.24822">
        <ele>521.17</ele>
        <time>2014-05-08T08:19:02Z</time>
      </trkpt>
      <trkpt lat="45.45993" lon="4.2483">
        <ele>522.13</ele>
        <time>2014-05-08T08:19:20Z</time>
      </trkpt>
      <trkpt lat="45.46005" lon="4.24835">
        <ele>525.5</ele>
        <time>2014-05-08T08:19:36Z</time>
      </trkpt>
      <trkpt lat="45.46019" lon="4.24845">
        <ele>528.38</ele>
        <time>2014-05-08T08:19:52Z</time>
      </trkpt>
      <trkpt lat="45.46032" lon="4.24854">
        <ele>531.75</ele>
        <time>2014-05-08T08:20:10Z</time>
      </trkpt>
      <trkpt lat="45.46044" lon="4.24862">
        <ele>534.63</ele>
        <time>2014-05-08T08:20:27Z</time>
      </trkpt>
      <trkpt lat="45.4606" lon="4.24863">
        <ele>537.99</ele>
        <time>2014-05-08T08:20:46Z</time>
      </trkpt>
      <trkpt lat="45.46055" lon="4.24844">
        <ele>541.36</ele>
        <time>2014-05-08T08:21:03Z</time>
      </trkpt>
      <trkpt lat="45.46043" lon="4.24825">
        <ele>543.28</ele>
        <time>2014-05-08T08:21:22Z</time>
      </trkpt>
      <trkpt lat="45.46023" lon="4.24785">
        <ele>546.17</ele>
        <time>2014-05-08T08:21:43Z</time>
      </trkpt>
      <trkpt lat="45.46017" lon="4.24765">
        <ele>549.53</ele>
        <time>2014-05-08T08:21:53Z</time>
      </trkpt>
      <trkpt lat="45.46013" lon="4.24753">
        <ele>551.93</ele>
        <time>2014-05-08T08:21:59Z</time>
      </trkpt>
      <trkpt lat="45.46008" lon="4.24741">
        <ele>554.82</ele>
        <time>2014-05-08T08:22:07Z</time>
      </trkpt>
      <trkpt lat="45.46004" lon="4.2473">
        <ele>556.74</ele>
        <time>2014-05-08T08:22:14Z</time>
      </trkpt>
      <trkpt lat="45.46004" lon="4.24707">
        <ele>560.59</ele>
        <time>2014-05-08T08:22:29Z</time>
      </trkpt>
      <trkpt lat="45.4601" lon="4.24689">
        <ele>563.95</ele>
        <time>2014-05-08T08:22:47Z</time>
      </trkpt>
      <trkpt lat="45.46013" lon="4.24682">
        <ele>565.87</ele>
        <time>2014-05-08T08:22:53Z</time>
      </trkpt>
      <trkpt lat="45.46019" lon="4.24665">
        <ele>569.24</ele>
        <time>2014-05-08T08:23:11Z</time>
      </trkpt>
      <trkpt lat="45.46026" lon="4.24653">
        <ele>570.68</ele>
        <time>2014-05-08T08:23:21Z</time>
      </trkpt>
      <trkpt lat="45.46046" lon="4.24634">
        <ele>574.04</ele>
        <time>2014-05-08T08:23:43Z</time>
      </trkpt>
      <trkpt lat="45.46046" lon="4.24628">
        <ele>573.56</ele>
        <time>2014-05-08T08:23:47Z</time>
      </trkpt>
      <trkpt lat="45.46046" lon="4.24626">
        <ele>573.08</ele>
        <time>2014-05-08T08:23:48Z</time>
      </trkpt>
      <trkpt lat="45.46046" lon="4.24623">
        <ele>573.56</ele>
        <time>2014-05-08T08:23:49Z</time>
      </trkpt>
      <trkpt lat="45.46044" lon="4.2462">
        <ele>573.08</ele>
        <time>2014-05-08T08:23:50Z</time>
      </trkpt>
      <trkpt lat="45.46042" lon="4.24618">
        <ele>573.08</ele>
        <time>2014-05-08T08:23:51Z</time>
      </trkpt>
      <trkpt lat="45.46039" lon="4.24618">
        <ele>573.08</ele>
        <time>2014-05-08T08:23:52Z</time>
      </trkpt>
      <trkpt lat="45.46035" lon="4.24618">
        <ele>572.6</ele>
        <time>2014-05-08T08:23:53Z</time>
      </trkpt>
      <trkpt lat="45.46031" lon="4.24619">
        <ele>572.6</ele>
        <time>2014-05-08T08:23:54Z</time>
      </trkpt>
      <trkpt lat="45.46027" lon="4.24619">
        <ele>572.6</ele>
        <time>2014-05-08T08:23:55Z</time>
      </trkpt>
      <trkpt lat="45.46023" lon="4.24618">
        <ele>572.12</ele>
        <time>2014-05-08T08:23:56Z</time>
      </trkpt>
      <trkpt lat="45.46019" lon="4.24617">
        <ele>572.12</ele>
        <time>2014-05-08T08:23:57Z</time>
      </trkpt>
      <trkpt lat="45.45972" lon="4.24596">
        <ele>573.56</ele>
        <time>2014-05-08T08:24:12Z</time>
      </trkpt>
      <trkpt lat="45.45938" lon="4.24554">
        <ele>575.97</ele>
        <time>2014-05-08T08:24:27Z</time>
      </trkpt>
      <trkpt lat="45.45892" lon="4.2449">
        <ele>576.93</ele>
        <time>2014-05-08T08:24:46Z</time>
      </trkpt>
      <trkpt lat="45.45844" lon="4.24411">
        <ele>579.81</ele>
        <time>2014-05-08T08:25:06Z</time>
      </trkpt>
      <trkpt lat="45.45821" lon="4.24308">
        <ele>578.37</ele>
        <time>2014-05-08T08:25:25Z</time>
      </trkpt>
      <trkpt lat="45.45775" lon="4.24194">
        <ele>579.33</ele>
        <time>2014-05-08T08:25:43Z</time>
      </trkpt>
      <trkpt lat="45.45764" lon="4.24166">
        <ele>577.89</ele>
        <time>2014-05-08T08:25:47Z</time>
      </trkpt>
      <trkpt lat="45.45761" lon="4.24159">
        <ele>578.37</ele>
        <time>2014-05-08T08:25:48Z</time>
      </trkpt>
      <trkpt lat="45.45757" lon="4.24153">
        <ele>578.37</ele>
        <time>2014-05-08T08:25:49Z</time>
      </trkpt>
      <trkpt lat="45.45753" lon="4.24148">
        <ele>577.89</ele>
        <time>2014-05-08T08:25:50Z</time>
      </trkpt>
      <trkpt lat="45.45749" lon="4.24143">
        <ele>577.89</ele>
        <time>2014-05-08T08:25:51Z</time>
      </trkpt>
      <trkpt lat="45.45724" lon="4.2412">
        <ele>578.37</ele>
        <time>2014-05-08T08:25:57Z</time>
      </trkpt>
      <trkpt lat="45.4572" lon="4.24115">
        <ele>578.37</ele>
        <time>2014-05-08T08:25:58Z</time>
      </trkpt>
      <trkpt lat="45.45718" lon="4.2411">
        <ele>577.41</ele>
        <time>2014-05-08T08:25:59Z</time>
      </trkpt>
      <trkpt lat="45.45715" lon="4.24105">
        <ele>577.89</ele>
        <time>2014-05-08T08:26:00Z</time>
      </trkpt>
      <trkpt lat="45.45713" lon="4.24099">
        <ele>577.41</ele>
        <time>2014-05-08T08:26:01Z</time>
      </trkpt>
      <trkpt lat="45.45711" lon="4.24093">
        <ele>577.41</ele>
        <time>2014-05-08T08:26:02Z</time>
      </trkpt>
      <trkpt lat="45.4571" lon="4.24087">
        <ele>577.41</ele>
        <time>2014-05-08T08:26:03Z</time>
      </trkpt>
      <trkpt lat="45.4571" lon="4.2408">
        <ele>577.41</ele>
        <time>2014-05-08T08:26:04Z</time>
      </trkpt>
      <trkpt lat="45.45696" lon="4.23962">
        <ele>578.37</ele>
        <time>2014-05-08T08:26:22Z</time>
      </trkpt>
      <trkpt lat="45.45645" lon="4.23883">
        <ele>578.85</ele>
        <time>2014-05-08T08:26:39Z</time>
      </trkpt>
      <trkpt lat="45.45594" lon="4.23815">
        <ele>580.77</ele>
        <time>2014-05-08T08:26:55Z</time>
      </trkpt>
      <trkpt lat="45.45551" lon="4.23762">
        <ele>584.62</ele>
        <time>2014-05-08T08:27:10Z</time>
      </trkpt>
      <trkpt lat="45.45497" lon="4.23722">
        <ele>587.5</ele>
        <time>2014-05-08T08:27:27Z</time>
      </trkpt>
      <trkpt lat="45.45468" lon="4.23697">
        <ele>590.87</ele>
        <time>2014-05-08T08:27:38Z</time>
      </trkpt>
      <trkpt lat="45.45466" lon="4.23695">
        <ele>590.39</ele>
        <time>2014-05-08T08:27:39Z</time>
      </trkpt>
      <trkpt lat="45.45447" lon="4.23678">
        <ele>593.27</ele>
        <time>2014-05-08T08:27:48Z</time>
      </trkpt>
      <trkpt lat="45.45446" lon="4.23676">
        <ele>593.27</ele>
        <time>2014-05-08T08:27:49Z</time>
      </trkpt>
      <trkpt lat="45.45426" lon="4.23658">
        <ele>596.64</ele>
        <time>2014-05-08T08:27:59Z</time>
      </trkpt>
      <trkpt lat="45.45421" lon="4.23657">
        <ele>596.64</ele>
        <time>2014-05-08T08:28:01Z</time>
      </trkpt>
      <trkpt lat="45.45419" lon="4.23658">
        <ele>597.12</ele>
        <time>2014-05-08T08:28:02Z</time>
      </trkpt>
      <trkpt lat="45.45417" lon="4.2366">
        <ele>597.6</ele>
        <time>2014-05-08T08:28:03Z</time>
      </trkpt>
      <trkpt lat="45.45415" lon="4.23662">
        <ele>598.08</ele>
        <time>2014-05-08T08:28:04Z</time>
      </trkpt>
      <trkpt lat="45.45413" lon="4.23665">
        <ele>598.08</ele>
        <time>2014-05-08T08:28:05Z</time>
      </trkpt>
      <trkpt lat="45.4541" lon="4.23667">
        <ele>598.56</ele>
        <time>2014-05-08T08:28:06Z</time>
      </trkpt>
      <trkpt lat="45.45409" lon="4.2367">
        <ele>598.56</ele>
        <time>2014-05-08T08:28:07Z</time>
      </trkpt>
      <trkpt lat="45.45385" lon="4.23692">
        <ele>601.92</ele>
        <time>2014-05-08T08:28:19Z</time>
      </trkpt>
      <trkpt lat="45.45356" lon="4.237">
        <ele>605.29</ele>
        <time>2014-05-08T08:28:31Z</time>
      </trkpt>
      <trkpt lat="45.45311" lon="4.23702">
        <ele>608.17</ele>
        <time>2014-05-08T08:28:48Z</time>
      </trkpt>
      <trkpt lat="45.45265" lon="4.23694">
        <ele>610.09</ele>
        <time>2014-05-08T08:29:05Z</time>
      </trkpt>
      <trkpt lat="45.45206" lon="4.23697">
        <ele>611.54</ele>
        <time>2014-05-08T08:29:23Z</time>
      </trkpt>
      <trkpt lat="45.45149" lon="4.23687">
        <ele>609.13</ele>
        <time>2014-05-08T08:29:36Z</time>
      </trkpt>
      <trkpt lat="45.45145" lon="4.23685">
        <ele>609.13</ele>
        <time>2014-05-08T08:29:37Z</time>
      </trkpt>
      <trkpt lat="45.45141" lon="4.23682">
        <ele>608.65</ele>
        <time>2014-05-08T08:29:38Z</time>
      </trkpt>
      <trkpt lat="45.45138" lon="4.23678">
        <ele>608.65</ele>
        <time>2014-05-08T08:29:39Z</time>
      </trkpt>
      <trkpt lat="45.45135" lon="4.23675">
        <ele>608.17</ele>
        <time>2014-05-08T08:29:40Z</time>
      </trkpt>
      <trkpt lat="45.45133" lon="4.2367">
        <ele>607.69</ele>
        <time>2014-05-08T08:29:41Z</time>
      </trkpt>
      <trkpt lat="45.4513" lon="4.23666">
        <ele>607.69</ele>
        <time>2014-05-08T08:29:42Z</time>
      </trkpt>
      <trkpt lat="45.45129" lon="4.23661">
        <ele>607.69</ele>
        <time>2014-05-08T08:29:43Z</time>
      </trkpt>
      <trkpt lat="45.45127" lon="4.23656">
        <ele>607.21</ele>
        <time>2014-05-08T08:29:44Z</time>
      </trkpt>
      <trkpt lat="45.45126" lon="4.2365">
        <ele>607.69</ele>
        <time>2014-05-08T08:29:45Z</time>
      </trkpt>
      <trkpt lat="45.45126" lon="4.23644">
        <ele>607.69</ele>
        <time>2014-05-08T08:29:46Z</time>
      </trkpt>
      <trkpt lat="45.45125" lon="4.23638">
        <ele>607.21</ele>
        <time>2014-05-08T08:29:47Z</time>
      </trkpt>
      <trkpt lat="45.45126" lon="4.23631">
        <ele>607.21</ele>
        <time>2014-05-08T08:29:48Z</time>
      </trkpt>
      <trkpt lat="45.45126" lon="4.23625">
        <ele>606.73</ele>
        <time>2014-05-08T08:29:49Z</time>
      </trkpt>
      <trkpt lat="45.45131" lon="4.23559">
        <ele>605.77</ele>
        <time>2014-05-08T08:30:03Z</time>
      </trkpt>
      <trkpt lat="45.45138" lon="4.2356">
        <ele>606.25</ele>
        <time>2014-05-08T08:30:25Z</time>
      </trkpt>
      <trkpt lat="45.45139" lon="4.23555">
        <ele>605.77</ele>
        <time>2014-05-08T08:30:40Z</time>
      </trkpt>
      <trkpt lat="45.45139" lon="4.23552">
        <ele>605.77</ele>
        <time>2014-05-08T08:30:41Z</time>
      </trkpt>
      <trkpt lat="45.45138" lon="4.23549">
        <ele>605.77</ele>
        <time>2014-05-08T08:30:42Z</time>
      </trkpt>
      <trkpt lat="45.45136" lon="4.23544">
        <ele>605.29</ele>
        <time>2014-05-08T08:30:43Z</time>
      </trkpt>
      <trkpt lat="45.45134" lon="4.23539">
        <ele>604.81</ele>
        <time>2014-05-08T08:30:44Z</time>
      </trkpt>
      <trkpt lat="45.4513" lon="4.23535">
        <ele>604.33</ele>
        <time>2014-05-08T08:30:45Z</time>
      </trkpt>
      <trkpt lat="45.45125" lon="4.23533">
        <ele>604.33</ele>
        <time>2014-05-08T08:30:46Z</time>
      </trkpt>
      <trkpt lat="45.45119" lon="4.23535">
        <ele>603.85</ele>
        <time>2014-05-08T08:30:47Z</time>
      </trkpt>
      <trkpt lat="45.45114" lon="4.23539">
        <ele>603.85</ele>
        <time>2014-05-08T08:30:48Z</time>
      </trkpt>
      <trkpt lat="45.45108" lon="4.23544">
        <ele>602.88</ele>
        <time>2014-05-08T08:30:49Z</time>
      </trkpt>
      <trkpt lat="45.45086" lon="4.23564">
        <ele>600.48</ele>
        <time>2014-05-08T08:30:53Z</time>
      </trkpt>
      <trkpt lat="45.4508" lon="4.23567">
        <ele>600.48</ele>
        <time>2014-05-08T08:30:54Z</time>
      </trkpt>
      <trkpt lat="45.45074" lon="4.2357">
        <ele>599.52</ele>
        <time>2014-05-08T08:30:55Z</time>
      </trkpt>
      <trkpt lat="45.45068" lon="4.23572">
        <ele>599.04</ele>
        <time>2014-05-08T08:30:56Z</time>
      </trkpt>
      <trkpt lat="45.45062" lon="4.23573">
        <ele>598.08</ele>
        <time>2014-05-08T08:30:57Z</time>
      </trkpt>
      <trkpt lat="45.45056" lon="4.23574">
        <ele>598.08</ele>
        <time>2014-05-08T08:30:58Z</time>
      </trkpt>
      <trkpt lat="45.45048" lon="4.23575">
        <ele>597.6</ele>
        <time>2014-05-08T08:31:00Z</time>
      </trkpt>
      <trkpt lat="45.45044" lon="4.23577">
        <ele>597.6</ele>
        <time>2014-05-08T08:31:01Z</time>
      </trkpt>
      <trkpt lat="45.4504" lon="4.2358">
        <ele>597.12</ele>
        <time>2014-05-08T08:31:02Z</time>
      </trkpt>
      <trkpt lat="45.45037" lon="4.23584">
        <ele>597.12</ele>
        <time>2014-05-08T08:31:03Z</time>
      </trkpt>
      <trkpt lat="45.45034" lon="4.23589">
        <ele>597.6</ele>
        <time>2014-05-08T08:31:04Z</time>
      </trkpt>
      <trkpt lat="45.45032" lon="4.23595">
        <ele>597.6</ele>
        <time>2014-05-08T08:31:05Z</time>
      </trkpt>
      <trkpt lat="45.45027" lon="4.23608">
        <ele>597.12</ele>
        <time>2014-05-08T08:31:07Z</time>
      </trkpt>
      <trkpt lat="45.45027" lon="4.23616">
        <ele>597.12</ele>
        <time>2014-05-08T08:31:08Z</time>
      </trkpt>
      <trkpt lat="45.45028" lon="4.23653">
        <ele>596.15</ele>
        <time>2014-05-08T08:31:13Z</time>
      </trkpt>
      <trkpt lat="45.45029" lon="4.2366">
        <ele>596.15</ele>
        <time>2014-05-08T08:31:14Z</time>
      </trkpt>
      <trkpt lat="45.45039" lon="4.23707">
        <ele>596.15</ele>
        <time>2014-05-08T08:31:20Z</time>
      </trkpt>
      <trkpt lat="45.45039" lon="4.23715">
        <ele>596.15</ele>
        <time>2014-05-08T08:31:21Z</time>
      </trkpt>
      <trkpt lat="45.45038" lon="4.23723">
        <ele>596.64</ele>
        <time>2014-05-08T08:31:22Z</time>
      </trkpt>
      <trkpt lat="45.45037" lon="4.2373">
        <ele>596.64</ele>
        <time>2014-05-08T08:31:23Z</time>
      </trkpt>
      <trkpt lat="45.45035" lon="4.23736">
        <ele>596.64</ele>
        <time>2014-05-08T08:31:24Z</time>
      </trkpt>
      <trkpt lat="45.45029" lon="4.2374">
        <ele>595.67</ele>
        <time>2014-05-08T08:31:25Z</time>
      </trkpt>
      <trkpt lat="45.45026" lon="4.23746">
        <ele>595.19</ele>
        <time>2014-05-08T08:31:26Z</time>
      </trkpt>
      <trkpt lat="45.45023" lon="4.23753">
        <ele>595.19</ele>
        <time>2014-05-08T08:31:27Z</time>
      </trkpt>
      <trkpt lat="45.45016" lon="4.23767">
        <ele>595.67</ele>
        <time>2014-05-08T08:31:29Z</time>
      </trkpt>
      <trkpt lat="45.45014" lon="4.23776">
        <ele>595.67</ele>
        <time>2014-05-08T08:31:30Z</time>
      </trkpt>
      <trkpt lat="45.45012" lon="4.23784">
        <ele>596.15</ele>
        <time>2014-05-08T08:31:31Z</time>
      </trkpt>
      <trkpt lat="45.45011" lon="4.23792">
        <ele>595.67</ele>
        <time>2014-05-08T08:31:32Z</time>
      </trkpt>
      <trkpt lat="45.45011" lon="4.23799">
        <ele>596.15</ele>
        <time>2014-05-08T08:31:33Z</time>
      </trkpt>
      <trkpt lat="45.45029" lon="4.23893">
        <ele>599.52</ele>
        <time>2014-05-08T08:31:48Z</time>
      </trkpt>
      <trkpt lat="45.45034" lon="4.23946">
        <ele>602.4</ele>
        <time>2014-05-08T08:31:59Z</time>
      </trkpt>
      <trkpt lat="45.45036" lon="4.24">
        <ele>602.88</ele>
        <time>2014-05-08T08:32:09Z</time>
      </trkpt>
      <trkpt lat="45.45023" lon="4.24081">
        <ele>600.96</ele>
        <time>2014-05-08T08:32:23Z</time>
      </trkpt>
      <trkpt lat="45.45058" lon="4.24152">
        <ele>602.88</ele>
        <time>2014-05-08T08:32:36Z</time>
      </trkpt>
      <trkpt lat="45.45052" lon="4.24164">
        <ele>603.36</ele>
        <time>2014-05-08T08:32:41Z</time>
      </trkpt>
      <trkpt lat="45.45049" lon="4.24164">
        <ele>604.81</ele>
        <time>2014-05-08T08:32:42Z</time>
      </trkpt>
      <trkpt lat="45.45046" lon="4.24164">
        <ele>604.81</ele>
        <time>2014-05-08T08:32:43Z</time>
      </trkpt>
      <trkpt lat="45.45043" lon="4.24164">
        <ele>604.81</ele>
        <time>2014-05-08T08:32:44Z</time>
      </trkpt>
      <trkpt lat="45.4504" lon="4.24164">
        <ele>605.29</ele>
        <time>2014-05-08T08:32:45Z</time>
      </trkpt>
      <trkpt lat="45.45037" lon="4.24164">
        <ele>605.77</ele>
        <time>2014-05-08T08:32:46Z</time>
      </trkpt>
      <trkpt lat="45.45035" lon="4.24165">
        <ele>605.77</ele>
        <time>2014-05-08T08:32:47Z</time>
      </trkpt>
      <trkpt lat="45.45023" lon="4.24168">
        <ele>607.69</ele>
        <time>2014-05-08T08:32:52Z</time>
      </trkpt>
      <trkpt lat="45.45002" lon="4.24178">
        <ele>610.57</ele>
        <time>2014-05-08T08:33:01Z</time>
      </trkpt>
      <trkpt lat="45.44986" lon="4.24183">
        <ele>613.94</ele>
        <time>2014-05-08T08:33:09Z</time>
      </trkpt>
      <trkpt lat="45.44957" lon="4.24185">
        <ele>617.3</ele>
        <time>2014-05-08T08:33:24Z</time>
      </trkpt>
      <trkpt lat="45.44935" lon="4.24186">
        <ele>620.67</ele>
        <time>2014-05-08T08:33:38Z</time>
      </trkpt>
      <trkpt lat="45.44913" lon="4.24187">
        <ele>624.03</ele>
        <time>2014-05-08T08:33:52Z</time>
      </trkpt>
      <trkpt lat="45.44891" lon="4.24179">
        <ele>626.92</ele>
        <time>2014-05-08T08:34:07Z</time>
      </trkpt>
      <trkpt lat="45.44859" lon="4.24168">
        <ele>629.8</ele>
        <time>2014-05-08T08:34:26Z</time>
      </trkpt>
      <trkpt lat="45.44827" lon="4.24157">
        <ele>631.72</ele>
        <time>2014-05-08T08:34:43Z</time>
      </trkpt>
      <trkpt lat="45.44794" lon="4.24147">
        <ele>634.13</ele>
        <time>2014-05-08T08:35:02Z</time>
      </trkpt>
      <trkpt lat="45.44757" lon="4.24131">
        <ele>636.53</ele>
        <time>2014-05-08T08:35:18Z</time>
      </trkpt>
      <trkpt lat="45.44696" lon="4.24117">
        <ele>633.65</ele>
        <time>2014-05-08T08:35:33Z</time>
      </trkpt>
      <trkpt lat="45.44678" lon="4.24115">
        <ele>632.68</ele>
        <time>2014-05-08T08:35:37Z</time>
      </trkpt>
      <trkpt lat="45.44673" lon="4.24114">
        <ele>633.17</ele>
        <time>2014-05-08T08:35:38Z</time>
      </trkpt>
      <trkpt lat="45.44668" lon="4.24112">
        <ele>633.17</ele>
        <time>2014-05-08T08:35:39Z</time>
      </trkpt>
      <trkpt lat="45.44659" lon="4.24106">
        <ele>632.2</ele>
        <time>2014-05-08T08:35:41Z</time>
      </trkpt>
      <trkpt lat="45.44655" lon="4.24102">
        <ele>631.72</ele>
        <time>2014-05-08T08:35:42Z</time>
      </trkpt>
      <trkpt lat="45.44582" lon="4.24063">
        <ele>629.32</ele>
        <time>2014-05-08T08:35:56Z</time>
      </trkpt>
      <trkpt lat="45.44513" lon="4.24048">
        <ele>628.84</ele>
        <time>2014-05-08T08:36:08Z</time>
      </trkpt>
      <trkpt lat="45.44507" lon="4.24046">
        <ele>628.84</ele>
        <time>2014-05-08T08:36:09Z</time>
      </trkpt>
      <trkpt lat="45.44427" lon="4.24012">
        <ele>628.36</ele>
        <time>2014-05-08T08:36:24Z</time>
      </trkpt>
      <trkpt lat="45.44385" lon="4.24013">
        <ele>631.24</ele>
        <time>2014-05-08T08:36:37Z</time>
      </trkpt>
      <trkpt lat="45.44366" lon="4.24011">
        <ele>634.13</ele>
        <time>2014-05-08T08:36:46Z</time>
      </trkpt>
      <trkpt lat="45.44348" lon="4.24002">
        <ele>637.01</ele>
        <time>2014-05-08T08:36:55Z</time>
      </trkpt>
      <trkpt lat="45.4434" lon="4.24003">
        <ele>637.49</ele>
        <time>2014-05-08T08:37:08Z</time>
      </trkpt>
      <trkpt lat="45.44342" lon="4.24006">
        <ele>636.53</ele>
        <time>2014-05-08T08:37:40Z</time>
      </trkpt>
      <trkpt lat="45.44344" lon="4.24005">
        <ele>636.53</ele>
        <time>2014-05-08T08:38:11Z</time>
      </trkpt>
      <trkpt lat="45.44325" lon="4.23992">
        <ele>637.01</ele>
        <time>2014-05-08T08:38:25Z</time>
      </trkpt>
      <trkpt lat="45.44314" lon="4.23983">
        <ele>637.01</ele>
        <time>2014-05-08T08:38:28Z</time>
      </trkpt>
      <trkpt lat="45.44311" lon="4.23979">
        <ele>636.53</ele>
        <time>2014-05-08T08:38:29Z</time>
      </trkpt>
      <trkpt lat="45.44277" lon="4.23894">
        <ele>634.61</ele>
        <time>2014-05-08T08:38:44Z</time>
      </trkpt>
      <trkpt lat="45.44274" lon="4.23889">
        <ele>634.61</ele>
        <time>2014-05-08T08:38:45Z</time>
      </trkpt>
      <trkpt lat="45.44271" lon="4.23885">
        <ele>635.09</ele>
        <time>2014-05-08T08:38:46Z</time>
      </trkpt>
      <trkpt lat="45.44268" lon="4.23881">
        <ele>635.09</ele>
        <time>2014-05-08T08:38:47Z</time>
      </trkpt>
      <trkpt lat="45.44265" lon="4.23879">
        <ele>635.09</ele>
        <time>2014-05-08T08:38:48Z</time>
      </trkpt>
      <trkpt lat="45.44261" lon="4.23876">
        <ele>635.57</ele>
        <time>2014-05-08T08:38:49Z</time>
      </trkpt>
      <trkpt lat="45.44243" lon="4.23857">
        <ele>635.57</ele>
        <time>2014-05-08T08:38:54Z</time>
      </trkpt>
      <trkpt lat="45.4424" lon="4.23852">
        <ele>637.01</ele>
        <time>2014-05-08T08:38:55Z</time>
      </trkpt>
      <trkpt lat="45.44238" lon="4.23846">
        <ele>636.53</ele>
        <time>2014-05-08T08:38:56Z</time>
      </trkpt>
      <trkpt lat="45.44236" lon="4.2384">
        <ele>636.53</ele>
        <time>2014-05-08T08:38:57Z</time>
      </trkpt>
      <trkpt lat="45.44235" lon="4.23834">
        <ele>636.53</ele>
        <time>2014-05-08T08:38:58Z</time>
      </trkpt>
      <trkpt lat="45.44227" lon="4.23773">
        <ele>637.49</ele>
        <time>2014-05-08T08:39:13Z</time>
      </trkpt>
      <trkpt lat="45.44231" lon="4.23774">
        <ele>636.53</ele>
        <time>2014-05-08T08:39:27Z</time>
      </trkpt>
      <trkpt lat="45.44232" lon="4.23774">
        <ele>637.97</ele>
        <time>2014-05-08T08:40:01Z</time>
      </trkpt>
      <trkpt lat="45.44232" lon="4.23775">
        <ele>635.09</ele>
        <time>2014-05-08T08:40:12Z</time>
      </trkpt>
      <trkpt lat="45.44231" lon="4.23773">
        <ele>637.01</ele>
        <time>2014-05-08T08:40:40Z</time>
      </trkpt>
      <trkpt lat="45.44229" lon="4.23774">
        <ele>637.01</ele>
        <time>2014-05-08T08:40:57Z</time>
      </trkpt>
      <trkpt lat="45.44231" lon="4.23769">
        <ele>637.97</ele>
        <time>2014-05-08T08:41:13Z</time>
      </trkpt>
      <trkpt lat="45.44231" lon="4.23765">
        <ele>637.97</ele>
        <time>2014-05-08T08:41:32Z</time>
      </trkpt>
      <trkpt lat="45.4423" lon="4.23764">
        <ele>638.45</ele>
        <time>2014-05-08T08:41:47Z</time>
      </trkpt>
      <trkpt lat="45.44229" lon="4.23758">
        <ele>638.45</ele>
        <time>2014-05-08T08:42:02Z</time>
      </trkpt>
      <trkpt lat="45.44224" lon="4.23727">
        <ele>639.89</ele>
        <time>2014-05-08T08:42:11Z</time>
      </trkpt>
      <trkpt lat="45.44232" lon="4.2369">
        <ele>642.78</ele>
        <time>2014-05-08T08:42:22Z</time>
      </trkpt>
      <trkpt lat="45.44232" lon="4.23687">
        <ele>642.78</ele>
        <time>2014-05-08T08:42:23Z</time>
      </trkpt>
      <trkpt lat="45.44237" lon="4.23668">
        <ele>645.18</ele>
        <time>2014-05-08T08:42:30Z</time>
      </trkpt>
      <trkpt lat="45.4424" lon="4.23645">
        <ele>648.07</ele>
        <time>2014-05-08T08:42:39Z</time>
      </trkpt>
      <trkpt lat="45.44243" lon="4.2363">
        <ele>649.51</ele>
        <time>2014-05-08T08:42:44Z</time>
      </trkpt>
      <trkpt lat="45.44247" lon="4.23597">
        <ele>652.87</ele>
        <time>2014-05-08T08:42:57Z</time>
      </trkpt>
      <trkpt lat="45.44256" lon="4.23539">
        <ele>655.76</ele>
        <time>2014-05-08T08:43:16Z</time>
      </trkpt>
      <trkpt lat="45.44271" lon="4.23473">
        <ele>659.12</ele>
        <time>2014-05-08T08:43:36Z</time>
      </trkpt>
      <trkpt lat="45.44286" lon="4.23416">
        <ele>662.49</ele>
        <time>2014-05-08T08:43:54Z</time>
      </trkpt>
      <trkpt lat="45.44292" lon="4.23377">
        <ele>665.85</ele>
        <time>2014-05-08T08:44:06Z</time>
      </trkpt>
      <trkpt lat="45.44279" lon="4.23322">
        <ele>667.77</ele>
        <time>2014-05-08T08:44:22Z</time>
      </trkpt>
      <trkpt lat="45.44245" lon="4.23286">
        <ele>670.66</ele>
        <time>2014-05-08T08:44:39Z</time>
      </trkpt>
      <trkpt lat="45.44223" lon="4.23282">
        <ele>674.02</ele>
        <time>2014-05-08T08:44:49Z</time>
      </trkpt>
      <trkpt lat="45.44195" lon="4.23273">
        <ele>677.39</ele>
        <time>2014-05-08T08:45:02Z</time>
      </trkpt>
      <trkpt lat="45.44167" lon="4.23256">
        <ele>680.75</ele>
        <time>2014-05-08T08:45:16Z</time>
      </trkpt>
      <trkpt lat="45.44129" lon="4.23237">
        <ele>684.12</ele>
        <time>2014-05-08T08:45:33Z</time>
      </trkpt>
      <trkpt lat="45.44103" lon="4.2322">
        <ele>687.48</ele>
        <time>2014-05-08T08:45:45Z</time>
      </trkpt>
      <trkpt lat="45.4406" lon="4.23215">
        <ele>688.92</ele>
        <time>2014-05-08T08:46:02Z</time>
      </trkpt>
      <trkpt lat="45.44001" lon="4.23218">
        <ele>691.33</ele>
        <time>2014-05-08T08:46:22Z</time>
      </trkpt>
      <trkpt lat="45.43946" lon="4.23206">
        <ele>694.21</ele>
        <time>2014-05-08T08:46:39Z</time>
      </trkpt>
      <trkpt lat="45.43905" lon="4.23175">
        <ele>697.57</ele>
        <time>2014-05-08T08:46:55Z</time>
      </trkpt>
      <trkpt lat="45.43868" lon="4.23145">
        <ele>700.94</ele>
        <time>2014-05-08T08:47:11Z</time>
      </trkpt>
      <trkpt lat="45.43845" lon="4.23129">
        <ele>704.3</ele>
        <time>2014-05-08T08:47:22Z</time>
      </trkpt>
      <trkpt lat="45.438" lon="4.23111">
        <ele>707.19</ele>
        <time>2014-05-08T08:47:39Z</time>
      </trkpt>
      <trkpt lat="45.43766" lon="4.23073">
        <ele>709.11</ele>
        <time>2014-05-08T08:47:54Z</time>
      </trkpt>
      <trkpt lat="45.43719" lon="4.23031">
        <ele>708.63</ele>
        <time>2014-05-08T08:48:09Z</time>
      </trkpt>
      <trkpt lat="45.43656" lon="4.22986">
        <ele>710.07</ele>
        <time>2014-05-08T08:48:28Z</time>
      </trkpt>
      <trkpt lat="45.43614" lon="4.22942">
        <ele>713.44</ele>
        <time>2014-05-08T08:48:42Z</time>
      </trkpt>
      <trkpt lat="45.4358" lon="4.2288">
        <ele>713.44</ele>
        <time>2014-05-08T08:48:56Z</time>
      </trkpt>
      <trkpt lat="45.43523" lon="4.22822">
        <ele>714.4</ele>
        <time>2014-05-08T08:49:13Z</time>
      </trkpt>
      <trkpt lat="45.43454" lon="4.2279">
        <ele>716.32</ele>
        <time>2014-05-08T08:49:32Z</time>
      </trkpt>
      <trkpt lat="45.43392" lon="4.22747">
        <ele>718.24</ele>
        <time>2014-05-08T08:49:51Z</time>
      </trkpt>
      <trkpt lat="45.43354" lon="4.22703">
        <ele>721.61</ele>
        <time>2014-05-08T08:50:07Z</time>
      </trkpt>
      <trkpt lat="45.43343" lon="4.22691">
        <ele>723.05</ele>
        <time>2014-05-08T08:50:12Z</time>
      </trkpt>
      <trkpt lat="45.43309" lon="4.22683">
        <ele>724.49</ele>
        <time>2014-05-08T08:50:25Z</time>
      </trkpt>
      <trkpt lat="45.43282" lon="4.22687">
        <ele>727.86</ele>
        <time>2014-05-08T08:50:35Z</time>
      </trkpt>
      <trkpt lat="45.43255" lon="4.22689">
        <ele>730.26</ele>
        <time>2014-05-08T08:50:45Z</time>
      </trkpt>
      <trkpt lat="45.43216" lon="4.22695">
        <ele>733.62</ele>
        <time>2014-05-08T08:51:00Z</time>
      </trkpt>
      <trkpt lat="45.43156" lon="4.22695">
        <ele>735.55</ele>
        <time>2014-05-08T08:51:20Z</time>
      </trkpt>
      <trkpt lat="45.43147" lon="4.2268">
        <ele>737.95</ele>
        <time>2014-05-08T08:51:25Z</time>
      </trkpt>
      <trkpt lat="45.43149" lon="4.22625">
        <ele>740.35</ele>
        <time>2014-05-08T08:51:38Z</time>
      </trkpt>
      <trkpt lat="45.4312" lon="4.22601">
        <ele>740.83</ele>
        <time>2014-05-08T08:51:49Z</time>
      </trkpt>
      <trkpt lat="45.43117" lon="4.22602">
        <ele>741.79</ele>
        <time>2014-05-08T08:51:50Z</time>
      </trkpt>
      <trkpt lat="45.43114" lon="4.22603">
        <ele>740.83</ele>
        <time>2014-05-08T08:51:51Z</time>
      </trkpt>
      <trkpt lat="45.43111" lon="4.22605">
        <ele>740.83</ele>
        <time>2014-05-08T08:51:52Z</time>
      </trkpt>
      <trkpt lat="45.43109" lon="4.22607">
        <ele>741.31</ele>
        <time>2014-05-08T08:51:53Z</time>
      </trkpt>
      <trkpt lat="45.43064" lon="4.22608">
        <ele>740.83</ele>
        <time>2014-05-08T08:52:06Z</time>
      </trkpt>
      <trkpt lat="45.4303" lon="4.22592">
        <ele>741.31</ele>
        <time>2014-05-08T08:52:14Z</time>
      </trkpt>
      <trkpt lat="45.43026" lon="4.22591">
        <ele>741.79</ele>
        <time>2014-05-08T08:52:15Z</time>
      </trkpt>
      <trkpt lat="45.43022" lon="4.22589">
        <ele>741.79</ele>
        <time>2014-05-08T08:52:16Z</time>
      </trkpt>
      <trkpt lat="45.43018" lon="4.22588">
        <ele>741.79</ele>
        <time>2014-05-08T08:52:17Z</time>
      </trkpt>
      <trkpt lat="45.43013" lon="4.22586">
        <ele>741.31</ele>
        <time>2014-05-08T08:52:18Z</time>
      </trkpt>
      <trkpt lat="45.42986" lon="4.22569">
        <ele>740.35</ele>
        <time>2014-05-08T08:52:24Z</time>
      </trkpt>
      <trkpt lat="45.42982" lon="4.22565">
        <ele>739.87</ele>
        <time>2014-05-08T08:52:25Z</time>
      </trkpt>
      <trkpt lat="45.42913" lon="4.22487">
        <ele>738.91</ele>
        <time>2014-05-08T08:52:41Z</time>
      </trkpt>
      <trkpt lat="45.42857" lon="4.22426">
        <ele>735.55</ele>
        <time>2014-05-08T08:52:53Z</time>
      </trkpt>
      <trkpt lat="45.42828" lon="4.22397">
        <ele>732.18</ele>
        <time>2014-05-08T08:52:59Z</time>
      </trkpt>
      <trkpt lat="45.42823" lon="4.22391">
        <ele>731.7</ele>
        <time>2014-05-08T08:53:00Z</time>
      </trkpt>
      <trkpt lat="45.4282" lon="4.22385">
        <ele>731.22</ele>
        <time>2014-05-08T08:53:01Z</time>
      </trkpt>
      <trkpt lat="45.42817" lon="4.22376">
        <ele>731.22</ele>
        <time>2014-05-08T08:53:02Z</time>
      </trkpt>
      <trkpt lat="45.42814" lon="4.22367">
        <ele>730.74</ele>
        <time>2014-05-08T08:53:03Z</time>
      </trkpt>
      <trkpt lat="45.42813" lon="4.22358">
        <ele>730.26</ele>
        <time>2014-05-08T08:53:04Z</time>
      </trkpt>
      <trkpt lat="45.42813" lon="4.22347">
        <ele>729.78</ele>
        <time>2014-05-08T08:53:05Z</time>
      </trkpt>
      <trkpt lat="45.42813" lon="4.22337">
        <ele>730.26</ele>
        <time>2014-05-08T08:53:06Z</time>
      </trkpt>
      <trkpt lat="45.42813" lon="4.22269">
        <ele>727.37</ele>
        <time>2014-05-08T08:53:13Z</time>
      </trkpt>
      <trkpt lat="45.42811" lon="4.2226">
        <ele>726.89</ele>
        <time>2014-05-08T08:53:14Z</time>
      </trkpt>
      <trkpt lat="45.42809" lon="4.22252">
        <ele>727.37</ele>
        <time>2014-05-08T08:53:15Z</time>
      </trkpt>
      <trkpt lat="45.42787" lon="4.22196">
        <ele>724.01</ele>
        <time>2014-05-08T08:53:22Z</time>
      </trkpt>
      <trkpt lat="45.42783" lon="4.22188">
        <ele>723.53</ele>
        <time>2014-05-08T08:53:23Z</time>
      </trkpt>
      <trkpt lat="45.42772" lon="4.2216">
        <ele>722.09</ele>
        <time>2014-05-08T08:53:26Z</time>
      </trkpt>
      <trkpt lat="45.42761" lon="4.22131">
        <ele>720.65</ele>
        <time>2014-05-08T08:53:29Z</time>
      </trkpt>
      <trkpt lat="45.42723" lon="4.22054">
        <ele>719.68</ele>
        <time>2014-05-08T08:53:41Z</time>
      </trkpt>
      <trkpt lat="45.42714" lon="4.22034">
        <ele>720.65</ele>
        <time>2014-05-08T08:53:46Z</time>
      </trkpt>
      <trkpt lat="45.42712" lon="4.22034">
        <ele>721.61</ele>
        <time>2014-05-08T08:53:47Z</time>
      </trkpt>
      <trkpt lat="45.4271" lon="4.22036">
        <ele>721.61</ele>
        <time>2014-05-08T08:53:48Z</time>
      </trkpt>
      <trkpt lat="45.42708" lon="4.2204">
        <ele>722.09</ele>
        <time>2014-05-08T08:53:49Z</time>
      </trkpt>
      <trkpt lat="45.42706" lon="4.22044">
        <ele>722.57</ele>
        <time>2014-05-08T08:53:50Z</time>
      </trkpt>
      <trkpt lat="45.42675" lon="4.22107">
        <ele>719.2</ele>
        <time>2014-05-08T08:54:04Z</time>
      </trkpt>
      <trkpt lat="45.42663" lon="4.22124">
        <ele>717.76</ele>
        <time>2014-05-08T08:54:08Z</time>
      </trkpt>
      <trkpt lat="45.42658" lon="4.22127">
        <ele>717.28</ele>
        <time>2014-05-08T08:54:09Z</time>
      </trkpt>
      <trkpt lat="45.42653" lon="4.22129">
        <ele>717.76</ele>
        <time>2014-05-08T08:54:10Z</time>
      </trkpt>
      <trkpt lat="45.42646" lon="4.22129">
        <ele>717.28</ele>
        <time>2014-05-08T08:54:11Z</time>
      </trkpt>
      <trkpt lat="45.42639" lon="4.22129">
        <ele>716.32</ele>
        <time>2014-05-08T08:54:12Z</time>
      </trkpt>
      <trkpt lat="45.42612" lon="4.22133">
        <ele>714.88</ele>
        <time>2014-05-08T08:54:16Z</time>
      </trkpt>
      <trkpt lat="45.426" lon="4.22139">
        <ele>714.88</ele>
        <time>2014-05-08T08:54:18Z</time>
      </trkpt>
      <trkpt lat="45.42594" lon="4.22143">
        <ele>714.4</ele>
        <time>2014-05-08T08:54:19Z</time>
      </trkpt>
      <trkpt lat="45.42562" lon="4.22177">
        <ele>711.51</ele>
        <time>2014-05-08T08:54:25Z</time>
      </trkpt>
      <trkpt lat="45.42558" lon="4.22184">
        <ele>710.55</ele>
        <time>2014-05-08T08:54:26Z</time>
      </trkpt>
      <trkpt lat="45.42544" lon="4.22205">
        <ele>707.19</ele>
        <time>2014-05-08T08:54:29Z</time>
      </trkpt>
      <trkpt lat="45.42529" lon="4.22225">
        <ele>703.82</ele>
        <time>2014-05-08T08:54:32Z</time>
      </trkpt>
      <trkpt lat="45.4252" lon="4.22234">
        <ele>700.94</ele>
        <time>2014-05-08T08:54:34Z</time>
      </trkpt>
      <trkpt lat="45.42514" lon="4.22238">
        <ele>700.46</ele>
        <time>2014-05-08T08:54:35Z</time>
      </trkpt>
      <trkpt lat="45.42508" lon="4.2224">
        <ele>699.98</ele>
        <time>2014-05-08T08:54:36Z</time>
      </trkpt>
      <trkpt lat="45.42501" lon="4.22241">
        <ele>699.5</ele>
        <time>2014-05-08T08:54:37Z</time>
      </trkpt>
      <trkpt lat="45.42494" lon="4.2224">
        <ele>698.53</ele>
        <time>2014-05-08T08:54:38Z</time>
      </trkpt>
      <trkpt lat="45.42488" lon="4.22237">
        <ele>697.57</ele>
        <time>2014-05-08T08:54:39Z</time>
      </trkpt>
      <trkpt lat="45.42481" lon="4.22233">
        <ele>696.61</ele>
        <time>2014-05-08T08:54:40Z</time>
      </trkpt>
      <trkpt lat="45.42474" lon="4.22228">
        <ele>696.61</ele>
        <time>2014-05-08T08:54:41Z</time>
      </trkpt>
      <trkpt lat="45.42468" lon="4.22222">
        <ele>695.17</ele>
        <time>2014-05-08T08:54:42Z</time>
      </trkpt>
      <trkpt lat="45.42461" lon="4.22215">
        <ele>694.21</ele>
        <time>2014-05-08T08:54:43Z</time>
      </trkpt>
      <trkpt lat="45.42456" lon="4.22206">
        <ele>693.25</ele>
        <time>2014-05-08T08:54:44Z</time>
      </trkpt>
      <trkpt lat="45.4245" lon="4.22195">
        <ele>693.25</ele>
        <time>2014-05-08T08:54:45Z</time>
      </trkpt>
      <trkpt lat="45.42445" lon="4.22184">
        <ele>691.33</ele>
        <time>2014-05-08T08:54:46Z</time>
      </trkpt>
      <trkpt lat="45.4243" lon="4.22161">
        <ele>688.44</ele>
        <time>2014-05-08T08:54:49Z</time>
      </trkpt>
      <trkpt lat="45.42426" lon="4.22156">
        <ele>687.96</ele>
        <time>2014-05-08T08:54:50Z</time>
      </trkpt>
      <trkpt lat="45.42421" lon="4.22152">
        <ele>687.48</ele>
        <time>2014-05-08T08:54:52Z</time>
      </trkpt>
      <trkpt lat="45.42421" lon="4.22154">
        <ele>687.48</ele>
        <time>2014-05-08T08:54:53Z</time>
      </trkpt>
      <trkpt lat="45.4242" lon="4.22158">
        <ele>686.52</ele>
        <time>2014-05-08T08:54:54Z</time>
      </trkpt>
      <trkpt lat="45.42421" lon="4.22201">
        <ele>682.67</ele>
        <time>2014-05-08T08:55:00Z</time>
      </trkpt>
      <trkpt lat="45.42421" lon="4.22208">
        <ele>682.67</ele>
        <time>2014-05-08T08:55:01Z</time>
      </trkpt>
      <trkpt lat="45.42414" lon="4.22219">
        <ele>681.71</ele>
        <time>2014-05-08T08:55:03Z</time>
      </trkpt>
      <trkpt lat="45.42395" lon="4.22256">
        <ele>683.15</ele>
        <time>2014-05-08T08:55:12Z</time>
      </trkpt>
      <trkpt lat="45.42395" lon="4.22259">
        <ele>683.63</ele>
        <time>2014-05-08T08:55:13Z</time>
      </trkpt>
      <trkpt lat="45.42399" lon="4.22294">
        <ele>687</ele>
        <time>2014-05-08T08:55:24Z</time>
      </trkpt>
      <trkpt lat="45.42405" lon="4.2232">
        <ele>689.88</ele>
        <time>2014-05-08T08:55:33Z</time>
      </trkpt>
      <trkpt lat="45.42408" lon="4.2237">
        <ele>692.77</ele>
        <time>2014-05-08T08:55:47Z</time>
      </trkpt>
      <trkpt lat="45.4241" lon="4.22398">
        <ele>694.69</ele>
        <time>2014-05-08T08:55:58Z</time>
      </trkpt>
      <trkpt lat="45.42416" lon="4.22413">
        <ele>697.57</ele>
        <time>2014-05-08T08:56:07Z</time>
      </trkpt>
      <trkpt lat="45.42417" lon="4.22421">
        <ele>698.53</ele>
        <time>2014-05-08T08:56:11Z</time>
      </trkpt>
      <trkpt lat="45.42419" lon="4.22443">
        <ele>701.9</ele>
        <time>2014-05-08T08:56:22Z</time>
      </trkpt>
      <trkpt lat="45.42417" lon="4.22453">
        <ele>702.86</ele>
        <time>2014-05-08T08:56:28Z</time>
      </trkpt>
      <trkpt lat="45.42408" lon="4.22477">
        <ele>705.75</ele>
        <time>2014-05-08T08:56:42Z</time>
      </trkpt>
      <trkpt lat="45.42394" lon="4.22484">
        <ele>707.67</ele>
        <time>2014-05-08T08:56:52Z</time>
      </trkpt>
      <trkpt lat="45.42392" lon="4.22485">
        <ele>707.67</ele>
        <time>2014-05-08T08:56:53Z</time>
      </trkpt>
      <trkpt lat="45.42388" lon="4.22486">
        <ele>709.11</ele>
        <time>2014-05-08T08:56:55Z</time>
      </trkpt>
      <trkpt lat="45.42375" lon="4.22488">
        <ele>710.55</ele>
        <time>2014-05-08T08:57:01Z</time>
      </trkpt>
      <trkpt lat="45.42351" lon="4.22496">
        <ele>713.44</ele>
        <time>2014-05-08T08:57:16Z</time>
      </trkpt>
      <trkpt lat="45.42345" lon="4.22505">
        <ele>714.88</ele>
        <time>2014-05-08T08:57:22Z</time>
      </trkpt>
      <trkpt lat="45.42321" lon="4.2256">
        <ele>715.36</ele>
        <time>2014-05-08T08:57:39Z</time>
      </trkpt>
      <trkpt lat="45.42284" lon="4.22614">
        <ele>715.36</ele>
        <time>2014-05-08T08:57:55Z</time>
      </trkpt>
      <trkpt lat="45.42294" lon="4.22659">
        <ele>715.84</ele>
        <time>2014-05-08T08:58:06Z</time>
      </trkpt>
      <trkpt lat="45.42307" lon="4.22693">
        <ele>718.72</ele>
        <time>2014-05-08T08:58:17Z</time>
      </trkpt>
      <trkpt lat="45.42319" lon="4.22756">
        <ele>719.2</ele>
        <time>2014-05-08T08:58:31Z</time>
      </trkpt>
      <trkpt lat="45.42321" lon="4.22762">
        <ele>719.2</ele>
        <time>2014-05-08T08:58:32Z</time>
      </trkpt>
      <trkpt lat="45.42339" lon="4.22818">
        <ele>720.65</ele>
        <time>2014-05-08T08:58:45Z</time>
      </trkpt>
      <trkpt lat="45.42334" lon="4.22837">
        <ele>724.01</ele>
        <time>2014-05-08T08:58:53Z</time>
      </trkpt>
      <trkpt lat="45.42329" lon="4.22862">
        <ele>726.89</ele>
        <time>2014-05-08T08:59:05Z</time>
      </trkpt>
      <trkpt lat="45.42331" lon="4.22883">
        <ele>729.78</ele>
        <time>2014-05-08T08:59:13Z</time>
      </trkpt>
      <trkpt lat="45.42338" lon="4.2291">
        <ele>732.66</ele>
        <time>2014-05-08T08:59:25Z</time>
      </trkpt>
      <trkpt lat="45.4234" lon="4.22921">
        <ele>734.1</ele>
        <time>2014-05-08T08:59:30Z</time>
      </trkpt>
      <trkpt lat="45.42328" lon="4.22957">
        <ele>736.03</ele>
        <time>2014-05-08T08:59:45Z</time>
      </trkpt>
      <trkpt lat="45.4233" lon="4.22962">
        <ele>735.55</ele>
        <time>2014-05-08T08:59:58Z</time>
      </trkpt>
      <trkpt lat="45.42328" lon="4.22964">
        <ele>735.55</ele>
        <time>2014-05-08T09:00:15Z</time>
      </trkpt>
      <trkpt lat="45.42326" lon="4.22965">
        <ele>735.07</ele>
        <time>2014-05-08T09:00:56Z</time>
      </trkpt>
      <trkpt lat="45.42327" lon="4.22968">
        <ele>734.58</ele>
        <time>2014-05-08T09:01:37Z</time>
      </trkpt>
      <trkpt lat="45.42327" lon="4.22967">
        <ele>735.07</ele>
        <time>2014-05-08T09:02:10Z</time>
      </trkpt>
      <trkpt lat="45.42326" lon="4.22967">
        <ele>734.58</ele>
        <time>2014-05-08T09:02:52Z</time>
      </trkpt>
      <trkpt lat="45.42323" lon="4.22964">
        <ele>734.58</ele>
        <time>2014-05-08T09:03:15Z</time>
      </trkpt>
      <trkpt lat="45.42324" lon="4.22965">
        <ele>734.58</ele>
        <time>2014-05-08T09:03:51Z</time>
      </trkpt>
      <trkpt lat="45.42326" lon="4.22965">
        <ele>734.1</ele>
        <time>2014-05-08T09:04:27Z</time>
      </trkpt>
      <trkpt lat="45.42324" lon="4.22963">
        <ele>734.1</ele>
        <time>2014-05-08T09:05:01Z</time>
      </trkpt>
      <trkpt lat="45.42326" lon="4.22966">
        <ele>734.1</ele>
        <time>2014-05-08T09:05:33Z</time>
      </trkpt>
      <trkpt lat="45.42324" lon="4.22965">
        <ele>734.58</ele>
        <time>2014-05-08T09:06:08Z</time>
      </trkpt>
      <trkpt lat="45.42323" lon="4.22963">
        <ele>734.58</ele>
        <time>2014-05-08T09:06:37Z</time>
      </trkpt>
      <trkpt lat="45.42326" lon="4.22965">
        <ele>733.62</ele>
        <time>2014-05-08T09:07:10Z</time>
      </trkpt>
      <trkpt lat="45.42325" lon="4.22965">
        <ele>734.1</ele>
        <time>2014-05-08T09:07:48Z</time>
      </trkpt>
      <trkpt lat="45.42326" lon="4.22965">
        <ele>734.1</ele>
        <time>2014-05-08T09:08:21Z</time>
      </trkpt>
      <trkpt lat="45.42325" lon="4.22963">
        <ele>734.1</ele>
        <time>2014-05-08T09:08:47Z</time>
      </trkpt>
      <trkpt lat="45.42326" lon="4.22964">
        <ele>733.62</ele>
        <time>2014-05-08T09:09:10Z</time>
      </trkpt>
      <trkpt lat="45.42325" lon="4.22965">
        <ele>732.66</ele>
        <time>2014-05-08T09:09:35Z</time>
      </trkpt>
      <trkpt lat="45.42327" lon="4.22964">
        <ele>736.51</ele>
        <time>2014-05-08T09:09:52Z</time>
      </trkpt>
      <trkpt lat="45.42327" lon="4.22964">
        <ele>734.58</ele>
        <time>2014-05-08T09:09:53Z</time>
      </trkpt>
      <trkpt lat="45.42326" lon="4.22965">
        <ele>732.66</ele>
        <time>2014-05-08T09:09:55Z</time>
      </trkpt>
      <trkpt lat="45.42325" lon="4.22964">
        <ele>733.14</ele>
        <time>2014-05-08T09:10:07Z</time>
      </trkpt>
      <trkpt lat="45.42324" lon="4.22962">
        <ele>733.62</ele>
        <time>2014-05-08T09:10:31Z</time>
      </trkpt>
      <trkpt lat="45.42325" lon="4.22963">
        <ele>734.1</ele>
        <time>2014-05-08T09:10:46Z</time>
      </trkpt>
      <trkpt lat="45.42325" lon="4.22967">
        <ele>734.1</ele>
        <time>2014-05-08T09:10:58Z</time>
      </trkpt>
      <trkpt lat="45.42326" lon="4.22967">
        <ele>734.58</ele>
        <time>2014-05-08T09:11:22Z</time>
      </trkpt>
      <trkpt lat="45.42332" lon="4.22963">
        <ele>735.07</ele>
        <time>2014-05-08T09:11:35Z</time>
      </trkpt>
      <trkpt lat="45.42326" lon="4.22965">
        <ele>734.58</ele>
        <time>2014-05-08T09:11:55Z</time>
      </trkpt>
      <trkpt lat="45.42325" lon="4.22963">
        <ele>734.58</ele>
        <time>2014-05-08T09:12:10Z</time>
      </trkpt>
      <trkpt lat="45.4233" lon="4.22965">
        <ele>734.58</ele>
        <time>2014-05-08T09:12:23Z</time>
      </trkpt>
      <trkpt lat="45.4233" lon="4.22964">
        <ele>734.1</ele>
        <time>2014-05-08T09:12:54Z</time>
      </trkpt>
      <trkpt lat="45.4233" lon="4.22963">
        <ele>732.18</ele>
        <time>2014-05-08T09:13:20Z</time>
      </trkpt>
      <trkpt lat="45.4233" lon="4.22963">
        <ele>735.55</ele>
        <time>2014-05-08T09:13:51Z</time>
      </trkpt>
      <trkpt lat="45.42329" lon="4.22964">
        <ele>735.55</ele>
        <time>2014-05-08T09:14:18Z</time>
      </trkpt>
      <trkpt lat="45.42326" lon="4.22967">
        <ele>734.58</ele>
        <time>2014-05-08T09:14:38Z</time>
      </trkpt>
      <trkpt lat="45.42326" lon="4.22964">
        <ele>734.1</ele>
        <time>2014-05-08T09:14:58Z</time>
      </trkpt>
      <trkpt lat="45.42307" lon="4.22964">
        <ele>735.07</ele>
        <time>2014-05-08T09:15:07Z</time>
      </trkpt>
      <trkpt lat="45.42262" lon="4.22964">
        <ele>736.03</ele>
        <time>2014-05-08T09:15:21Z</time>
      </trkpt>
      <trkpt lat="45.422" lon="4.22956">
        <ele>732.18</ele>
        <time>2014-05-08T09:15:35Z</time>
      </trkpt>
      <trkpt lat="45.42159" lon="4.22958">
        <ele>731.7</ele>
        <time>2014-05-08T09:15:47Z</time>
      </trkpt>
      <trkpt lat="45.42117" lon="4.22972">
        <ele>734.58</ele>
        <time>2014-05-08T09:15:59Z</time>
      </trkpt>
      <trkpt lat="45.42094" lon="4.2297">
        <ele>737.95</ele>
        <time>2014-05-08T09:16:09Z</time>
      </trkpt>
      <trkpt lat="45.42053" lon="4.22966">
        <ele>739.39</ele>
        <time>2014-05-08T09:16:26Z</time>
      </trkpt>
      <trkpt lat="45.42006" lon="4.22951">
        <ele>740.35</ele>
        <time>2014-05-08T09:16:38Z</time>
      </trkpt>
      <trkpt lat="45.41945" lon="4.22953">
        <ele>741.79</ele>
        <time>2014-05-08T09:16:54Z</time>
      </trkpt>
      <trkpt lat="45.41921" lon="4.22964">
        <ele>744.68</ele>
        <time>2014-05-08T09:17:07Z</time>
      </trkpt>
      <trkpt lat="45.41898" lon="4.22947">
        <ele>747.08</ele>
        <time>2014-05-08T09:17:17Z</time>
      </trkpt>
      <trkpt lat="45.41856" lon="4.22935">
        <ele>747.08</ele>
        <time>2014-05-08T09:17:31Z</time>
      </trkpt>
      <trkpt lat="45.41817" lon="4.22912">
        <ele>746.12</ele>
        <time>2014-05-08T09:17:42Z</time>
      </trkpt>
      <trkpt lat="45.41798" lon="4.2289">
        <ele>748.52</ele>
        <time>2014-05-08T09:17:49Z</time>
      </trkpt>
      <trkpt lat="45.41799" lon="4.22842">
        <ele>750.45</ele>
        <time>2014-05-08T09:18:01Z</time>
      </trkpt>
      <trkpt lat="45.41798" lon="4.22761">
        <ele>751.41</ele>
        <time>2014-05-08T09:18:18Z</time>
      </trkpt>
      <trkpt lat="45.41764" lon="4.2271">
        <ele>753.81</ele>
        <time>2014-05-08T09:18:35Z</time>
      </trkpt>
      <trkpt lat="45.41684" lon="4.22734">
        <ele>754.29</ele>
        <time>2014-05-08T09:18:53Z</time>
      </trkpt>
      <trkpt lat="45.41612" lon="4.22762">
        <ele>753.33</ele>
        <time>2014-05-08T09:19:09Z</time>
      </trkpt>
      <trkpt lat="45.41547" lon="4.22784">
        <ele>752.85</ele>
        <time>2014-05-08T09:19:25Z</time>
      </trkpt>
      <trkpt lat="45.41485" lon="4.22817">
        <ele>749.49</ele>
        <time>2014-05-08T09:19:37Z</time>
      </trkpt>
      <trkpt lat="45.4143" lon="4.22858">
        <ele>750.45</ele>
        <time>2014-05-08T09:19:52Z</time>
      </trkpt>
      <trkpt lat="45.41403" lon="4.2287">
        <ele>747.56</ele>
        <time>2014-05-08T09:20:05Z</time>
      </trkpt>
      <trkpt lat="45.41392" lon="4.22868">
        <ele>744.2</ele>
        <time>2014-05-08T09:20:09Z</time>
      </trkpt>
      <trkpt lat="45.41388" lon="4.22865">
        <ele>744.68</ele>
        <time>2014-05-08T09:20:10Z</time>
      </trkpt>
      <trkpt lat="45.41378" lon="4.22859">
        <ele>743.72</ele>
        <time>2014-05-08T09:20:12Z</time>
      </trkpt>
      <trkpt lat="45.41338" lon="4.22844">
        <ele>742.28</ele>
        <time>2014-05-08T09:20:22Z</time>
      </trkpt>
      <trkpt lat="45.41311" lon="4.22834">
        <ele>739.39</ele>
        <time>2014-05-08T09:20:30Z</time>
      </trkpt>
      <trkpt lat="45.41301" lon="4.22821">
        <ele>736.51</ele>
        <time>2014-05-08T09:20:34Z</time>
      </trkpt>
      <trkpt lat="45.41286" lon="4.22821">
        <ele>733.14</ele>
        <time>2014-05-08T09:20:39Z</time>
      </trkpt>
      <trkpt lat="45.41278" lon="4.22824">
        <ele>729.3</ele>
        <time>2014-05-08T09:20:43Z</time>
      </trkpt>
      <trkpt lat="45.41271" lon="4.22829">
        <ele>725.45</ele>
        <time>2014-05-08T09:20:48Z</time>
      </trkpt>
      <trkpt lat="45.41268" lon="4.2283">
        <ele>724.49</ele>
        <time>2014-05-08T09:20:49Z</time>
      </trkpt>
      <trkpt lat="45.41265" lon="4.22832">
        <ele>723.53</ele>
        <time>2014-05-08T09:20:50Z</time>
      </trkpt>
      <trkpt lat="45.4126" lon="4.22834">
        <ele>723.05</ele>
        <time>2014-05-08T09:20:51Z</time>
      </trkpt>
      <trkpt lat="45.41255" lon="4.22836">
        <ele>722.09</ele>
        <time>2014-05-08T09:20:52Z</time>
      </trkpt>
      <trkpt lat="45.41251" lon="4.22837">
        <ele>721.61</ele>
        <time>2014-05-08T09:20:53Z</time>
      </trkpt>
      <trkpt lat="45.41245" lon="4.22838">
        <ele>718.24</ele>
        <time>2014-05-08T09:20:56Z</time>
      </trkpt>
      <trkpt lat="45.41237" lon="4.22837">
        <ele>714.88</ele>
        <time>2014-05-08T09:20:59Z</time>
      </trkpt>
      <trkpt lat="45.41185" lon="4.22854">
        <ele>711.99</ele>
        <time>2014-05-08T09:21:09Z</time>
      </trkpt>
      <trkpt lat="45.41181" lon="4.22858">
        <ele>711.03</ele>
        <time>2014-05-08T09:21:10Z</time>
      </trkpt>
      <trkpt lat="45.41138" lon="4.22884">
        <ele>706.71</ele>
        <time>2014-05-08T09:21:14Z</time>
      </trkpt>
      <trkpt lat="45.41132" lon="4.2289">
        <ele>707.19</ele>
        <time>2014-05-08T09:21:15Z</time>
      </trkpt>
      <trkpt lat="45.4113" lon="4.22899">
        <ele>706.23</ele>
        <time>2014-05-08T09:21:16Z</time>
      </trkpt>
      <trkpt lat="45.41129" lon="4.22906">
        <ele>704.78</ele>
        <time>2014-05-08T09:21:17Z</time>
      </trkpt>
      <trkpt lat="45.41124" lon="4.22928">
        <ele>702.86</ele>
        <time>2014-05-08T09:21:20Z</time>
      </trkpt>
      <trkpt lat="45.4112" lon="4.22955">
        <ele>700.94</ele>
        <time>2014-05-08T09:21:24Z</time>
      </trkpt>
      <trkpt lat="45.41114" lon="4.22975">
        <ele>698.53</ele>
        <time>2014-05-08T09:21:27Z</time>
      </trkpt>
      <trkpt lat="45.41111" lon="4.2299">
        <ele>696.61</ele>
        <time>2014-05-08T09:21:29Z</time>
      </trkpt>
      <trkpt lat="45.41116" lon="4.23016">
        <ele>693.25</ele>
        <time>2014-05-08T09:21:33Z</time>
      </trkpt>
      <trkpt lat="45.41118" lon="4.23024">
        <ele>692.77</ele>
        <time>2014-05-08T09:21:34Z</time>
      </trkpt>
      <trkpt lat="45.4112" lon="4.23031">
        <ele>691.33</ele>
        <time>2014-05-08T09:21:35Z</time>
      </trkpt>
      <trkpt lat="45.41123" lon="4.23038">
        <ele>690.84</ele>
        <time>2014-05-08T09:21:36Z</time>
      </trkpt>
      <trkpt lat="45.41135" lon="4.23064">
        <ele>687.48</ele>
        <time>2014-05-08T09:21:39Z</time>
      </trkpt>
      <trkpt lat="45.4114" lon="4.2308">
        <ele>686.52</ele>
        <time>2014-05-08T09:21:42Z</time>
      </trkpt>
      <trkpt lat="45.41146" lon="4.23103">
        <ele>683.15</ele>
        <time>2014-05-08T09:21:46Z</time>
      </trkpt>
      <trkpt lat="45.4115" lon="4.2311">
        <ele>682.67</ele>
        <time>2014-05-08T09:21:47Z</time>
      </trkpt>
      <trkpt lat="45.41161" lon="4.23128">
        <ele>678.35</ele>
        <time>2014-05-08T09:21:50Z</time>
      </trkpt>
      <trkpt lat="45.41164" lon="4.23134">
        <ele>678.35</ele>
        <time>2014-05-08T09:21:51Z</time>
      </trkpt>
      <trkpt lat="45.41171" lon="4.2315">
        <ele>674.02</ele>
        <time>2014-05-08T09:21:54Z</time>
      </trkpt>
      <trkpt lat="45.41175" lon="4.23167">
        <ele>670.66</ele>
        <time>2014-05-08T09:21:57Z</time>
      </trkpt>
      <trkpt lat="45.41179" lon="4.23176">
        <ele>669.22</ele>
        <time>2014-05-08T09:21:59Z</time>
      </trkpt>
      <trkpt lat="45.41184" lon="4.23182">
        <ele>667.29</ele>
        <time>2014-05-08T09:22:01Z</time>
      </trkpt>
      <trkpt lat="45.41186" lon="4.23184">
        <ele>666.33</ele>
        <time>2014-05-08T09:22:02Z</time>
      </trkpt>
      <trkpt lat="45.4119" lon="4.23185">
        <ele>665.37</ele>
        <time>2014-05-08T09:22:03Z</time>
      </trkpt>
      <trkpt lat="45.41193" lon="4.23188">
        <ele>664.41</ele>
        <time>2014-05-08T09:22:04Z</time>
      </trkpt>
      <trkpt lat="45.41196" lon="4.23194">
        <ele>663.45</ele>
        <time>2014-05-08T09:22:05Z</time>
      </trkpt>
      <trkpt lat="45.41198" lon="4.23198">
        <ele>661.52</ele>
        <time>2014-05-08T09:22:06Z</time>
      </trkpt>
      <trkpt lat="45.412" lon="4.23221">
        <ele>658.16</ele>
        <time>2014-05-08T09:22:11Z</time>
      </trkpt>
      <trkpt lat="45.41198" lon="4.23229">
        <ele>657.68</ele>
        <time>2014-05-08T09:22:13Z</time>
      </trkpt>
      <trkpt lat="45.41193" lon="4.23238">
        <ele>654.31</ele>
        <time>2014-05-08T09:22:16Z</time>
      </trkpt>
      <trkpt lat="45.41185" lon="4.2325">
        <ele>650.47</ele>
        <time>2014-05-08T09:22:20Z</time>
      </trkpt>
      <trkpt lat="45.41173" lon="4.23264">
        <ele>647.1</ele>
        <time>2014-05-08T09:22:24Z</time>
      </trkpt>
      <trkpt lat="45.41163" lon="4.23269">
        <ele>645.18</ele>
        <time>2014-05-08T09:22:27Z</time>
      </trkpt>
      <trkpt lat="45.4116" lon="4.2327">
        <ele>644.22</ele>
        <time>2014-05-08T09:22:28Z</time>
      </trkpt>
      <trkpt lat="45.41142" lon="4.23271">
        <ele>641.34</ele>
        <time>2014-05-08T09:22:33Z</time>
      </trkpt>
      <trkpt lat="45.41132" lon="4.23274">
        <ele>638.45</ele>
        <time>2014-05-08T09:22:36Z</time>
      </trkpt>
      <trkpt lat="45.41118" lon="4.23281">
        <ele>634.61</ele>
        <time>2014-05-08T09:22:41Z</time>
      </trkpt>
      <trkpt lat="45.41105" lon="4.23289">
        <ele>631.24</ele>
        <time>2014-05-08T09:22:46Z</time>
      </trkpt>
      <trkpt lat="45.41098" lon="4.23295">
        <ele>626.92</ele>
        <time>2014-05-08T09:22:49Z</time>
      </trkpt>
      <trkpt lat="45.41094" lon="4.23299">
        <ele>625.96</ele>
        <time>2014-05-08T09:22:51Z</time>
      </trkpt>
      <trkpt lat="45.41083" lon="4.2331">
        <ele>622.11</ele>
        <time>2014-05-08T09:22:55Z</time>
      </trkpt>
      <trkpt lat="45.41075" lon="4.23315">
        <ele>619.71</ele>
        <time>2014-05-08T09:22:58Z</time>
      </trkpt>
      <trkpt lat="45.41071" lon="4.23319">
        <ele>618.26</ele>
        <time>2014-05-08T09:23:00Z</time>
      </trkpt>
      <trkpt lat="45.41062" lon="4.23318">
        <ele>614.9</ele>
        <time>2014-05-08T09:23:04Z</time>
      </trkpt>
      <trkpt lat="45.4105" lon="4.2331">
        <ele>612.5</ele>
        <time>2014-05-08T09:23:13Z</time>
      </trkpt>
      <trkpt lat="45.41048" lon="4.23311">
        <ele>612.5</ele>
        <time>2014-05-08T09:23:20Z</time>
      </trkpt>
      <trkpt lat="45.41026" lon="4.23348">
        <ele>612.98</ele>
        <time>2014-05-08T09:23:36Z</time>
      </trkpt>
      <trkpt lat="45.41023" lon="4.23355">
        <ele>613.94</ele>
        <time>2014-05-08T09:23:41Z</time>
      </trkpt>
      <trkpt lat="45.41009" lon="4.23377">
        <ele>613.94</ele>
        <time>2014-05-08T09:23:49Z</time>
      </trkpt>
      <trkpt lat="45.40982" lon="4.23399">
        <ele>610.09</ele>
        <time>2014-05-08T09:24:00Z</time>
      </trkpt>
      <trkpt lat="45.40941" lon="4.23417">
        <ele>607.21</ele>
        <time>2014-05-08T09:24:07Z</time>
      </trkpt>
      <trkpt lat="45.40908" lon="4.2343">
        <ele>604.81</ele>
        <time>2014-05-08T09:24:12Z</time>
      </trkpt>
      <trkpt lat="45.40847" lon="4.2346">
        <ele>602.4</ele>
        <time>2014-05-08T09:24:20Z</time>
      </trkpt>
      <trkpt lat="45.40791" lon="4.23518">
        <ele>601.44</ele>
        <time>2014-05-08T09:24:34Z</time>
      </trkpt>
      <trkpt lat="45.40751" lon="4.2357">
        <ele>598.08</ele>
        <time>2014-05-08T09:24:45Z</time>
      </trkpt>
      <trkpt lat="45.40708" lon="4.23614">
        <ele>593.75</ele>
        <time>2014-05-08T09:24:53Z</time>
      </trkpt>
      <trkpt lat="45.40704" lon="4.23618">
        <ele>592.31</ele>
        <time>2014-05-08T09:24:54Z</time>
      </trkpt>
      <trkpt lat="45.407" lon="4.23622">
        <ele>592.31</ele>
        <time>2014-05-08T09:24:55Z</time>
      </trkpt>
      <trkpt lat="45.40693" lon="4.23633">
        <ele>590.39</ele>
        <time>2014-05-08T09:24:58Z</time>
      </trkpt>
      <trkpt lat="45.40688" lon="4.23645">
        <ele>587.02</ele>
        <time>2014-05-08T09:25:01Z</time>
      </trkpt>
      <trkpt lat="45.40689" lon="4.23656">
        <ele>584.62</ele>
        <time>2014-05-08T09:25:05Z</time>
      </trkpt>
      <trkpt lat="45.40692" lon="4.23667">
        <ele>582.7</ele>
        <time>2014-05-08T09:25:08Z</time>
      </trkpt>
      <trkpt lat="45.40695" lon="4.23682">
        <ele>579.33</ele>
        <time>2014-05-08T09:25:12Z</time>
      </trkpt>
      <trkpt lat="45.40685" lon="4.23694">
        <ele>578.85</ele>
        <time>2014-05-08T09:25:24Z</time>
      </trkpt>
      <trkpt lat="45.40691" lon="4.23702">
        <ele>578.85</ele>
        <time>2014-05-08T09:25:57Z</time>
      </trkpt>
      <trkpt lat="45.40683" lon="4.23715">
        <ele>577.89</ele>
        <time>2014-05-08T09:26:18Z</time>
      </trkpt>
      <trkpt lat="45.40677" lon="4.23719">
        <ele>577.41</ele>
        <time>2014-05-08T09:26:21Z</time>
      </trkpt>
      <trkpt lat="45.40676" lon="4.23722">
        <ele>576.45</ele>
        <time>2014-05-08T09:26:22Z</time>
      </trkpt>
      <trkpt lat="45.40675" lon="4.23725">
        <ele>575.49</ele>
        <time>2014-05-08T09:26:23Z</time>
      </trkpt>
      <trkpt lat="45.40675" lon="4.23729">
        <ele>574.53</ele>
        <time>2014-05-08T09:26:24Z</time>
      </trkpt>
      <trkpt lat="45.40676" lon="4.23733">
        <ele>573.08</ele>
        <time>2014-05-08T09:26:25Z</time>
      </trkpt>
      <trkpt lat="45.40676" lon="4.23736">
        <ele>572.12</ele>
        <time>2014-05-08T09:26:26Z</time>
      </trkpt>
      <trkpt lat="45.40676" lon="4.23739">
        <ele>571.64</ele>
        <time>2014-05-08T09:26:27Z</time>
      </trkpt>
      <trkpt lat="45.40674" lon="4.23742">
        <ele>571.16</ele>
        <time>2014-05-08T09:26:28Z</time>
      </trkpt>
      <trkpt lat="45.40666" lon="4.23756">
        <ele>567.8</ele>
        <time>2014-05-08T09:26:32Z</time>
      </trkpt>
      <trkpt lat="45.40665" lon="4.23764">
        <ele>566.83</ele>
        <time>2014-05-08T09:26:34Z</time>
      </trkpt>
      <trkpt lat="45.40664" lon="4.23781">
        <ele>563.47</ele>
        <time>2014-05-08T09:26:38Z</time>
      </trkpt>
      <trkpt lat="45.40658" lon="4.23792">
        <ele>560.11</ele>
        <time>2014-05-08T09:26:40Z</time>
      </trkpt>
      <trkpt lat="45.40647" lon="4.23808">
        <ele>556.26</ele>
        <time>2014-05-08T09:26:43Z</time>
      </trkpt>
      <trkpt lat="45.40644" lon="4.23814">
        <ele>555.78</ele>
        <time>2014-05-08T09:26:44Z</time>
      </trkpt>
      <trkpt lat="45.40642" lon="4.23819">
        <ele>554.82</ele>
        <time>2014-05-08T09:26:45Z</time>
      </trkpt>
      <trkpt lat="45.40641" lon="4.23824">
        <ele>553.86</ele>
        <time>2014-05-08T09:26:46Z</time>
      </trkpt>
      <trkpt lat="45.4064" lon="4.23829">
        <ele>552.9</ele>
        <time>2014-05-08T09:26:47Z</time>
      </trkpt>
      <trkpt lat="45.40636" lon="4.23847">
        <ele>549.53</ele>
        <time>2014-05-08T09:26:51Z</time>
      </trkpt>
      <trkpt lat="45.40635" lon="4.23861">
        <ele>548.09</ele>
        <time>2014-05-08T09:26:54Z</time>
      </trkpt>
      <trkpt lat="45.40639" lon="4.23877">
        <ele>546.65</ele>
        <time>2014-05-08T09:26:57Z</time>
      </trkpt>
      <trkpt lat="45.40643" lon="4.23896">
        <ele>543.76</ele>
        <time>2014-05-08T09:27:01Z</time>
      </trkpt>
      <trkpt lat="45.40646" lon="4.23947">
        <ele>540.4</ele>
        <time>2014-05-08T09:27:11Z</time>
      </trkpt>
      <trkpt lat="45.40657" lon="4.23993">
        <ele>540.4</ele>
        <time>2014-05-08T09:27:22Z</time>
      </trkpt>
      <trkpt lat="45.40656" lon="4.24002">
        <ele>538.48</ele>
        <time>2014-05-08T09:27:25Z</time>
      </trkpt>
      <trkpt lat="45.40656" lon="4.24008">
        <ele>536.55</ele>
        <time>2014-05-08T09:27:27Z</time>
      </trkpt>
      <trkpt lat="45.40656" lon="4.24009">
        <ele>536.07</ele>
        <time>2014-05-08T09:27:28Z</time>
      </trkpt>
      <trkpt lat="45.40655" lon="4.2401">
        <ele>536.07</ele>
        <time>2014-05-08T09:27:29Z</time>
      </trkpt>
      <trkpt lat="45.40653" lon="4.24011">
        <ele>536.55</ele>
        <time>2014-05-08T09:27:30Z</time>
      </trkpt>
      <trkpt lat="45.40652" lon="4.24013">
        <ele>535.59</ele>
        <time>2014-05-08T09:27:31Z</time>
      </trkpt>
      <trkpt lat="45.40651" lon="4.24016">
        <ele>534.63</ele>
        <time>2014-05-08T09:27:32Z</time>
      </trkpt>
      <trkpt lat="45.40651" lon="4.24019">
        <ele>534.63</ele>
        <time>2014-05-08T09:27:33Z</time>
      </trkpt>
      <trkpt lat="45.40652" lon="4.24025">
        <ele>534.15</ele>
        <time>2014-05-08T09:27:34Z</time>
      </trkpt>
      <trkpt lat="45.40656" lon="4.24062">
        <ele>530.79</ele>
        <time>2014-05-08T09:27:43Z</time>
      </trkpt>
      <trkpt lat="45.40656" lon="4.24065">
        <ele>530.79</ele>
        <time>2014-05-08T09:27:44Z</time>
      </trkpt>
      <trkpt lat="45.40661" lon="4.2408">
        <ele>527.42</ele>
        <time>2014-05-08T09:27:49Z</time>
      </trkpt>
      <trkpt lat="45.40662" lon="4.24086">
        <ele>525.98</ele>
        <time>2014-05-08T09:27:51Z</time>
      </trkpt>
      <trkpt lat="45.40667" lon="4.24094">
        <ele>525.02</ele>
        <time>2014-05-08T09:27:54Z</time>
      </trkpt>
      <trkpt lat="45.40671" lon="4.24102">
        <ele>523.09</ele>
        <time>2014-05-08T09:27:57Z</time>
      </trkpt>
      <trkpt lat="45.40671" lon="4.24104">
        <ele>522.13</ele>
        <time>2014-05-08T09:27:58Z</time>
      </trkpt>
      <trkpt lat="45.4067" lon="4.24106">
        <ele>522.13</ele>
        <time>2014-05-08T09:27:59Z</time>
      </trkpt>
      <trkpt lat="45.40671" lon="4.24107">
        <ele>521.65</ele>
        <time>2014-05-08T09:28:00Z</time>
      </trkpt>
      <trkpt lat="45.40672" lon="4.24109">
        <ele>520.69</ele>
        <time>2014-05-08T09:28:01Z</time>
      </trkpt>
      <trkpt lat="45.40673" lon="4.24111">
        <ele>520.21</ele>
        <time>2014-05-08T09:28:02Z</time>
      </trkpt>
      <trkpt lat="45.40675" lon="4.24113">
        <ele>520.21</ele>
        <time>2014-05-08T09:28:03Z</time>
      </trkpt>
      <trkpt lat="45.40676" lon="4.24115">
        <ele>519.73</ele>
        <time>2014-05-08T09:28:04Z</time>
      </trkpt>
      <trkpt lat="45.40676" lon="4.24118">
        <ele>519.25</ele>
        <time>2014-05-08T09:28:05Z</time>
      </trkpt>
      <trkpt lat="45.40679" lon="4.2413">
        <ele>516.37</ele>
        <time>2014-05-08T09:28:09Z</time>
      </trkpt>
      <trkpt lat="45.40678" lon="4.24151">
        <ele>512.52</ele>
        <time>2014-05-08T09:28:16Z</time>
      </trkpt>
      <trkpt lat="45.40679" lon="4.24155">
        <ele>511.56</ele>
        <time>2014-05-08T09:28:17Z</time>
      </trkpt>
      <trkpt lat="45.40681" lon="4.24158">
        <ele>511.08</ele>
        <time>2014-05-08T09:28:18Z</time>
      </trkpt>
      <trkpt lat="45.40682" lon="4.24161">
        <ele>511.08</ele>
        <time>2014-05-08T09:28:19Z</time>
      </trkpt>
      <trkpt lat="45.40683" lon="4.24164">
        <ele>509.64</ele>
        <time>2014-05-08T09:28:20Z</time>
      </trkpt>
      <trkpt lat="45.40682" lon="4.24166">
        <ele>510.12</ele>
        <time>2014-05-08T09:28:21Z</time>
      </trkpt>
      <trkpt lat="45.40682" lon="4.24168">
        <ele>509.64</ele>
        <time>2014-05-08T09:28:22Z</time>
      </trkpt>
      <trkpt lat="45.40682" lon="4.2417">
        <ele>509.16</ele>
        <time>2014-05-08T09:28:23Z</time>
      </trkpt>
      <trkpt lat="45.40683" lon="4.24172">
        <ele>508.67</ele>
        <time>2014-05-08T09:28:24Z</time>
      </trkpt>
      <trkpt lat="45.40699" lon="4.24199">
        <ele>505.79</ele>
        <time>2014-05-08T09:28:33Z</time>
      </trkpt>
      <trkpt lat="45.40714" lon="4.24221">
        <ele>502.91</ele>
        <time>2014-05-08T09:28:40Z</time>
      </trkpt>
      <trkpt lat="45.40724" lon="4.24249">
        <ele>499.54</ele>
        <time>2014-05-08T09:28:50Z</time>
      </trkpt>
      <trkpt lat="45.40728" lon="4.24262">
        <ele>497.62</ele>
        <time>2014-05-08T09:28:55Z</time>
      </trkpt>
      <trkpt lat="45.40733" lon="4.24268">
        <ele>495.22</ele>
        <time>2014-05-08T09:28:58Z</time>
      </trkpt>
      <trkpt lat="45.40733" lon="4.24271">
        <ele>494.74</ele>
        <time>2014-05-08T09:28:59Z</time>
      </trkpt>
      <trkpt lat="45.40734" lon="4.24273">
        <ele>494.26</ele>
        <time>2014-05-08T09:29:00Z</time>
      </trkpt>
      <trkpt lat="45.40734" lon="4.24276">
        <ele>493.29</ele>
        <time>2014-05-08T09:29:02Z</time>
      </trkpt>
      <trkpt lat="45.40736" lon="4.24281">
        <ele>490.89</ele>
        <time>2014-05-08T09:29:17Z</time>
      </trkpt>
      <trkpt lat="45.4074" lon="4.24287">
        <ele>490.41</ele>
        <time>2014-05-08T09:29:29Z</time>
      </trkpt>
      <trkpt lat="45.40741" lon="4.24289">
        <ele>490.41</ele>
        <time>2014-05-08T09:29:30Z</time>
      </trkpt>
      <trkpt lat="45.40741" lon="4.24291">
        <ele>489.93</ele>
        <time>2014-05-08T09:29:31Z</time>
      </trkpt>
      <trkpt lat="45.40742" lon="4.24297">
        <ele>488.01</ele>
        <time>2014-05-08T09:29:34Z</time>
      </trkpt>
      <trkpt lat="45.40743" lon="4.24299">
        <ele>487.05</ele>
        <time>2014-05-08T09:29:35Z</time>
      </trkpt>
      <trkpt lat="45.40745" lon="4.243">
        <ele>487.53</ele>
        <time>2014-05-08T09:29:36Z</time>
      </trkpt>
      <trkpt lat="45.40746" lon="4.24303">
        <ele>488.01</ele>
        <time>2014-05-08T09:29:37Z</time>
      </trkpt>
      <trkpt lat="45.40747" lon="4.24305">
        <ele>486.56</ele>
        <time>2014-05-08T09:29:38Z</time>
      </trkpt>
      <trkpt lat="45.40747" lon="4.24307">
        <ele>486.08</ele>
        <time>2014-05-08T09:29:39Z</time>
      </trkpt>
      <trkpt lat="45.40748" lon="4.24309">
        <ele>487.05</ele>
        <time>2014-05-08T09:29:40Z</time>
      </trkpt>
      <trkpt lat="45.40749" lon="4.24311">
        <ele>486.08</ele>
        <time>2014-05-08T09:29:41Z</time>
      </trkpt>
      <trkpt lat="45.40754" lon="4.24326">
        <ele>482.72</ele>
        <time>2014-05-08T09:29:47Z</time>
      </trkpt>
      <trkpt lat="45.40756" lon="4.24333">
        <ele>481.28</ele>
        <time>2014-05-08T09:29:50Z</time>
      </trkpt>
      <trkpt lat="45.40757" lon="4.24336">
        <ele>481.28</ele>
        <time>2014-05-08T09:29:51Z</time>
      </trkpt>
      <trkpt lat="45.40758" lon="4.24339">
        <ele>479.84</ele>
        <time>2014-05-08T09:29:52Z</time>
      </trkpt>
      <trkpt lat="45.40758" lon="4.24342">
        <ele>479.84</ele>
        <time>2014-05-08T09:29:53Z</time>
      </trkpt>
      <trkpt lat="45.40759" lon="4.24345">
        <ele>479.35</ele>
        <time>2014-05-08T09:29:54Z</time>
      </trkpt>
      <trkpt lat="45.40759" lon="4.24348">
        <ele>478.39</ele>
        <time>2014-05-08T09:29:55Z</time>
      </trkpt>
      <trkpt lat="45.40759" lon="4.2435">
        <ele>478.39</ele>
        <time>2014-05-08T09:29:56Z</time>
      </trkpt>
      <trkpt lat="45.40759" lon="4.24353">
        <ele>477.43</ele>
        <time>2014-05-08T09:30:08Z</time>
      </trkpt>
      <trkpt lat="45.40759" lon="4.24359">
        <ele>475.99</ele>
        <time>2014-05-08T09:30:27Z</time>
      </trkpt>
      <trkpt lat="45.40764" lon="4.24359">
        <ele>475.51</ele>
        <time>2014-05-08T09:30:36Z</time>
      </trkpt>
      <trkpt lat="45.40767" lon="4.24357">
        <ele>473.59</ele>
        <time>2014-05-08T09:30:39Z</time>
      </trkpt>
      <trkpt lat="45.40767" lon="4.24355">
        <ele>473.11</ele>
        <time>2014-05-08T09:30:40Z</time>
      </trkpt>
      <trkpt lat="45.40768" lon="4.24352">
        <ele>473.11</ele>
        <time>2014-05-08T09:30:41Z</time>
      </trkpt>
      <trkpt lat="45.40769" lon="4.24349">
        <ele>472.63</ele>
        <time>2014-05-08T09:30:42Z</time>
      </trkpt>
      <trkpt lat="45.4077" lon="4.24345">
        <ele>472.63</ele>
        <time>2014-05-08T09:30:43Z</time>
      </trkpt>
      <trkpt lat="45.40775" lon="4.24324">
        <ele>470.22</ele>
        <time>2014-05-08T09:30:55Z</time>
      </trkpt>
      <trkpt lat="45.40774" lon="4.24317">
        <ele>468.3</ele>
        <time>2014-05-08T09:31:10Z</time>
      </trkpt>
      <trkpt lat="45.40773" lon="4.2432">
        <ele>467.82</ele>
        <time>2014-05-08T09:31:12Z</time>
      </trkpt>
      <trkpt lat="45.40774" lon="4.24322">
        <ele>468.3</ele>
        <time>2014-05-08T09:31:13Z</time>
      </trkpt>
      <trkpt lat="45.40774" lon="4.24325">
        <ele>467.34</ele>
        <time>2014-05-08T09:31:14Z</time>
      </trkpt>
      <trkpt lat="45.40775" lon="4.24328">
        <ele>466.86</ele>
        <time>2014-05-08T09:31:15Z</time>
      </trkpt>
      <trkpt lat="45.40776" lon="4.24331">
        <ele>465.42</ele>
        <time>2014-05-08T09:31:16Z</time>
      </trkpt>
      <trkpt lat="45.40778" lon="4.24334">
        <ele>465.42</ele>
        <time>2014-05-08T09:31:17Z</time>
      </trkpt>
      <trkpt lat="45.40779" lon="4.24336">
        <ele>464.45</ele>
        <time>2014-05-08T09:31:18Z</time>
      </trkpt>
      <trkpt lat="45.40781" lon="4.24341">
        <ele>463.01</ele>
        <time>2014-05-08T09:31:19Z</time>
      </trkpt>
      <trkpt lat="45.40783" lon="4.24347">
        <ele>463.49</ele>
        <time>2014-05-08T09:31:20Z</time>
      </trkpt>
      <trkpt lat="45.40785" lon="4.24353">
        <ele>462.53</ele>
        <time>2014-05-08T09:31:21Z</time>
      </trkpt>
      <trkpt lat="45.40786" lon="4.24359">
        <ele>462.53</ele>
        <time>2014-05-08T09:31:22Z</time>
      </trkpt>
      <trkpt lat="45.40792" lon="4.24364">
        <ele>462.05</ele>
        <time>2014-05-08T09:31:30Z</time>
      </trkpt>
      <trkpt lat="45.40789" lon="4.24368">
        <ele>461.09</ele>
        <time>2014-05-08T09:32:02Z</time>
      </trkpt>
      <trkpt lat="45.40788" lon="4.2437">
        <ele>461.57</ele>
        <time>2014-05-08T09:32:03Z</time>
      </trkpt>
      <trkpt lat="45.40787" lon="4.24371">
        <ele>461.57</ele>
        <time>2014-05-08T09:32:04Z</time>
      </trkpt>
      <trkpt lat="45.40787" lon="4.24374">
        <ele>462.05</ele>
        <time>2014-05-08T09:32:05Z</time>
      </trkpt>
      <trkpt lat="45.40787" lon="4.24377">
        <ele>462.05</ele>
        <time>2014-05-08T09:32:06Z</time>
      </trkpt>
      <trkpt lat="45.40787" lon="4.2438">
        <ele>461.57</ele>
        <time>2014-05-08T09:32:07Z</time>
      </trkpt>
      <trkpt lat="45.40786" lon="4.24384">
        <ele>461.57</ele>
        <time>2014-05-08T09:32:08Z</time>
      </trkpt>
      <trkpt lat="45.40785" lon="4.24388">
        <ele>461.57</ele>
        <time>2014-05-08T09:32:09Z</time>
      </trkpt>
      <trkpt lat="45.40785" lon="4.24392">
        <ele>461.57</ele>
        <time>2014-05-08T09:32:10Z</time>
      </trkpt>
      <trkpt lat="45.40779" lon="4.24414">
        <ele>461.09</ele>
        <time>2014-05-08T09:32:17Z</time>
      </trkpt>
      <trkpt lat="45.40776" lon="4.24415">
        <ele>460.61</ele>
        <time>2014-05-08T09:32:18Z</time>
      </trkpt>
      <trkpt lat="45.40772" lon="4.24415">
        <ele>460.61</ele>
        <time>2014-05-08T09:32:19Z</time>
      </trkpt>
      <trkpt lat="45.40753" lon="4.24395">
        <ele>456.76</ele>
        <time>2014-05-08T09:32:26Z</time>
      </trkpt>
      <trkpt lat="45.40747" lon="4.24399">
        <ele>456.76</ele>
        <time>2014-05-08T09:32:33Z</time>
      </trkpt>
      <trkpt lat="45.40748" lon="4.24402">
        <ele>457.24</ele>
        <time>2014-05-08T09:32:34Z</time>
      </trkpt>
      <trkpt lat="45.40778" lon="4.2447">
        <ele>454.36</ele>
        <time>2014-05-08T09:32:45Z</time>
      </trkpt>
      <trkpt lat="45.40789" lon="4.24496">
        <ele>452.92</ele>
        <time>2014-05-08T09:32:48Z</time>
      </trkpt>
      <trkpt lat="45.40813" lon="4.24556">
        <ele>450.52</ele>
        <time>2014-05-08T09:32:54Z</time>
      </trkpt>
      <trkpt lat="45.40829" lon="4.24602">
        <ele>448.59</ele>
        <time>2014-05-08T09:32:58Z</time>
      </trkpt>
      <trkpt lat="45.40851" lon="4.24733">
        <ele>447.63</ele>
        <time>2014-05-08T09:33:10Z</time>
      </trkpt>
      <trkpt lat="45.40857" lon="4.24916">
        <ele>448.11</ele>
        <time>2014-05-08T09:33:31Z</time>
      </trkpt>
      <trkpt lat="45.40856" lon="4.24921">
        <ele>448.11</ele>
        <time>2014-05-08T09:33:32Z</time>
      </trkpt>
      <trkpt lat="45.40852" lon="4.24939">
        <ele>448.11</ele>
        <time>2014-05-08T09:33:35Z</time>
      </trkpt>
      <trkpt lat="45.40852" lon="4.24946">
        <ele>448.11</ele>
        <time>2014-05-08T09:33:36Z</time>
      </trkpt>
      <trkpt lat="45.40856" lon="4.24964">
        <ele>448.11</ele>
        <time>2014-05-08T09:33:39Z</time>
      </trkpt>
      <trkpt lat="45.40882" lon="4.25075">
        <ele>448.11</ele>
        <time>2014-05-08T09:33:53Z</time>
      </trkpt>
      <trkpt lat="45.40889" lon="4.25186">
        <ele>448.59</ele>
        <time>2014-05-08T09:34:06Z</time>
      </trkpt>
      <trkpt lat="45.40867" lon="4.25307">
        <ele>446.67</ele>
        <time>2014-05-08T09:34:20Z</time>
      </trkpt>
      <trkpt lat="45.40797" lon="4.25417">
        <ele>447.63</ele>
        <time>2014-05-08T09:34:38Z</time>
      </trkpt>
      <trkpt lat="45.40792" lon="4.2542">
        <ele>447.63</ele>
        <time>2014-05-08T09:34:39Z</time>
      </trkpt>
      <trkpt lat="45.40787" lon="4.25422">
        <ele>447.63</ele>
        <time>2014-05-08T09:34:40Z</time>
      </trkpt>
      <trkpt lat="45.40781" lon="4.25424">
        <ele>448.11</ele>
        <time>2014-05-08T09:34:41Z</time>
      </trkpt>
      <trkpt lat="45.40775" lon="4.25424">
        <ele>448.59</ele>
        <time>2014-05-08T09:34:42Z</time>
      </trkpt>
      <trkpt lat="45.40769" lon="4.25423">
        <ele>448.11</ele>
        <time>2014-05-08T09:34:43Z</time>
      </trkpt>
      <trkpt lat="45.40765" lon="4.2542">
        <ele>447.63</ele>
        <time>2014-05-08T09:34:44Z</time>
      </trkpt>
      <trkpt lat="45.4076" lon="4.25416">
        <ele>448.59</ele>
        <time>2014-05-08T09:34:45Z</time>
      </trkpt>
      <trkpt lat="45.40757" lon="4.25412">
        <ele>448.11</ele>
        <time>2014-05-08T09:34:46Z</time>
      </trkpt>
      <trkpt lat="45.40753" lon="4.25407">
        <ele>447.63</ele>
        <time>2014-05-08T09:34:47Z</time>
      </trkpt>
      <trkpt lat="45.40733" lon="4.25378">
        <ele>447.15</ele>
        <time>2014-05-08T09:34:55Z</time>
      </trkpt>
      <trkpt lat="45.40729" lon="4.25377">
        <ele>447.15</ele>
        <time>2014-05-08T09:34:56Z</time>
      </trkpt>
      <trkpt lat="45.40689" lon="4.25378">
        <ele>447.15</ele>
        <time>2014-05-08T09:35:06Z</time>
      </trkpt>
      <trkpt lat="45.40684" lon="4.25378">
        <ele>447.63</ele>
        <time>2014-05-08T09:35:07Z</time>
      </trkpt>
      <trkpt lat="45.40678" lon="4.25376">
        <ele>447.15</ele>
        <time>2014-05-08T09:35:08Z</time>
      </trkpt>
      <trkpt lat="45.4067" lon="4.25374">
        <ele>447.15</ele>
        <time>2014-05-08T09:35:09Z</time>
      </trkpt>
      <trkpt lat="45.40667" lon="4.25371">
        <ele>447.63</ele>
        <time>2014-05-08T09:35:10Z</time>
      </trkpt>
      <trkpt lat="45.40643" lon="4.25327">
        <ele>448.11</ele>
        <time>2014-05-08T09:35:19Z</time>
      </trkpt>
      <trkpt lat="45.40631" lon="4.25299">
        <ele>449.07</ele>
        <time>2014-05-08T09:35:25Z</time>
      </trkpt>
      <trkpt lat="45.40628" lon="4.25299">
        <ele>449.55</ele>
        <time>2014-05-08T09:35:26Z</time>
      </trkpt>
      <trkpt lat="45.4059" lon="4.25299">
        <ele>453.4</ele>
        <time>2014-05-08T09:35:39Z</time>
      </trkpt>
      <trkpt lat="45.40568" lon="4.25296">
        <ele>456.28</ele>
        <time>2014-05-08T09:35:52Z</time>
      </trkpt>
      <trkpt lat="45.40543" lon="4.25301">
        <ele>459.17</ele>
        <time>2014-05-08T09:36:06Z</time>
      </trkpt>
      <trkpt lat="45.40522" lon="4.25325">
        <ele>462.53</ele>
        <time>2014-05-08T09:36:21Z</time>
      </trkpt>
      <trkpt lat="45.40503" lon="4.25309">
        <ele>464.93</ele>
        <time>2014-05-08T09:36:35Z</time>
      </trkpt>
      <trkpt lat="45.40502" lon="4.25291">
        <ele>467.34</ele>
        <time>2014-05-08T09:36:45Z</time>
      </trkpt>
      <trkpt lat="45.40503" lon="4.2529">
        <ele>467.82</ele>
        <time>2014-05-08T09:36:46Z</time>
      </trkpt>
      <trkpt lat="45.40516" lon="4.25271">
        <ele>471.66</ele>
        <time>2014-05-08T09:37:03Z</time>
      </trkpt>
      <trkpt lat="45.4053" lon="4.25246">
        <ele>475.03</ele>
        <time>2014-05-08T09:37:18Z</time>
      </trkpt>
      <trkpt lat="45.40538" lon="4.25225">
        <ele>478.87</ele>
        <time>2014-05-08T09:37:34Z</time>
      </trkpt>
      <trkpt lat="45.40547" lon="4.25202">
        <ele>481.76</ele>
        <time>2014-05-08T09:37:50Z</time>
      </trkpt>
      <trkpt lat="45.4055" lon="4.25192">
        <ele>482.72</ele>
        <time>2014-05-08T09:37:57Z</time>
      </trkpt>
      <trkpt lat="45.40558" lon="4.25173">
        <ele>486.08</ele>
        <time>2014-05-08T09:38:08Z</time>
      </trkpt>
      <trkpt lat="45.40567" lon="4.25152">
        <ele>488.97</ele>
        <time>2014-05-08T09:38:23Z</time>
      </trkpt>
      <trkpt lat="45.40558" lon="4.25133">
        <ele>492.33</ele>
        <time>2014-05-08T09:38:39Z</time>
      </trkpt>
      <trkpt lat="45.40548" lon="4.25119">
        <ele>495.22</ele>
        <time>2014-05-08T09:38:54Z</time>
      </trkpt>
      <trkpt lat="45.40534" lon="4.25103">
        <ele>498.58</ele>
        <time>2014-05-08T09:39:07Z</time>
      </trkpt>
      <trkpt lat="45.40515" lon="4.2509">
        <ele>501.95</ele>
        <time>2014-05-08T09:39:23Z</time>
      </trkpt>
      <trkpt lat="45.40503" lon="4.25081">
        <ele>504.83</ele>
        <time>2014-05-08T09:39:35Z</time>
      </trkpt>
      <trkpt lat="45.40489" lon="4.25071">
        <ele>508.19</ele>
        <time>2014-05-08T09:39:48Z</time>
      </trkpt>
      <trkpt lat="45.40474" lon="4.25054">
        <ele>511.08</ele>
        <time>2014-05-08T09:40:03Z</time>
      </trkpt>
      <trkpt lat="45.40463" lon="4.25034">
        <ele>514.44</ele>
        <time>2014-05-08T09:40:21Z</time>
      </trkpt>
      <trkpt lat="45.40453" lon="4.25023">
        <ele>516.85</ele>
        <time>2014-05-08T09:40:37Z</time>
      </trkpt>
      <trkpt lat="45.40437" lon="4.25029">
        <ele>520.21</ele>
        <time>2014-05-08T09:40:50Z</time>
      </trkpt>
      <trkpt lat="45.40421" lon="4.25036">
        <ele>522.61</ele>
        <time>2014-05-08T09:41:02Z</time>
      </trkpt>
      <trkpt lat="45.404" lon="4.25047">
        <ele>525.5</ele>
        <time>2014-05-08T09:41:20Z</time>
      </trkpt>
      <trkpt lat="45.40385" lon="4.25054">
        <ele>528.86</ele>
        <time>2014-05-08T09:41:35Z</time>
      </trkpt>
      <trkpt lat="45.40365" lon="4.25054">
        <ele>529.34</ele>
        <time>2014-05-08T09:41:47Z</time>
      </trkpt>
      <trkpt lat="45.40364" lon="4.25055">
        <ele>529.82</ele>
        <time>2014-05-08T09:41:48Z</time>
      </trkpt>
      <trkpt lat="45.40321" lon="4.25067">
        <ele>529.34</ele>
        <time>2014-05-08T09:42:05Z</time>
      </trkpt>
      <trkpt lat="45.40292" lon="4.25082">
        <ele>526.94</ele>
        <time>2014-05-08T09:42:13Z</time>
      </trkpt>
      <trkpt lat="45.40272" lon="4.25088">
        <ele>524.54</ele>
        <time>2014-05-08T09:42:17Z</time>
      </trkpt>
      <trkpt lat="45.40195" lon="4.25147">
        <ele>523.58</ele>
        <time>2014-05-08T09:42:34Z</time>
      </trkpt>
      <trkpt lat="45.40144" lon="4.25181">
        <ele>524.54</ele>
        <time>2014-05-08T09:42:51Z</time>
      </trkpt>
      <trkpt lat="45.40088" lon="4.25179">
        <ele>526.94</ele>
        <time>2014-05-08T09:43:12Z</time>
      </trkpt>
      <trkpt lat="45.40058" lon="4.25159">
        <ele>531.27</ele>
        <time>2014-05-08T09:43:25Z</time>
      </trkpt>
      <trkpt lat="45.40052" lon="4.25147">
        <ele>532.23</ele>
        <time>2014-05-08T09:43:30Z</time>
      </trkpt>
      <trkpt lat="45.40038" lon="4.25128">
        <ele>532.71</ele>
        <time>2014-05-08T09:43:39Z</time>
      </trkpt>
      <trkpt lat="45.40011" lon="4.25134">
        <ele>534.15</ele>
        <time>2014-05-08T09:43:56Z</time>
      </trkpt>
      <trkpt lat="45.39963" lon="4.25123">
        <ele>537.51</ele>
        <time>2014-05-08T09:44:13Z</time>
      </trkpt>
      <trkpt lat="45.39909" lon="4.25102">
        <ele>537.99</ele>
        <time>2014-05-08T09:44:31Z</time>
      </trkpt>
      <trkpt lat="45.39826" lon="4.25071">
        <ele>537.03</ele>
        <time>2014-05-08T09:44:48Z</time>
      </trkpt>
      <trkpt lat="45.39737" lon="4.25039">
        <ele>536.55</ele>
        <time>2014-05-08T09:45:07Z</time>
      </trkpt>
      <trkpt lat="45.39729" lon="4.25037">
        <ele>536.55</ele>
        <time>2014-05-08T09:45:09Z</time>
      </trkpt>
      <trkpt lat="45.39642" lon="4.25004">
        <ele>536.07</ele>
        <time>2014-05-08T09:45:29Z</time>
      </trkpt>
      <trkpt lat="45.39619" lon="4.24994">
        <ele>537.03</ele>
        <time>2014-05-08T09:45:34Z</time>
      </trkpt>
      <trkpt lat="45.39614" lon="4.24994">
        <ele>537.51</ele>
        <time>2014-05-08T09:45:35Z</time>
      </trkpt>
      <trkpt lat="45.3961" lon="4.24995">
        <ele>537.99</ele>
        <time>2014-05-08T09:45:36Z</time>
      </trkpt>
      <trkpt lat="45.39606" lon="4.24997">
        <ele>537.99</ele>
        <time>2014-05-08T09:45:37Z</time>
      </trkpt>
      <trkpt lat="45.39602" lon="4.25">
        <ele>537.99</ele>
        <time>2014-05-08T09:45:38Z</time>
      </trkpt>
      <trkpt lat="45.39599" lon="4.25003">
        <ele>537.51</ele>
        <time>2014-05-08T09:45:39Z</time>
      </trkpt>
      <trkpt lat="45.39595" lon="4.25008">
        <ele>537.99</ele>
        <time>2014-05-08T09:45:40Z</time>
      </trkpt>
      <trkpt lat="45.39581" lon="4.2502">
        <ele>538.96</ele>
        <time>2014-05-08T09:45:44Z</time>
      </trkpt>
      <trkpt lat="45.39577" lon="4.2502">
        <ele>538.48</ele>
        <time>2014-05-08T09:45:45Z</time>
      </trkpt>
      <trkpt lat="45.39573" lon="4.25018">
        <ele>539.44</ele>
        <time>2014-05-08T09:45:46Z</time>
      </trkpt>
      <trkpt lat="45.39569" lon="4.25016">
        <ele>539.44</ele>
        <time>2014-05-08T09:45:47Z</time>
      </trkpt>
      <trkpt lat="45.39566" lon="4.25013">
        <ele>539.92</ele>
        <time>2014-05-08T09:45:48Z</time>
      </trkpt>
      <trkpt lat="45.39535" lon="4.24996">
        <ele>541.84</ele>
        <time>2014-05-08T09:46:01Z</time>
      </trkpt>
      <trkpt lat="45.39516" lon="4.24991">
        <ele>541.84</ele>
        <time>2014-05-08T09:46:17Z</time>
      </trkpt>
      <trkpt lat="45.39516" lon="4.24993">
        <ele>541.36</ele>
        <time>2014-05-08T09:46:40Z</time>
      </trkpt>
      <trkpt lat="45.3952" lon="4.24988">
        <ele>540.88</ele>
        <time>2014-05-08T09:47:21Z</time>
      </trkpt>
      <trkpt lat="45.39518" lon="4.24992">
        <ele>540.88</ele>
        <time>2014-05-08T09:47:56Z</time>
      </trkpt>
      <trkpt lat="45.39518" lon="4.24992">
        <ele>541.36</ele>
        <time>2014-05-08T09:48:20Z</time>
      </trkpt>
      <trkpt lat="45.39522" lon="4.24994">
        <ele>541.84</ele>
        <time>2014-05-08T09:48:44Z</time>
      </trkpt>
      <trkpt lat="45.39517" lon="4.24999">
        <ele>541.84</ele>
        <time>2014-05-08T09:49:18Z</time>
      </trkpt>
      <trkpt lat="45.39513" lon="4.24996">
        <ele>541.84</ele>
        <time>2014-05-08T09:49:39Z</time>
      </trkpt>
      <trkpt lat="45.39516" lon="4.24993">
        <ele>541.36</ele>
        <time>2014-05-08T09:49:57Z</time>
      </trkpt>
      <trkpt lat="45.39515" lon="4.24994">
        <ele>542.32</ele>
        <time>2014-05-08T09:49:59Z</time>
      </trkpt>
      <trkpt lat="45.39514" lon="4.24994">
        <ele>542.32</ele>
        <time>2014-05-08T09:50:00Z</time>
      </trkpt>
      <trkpt lat="45.39512" lon="4.24994">
        <ele>542.32</ele>
        <time>2014-05-08T09:50:01Z</time>
      </trkpt>
      <trkpt lat="45.39497" lon="4.2499">
        <ele>540.88</ele>
        <time>2014-05-08T09:50:06Z</time>
      </trkpt>
      <trkpt lat="45.39492" lon="4.2499">
        <ele>540.4</ele>
        <time>2014-05-08T09:50:07Z</time>
      </trkpt>
      <trkpt lat="45.39487" lon="4.24991">
        <ele>540.4</ele>
        <time>2014-05-08T09:50:08Z</time>
      </trkpt>
      <trkpt lat="45.39482" lon="4.24991">
        <ele>539.92</ele>
        <time>2014-05-08T09:50:09Z</time>
      </trkpt>
      <trkpt lat="45.39476" lon="4.24991">
        <ele>538.96</ele>
        <time>2014-05-08T09:50:10Z</time>
      </trkpt>
      <trkpt lat="45.39471" lon="4.24989">
        <ele>538.48</ele>
        <time>2014-05-08T09:50:11Z</time>
      </trkpt>
      <trkpt lat="45.39466" lon="4.24986">
        <ele>538.96</ele>
        <time>2014-05-08T09:50:12Z</time>
      </trkpt>
      <trkpt lat="45.39463" lon="4.24983">
        <ele>539.44</ele>
        <time>2014-05-08T09:50:13Z</time>
      </trkpt>
      <trkpt lat="45.3946" lon="4.2498">
        <ele>538.96</ele>
        <time>2014-05-08T09:50:14Z</time>
      </trkpt>
      <trkpt lat="45.39458" lon="4.24977">
        <ele>539.92</ele>
        <time>2014-05-08T09:50:15Z</time>
      </trkpt>
      <trkpt lat="45.39457" lon="4.24974">
        <ele>540.88</ele>
        <time>2014-05-08T09:50:16Z</time>
      </trkpt>
      <trkpt lat="45.39455" lon="4.24971">
        <ele>540.4</ele>
        <time>2014-05-08T09:50:17Z</time>
      </trkpt>
      <trkpt lat="45.39454" lon="4.24968">
        <ele>541.36</ele>
        <time>2014-05-08T09:50:18Z</time>
      </trkpt>
      <trkpt lat="45.39436" lon="4.24923">
        <ele>544.24</ele>
        <time>2014-05-08T09:50:33Z</time>
      </trkpt>
      <trkpt lat="45.39423" lon="4.24879">
        <ele>547.61</ele>
        <time>2014-05-08T09:50:50Z</time>
      </trkpt>
      <trkpt lat="45.39414" lon="4.24849">
        <ele>551.45</ele>
        <time>2014-05-08T09:51:03Z</time>
      </trkpt>
      <trkpt lat="45.39405" lon="4.24819">
        <ele>554.34</ele>
        <time>2014-05-08T09:51:16Z</time>
      </trkpt>
      <trkpt lat="45.39397" lon="4.24792">
        <ele>557.22</ele>
        <time>2014-05-08T09:51:28Z</time>
      </trkpt>
      <trkpt lat="45.39394" lon="4.24783">
        <ele>557.7</ele>
        <time>2014-05-08T09:51:32Z</time>
      </trkpt>
      <trkpt lat="45.39383" lon="4.24757">
        <ele>561.55</ele>
        <time>2014-05-08T09:51:46Z</time>
      </trkpt>
      <trkpt lat="45.39368" lon="4.2472">
        <ele>564.91</ele>
        <time>2014-05-08T09:52:03Z</time>
      </trkpt>
      <trkpt lat="45.39347" lon="4.24675">
        <ele>568.28</ele>
        <time>2014-05-08T09:52:21Z</time>
      </trkpt>
      <trkpt lat="45.39321" lon="4.24629">
        <ele>571.64</ele>
        <time>2014-05-08T09:52:41Z</time>
      </trkpt>
      <trkpt lat="45.39299" lon="4.24592">
        <ele>572.6</ele>
        <time>2014-05-08T09:52:56Z</time>
      </trkpt>
      <trkpt lat="45.39263" lon="4.2461">
        <ele>575.01</ele>
        <time>2014-05-08T09:53:10Z</time>
      </trkpt>
      <trkpt lat="45.39249" lon="4.24616">
        <ele>575.49</ele>
        <time>2014-05-08T09:53:16Z</time>
      </trkpt>
      <trkpt lat="45.39206" lon="4.24635">
        <ele>578.85</ele>
        <time>2014-05-08T09:53:35Z</time>
      </trkpt>
      <trkpt lat="45.39187" lon="4.24647">
        <ele>581.73</ele>
        <time>2014-05-08T09:53:49Z</time>
      </trkpt>
      <trkpt lat="45.39186" lon="4.24648">
        <ele>582.22</ele>
        <time>2014-05-08T09:53:50Z</time>
      </trkpt>
      <trkpt lat="45.39185" lon="4.2465">
        <ele>582.7</ele>
        <time>2014-05-08T09:53:51Z</time>
      </trkpt>
      <trkpt lat="45.39178" lon="4.24668">
        <ele>586.06</ele>
        <time>2014-05-08T09:54:04Z</time>
      </trkpt>
      <trkpt lat="45.39171" lon="4.24678">
        <ele>587.98</ele>
        <time>2014-05-08T09:54:12Z</time>
      </trkpt>
      <trkpt lat="45.39155" lon="4.24693">
        <ele>591.35</ele>
        <time>2014-05-08T09:54:27Z</time>
      </trkpt>
      <trkpt lat="45.39135" lon="4.24704">
        <ele>594.23</ele>
        <time>2014-05-08T09:54:41Z</time>
      </trkpt>
      <trkpt lat="45.39115" lon="4.24708">
        <ele>597.6</ele>
        <time>2014-05-08T09:54:54Z</time>
      </trkpt>
      <trkpt lat="45.39097" lon="4.24711">
        <ele>600.96</ele>
        <time>2014-05-08T09:55:07Z</time>
      </trkpt>
      <trkpt lat="45.39078" lon="4.2471">
        <ele>604.33</ele>
        <time>2014-05-08T09:55:22Z</time>
      </trkpt>
      <trkpt lat="45.39069" lon="4.24705">
        <ele>605.77</ele>
        <time>2014-05-08T09:55:30Z</time>
      </trkpt>
      <trkpt lat="45.39054" lon="4.24697">
        <ele>608.65</ele>
        <time>2014-05-08T09:55:42Z</time>
      </trkpt>
      <trkpt lat="45.39041" lon="4.24688">
        <ele>612.02</ele>
        <time>2014-05-08T09:55:54Z</time>
      </trkpt>
      <trkpt lat="45.3904" lon="4.24687">
        <ele>612.02</ele>
        <time>2014-05-08T09:55:55Z</time>
      </trkpt>
      <trkpt lat="45.39033" lon="4.24681">
        <ele>614.42</ele>
        <time>2014-05-08T09:56:09Z</time>
      </trkpt>
      <trkpt lat="45.39029" lon="4.24678">
        <ele>615.38</ele>
        <time>2014-05-08T09:56:28Z</time>
      </trkpt>
      <trkpt lat="45.39021" lon="4.2467">
        <ele>617.3</ele>
        <time>2014-05-08T09:56:40Z</time>
      </trkpt>
      <trkpt lat="45.39007" lon="4.2466">
        <ele>620.67</ele>
        <time>2014-05-08T09:56:54Z</time>
      </trkpt>
      <trkpt lat="45.39006" lon="4.24659">
        <ele>621.15</ele>
        <time>2014-05-08T09:56:55Z</time>
      </trkpt>
      <trkpt lat="45.38994" lon="4.24646">
        <ele>624.51</ele>
        <time>2014-05-08T09:57:08Z</time>
      </trkpt>
      <trkpt lat="45.38984" lon="4.24637">
        <ele>625.47</ele>
        <time>2014-05-08T09:57:15Z</time>
      </trkpt>
      <trkpt lat="45.38974" lon="4.24622">
        <ele>628.36</ele>
        <time>2014-05-08T09:57:26Z</time>
      </trkpt>
      <trkpt lat="45.38965" lon="4.24608">
        <ele>631.72</ele>
        <time>2014-05-08T09:57:39Z</time>
      </trkpt>
      <trkpt lat="45.38963" lon="4.24604">
        <ele>632.68</ele>
        <time>2014-05-08T09:57:42Z</time>
      </trkpt>
      <trkpt lat="45.38956" lon="4.24587">
        <ele>635.09</ele>
        <time>2014-05-08T09:57:53Z</time>
      </trkpt>
      <trkpt lat="45.38948" lon="4.24552">
        <ele>638.45</ele>
        <time>2014-05-08T09:58:12Z</time>
      </trkpt>
      <trkpt lat="45.38942" lon="4.24517">
        <ele>641.82</ele>
        <time>2014-05-08T09:58:31Z</time>
      </trkpt>
      <trkpt lat="45.38932" lon="4.24493">
        <ele>644.7</ele>
        <time>2014-05-08T09:58:47Z</time>
      </trkpt>
      <trkpt lat="45.38921" lon="4.24471">
        <ele>648.55</ele>
        <time>2014-05-08T09:59:03Z</time>
      </trkpt>
      <trkpt lat="45.38908" lon="4.24437">
        <ele>652.39</ele>
        <time>2014-05-08T09:59:24Z</time>
      </trkpt>
      <trkpt lat="45.38892" lon="4.24422">
        <ele>655.28</ele>
        <time>2014-05-08T09:59:40Z</time>
      </trkpt>
      <trkpt lat="45.38886" lon="4.24419">
        <ele>655.76</ele>
        <time>2014-05-08T09:59:44Z</time>
      </trkpt>
      <trkpt lat="45.38868" lon="4.24407">
        <ele>659.12</ele>
        <time>2014-05-08T09:59:59Z</time>
      </trkpt>
      <trkpt lat="45.38847" lon="4.24398">
        <ele>662.49</ele>
        <time>2014-05-08T10:00:17Z</time>
      </trkpt>
      <trkpt lat="45.38838" lon="4.24393">
        <ele>663.93</ele>
        <time>2014-05-08T10:00:25Z</time>
      </trkpt>
      <trkpt lat="45.38821" lon="4.2439">
        <ele>667.29</ele>
        <time>2014-05-08T10:00:39Z</time>
      </trkpt>
      <trkpt lat="45.38798" lon="4.24394">
        <ele>670.66</ele>
        <time>2014-05-08T10:00:55Z</time>
      </trkpt>
      <trkpt lat="45.3879" lon="4.24392">
        <ele>671.62</ele>
        <time>2014-05-08T10:01:02Z</time>
      </trkpt>
      <trkpt lat="45.38784" lon="4.24389">
        <ele>673.06</ele>
        <time>2014-05-08T10:01:24Z</time>
      </trkpt>
      <trkpt lat="45.38787" lon="4.24387">
        <ele>672.1</ele>
        <time>2014-05-08T10:01:58Z</time>
      </trkpt>
      <trkpt lat="45.38766" lon="4.2439">
        <ele>675.46</ele>
        <time>2014-05-08T10:02:13Z</time>
      </trkpt>
      <trkpt lat="45.38742" lon="4.24396">
        <ele>678.83</ele>
        <time>2014-05-08T10:02:30Z</time>
      </trkpt>
      <trkpt lat="45.38719" lon="4.24397">
        <ele>682.19</ele>
        <time>2014-05-08T10:02:45Z</time>
      </trkpt>
      <trkpt lat="45.38699" lon="4.24402">
        <ele>685.56</ele>
        <time>2014-05-08T10:03:04Z</time>
      </trkpt>
      <trkpt lat="45.38672" lon="4.24402">
        <ele>688.92</ele>
        <time>2014-05-08T10:03:23Z</time>
      </trkpt>
      <trkpt lat="45.38642" lon="4.2441">
        <ele>692.29</ele>
        <time>2014-05-08T10:03:41Z</time>
      </trkpt>
      <trkpt lat="45.38615" lon="4.24423">
        <ele>695.17</ele>
        <time>2014-05-08T10:04:01Z</time>
      </trkpt>
      <trkpt lat="45.38606" lon="4.24425">
        <ele>697.09</ele>
        <time>2014-05-08T10:04:07Z</time>
      </trkpt>
      <trkpt lat="45.38587" lon="4.24424">
        <ele>700.46</ele>
        <time>2014-05-08T10:04:20Z</time>
      </trkpt>
      <trkpt lat="45.38572" lon="4.24428">
        <ele>702.86</ele>
        <time>2014-05-08T10:04:30Z</time>
      </trkpt>
      <trkpt lat="45.38563" lon="4.24433">
        <ele>703.82</ele>
        <time>2014-05-08T10:04:36Z</time>
      </trkpt>
      <trkpt lat="45.38538" lon="4.2445">
        <ele>706.71</ele>
        <time>2014-05-08T10:04:54Z</time>
      </trkpt>
      <trkpt lat="45.38518" lon="4.24458">
        <ele>710.07</ele>
        <time>2014-05-08T10:05:06Z</time>
      </trkpt>
      <trkpt lat="45.38508" lon="4.24459">
        <ele>711.99</ele>
        <time>2014-05-08T10:05:12Z</time>
      </trkpt>
      <trkpt lat="45.3848" lon="4.24455">
        <ele>714.88</ele>
        <time>2014-05-08T10:05:29Z</time>
      </trkpt>
      <trkpt lat="45.38455" lon="4.24438">
        <ele>715.84</ele>
        <time>2014-05-08T10:05:49Z</time>
      </trkpt>
      <trkpt lat="45.38451" lon="4.24435">
        <ele>715.84</ele>
        <time>2014-05-08T10:06:12Z</time>
      </trkpt>
      <trkpt lat="45.38453" lon="4.24437">
        <ele>717.28</ele>
        <time>2014-05-08T10:06:27Z</time>
      </trkpt>
      <trkpt lat="45.38449" lon="4.24437">
        <ele>715.36</ele>
        <time>2014-05-08T10:06:42Z</time>
      </trkpt>
      <trkpt lat="45.38455" lon="4.24438">
        <ele>716.32</ele>
        <time>2014-05-08T10:07:06Z</time>
      </trkpt>
      <trkpt lat="45.38455" lon="4.2444">
        <ele>716.32</ele>
        <time>2014-05-08T10:07:30Z</time>
      </trkpt>
      <trkpt lat="45.38451" lon="4.24434">
        <ele>715.84</ele>
        <time>2014-05-08T10:07:52Z</time>
      </trkpt>
      <trkpt lat="45.38453" lon="4.24435">
        <ele>715.36</ele>
        <time>2014-05-08T10:08:21Z</time>
      </trkpt>
      <trkpt lat="45.38451" lon="4.24442">
        <ele>716.32</ele>
        <time>2014-05-08T10:08:38Z</time>
      </trkpt>
      <trkpt lat="45.38447" lon="4.24442">
        <ele>715.84</ele>
        <time>2014-05-08T10:08:43Z</time>
      </trkpt>
      <trkpt lat="45.38415" lon="4.24456">
        <ele>716.32</ele>
        <time>2014-05-08T10:08:56Z</time>
      </trkpt>
      <trkpt lat="45.38352" lon="4.24505">
        <ele>718.72</ele>
        <time>2014-05-08T10:09:17Z</time>
      </trkpt>
      <trkpt lat="45.38341" lon="4.24512">
        <ele>719.68</ele>
        <time>2014-05-08T10:09:22Z</time>
      </trkpt>
      <trkpt lat="45.38314" lon="4.24533">
        <ele>723.05</ele>
        <time>2014-05-08T10:09:35Z</time>
      </trkpt>
      <trkpt lat="45.38275" lon="4.24559">
        <ele>724.49</ele>
        <time>2014-05-08T10:09:51Z</time>
      </trkpt>
      <trkpt lat="45.38239" lon="4.24589">
        <ele>725.93</ele>
        <time>2014-05-08T10:10:08Z</time>
      </trkpt>
      <trkpt lat="45.38191" lon="4.24623">
        <ele>728.82</ele>
        <time>2014-05-08T10:10:28Z</time>
      </trkpt>
      <trkpt lat="45.38134" lon="4.2466">
        <ele>731.7</ele>
        <time>2014-05-08T10:10:50Z</time>
      </trkpt>
      <trkpt lat="45.38098" lon="4.24677">
        <ele>731.7</ele>
        <time>2014-05-08T10:11:00Z</time>
      </trkpt>
      <trkpt lat="45.3804" lon="4.24703">
        <ele>728.82</ele>
        <time>2014-05-08T10:11:15Z</time>
      </trkpt>
      <trkpt lat="45.38013" lon="4.2472">
        <ele>726.41</ele>
        <time>2014-05-08T10:11:20Z</time>
      </trkpt>
      <trkpt lat="45.38006" lon="4.24725">
        <ele>724.97</ele>
        <time>2014-05-08T10:11:21Z</time>
      </trkpt>
      <trkpt lat="45.37981" lon="4.24741">
        <ele>722.09</ele>
        <time>2014-05-08T10:11:24Z</time>
      </trkpt>
      <trkpt lat="45.3797" lon="4.24744">
        <ele>720.65</ele>
        <time>2014-05-08T10:11:25Z</time>
      </trkpt>
      <trkpt lat="45.37927" lon="4.24751">
        <ele>717.28</ele>
        <time>2014-05-08T10:11:29Z</time>
      </trkpt>
      <trkpt lat="45.379" lon="4.2476">
        <ele>713.44</ele>
        <time>2014-05-08T10:11:32Z</time>
      </trkpt>
      <trkpt lat="45.37884" lon="4.24764">
        <ele>711.03</ele>
        <time>2014-05-08T10:11:34Z</time>
      </trkpt>
      <trkpt lat="45.37875" lon="4.24763">
        <ele>710.07</ele>
        <time>2014-05-08T10:11:35Z</time>
      </trkpt>
      <trkpt lat="45.37866" lon="4.24759">
        <ele>708.63</ele>
        <time>2014-05-08T10:11:36Z</time>
      </trkpt>
      <trkpt lat="45.37857" lon="4.24753">
        <ele>708.15</ele>
        <time>2014-05-08T10:11:37Z</time>
      </trkpt>
      <trkpt lat="45.37848" lon="4.24745">
        <ele>707.19</ele>
        <time>2014-05-08T10:11:38Z</time>
      </trkpt>
      <trkpt lat="45.37825" lon="4.24719">
        <ele>703.34</ele>
        <time>2014-05-08T10:11:41Z</time>
      </trkpt>
      <trkpt lat="45.37815" lon="4.24705">
        <ele>699.5</ele>
        <time>2014-05-08T10:11:43Z</time>
      </trkpt>
      <trkpt lat="45.37811" lon="4.247">
        <ele>698.53</ele>
        <time>2014-05-08T10:11:44Z</time>
      </trkpt>
      <trkpt lat="45.37807" lon="4.24697">
        <ele>698.05</ele>
        <time>2014-05-08T10:11:45Z</time>
      </trkpt>
      <trkpt lat="45.37803" lon="4.24697">
        <ele>698.05</ele>
        <time>2014-05-08T10:11:46Z</time>
      </trkpt>
      <trkpt lat="45.37799" lon="4.247">
        <ele>698.05</ele>
        <time>2014-05-08T10:11:47Z</time>
      </trkpt>
      <trkpt lat="45.37795" lon="4.24703">
        <ele>698.05</ele>
        <time>2014-05-08T10:11:48Z</time>
      </trkpt>
      <trkpt lat="45.3774" lon="4.24757">
        <ele>697.09</ele>
        <time>2014-05-08T10:12:03Z</time>
      </trkpt>
      <trkpt lat="45.37725" lon="4.2479">
        <ele>695.65</ele>
        <time>2014-05-08T10:12:08Z</time>
      </trkpt>
      <trkpt lat="45.37704" lon="4.24819">
        <ele>693.25</ele>
        <time>2014-05-08T10:12:12Z</time>
      </trkpt>
      <trkpt lat="45.377" lon="4.24828">
        <ele>693.25</ele>
        <time>2014-05-08T10:12:13Z</time>
      </trkpt>
      <trkpt lat="45.37696" lon="4.24837">
        <ele>692.29</ele>
        <time>2014-05-08T10:12:14Z</time>
      </trkpt>
      <trkpt lat="45.37694" lon="4.24846">
        <ele>692.29</ele>
        <time>2014-05-08T10:12:15Z</time>
      </trkpt>
      <trkpt lat="45.37693" lon="4.24855">
        <ele>692.77</ele>
        <time>2014-05-08T10:12:16Z</time>
      </trkpt>
      <trkpt lat="45.37693" lon="4.24864">
        <ele>692.77</ele>
        <time>2014-05-08T10:12:17Z</time>
      </trkpt>
      <trkpt lat="45.37692" lon="4.24885">
        <ele>692.77</ele>
        <time>2014-05-08T10:12:20Z</time>
      </trkpt>
      <trkpt lat="45.37691" lon="4.24891">
        <ele>692.29</ele>
        <time>2014-05-08T10:12:21Z</time>
      </trkpt>
      <trkpt lat="45.3766" lon="4.24985">
        <ele>692.77</ele>
        <time>2014-05-08T10:12:35Z</time>
      </trkpt>
      <trkpt lat="45.37634" lon="4.25051">
        <ele>689.88</ele>
        <time>2014-05-08T10:12:43Z</time>
      </trkpt>
      <trkpt lat="45.37621" lon="4.25077">
        <ele>689.4</ele>
        <time>2014-05-08T10:12:46Z</time>
      </trkpt>
      <trkpt lat="45.37616" lon="4.25084">
        <ele>688.44</ele>
        <time>2014-05-08T10:12:47Z</time>
      </trkpt>
      <trkpt lat="45.3761" lon="4.2509">
        <ele>687.48</ele>
        <time>2014-05-08T10:12:48Z</time>
      </trkpt>
      <trkpt lat="45.37603" lon="4.25096">
        <ele>687</ele>
        <time>2014-05-08T10:12:49Z</time>
      </trkpt>
      <trkpt lat="45.37597" lon="4.25101">
        <ele>686.04</ele>
        <time>2014-05-08T10:12:50Z</time>
      </trkpt>
      <trkpt lat="45.3759" lon="4.25105">
        <ele>685.08</ele>
        <time>2014-05-08T10:12:51Z</time>
      </trkpt>
      <trkpt lat="45.37582" lon="4.25108">
        <ele>685.08</ele>
        <time>2014-05-08T10:12:52Z</time>
      </trkpt>
      <trkpt lat="45.37575" lon="4.2511">
        <ele>685.08</ele>
        <time>2014-05-08T10:12:53Z</time>
      </trkpt>
      <trkpt lat="45.37551" lon="4.25117">
        <ele>684.6</ele>
        <time>2014-05-08T10:13:00Z</time>
      </trkpt>
      <trkpt lat="45.37546" lon="4.25116">
        <ele>683.63</ele>
        <time>2014-05-08T10:13:13Z</time>
      </trkpt>
      <trkpt lat="45.37548" lon="4.25113">
        <ele>683.63</ele>
        <time>2014-05-08T10:13:31Z</time>
      </trkpt>
      <trkpt lat="45.3755" lon="4.25115">
        <ele>683.63</ele>
        <time>2014-05-08T10:13:56Z</time>
      </trkpt>
      <trkpt lat="45.37552" lon="4.25112">
        <ele>683.63</ele>
        <time>2014-05-08T10:14:27Z</time>
      </trkpt>
      <trkpt lat="45.37552" lon="4.25108">
        <ele>683.15</ele>
        <time>2014-05-08T10:15:01Z</time>
      </trkpt>
      <trkpt lat="45.37552" lon="4.25111">
        <ele>683.63</ele>
        <time>2014-05-08T10:15:29Z</time>
      </trkpt>
      <trkpt lat="45.37552" lon="4.25111">
        <ele>683.63</ele>
        <time>2014-05-08T10:15:51Z</time>
      </trkpt>
      <trkpt lat="45.37553" lon="4.2511">
        <ele>683.15</ele>
        <time>2014-05-08T10:16:13Z</time>
      </trkpt>
      <trkpt lat="45.37531" lon="4.25088">
        <ele>681.23</ele>
        <time>2014-05-08T10:16:22Z</time>
      </trkpt>
      <trkpt lat="45.37498" lon="4.25073">
        <ele>677.39</ele>
        <time>2014-05-08T10:16:29Z</time>
      </trkpt>
      <trkpt lat="45.37479" lon="4.25068">
        <ele>675.94</ele>
        <time>2014-05-08T10:16:38Z</time>
      </trkpt>
      <trkpt lat="45.37462" lon="4.2506">
        <ele>673.54</ele>
        <time>2014-05-08T10:16:50Z</time>
      </trkpt>
      <trkpt lat="45.37429" lon="4.25045">
        <ele>671.62</ele>
        <time>2014-05-08T10:17:02Z</time>
      </trkpt>
      <trkpt lat="45.37418" lon="4.2504">
        <ele>670.66</ele>
        <time>2014-05-08T10:17:04Z</time>
      </trkpt>
      <trkpt lat="45.37405" lon="4.25034">
        <ele>668.73</ele>
        <time>2014-05-08T10:17:06Z</time>
      </trkpt>
      <trkpt lat="45.3738" lon="4.2502">
        <ele>666.33</ele>
        <time>2014-05-08T10:17:10Z</time>
      </trkpt>
      <trkpt lat="45.37362" lon="4.2501">
        <ele>663.45</ele>
        <time>2014-05-08T10:17:13Z</time>
      </trkpt>
      <trkpt lat="45.37351" lon="4.25003">
        <ele>662.01</ele>
        <time>2014-05-08T10:17:15Z</time>
      </trkpt>
      <trkpt lat="45.37335" lon="4.24994">
        <ele>660.56</ele>
        <time>2014-05-08T10:17:18Z</time>
      </trkpt>
      <trkpt lat="45.3731" lon="4.24981">
        <ele>657.2</ele>
        <time>2014-05-08T10:17:23Z</time>
      </trkpt>
      <trkpt lat="45.373" lon="4.24974">
        <ele>654.31</ele>
        <time>2014-05-08T10:17:25Z</time>
      </trkpt>
      <trkpt lat="45.37295" lon="4.2497">
        <ele>653.35</ele>
        <time>2014-05-08T10:17:26Z</time>
      </trkpt>
      <trkpt lat="45.37282" lon="4.24953">
        <ele>651.43</ele>
        <time>2014-05-08T10:17:29Z</time>
      </trkpt>
      <trkpt lat="45.37272" lon="4.24935">
        <ele>648.07</ele>
        <time>2014-05-08T10:17:31Z</time>
      </trkpt>
      <trkpt lat="45.37256" lon="4.24902">
        <ele>644.7</ele>
        <time>2014-05-08T10:17:36Z</time>
      </trkpt>
      <trkpt lat="45.37241" lon="4.24851">
        <ele>641.82</ele>
        <time>2014-05-08T10:17:44Z</time>
      </trkpt>
      <trkpt lat="45.37239" lon="4.24841">
        <ele>640.38</ele>
        <time>2014-05-08T10:17:45Z</time>
      </trkpt>
      <trkpt lat="45.37236" lon="4.24833">
        <ele>639.89</ele>
        <time>2014-05-08T10:17:46Z</time>
      </trkpt>
      <trkpt lat="45.37226" lon="4.24817">
        <ele>638.93</ele>
        <time>2014-05-08T10:17:48Z</time>
      </trkpt>
      <trkpt lat="45.37195" lon="4.24778">
        <ele>636.05</ele>
        <time>2014-05-08T10:17:53Z</time>
      </trkpt>
      <trkpt lat="45.37167" lon="4.24744">
        <ele>632.2</ele>
        <time>2014-05-08T10:17:57Z</time>
      </trkpt>
      <trkpt lat="45.37155" lon="4.24728">
        <ele>628.84</ele>
        <time>2014-05-08T10:17:59Z</time>
      </trkpt>
      <trkpt lat="45.37126" lon="4.24693">
        <ele>624.03</ele>
        <time>2014-05-08T10:18:03Z</time>
      </trkpt>
      <trkpt lat="45.3711" lon="4.24679">
        <ele>620.67</ele>
        <time>2014-05-08T10:18:05Z</time>
      </trkpt>
      <trkpt lat="45.37096" lon="4.24669">
        <ele>617.78</ele>
        <time>2014-05-08T10:18:07Z</time>
      </trkpt>
      <trkpt lat="45.37084" lon="4.24655">
        <ele>614.42</ele>
        <time>2014-05-08T10:18:09Z</time>
      </trkpt>
      <trkpt lat="45.37079" lon="4.2465">
        <ele>612.98</ele>
        <time>2014-05-08T10:18:10Z</time>
      </trkpt>
      <trkpt lat="45.37073" lon="4.24646">
        <ele>612.5</ele>
        <time>2014-05-08T10:18:11Z</time>
      </trkpt>
      <trkpt lat="45.37055" lon="4.24636">
        <ele>609.13</ele>
        <time>2014-05-08T10:18:14Z</time>
      </trkpt>
      <trkpt lat="45.37048" lon="4.24633">
        <ele>609.13</ele>
        <time>2014-05-08T10:18:15Z</time>
      </trkpt>
      <trkpt lat="45.37015" lon="4.24617">
        <ele>605.77</ele>
        <time>2014-05-08T10:18:19Z</time>
      </trkpt>
      <trkpt lat="45.36979" lon="4.24607">
        <ele>601.92</ele>
        <time>2014-05-08T10:18:23Z</time>
      </trkpt>
      <trkpt lat="45.36949" lon="4.246">
        <ele>599.52</ele>
        <time>2014-05-08T10:18:26Z</time>
      </trkpt>
      <trkpt lat="45.36941" lon="4.24597">
        <ele>598.08</ele>
        <time>2014-05-08T10:18:27Z</time>
      </trkpt>
      <trkpt lat="45.36935" lon="4.24593">
        <ele>597.6</ele>
        <time>2014-05-08T10:18:28Z</time>
      </trkpt>
      <trkpt lat="45.36928" lon="4.24589">
        <ele>597.12</ele>
        <time>2014-05-08T10:18:29Z</time>
      </trkpt>
      <trkpt lat="45.36923" lon="4.24584">
        <ele>597.12</ele>
        <time>2014-05-08T10:18:30Z</time>
      </trkpt>
      <trkpt lat="45.3692" lon="4.24577">
        <ele>597.6</ele>
        <time>2014-05-08T10:18:31Z</time>
      </trkpt>
      <trkpt lat="45.36911" lon="4.24545">
        <ele>597.12</ele>
        <time>2014-05-08T10:18:37Z</time>
      </trkpt>
      <trkpt lat="45.36913" lon="4.24541">
        <ele>597.6</ele>
        <time>2014-05-08T10:18:38Z</time>
      </trkpt>
      <trkpt lat="45.36917" lon="4.24538">
        <ele>596.64</ele>
        <time>2014-05-08T10:18:39Z</time>
      </trkpt>
      <trkpt lat="45.36943" lon="4.24516">
        <ele>593.75</ele>
        <time>2014-05-08T10:18:46Z</time>
      </trkpt>
      <trkpt lat="45.36953" lon="4.24514">
        <ele>591.35</ele>
        <time>2014-05-08T10:18:55Z</time>
      </trkpt>
      <trkpt lat="45.3696" lon="4.24509">
        <ele>592.31</ele>
        <time>2014-05-08T10:19:26Z</time>
      </trkpt>
      <trkpt lat="45.3696" lon="4.24504">
        <ele>592.79</ele>
        <time>2014-05-08T10:19:37Z</time>
      </trkpt>
      <trkpt lat="45.36958" lon="4.24503">
        <ele>591.83</ele>
        <time>2014-05-08T10:19:38Z</time>
      </trkpt>
      <trkpt lat="45.36955" lon="4.245">
        <ele>592.31</ele>
        <time>2014-05-08T10:19:39Z</time>
      </trkpt>
      <trkpt lat="45.3695" lon="4.24496">
        <ele>592.79</ele>
        <time>2014-05-08T10:19:40Z</time>
      </trkpt>
      <trkpt lat="45.36943" lon="4.24491">
        <ele>591.35</ele>
        <time>2014-05-08T10:19:41Z</time>
      </trkpt>
      <trkpt lat="45.36918" lon="4.24475">
        <ele>587.98</ele>
        <time>2014-05-08T10:19:44Z</time>
      </trkpt>
      <trkpt lat="45.3689" lon="4.24456">
        <ele>583.66</ele>
        <time>2014-05-08T10:19:47Z</time>
      </trkpt>
      <trkpt lat="45.36862" lon="4.24432">
        <ele>579.33</ele>
        <time>2014-05-08T10:19:51Z</time>
      </trkpt>
      <trkpt lat="45.36857" lon="4.24427">
        <ele>577.89</ele>
        <time>2014-05-08T10:19:52Z</time>
      </trkpt>
      <trkpt lat="45.36853" lon="4.24423">
        <ele>575.49</ele>
        <time>2014-05-08T10:19:53Z</time>
      </trkpt>
      <trkpt lat="45.36845" lon="4.24408">
        <ele>571.64</ele>
        <time>2014-05-08T10:19:58Z</time>
      </trkpt>
      <trkpt lat="45.36837" lon="4.24394">
        <ele>568.76</ele>
        <time>2014-05-08T10:20:03Z</time>
      </trkpt>
      <trkpt lat="45.36835" lon="4.24382">
        <ele>564.91</ele>
        <time>2014-05-08T10:20:07Z</time>
      </trkpt>
      <trkpt lat="45.36837" lon="4.24376">
        <ele>564.43</ele>
        <time>2014-05-08T10:20:08Z</time>
      </trkpt>
      <trkpt lat="45.36841" lon="4.24364">
        <ele>563.47</ele>
        <time>2014-05-08T10:20:10Z</time>
      </trkpt>
      <trkpt lat="45.36843" lon="4.2436">
        <ele>562.51</ele>
        <time>2014-05-08T10:20:11Z</time>
      </trkpt>
      <trkpt lat="45.36846" lon="4.24357">
        <ele>562.03</ele>
        <time>2014-05-08T10:20:12Z</time>
      </trkpt>
      <trkpt lat="45.36848" lon="4.24355">
        <ele>561.07</ele>
        <time>2014-05-08T10:20:13Z</time>
      </trkpt>
      <trkpt lat="45.36852" lon="4.24353">
        <ele>560.59</ele>
        <time>2014-05-08T10:20:14Z</time>
      </trkpt>
      <trkpt lat="45.36855" lon="4.24351">
        <ele>559.62</ele>
        <time>2014-05-08T10:20:15Z</time>
      </trkpt>
      <trkpt lat="45.36859" lon="4.2435">
        <ele>559.14</ele>
        <time>2014-05-08T10:20:16Z</time>
      </trkpt>
      <trkpt lat="45.36872" lon="4.24349">
        <ele>555.78</ele>
        <time>2014-05-08T10:20:20Z</time>
      </trkpt>
      <trkpt lat="45.36875" lon="4.24349">
        <ele>555.78</ele>
        <time>2014-05-08T10:20:21Z</time>
      </trkpt>
      <trkpt lat="45.36889" lon="4.24353">
        <ele>552.41</ele>
        <time>2014-05-08T10:20:25Z</time>
      </trkpt>
      <trkpt lat="45.36898" lon="4.24353">
        <ele>550.97</ele>
        <time>2014-05-08T10:20:28Z</time>
      </trkpt>
      <trkpt lat="45.36917" lon="4.24353">
        <ele>547.13</ele>
        <time>2014-05-08T10:20:33Z</time>
      </trkpt>
      <trkpt lat="45.36927" lon="4.24354">
        <ele>546.65</ele>
        <time>2014-05-08T10:20:35Z</time>
      </trkpt>
      <trkpt lat="45.36946" lon="4.24355">
        <ele>542.8</ele>
        <time>2014-05-08T10:20:39Z</time>
      </trkpt>
      <trkpt lat="45.36953" lon="4.24353">
        <ele>541.36</ele>
        <time>2014-05-08T10:20:41Z</time>
      </trkpt>
      <trkpt lat="45.36964" lon="4.24346">
        <ele>537.99</ele>
        <time>2014-05-08T10:20:46Z</time>
      </trkpt>
      <trkpt lat="45.36969" lon="4.24333">
        <ele>534.15</ele>
        <time>2014-05-08T10:20:50Z</time>
      </trkpt>
      <trkpt lat="45.36964" lon="4.24332">
        <ele>533.67</ele>
        <time>2014-05-08T10:20:51Z</time>
      </trkpt>
      <trkpt lat="45.3696" lon="4.24329">
        <ele>533.19</ele>
        <time>2014-05-08T10:20:52Z</time>
      </trkpt>
      <trkpt lat="45.36948" lon="4.24312">
        <ele>529.34</ele>
        <time>2014-05-08T10:20:58Z</time>
      </trkpt>
      <trkpt lat="45.36947" lon="4.24309">
        <ele>529.34</ele>
        <time>2014-05-08T10:20:59Z</time>
      </trkpt>
      <trkpt lat="45.36944" lon="4.24303">
        <ele>528.38</ele>
        <time>2014-05-08T10:21:01Z</time>
      </trkpt>
      <trkpt lat="45.36935" lon="4.24295">
        <ele>525.98</ele>
        <time>2014-05-08T10:21:04Z</time>
      </trkpt>
      <trkpt lat="45.36916" lon="4.24285">
        <ele>522.61</ele>
        <time>2014-05-08T10:21:10Z</time>
      </trkpt>
      <trkpt lat="45.36909" lon="4.24282">
        <ele>522.13</ele>
        <time>2014-05-08T10:21:12Z</time>
      </trkpt>
      <trkpt lat="45.36892" lon="4.24273">
        <ele>519.25</ele>
        <time>2014-05-08T10:21:22Z</time>
      </trkpt>
      <trkpt lat="45.36893" lon="4.24271">
        <ele>518.77</ele>
        <time>2014-05-08T10:21:27Z</time>
      </trkpt>
      <trkpt lat="45.36895" lon="4.24269">
        <ele>519.25</ele>
        <time>2014-05-08T10:21:28Z</time>
      </trkpt>
      <trkpt lat="45.36897" lon="4.24266">
        <ele>518.77</ele>
        <time>2014-05-08T10:21:29Z</time>
      </trkpt>
      <trkpt lat="45.369" lon="4.24263">
        <ele>518.29</ele>
        <time>2014-05-08T10:21:30Z</time>
      </trkpt>
      <trkpt lat="45.36902" lon="4.24259">
        <ele>518.29</ele>
        <time>2014-05-08T10:21:31Z</time>
      </trkpt>
      <trkpt lat="45.36904" lon="4.24256">
        <ele>517.81</ele>
        <time>2014-05-08T10:21:32Z</time>
      </trkpt>
      <trkpt lat="45.36905" lon="4.24254">
        <ele>517.81</ele>
        <time>2014-05-08T10:21:33Z</time>
      </trkpt>
      <trkpt lat="45.3691" lon="4.24254">
        <ele>518.29</ele>
        <time>2014-05-08T10:21:46Z</time>
      </trkpt>
      <trkpt lat="45.36907" lon="4.24254">
        <ele>519.73</ele>
        <time>2014-05-08T10:21:59Z</time>
      </trkpt>
      <trkpt lat="45.3692" lon="4.24255">
        <ele>522.61</ele>
        <time>2014-05-08T10:22:19Z</time>
      </trkpt>
      <trkpt lat="45.36938" lon="4.24246">
        <ele>526.46</ele>
        <time>2014-05-08T10:22:35Z</time>
      </trkpt>
      <trkpt lat="45.36953" lon="4.24231">
        <ele>529.34</ele>
        <time>2014-05-08T10:22:55Z</time>
      </trkpt>
      <trkpt lat="45.36962" lon="4.24229">
        <ele>530.79</ele>
        <time>2014-05-08T10:23:15Z</time>
      </trkpt>
      <trkpt lat="45.36963" lon="4.24222">
        <ele>532.71</ele>
        <time>2014-05-08T10:23:32Z</time>
      </trkpt>
      <trkpt lat="45.36965" lon="4.24219">
        <ele>532.71</ele>
        <time>2014-05-08T10:23:48Z</time>
      </trkpt>
      <trkpt lat="45.36965" lon="4.24216">
        <ele>533.19</ele>
        <time>2014-05-08T10:23:51Z</time>
      </trkpt>
      <trkpt lat="45.36965" lon="4.24213">
        <ele>533.19</ele>
        <time>2014-05-08T10:23:52Z</time>
      </trkpt>
      <trkpt lat="45.36965" lon="4.2421">
        <ele>532.71</ele>
        <time>2014-05-08T10:23:53Z</time>
      </trkpt>
      <trkpt lat="45.36973" lon="4.24177">
        <ele>532.71</ele>
        <time>2014-05-08T10:24:04Z</time>
      </trkpt>
      <trkpt lat="45.36995" lon="4.24119">
        <ele>529.34</ele>
        <time>2014-05-08T10:24:14Z</time>
      </trkpt>
      <trkpt lat="45.37025" lon="4.24054">
        <ele>527.42</ele>
        <time>2014-05-08T10:24:28Z</time>
      </trkpt>
      <trkpt lat="45.37049" lon="4.24019">
        <ele>527.9</ele>
        <time>2014-05-08T10:24:40Z</time>
      </trkpt>
      <trkpt lat="45.37049" lon="4.24027">
        <ele>528.86</ele>
        <time>2014-05-08T10:24:52Z</time>
      </trkpt>
      <trkpt lat="45.37056" lon="4.2402">
        <ele>530.79</ele>
        <time>2014-05-08T10:25:12Z</time>
      </trkpt>
      <trkpt lat="45.37061" lon="4.24017">
        <ele>530.3</ele>
        <time>2014-05-08T10:25:18Z</time>
      </trkpt>
      <trkpt lat="45.37063" lon="4.24016">
        <ele>530.79</ele>
        <time>2014-05-08T10:25:19Z</time>
      </trkpt>
      <trkpt lat="45.37064" lon="4.24015">
        <ele>531.27</ele>
        <time>2014-05-08T10:25:20Z</time>
      </trkpt>
      <trkpt lat="45.3709" lon="4.24005">
        <ele>533.67</ele>
        <time>2014-05-08T10:25:37Z</time>
      </trkpt>
      <trkpt lat="45.37103" lon="4.24004">
        <ele>535.59</ele>
        <time>2014-05-08T10:25:51Z</time>
      </trkpt>
      <trkpt lat="45.37117" lon="4.23999">
        <ele>537.51</ele>
        <time>2014-05-08T10:26:10Z</time>
      </trkpt>
      <trkpt lat="45.37131" lon="4.24003">
        <ele>540.4</ele>
        <time>2014-05-08T10:26:25Z</time>
      </trkpt>
      <trkpt lat="45.37145" lon="4.23997">
        <ele>543.28</ele>
        <time>2014-05-08T10:26:44Z</time>
      </trkpt>
      <trkpt lat="45.37158" lon="4.23989">
        <ele>546.17</ele>
        <time>2014-05-08T10:27:03Z</time>
      </trkpt>
      <trkpt lat="45.37159" lon="4.23986">
        <ele>546.65</ele>
        <time>2014-05-08T10:27:05Z</time>
      </trkpt>
      <trkpt lat="45.37153" lon="4.23972">
        <ele>549.53</ele>
        <time>2014-05-08T10:27:20Z</time>
      </trkpt>
      <trkpt lat="45.3715" lon="4.23964">
        <ele>551.45</ele>
        <time>2014-05-08T10:27:36Z</time>
      </trkpt>
      <trkpt lat="45.37146" lon="4.23962">
        <ele>554.34</ele>
        <time>2014-05-08T10:27:51Z</time>
      </trkpt>
      <trkpt lat="45.37139" lon="4.23949">
        <ele>557.22</ele>
        <time>2014-05-08T10:28:09Z</time>
      </trkpt>
      <trkpt lat="45.37132" lon="4.23934">
        <ele>559.14</ele>
        <time>2014-05-08T10:28:28Z</time>
      </trkpt>
      <trkpt lat="45.37116" lon="4.23919">
        <ele>562.51</ele>
        <time>2014-05-08T10:28:48Z</time>
      </trkpt>
      <trkpt lat="45.37104" lon="4.23916">
        <ele>565.87</ele>
        <time>2014-05-08T10:29:05Z</time>
      </trkpt>
      <trkpt lat="45.37095" lon="4.23917">
        <ele>569.24</ele>
        <time>2014-05-08T10:29:21Z</time>
      </trkpt>
      <trkpt lat="45.37094" lon="4.23917">
        <ele>568.76</ele>
        <time>2014-05-08T10:29:22Z</time>
      </trkpt>
      <trkpt lat="45.37085" lon="4.23914">
        <ele>572.12</ele>
        <time>2014-05-08T10:29:37Z</time>
      </trkpt>
      <trkpt lat="45.37083" lon="4.23913">
        <ele>572.12</ele>
        <time>2014-05-08T10:29:38Z</time>
      </trkpt>
      <trkpt lat="45.37074" lon="4.23901">
        <ele>575.49</ele>
        <time>2014-05-08T10:29:55Z</time>
      </trkpt>
      <trkpt lat="45.37069" lon="4.23893">
        <ele>577.41</ele>
        <time>2014-05-08T10:30:04Z</time>
      </trkpt>
      <trkpt lat="45.37068" lon="4.2389">
        <ele>577.89</ele>
        <time>2014-05-08T10:30:09Z</time>
      </trkpt>
      <trkpt lat="45.37067" lon="4.23884">
        <ele>577.41</ele>
        <time>2014-05-08T10:30:15Z</time>
      </trkpt>
      <trkpt lat="45.37059" lon="4.23873">
        <ele>580.77</ele>
        <time>2014-05-08T10:30:26Z</time>
      </trkpt>
      <trkpt lat="45.37057" lon="4.23861">
        <ele>583.18</ele>
        <time>2014-05-08T10:30:37Z</time>
      </trkpt>
      <trkpt lat="45.37049" lon="4.23842">
        <ele>586.06</ele>
        <time>2014-05-08T10:30:57Z</time>
      </trkpt>
      <trkpt lat="45.37047" lon="4.23826">
        <ele>588.46</ele>
        <time>2014-05-08T10:31:11Z</time>
      </trkpt>
      <trkpt lat="45.37047" lon="4.23812">
        <ele>590.39</ele>
        <time>2014-05-08T10:31:28Z</time>
      </trkpt>
      <trkpt lat="45.37047" lon="4.23794">
        <ele>592.79</ele>
        <time>2014-05-08T10:31:45Z</time>
      </trkpt>
      <trkpt lat="45.37049" lon="4.2378">
        <ele>595.67</ele>
        <time>2014-05-08T10:32:01Z</time>
      </trkpt>
      <trkpt lat="45.3705" lon="4.23772">
        <ele>596.15</ele>
        <time>2014-05-08T10:32:23Z</time>
      </trkpt>
      <trkpt lat="45.37047" lon="4.23763">
        <ele>600</ele>
        <time>2014-05-08T10:32:42Z</time>
      </trkpt>
      <trkpt lat="45.37045" lon="4.2375">
        <ele>602.88</ele>
        <time>2014-05-08T10:32:57Z</time>
      </trkpt>
      <trkpt lat="45.37043" lon="4.23734">
        <ele>606.25</ele>
        <time>2014-05-08T10:33:11Z</time>
      </trkpt>
      <trkpt lat="45.37047" lon="4.23724">
        <ele>609.13</ele>
        <time>2014-05-08T10:33:23Z</time>
      </trkpt>
      <trkpt lat="45.37051" lon="4.23713">
        <ele>609.61</ele>
        <time>2014-05-08T10:33:43Z</time>
      </trkpt>
      <trkpt lat="45.3705" lon="4.23706">
        <ele>610.57</ele>
        <time>2014-05-08T10:34:04Z</time>
      </trkpt>
      <trkpt lat="45.37051" lon="4.23694">
        <ele>612.5</ele>
        <time>2014-05-08T10:34:31Z</time>
      </trkpt>
      <trkpt lat="45.37058" lon="4.23661">
        <ele>615.38</ele>
        <time>2014-05-08T10:34:46Z</time>
      </trkpt>
      <trkpt lat="45.37063" lon="4.23628">
        <ele>617.78</ele>
        <time>2014-05-08T10:35:05Z</time>
      </trkpt>
      <trkpt lat="45.37067" lon="4.23612">
        <ele>617.3</ele>
        <time>2014-05-08T10:35:13Z</time>
      </trkpt>
      <trkpt lat="45.37068" lon="4.23609">
        <ele>617.78</ele>
        <time>2014-05-08T10:35:14Z</time>
      </trkpt>
      <trkpt lat="45.37095" lon="4.23537">
        <ele>621.15</ele>
        <time>2014-05-08T10:35:40Z</time>
      </trkpt>
      <trkpt lat="45.37142" lon="4.23533">
        <ele>618.75</ele>
        <time>2014-05-08T10:35:55Z</time>
      </trkpt>
      <trkpt lat="45.37199" lon="4.23518">
        <ele>620.67</ele>
        <time>2014-05-08T10:36:13Z</time>
      </trkpt>
      <trkpt lat="45.37257" lon="4.23514">
        <ele>619.23</ele>
        <time>2014-05-08T10:36:29Z</time>
      </trkpt>
      <trkpt lat="45.37304" lon="4.23505">
        <ele>622.11</ele>
        <time>2014-05-08T10:36:45Z</time>
      </trkpt>
      <trkpt lat="45.37316" lon="4.23478">
        <ele>624.03</ele>
        <time>2014-05-08T10:37:04Z</time>
      </trkpt>
      <trkpt lat="45.37321" lon="4.23435">
        <ele>626.44</ele>
        <time>2014-05-08T10:37:23Z</time>
      </trkpt>
      <trkpt lat="45.37317" lon="4.23425">
        <ele>627.4</ele>
        <time>2014-05-08T10:37:27Z</time>
      </trkpt>
      <trkpt lat="45.37304" lon="4.23399">
        <ele>630.28</ele>
        <time>2014-05-08T10:37:38Z</time>
      </trkpt>
      <trkpt lat="45.37304" lon="4.23353">
        <ele>633.65</ele>
        <time>2014-05-08T10:37:52Z</time>
      </trkpt>
      <trkpt lat="45.37307" lon="4.23329">
        <ele>637.49</ele>
        <time>2014-05-08T10:38:05Z</time>
      </trkpt>
      <trkpt lat="45.37314" lon="4.23311">
        <ele>640.86</ele>
        <time>2014-05-08T10:38:17Z</time>
      </trkpt>
      <trkpt lat="45.37315" lon="4.23304">
        <ele>641.34</ele>
        <time>2014-05-08T10:38:21Z</time>
      </trkpt>
      <trkpt lat="45.37315" lon="4.23278">
        <ele>644.7</ele>
        <time>2014-05-08T10:38:38Z</time>
      </trkpt>
      <trkpt lat="45.37314" lon="4.23248">
        <ele>648.07</ele>
        <time>2014-05-08T10:38:54Z</time>
      </trkpt>
      <trkpt lat="45.3731" lon="4.23221">
        <ele>651.91</ele>
        <time>2014-05-08T10:39:10Z</time>
      </trkpt>
      <trkpt lat="45.3731" lon="4.23219">
        <ele>652.39</ele>
        <time>2014-05-08T10:39:11Z</time>
      </trkpt>
      <trkpt lat="45.37303" lon="4.232">
        <ele>655.76</ele>
        <time>2014-05-08T10:39:25Z</time>
      </trkpt>
      <trkpt lat="45.37307" lon="4.2318">
        <ele>658.64</ele>
        <time>2014-05-08T10:39:41Z</time>
      </trkpt>
      <trkpt lat="45.37303" lon="4.23157">
        <ele>662.01</ele>
        <time>2014-05-08T10:39:57Z</time>
      </trkpt>
      <trkpt lat="45.37293" lon="4.23141">
        <ele>664.89</ele>
        <time>2014-05-08T10:40:15Z</time>
      </trkpt>
      <trkpt lat="45.37284" lon="4.23132">
        <ele>666.33</ele>
        <time>2014-05-08T10:40:33Z</time>
      </trkpt>
      <trkpt lat="45.37277" lon="4.23123">
        <ele>667.77</ele>
        <time>2014-05-08T10:40:59Z</time>
      </trkpt>
      <trkpt lat="45.37277" lon="4.23118">
        <ele>668.73</ele>
        <time>2014-05-08T10:41:18Z</time>
      </trkpt>
      <trkpt lat="45.37275" lon="4.23112">
        <ele>670.66</ele>
        <time>2014-05-08T10:41:25Z</time>
      </trkpt>
      <trkpt lat="45.37269" lon="4.23106">
        <ele>673.06</ele>
        <time>2014-05-08T10:41:32Z</time>
      </trkpt>
      <trkpt lat="45.37256" lon="4.23097">
        <ele>676.91</ele>
        <time>2014-05-08T10:41:43Z</time>
      </trkpt>
      <trkpt lat="45.3724" lon="4.2309">
        <ele>678.83</ele>
        <time>2014-05-08T10:41:52Z</time>
      </trkpt>
      <trkpt lat="45.37222" lon="4.23083">
        <ele>682.19</ele>
        <time>2014-05-08T10:42:05Z</time>
      </trkpt>
      <trkpt lat="45.37206" lon="4.23078">
        <ele>685.08</ele>
        <time>2014-05-08T10:42:19Z</time>
      </trkpt>
      <trkpt lat="45.37196" lon="4.23075">
        <ele>688.44</ele>
        <time>2014-05-08T10:42:40Z</time>
      </trkpt>
      <trkpt lat="45.37193" lon="4.23075">
        <ele>688.44</ele>
        <time>2014-05-08T10:42:42Z</time>
      </trkpt>
      <trkpt lat="45.37174" lon="4.23071">
        <ele>690.84</ele>
        <time>2014-05-08T10:42:52Z</time>
      </trkpt>
      <trkpt lat="45.37141" lon="4.2305">
        <ele>693.73</ele>
        <time>2014-05-08T10:43:11Z</time>
      </trkpt>
      <trkpt lat="45.37111" lon="4.23041">
        <ele>697.09</ele>
        <time>2014-05-08T10:43:27Z</time>
      </trkpt>
      <trkpt lat="45.37088" lon="4.23036">
        <ele>699.98</ele>
        <time>2014-05-08T10:43:43Z</time>
      </trkpt>
      <trkpt lat="45.37071" lon="4.23029">
        <ele>703.34</ele>
        <time>2014-05-08T10:43:59Z</time>
      </trkpt>
      <trkpt lat="45.37069" lon="4.23028">
        <ele>703.34</ele>
        <time>2014-05-08T10:44:01Z</time>
      </trkpt>
      <trkpt lat="45.37067" lon="4.23028">
        <ele>703.82</ele>
        <time>2014-05-08T10:44:02Z</time>
      </trkpt>
      <trkpt lat="45.3703" lon="4.23015">
        <ele>706.71</ele>
        <time>2014-05-08T10:44:22Z</time>
      </trkpt>
      <trkpt lat="45.36999" lon="4.22998">
        <ele>710.07</ele>
        <time>2014-05-08T10:44:43Z</time>
      </trkpt>
      <trkpt lat="45.36964" lon="4.22972">
        <ele>712.47</ele>
        <time>2014-05-08T10:45:06Z</time>
      </trkpt>
      <trkpt lat="45.36933" lon="4.22943">
        <ele>713.92</ele>
        <time>2014-05-08T10:45:21Z</time>
      </trkpt>
      <trkpt lat="45.36911" lon="4.22938">
        <ele>711.03</ele>
        <time>2014-05-08T10:45:33Z</time>
      </trkpt>
      <trkpt lat="45.36915" lon="4.22934">
        <ele>710.55</ele>
        <time>2014-05-08T10:45:51Z</time>
      </trkpt>
      <trkpt lat="45.36915" lon="4.22935">
        <ele>711.99</ele>
        <time>2014-05-08T10:45:53Z</time>
      </trkpt>
      <trkpt lat="45.36917" lon="4.22937">
        <ele>709.59</ele>
        <time>2014-05-08T10:45:57Z</time>
      </trkpt>
      <trkpt lat="45.36924" lon="4.22943">
        <ele>703.82</ele>
        <time>2014-05-08T10:46:16Z</time>
      </trkpt>
      <trkpt lat="45.36925" lon="4.22942">
        <ele>715.36</ele>
        <time>2014-05-08T10:46:17Z</time>
      </trkpt>
      <trkpt lat="45.36926" lon="4.22941">
        <ele>711.03</ele>
        <time>2014-05-08T10:46:18Z</time>
      </trkpt>
      <trkpt lat="45.36926" lon="4.22941">
        <ele>710.07</ele>
        <time>2014-05-08T10:46:20Z</time>
      </trkpt>
      <trkpt lat="45.36942" lon="4.22942">
        <ele>710.55</ele>
        <time>2014-05-08T10:46:51Z</time>
      </trkpt>
      <trkpt lat="45.3692" lon="4.22934">
        <ele>710.55</ele>
        <time>2014-05-08T10:47:18Z</time>
      </trkpt>
      <trkpt lat="45.36913" lon="4.22932">
        <ele>710.55</ele>
        <time>2014-05-08T10:47:48Z</time>
      </trkpt>
      <trkpt lat="45.36914" lon="4.22933">
        <ele>710.55</ele>
        <time>2014-05-08T10:48:13Z</time>
      </trkpt>
      <trkpt lat="45.36916" lon="4.22938">
        <ele>711.03</ele>
        <time>2014-05-08T10:48:34Z</time>
      </trkpt>
      <trkpt lat="45.36916" lon="4.22937">
        <ele>710.07</ele>
        <time>2014-05-08T10:48:38Z</time>
      </trkpt>
      <trkpt lat="45.36918" lon="4.22936">
        <ele>710.55</ele>
        <time>2014-05-08T10:49:04Z</time>
      </trkpt>
      <trkpt lat="45.36918" lon="4.22937">
        <ele>711.99</ele>
        <time>2014-05-08T10:49:13Z</time>
      </trkpt>
      <trkpt lat="45.36914" lon="4.22934">
        <ele>711.99</ele>
        <time>2014-05-08T10:49:34Z</time>
      </trkpt>
      <trkpt lat="45.36907" lon="4.22929">
        <ele>711.99</ele>
        <time>2014-05-08T10:49:59Z</time>
      </trkpt>
      <trkpt lat="45.3691" lon="4.22936">
        <ele>712.47</ele>
        <time>2014-05-08T10:50:27Z</time>
      </trkpt>
      <trkpt lat="45.36909" lon="4.22936">
        <ele>711.51</ele>
        <time>2014-05-08T10:50:43Z</time>
      </trkpt>
      <trkpt lat="45.36911" lon="4.22936">
        <ele>712.47</ele>
        <time>2014-05-08T10:50:44Z</time>
      </trkpt>
      <trkpt lat="45.36913" lon="4.22936">
        <ele>712.95</ele>
        <time>2014-05-08T10:50:45Z</time>
      </trkpt>
      <trkpt lat="45.36942" lon="4.22941">
        <ele>713.92</ele>
        <time>2014-05-08T10:50:59Z</time>
      </trkpt>
      <trkpt lat="45.36943" lon="4.2294">
        <ele>714.4</ele>
        <time>2014-05-08T10:51:00Z</time>
      </trkpt>
      <trkpt lat="45.36945" lon="4.22939">
        <ele>714.88</ele>
        <time>2014-05-08T10:51:01Z</time>
      </trkpt>
      <trkpt lat="45.36945" lon="4.22937">
        <ele>714.88</ele>
        <time>2014-05-08T10:51:02Z</time>
      </trkpt>
      <trkpt lat="45.36945" lon="4.22935">
        <ele>715.36</ele>
        <time>2014-05-08T10:51:03Z</time>
      </trkpt>
      <trkpt lat="45.36945" lon="4.22933">
        <ele>715.36</ele>
        <time>2014-05-08T10:51:04Z</time>
      </trkpt>
      <trkpt lat="45.36945" lon="4.22932">
        <ele>715.36</ele>
        <time>2014-05-08T10:51:05Z</time>
      </trkpt>
      <trkpt lat="45.36934" lon="4.22914">
        <ele>714.4</ele>
        <time>2014-05-08T10:51:16Z</time>
      </trkpt>
      <trkpt lat="45.36933" lon="4.22915">
        <ele>714.88</ele>
        <time>2014-05-08T10:51:17Z</time>
      </trkpt>
      <trkpt lat="45.36934" lon="4.22917">
        <ele>714.4</ele>
        <time>2014-05-08T10:51:19Z</time>
      </trkpt>
      <trkpt lat="45.36935" lon="4.22917">
        <ele>714.4</ele>
        <time>2014-05-08T10:51:20Z</time>
      </trkpt>
      <trkpt lat="45.36937" lon="4.22918">
        <ele>713.92</ele>
        <time>2014-05-08T10:51:21Z</time>
      </trkpt>
      <trkpt lat="45.36938" lon="4.22919">
        <ele>714.88</ele>
        <time>2014-05-08T10:51:22Z</time>
      </trkpt>
      <trkpt lat="45.3694" lon="4.22921">
        <ele>714.4</ele>
        <time>2014-05-08T10:51:23Z</time>
      </trkpt>
      <trkpt lat="45.36941" lon="4.22923">
        <ele>714.4</ele>
        <time>2014-05-08T10:51:24Z</time>
      </trkpt>
      <trkpt lat="45.36943" lon="4.22925">
        <ele>715.36</ele>
        <time>2014-05-08T10:51:25Z</time>
      </trkpt>
      <trkpt lat="45.36944" lon="4.22927">
        <ele>714.4</ele>
        <time>2014-05-08T10:51:26Z</time>
      </trkpt>
      <trkpt lat="45.36946" lon="4.2293">
        <ele>714.4</ele>
        <time>2014-05-08T10:51:27Z</time>
      </trkpt>
      <trkpt lat="45.36948" lon="4.22932">
        <ele>714.4</ele>
        <time>2014-05-08T10:51:28Z</time>
      </trkpt>
      <trkpt lat="45.3695" lon="4.22933">
        <ele>715.36</ele>
        <time>2014-05-08T10:51:29Z</time>
      </trkpt>
      <trkpt lat="45.36952" lon="4.22935">
        <ele>714.88</ele>
        <time>2014-05-08T10:51:30Z</time>
      </trkpt>
      <trkpt lat="45.36955" lon="4.22935">
        <ele>714.88</ele>
        <time>2014-05-08T10:51:31Z</time>
      </trkpt>
      <trkpt lat="45.36957" lon="4.22936">
        <ele>714.88</ele>
        <time>2014-05-08T10:51:32Z</time>
      </trkpt>
      <trkpt lat="45.3696" lon="4.22936">
        <ele>715.36</ele>
        <time>2014-05-08T10:51:33Z</time>
      </trkpt>
      <trkpt lat="45.36963" lon="4.22936">
        <ele>714.4</ele>
        <time>2014-05-08T10:51:34Z</time>
      </trkpt>
      <trkpt lat="45.36967" lon="4.22936">
        <ele>714.4</ele>
        <time>2014-05-08T10:51:35Z</time>
      </trkpt>
      <trkpt lat="45.3697" lon="4.22934">
        <ele>714.88</ele>
        <time>2014-05-08T10:51:36Z</time>
      </trkpt>
      <trkpt lat="45.36973" lon="4.2293">
        <ele>714.4</ele>
        <time>2014-05-08T10:51:37Z</time>
      </trkpt>
      <trkpt lat="45.36974" lon="4.22924">
        <ele>714.4</ele>
        <time>2014-05-08T10:51:38Z</time>
      </trkpt>
      <trkpt lat="45.36976" lon="4.22916">
        <ele>713.44</ele>
        <time>2014-05-08T10:51:39Z</time>
      </trkpt>
      <trkpt lat="45.36977" lon="4.22907">
        <ele>711.99</ele>
        <time>2014-05-08T10:51:40Z</time>
      </trkpt>
      <trkpt lat="45.36978" lon="4.22897">
        <ele>711.51</ele>
        <time>2014-05-08T10:51:41Z</time>
      </trkpt>
      <trkpt lat="45.36978" lon="4.22887">
        <ele>711.03</ele>
        <time>2014-05-08T10:51:42Z</time>
      </trkpt>
      <trkpt lat="45.36977" lon="4.22876">
        <ele>710.55</ele>
        <time>2014-05-08T10:51:43Z</time>
      </trkpt>
      <trkpt lat="45.36976" lon="4.22866">
        <ele>711.03</ele>
        <time>2014-05-08T10:51:44Z</time>
      </trkpt>
      <trkpt lat="45.36968" lon="4.22827">
        <ele>709.59</ele>
        <time>2014-05-08T10:51:48Z</time>
      </trkpt>
      <trkpt lat="45.36963" lon="4.22819">
        <ele>709.59</ele>
        <time>2014-05-08T10:51:49Z</time>
      </trkpt>
      <trkpt lat="45.3693" lon="4.2275">
        <ele>707.67</ele>
        <time>2014-05-08T10:51:57Z</time>
      </trkpt>
      <trkpt lat="45.36915" lon="4.22659">
        <ele>708.15</ele>
        <time>2014-05-08T10:52:09Z</time>
      </trkpt>
      <trkpt lat="45.36886" lon="4.22548">
        <ele>707.67</ele>
        <time>2014-05-08T10:52:25Z</time>
      </trkpt>
      <trkpt lat="45.36822" lon="4.22431">
        <ele>707.19</ele>
        <time>2014-05-08T10:52:44Z</time>
      </trkpt>
      <trkpt lat="45.36819" lon="4.22425">
        <ele>706.23</ele>
        <time>2014-05-08T10:52:45Z</time>
      </trkpt>
      <trkpt lat="45.36816" lon="4.22419">
        <ele>706.23</ele>
        <time>2014-05-08T10:52:46Z</time>
      </trkpt>
      <trkpt lat="45.36814" lon="4.22413">
        <ele>706.71</ele>
        <time>2014-05-08T10:52:47Z</time>
      </trkpt>
      <trkpt lat="45.36812" lon="4.22406">
        <ele>705.26</ele>
        <time>2014-05-08T10:52:48Z</time>
      </trkpt>
      <trkpt lat="45.36811" lon="4.22399">
        <ele>706.71</ele>
        <time>2014-05-08T10:52:49Z</time>
      </trkpt>
      <trkpt lat="45.3681" lon="4.22393">
        <ele>706.71</ele>
        <time>2014-05-08T10:52:50Z</time>
      </trkpt>
      <trkpt lat="45.3681" lon="4.22386">
        <ele>705.75</ele>
        <time>2014-05-08T10:52:51Z</time>
      </trkpt>
      <trkpt lat="45.36811" lon="4.2238">
        <ele>706.71</ele>
        <time>2014-05-08T10:52:52Z</time>
      </trkpt>
      <trkpt lat="45.36812" lon="4.22374">
        <ele>705.75</ele>
        <time>2014-05-08T10:52:53Z</time>
      </trkpt>
      <trkpt lat="45.36818" lon="4.22337">
        <ele>707.67</ele>
        <time>2014-05-08T10:52:59Z</time>
      </trkpt>
      <trkpt lat="45.36818" lon="4.22332">
        <ele>707.67</ele>
        <time>2014-05-08T10:53:00Z</time>
      </trkpt>
      <trkpt lat="45.36817" lon="4.22326">
        <ele>708.63</ele>
        <time>2014-05-08T10:53:01Z</time>
      </trkpt>
      <trkpt lat="45.36819" lon="4.2229">
        <ele>709.59</ele>
        <time>2014-05-08T10:53:09Z</time>
      </trkpt>
      <trkpt lat="45.36821" lon="4.22271">
        <ele>708.63</ele>
        <time>2014-05-08T10:53:21Z</time>
      </trkpt>
      <trkpt lat="45.3682" lon="4.22265">
        <ele>707.67</ele>
        <time>2014-05-08T10:53:37Z</time>
      </trkpt>
      <trkpt lat="45.36821" lon="4.22262">
        <ele>707.67</ele>
        <time>2014-05-08T10:54:08Z</time>
      </trkpt>
      <trkpt lat="45.36823" lon="4.22262">
        <ele>709.11</ele>
        <time>2014-05-08T10:54:24Z</time>
      </trkpt>
      <trkpt lat="45.36821" lon="4.2226">
        <ele>708.63</ele>
        <time>2014-05-08T10:54:47Z</time>
      </trkpt>
      <trkpt lat="45.36823" lon="4.22268">
        <ele>706.71</ele>
        <time>2014-05-08T10:55:09Z</time>
      </trkpt>
      <trkpt lat="45.36822" lon="4.22269">
        <ele>710.07</ele>
        <time>2014-05-08T10:55:11Z</time>
      </trkpt>
      <trkpt lat="45.36822" lon="4.22269">
        <ele>710.07</ele>
        <time>2014-05-08T10:55:12Z</time>
      </trkpt>
      <trkpt lat="45.36821" lon="4.22271">
        <ele>705.75</ele>
        <time>2014-05-08T10:55:22Z</time>
      </trkpt>
      <trkpt lat="45.36822" lon="4.2227">
        <ele>710.07</ele>
        <time>2014-05-08T10:55:23Z</time>
      </trkpt>
      <trkpt lat="45.36822" lon="4.22268">
        <ele>707.19</ele>
        <time>2014-05-08T10:55:34Z</time>
      </trkpt>
      <trkpt lat="45.36822" lon="4.22267">
        <ele>708.63</ele>
        <time>2014-05-08T10:55:36Z</time>
      </trkpt>
      <trkpt lat="45.36832" lon="4.22233">
        <ele>709.59</ele>
        <time>2014-05-08T10:55:47Z</time>
      </trkpt>
      <trkpt lat="45.36815" lon="4.22196">
        <ele>708.63</ele>
        <time>2014-05-08T10:55:57Z</time>
      </trkpt>
      <trkpt lat="45.36807" lon="4.22133">
        <ele>705.26</ele>
        <time>2014-05-08T10:56:07Z</time>
      </trkpt>
      <trkpt lat="45.36803" lon="4.22105">
        <ele>703.82</ele>
        <time>2014-05-08T10:56:11Z</time>
      </trkpt>
      <trkpt lat="45.36801" lon="4.22063">
        <ele>701.42</ele>
        <time>2014-05-08T10:56:16Z</time>
      </trkpt>
      <trkpt lat="45.36802" lon="4.22053">
        <ele>700.94</ele>
        <time>2014-05-08T10:56:17Z</time>
      </trkpt>
      <trkpt lat="45.36806" lon="4.22033">
        <ele>699.02</ele>
        <time>2014-05-08T10:56:19Z</time>
      </trkpt>
      <trkpt lat="45.36806" lon="4.22024">
        <ele>698.53</ele>
        <time>2014-05-08T10:56:20Z</time>
      </trkpt>
      <trkpt lat="45.36807" lon="4.22015">
        <ele>696.13</ele>
        <time>2014-05-08T10:56:21Z</time>
      </trkpt>
      <trkpt lat="45.36808" lon="4.2199">
        <ele>694.21</ele>
        <time>2014-05-08T10:56:24Z</time>
      </trkpt>
      <trkpt lat="45.3681" lon="4.21983">
        <ele>691.33</ele>
        <time>2014-05-08T10:56:25Z</time>
      </trkpt>
      <trkpt lat="45.36812" lon="4.21978">
        <ele>691.33</ele>
        <time>2014-05-08T10:56:26Z</time>
      </trkpt>
      <trkpt lat="45.36825" lon="4.2196">
        <ele>687.96</ele>
        <time>2014-05-08T10:56:30Z</time>
      </trkpt>
      <trkpt lat="45.36828" lon="4.21958">
        <ele>687.96</ele>
        <time>2014-05-08T10:56:31Z</time>
      </trkpt>
      <trkpt lat="45.36837" lon="4.2194">
        <ele>683.63</ele>
        <time>2014-05-08T10:56:37Z</time>
      </trkpt>
      <trkpt lat="45.36853" lon="4.21897">
        <ele>680.75</ele>
        <time>2014-05-08T10:56:45Z</time>
      </trkpt>
      <trkpt lat="45.36871" lon="4.21876">
        <ele>675.94</ele>
        <time>2014-05-08T10:56:50Z</time>
      </trkpt>
      <trkpt lat="45.36875" lon="4.21873">
        <ele>676.42</ele>
        <time>2014-05-08T10:56:51Z</time>
      </trkpt>
      <trkpt lat="45.36879" lon="4.21869">
        <ele>675.46</ele>
        <time>2014-05-08T10:56:52Z</time>
      </trkpt>
      <trkpt lat="45.36892" lon="4.2186">
        <ele>673.06</ele>
        <time>2014-05-08T10:56:55Z</time>
      </trkpt>
      <trkpt lat="45.36896" lon="4.21856">
        <ele>671.62</ele>
        <time>2014-05-08T10:56:56Z</time>
      </trkpt>
      <trkpt lat="45.369" lon="4.2185">
        <ele>671.62</ele>
        <time>2014-05-08T10:56:57Z</time>
      </trkpt>
      <trkpt lat="45.36918" lon="4.21827">
        <ele>667.77</ele>
        <time>2014-05-08T10:57:01Z</time>
      </trkpt>
      <trkpt lat="45.36927" lon="4.21816">
        <ele>664.41</ele>
        <time>2014-05-08T10:57:03Z</time>
      </trkpt>
      <trkpt lat="45.36932" lon="4.21811">
        <ele>665.37</ele>
        <time>2014-05-08T10:57:04Z</time>
      </trkpt>
      <trkpt lat="45.36947" lon="4.21796">
        <ele>661.52</ele>
        <time>2014-05-08T10:57:07Z</time>
      </trkpt>
      <trkpt lat="45.36951" lon="4.21791">
        <ele>661.52</ele>
        <time>2014-05-08T10:57:08Z</time>
      </trkpt>
      <trkpt lat="45.36971" lon="4.21773">
        <ele>657.2</ele>
        <time>2014-05-08T10:57:12Z</time>
      </trkpt>
      <trkpt lat="45.37" lon="4.21745">
        <ele>655.76</ele>
        <time>2014-05-08T10:57:17Z</time>
      </trkpt>
      <trkpt lat="45.37018" lon="4.21726">
        <ele>652.39</ele>
        <time>2014-05-08T10:57:20Z</time>
      </trkpt>
      <trkpt lat="45.37025" lon="4.2172">
        <ele>652.39</ele>
        <time>2014-05-08T10:57:21Z</time>
      </trkpt>
      <trkpt lat="45.3705" lon="4.217">
        <ele>649.51</ele>
        <time>2014-05-08T10:57:25Z</time>
      </trkpt>
      <trkpt lat="45.37066" lon="4.21688">
        <ele>646.62</ele>
        <time>2014-05-08T10:57:28Z</time>
      </trkpt>
      <trkpt lat="45.3707" lon="4.21683">
        <ele>646.14</ele>
        <time>2014-05-08T10:57:29Z</time>
      </trkpt>
      <trkpt lat="45.37074" lon="4.21678">
        <ele>646.14</ele>
        <time>2014-05-08T10:57:30Z</time>
      </trkpt>
      <trkpt lat="45.37078" lon="4.21672">
        <ele>645.18</ele>
        <time>2014-05-08T10:57:31Z</time>
      </trkpt>
      <trkpt lat="45.37081" lon="4.21666">
        <ele>644.7</ele>
        <time>2014-05-08T10:57:32Z</time>
      </trkpt>
      <trkpt lat="45.37084" lon="4.21659">
        <ele>645.66</ele>
        <time>2014-05-08T10:57:33Z</time>
      </trkpt>
      <trkpt lat="45.37093" lon="4.21636">
        <ele>642.3</ele>
        <time>2014-05-08T10:57:36Z</time>
      </trkpt>
      <trkpt lat="45.371" lon="4.21616">
        <ele>639.89</ele>
        <time>2014-05-08T10:57:39Z</time>
      </trkpt>
      <trkpt lat="45.37106" lon="4.21598">
        <ele>636.05</ele>
        <time>2014-05-08T10:57:42Z</time>
      </trkpt>
      <trkpt lat="45.37112" lon="4.21573">
        <ele>632.68</ele>
        <time>2014-05-08T10:57:46Z</time>
      </trkpt>
      <trkpt lat="45.37116" lon="4.21559">
        <ele>631.24</ele>
        <time>2014-05-08T10:57:48Z</time>
      </trkpt>
      <trkpt lat="45.3712" lon="4.21548">
        <ele>630.28</ele>
        <time>2014-05-08T10:57:50Z</time>
      </trkpt>
      <trkpt lat="45.37124" lon="4.21532">
        <ele>626.92</ele>
        <time>2014-05-08T10:57:53Z</time>
      </trkpt>
      <trkpt lat="45.37122" lon="4.21506">
        <ele>623.07</ele>
        <time>2014-05-08T10:58:00Z</time>
      </trkpt>
      <trkpt lat="45.37119" lon="4.21504">
        <ele>624.99</ele>
        <time>2014-05-08T10:58:01Z</time>
      </trkpt>
      <trkpt lat="45.37117" lon="4.21498">
        <ele>623.55</ele>
        <time>2014-05-08T10:58:04Z</time>
      </trkpt>
      <trkpt lat="45.37117" lon="4.21497">
        <ele>623.55</ele>
        <time>2014-05-08T10:58:05Z</time>
      </trkpt>
      <trkpt lat="45.37126" lon="4.21485">
        <ele>621.15</ele>
        <time>2014-05-08T10:58:09Z</time>
      </trkpt>
      <trkpt lat="45.37126" lon="4.21483">
        <ele>620.19</ele>
        <time>2014-05-08T10:58:10Z</time>
      </trkpt>
      <trkpt lat="45.37126" lon="4.2148">
        <ele>621.15</ele>
        <time>2014-05-08T10:58:11Z</time>
      </trkpt>
      <trkpt lat="45.37122" lon="4.21474">
        <ele>617.78</ele>
        <time>2014-05-08T10:58:15Z</time>
      </trkpt>
      <trkpt lat="45.3712" lon="4.21473">
        <ele>618.26</ele>
        <time>2014-05-08T10:58:16Z</time>
      </trkpt>
      <trkpt lat="45.37119" lon="4.21472">
        <ele>617.3</ele>
        <time>2014-05-08T10:58:17Z</time>
      </trkpt>
      <trkpt lat="45.37116" lon="4.21472">
        <ele>616.34</ele>
        <time>2014-05-08T10:58:19Z</time>
      </trkpt>
      <trkpt lat="45.37114" lon="4.21471">
        <ele>616.34</ele>
        <time>2014-05-08T10:58:20Z</time>
      </trkpt>
      <trkpt lat="45.37112" lon="4.2147">
        <ele>615.38</ele>
        <time>2014-05-08T10:58:21Z</time>
      </trkpt>
      <trkpt lat="45.3711" lon="4.21463">
        <ele>614.42</ele>
        <time>2014-05-08T10:58:25Z</time>
      </trkpt>
      <trkpt lat="45.37111" lon="4.21459">
        <ele>613.46</ele>
        <time>2014-05-08T10:58:26Z</time>
      </trkpt>
      <trkpt lat="45.37116" lon="4.21446">
        <ele>612.5</ele>
        <time>2014-05-08T10:58:30Z</time>
      </trkpt>
      <trkpt lat="45.3713" lon="4.21431">
        <ele>607.69</ele>
        <time>2014-05-08T10:58:36Z</time>
      </trkpt>
      <trkpt lat="45.37133" lon="4.21424">
        <ele>607.21</ele>
        <time>2014-05-08T10:58:39Z</time>
      </trkpt>
      <trkpt lat="45.37135" lon="4.21419">
        <ele>607.21</ele>
        <time>2014-05-08T10:58:41Z</time>
      </trkpt>
      <trkpt lat="45.37136" lon="4.21416">
        <ele>603.85</ele>
        <time>2014-05-08T10:58:43Z</time>
      </trkpt>
      <trkpt lat="45.37133" lon="4.21415">
        <ele>603.85</ele>
        <time>2014-05-08T10:58:46Z</time>
      </trkpt>
      <trkpt lat="45.37132" lon="4.21415">
        <ele>603.85</ele>
        <time>2014-05-08T10:58:47Z</time>
      </trkpt>
      <trkpt lat="45.3713" lon="4.21414">
        <ele>603.85</ele>
        <time>2014-05-08T10:58:48Z</time>
      </trkpt>
      <trkpt lat="45.37128" lon="4.21413">
        <ele>603.36</ele>
        <time>2014-05-08T10:58:49Z</time>
      </trkpt>
      <trkpt lat="45.37125" lon="4.21411">
        <ele>602.4</ele>
        <time>2014-05-08T10:58:50Z</time>
      </trkpt>
      <trkpt lat="45.37116" lon="4.2141">
        <ele>599.04</ele>
        <time>2014-05-08T10:58:56Z</time>
      </trkpt>
      <trkpt lat="45.37107" lon="4.21411">
        <ele>597.6</ele>
        <time>2014-05-08T10:59:02Z</time>
      </trkpt>
      <trkpt lat="45.37104" lon="4.21409">
        <ele>597.12</ele>
        <time>2014-05-08T10:59:04Z</time>
      </trkpt>
      <trkpt lat="45.37103" lon="4.21408">
        <ele>595.19</ele>
        <time>2014-05-08T10:59:05Z</time>
      </trkpt>
      <trkpt lat="45.37103" lon="4.21406">
        <ele>595.67</ele>
        <time>2014-05-08T10:59:07Z</time>
      </trkpt>
      <trkpt lat="45.37106" lon="4.21402">
        <ele>594.23</ele>
        <time>2014-05-08T10:59:09Z</time>
      </trkpt>
      <trkpt lat="45.37107" lon="4.214">
        <ele>594.71</ele>
        <time>2014-05-08T10:59:10Z</time>
      </trkpt>
      <trkpt lat="45.37109" lon="4.21392">
        <ele>592.31</ele>
        <time>2014-05-08T10:59:13Z</time>
      </trkpt>
      <trkpt lat="45.37114" lon="4.21384">
        <ele>592.79</ele>
        <time>2014-05-08T10:59:17Z</time>
      </trkpt>
      <trkpt lat="45.37115" lon="4.21384">
        <ele>590.87</ele>
        <time>2014-05-08T10:59:18Z</time>
      </trkpt>
      <trkpt lat="45.37116" lon="4.21385">
        <ele>593.27</ele>
        <time>2014-05-08T10:59:19Z</time>
      </trkpt>
      <trkpt lat="45.37114" lon="4.21384">
        <ele>591.83</ele>
        <time>2014-05-08T10:59:23Z</time>
      </trkpt>
      <trkpt lat="45.37113" lon="4.21382">
        <ele>591.35</ele>
        <time>2014-05-08T10:59:24Z</time>
      </trkpt>
      <trkpt lat="45.37112" lon="4.21379">
        <ele>591.83</ele>
        <time>2014-05-08T10:59:25Z</time>
      </trkpt>
      <trkpt lat="45.37113" lon="4.21377">
        <ele>591.83</ele>
        <time>2014-05-08T10:59:26Z</time>
      </trkpt>
      <trkpt lat="45.37113" lon="4.21374">
        <ele>590.87</ele>
        <time>2014-05-08T10:59:27Z</time>
      </trkpt>
      <trkpt lat="45.37117" lon="4.21367">
        <ele>589.91</ele>
        <time>2014-05-08T10:59:29Z</time>
      </trkpt>
      <trkpt lat="45.37132" lon="4.21356">
        <ele>586.54</ele>
        <time>2014-05-08T10:59:35Z</time>
      </trkpt>
      <trkpt lat="45.37133" lon="4.21355">
        <ele>586.54</ele>
        <time>2014-05-08T10:59:36Z</time>
      </trkpt>
      <trkpt lat="45.37134" lon="4.21351">
        <ele>586.06</ele>
        <time>2014-05-08T10:59:39Z</time>
      </trkpt>
      <trkpt lat="45.37133" lon="4.2135">
        <ele>584.62</ele>
        <time>2014-05-08T10:59:40Z</time>
      </trkpt>
      <trkpt lat="45.37132" lon="4.21348">
        <ele>584.14</ele>
        <time>2014-05-08T10:59:41Z</time>
      </trkpt>
      <trkpt lat="45.37121" lon="4.21338">
        <ele>581.25</ele>
        <time>2014-05-08T10:59:47Z</time>
      </trkpt>
      <trkpt lat="45.3711" lon="4.21337">
        <ele>578.37</ele>
        <time>2014-05-08T10:59:52Z</time>
      </trkpt>
      <trkpt lat="45.37109" lon="4.21336">
        <ele>576.45</ele>
        <time>2014-05-08T10:59:53Z</time>
      </trkpt>
      <trkpt lat="45.37099" lon="4.21333">
        <ele>575.01</ele>
        <time>2014-05-08T10:59:59Z</time>
      </trkpt>
      <trkpt lat="45.37099" lon="4.21331">
        <ele>573.08</ele>
        <time>2014-05-08T11:00:00Z</time>
      </trkpt>
      <trkpt lat="45.37099" lon="4.2133">
        <ele>574.53</ele>
        <time>2014-05-08T11:00:01Z</time>
      </trkpt>
      <trkpt lat="45.37098" lon="4.21328">
        <ele>572.12</ele>
        <time>2014-05-08T11:00:02Z</time>
      </trkpt>
      <trkpt lat="45.37098" lon="4.21327">
        <ele>570.68</ele>
        <time>2014-05-08T11:00:03Z</time>
      </trkpt>
      <trkpt lat="45.371" lon="4.21321">
        <ele>570.2</ele>
        <time>2014-05-08T11:00:07Z</time>
      </trkpt>
      <trkpt lat="45.37106" lon="4.21316">
        <ele>567.32</ele>
        <time>2014-05-08T11:00:11Z</time>
      </trkpt>
      <trkpt lat="45.37123" lon="4.21309">
        <ele>563.95</ele>
        <time>2014-05-08T11:00:17Z</time>
      </trkpt>
      <trkpt lat="45.37126" lon="4.21309">
        <ele>563.47</ele>
        <time>2014-05-08T11:00:18Z</time>
      </trkpt>
      <trkpt lat="45.37134" lon="4.21296">
        <ele>560.59</ele>
        <time>2014-05-08T11:00:20Z</time>
      </trkpt>
      <trkpt lat="45.37138" lon="4.21294">
        <ele>561.55</ele>
        <time>2014-05-08T11:00:21Z</time>
      </trkpt>
      <trkpt lat="45.37141" lon="4.21286">
        <ele>561.55</ele>
        <time>2014-05-08T11:00:23Z</time>
      </trkpt>
      <trkpt lat="45.37142" lon="4.21281">
        <ele>559.62</ele>
        <time>2014-05-08T11:00:24Z</time>
      </trkpt>
      <trkpt lat="45.3714" lon="4.21268">
        <ele>558.18</ele>
        <time>2014-05-08T11:00:27Z</time>
      </trkpt>
      <trkpt lat="45.37139" lon="4.21259">
        <ele>555.78</ele>
        <time>2014-05-08T11:00:29Z</time>
      </trkpt>
      <trkpt lat="45.37136" lon="4.21249">
        <ele>553.86</ele>
        <time>2014-05-08T11:00:32Z</time>
      </trkpt>
      <trkpt lat="45.37131" lon="4.21238">
        <ele>552.41</ele>
        <time>2014-05-08T11:00:37Z</time>
      </trkpt>
      <trkpt lat="45.37124" lon="4.21229">
        <ele>549.53</ele>
        <time>2014-05-08T11:00:43Z</time>
      </trkpt>
      <trkpt lat="45.37122" lon="4.21227">
        <ele>548.09</ele>
        <time>2014-05-08T11:00:44Z</time>
      </trkpt>
      <trkpt lat="45.37119" lon="4.21224">
        <ele>547.61</ele>
        <time>2014-05-08T11:00:46Z</time>
      </trkpt>
      <trkpt lat="45.37116" lon="4.2122">
        <ele>545.69</ele>
        <time>2014-05-08T11:00:48Z</time>
      </trkpt>
      <trkpt lat="45.37108" lon="4.21218">
        <ele>543.76</ele>
        <time>2014-05-08T11:00:52Z</time>
      </trkpt>
      <trkpt lat="45.37081" lon="4.21216">
        <ele>540.88</ele>
        <time>2014-05-08T11:00:59Z</time>
      </trkpt>
      <trkpt lat="45.37065" lon="4.21217">
        <ele>537.99</ele>
        <time>2014-05-08T11:01:05Z</time>
      </trkpt>
      <trkpt lat="45.37052" lon="4.21209">
        <ele>534.63</ele>
        <time>2014-05-08T11:01:09Z</time>
      </trkpt>
      <trkpt lat="45.37054" lon="4.21208">
        <ele>534.63</ele>
        <time>2014-05-08T11:01:10Z</time>
      </trkpt>
      <trkpt lat="45.37072" lon="4.21182">
        <ele>530.79</ele>
        <time>2014-05-08T11:01:14Z</time>
      </trkpt>
      <trkpt lat="45.37076" lon="4.21177">
        <ele>530.3</ele>
        <time>2014-05-08T11:01:15Z</time>
      </trkpt>
      <trkpt lat="45.37079" lon="4.21172">
        <ele>529.34</ele>
        <time>2014-05-08T11:01:16Z</time>
      </trkpt>
      <trkpt lat="45.37093" lon="4.21156">
        <ele>526.46</ele>
        <time>2014-05-08T11:01:21Z</time>
      </trkpt>
      <trkpt lat="45.37095" lon="4.21154">
        <ele>527.9</ele>
        <time>2014-05-08T11:01:22Z</time>
      </trkpt>
      <trkpt lat="45.37098" lon="4.21152">
        <ele>525.98</ele>
        <time>2014-05-08T11:01:23Z</time>
      </trkpt>
      <trkpt lat="45.3709" lon="4.21129">
        <ele>522.13</ele>
        <time>2014-05-08T11:01:29Z</time>
      </trkpt>
      <trkpt lat="45.37097" lon="4.21121">
        <ele>521.17</ele>
        <time>2014-05-08T11:01:36Z</time>
      </trkpt>
      <trkpt lat="45.37102" lon="4.21119">
        <ele>519.25</ele>
        <time>2014-05-08T11:01:38Z</time>
      </trkpt>
      <trkpt lat="45.37103" lon="4.21115">
        <ele>518.29</ele>
        <time>2014-05-08T11:01:40Z</time>
      </trkpt>
      <trkpt lat="45.37101" lon="4.21111">
        <ele>516.85</ele>
        <time>2014-05-08T11:01:42Z</time>
      </trkpt>
      <trkpt lat="45.37099" lon="4.21108">
        <ele>515.4</ele>
        <time>2014-05-08T11:01:43Z</time>
      </trkpt>
      <trkpt lat="45.37088" lon="4.21101">
        <ele>514.44</ele>
        <time>2014-05-08T11:01:45Z</time>
      </trkpt>
      <trkpt lat="45.37079" lon="4.21094">
        <ele>512.52</ele>
        <time>2014-05-08T11:01:47Z</time>
      </trkpt>
      <trkpt lat="45.37069" lon="4.21088">
        <ele>510.6</ele>
        <time>2014-05-08T11:01:49Z</time>
      </trkpt>
      <trkpt lat="45.37053" lon="4.21081">
        <ele>507.23</ele>
        <time>2014-05-08T11:01:52Z</time>
      </trkpt>
      <trkpt lat="45.37049" lon="4.21079">
        <ele>506.75</ele>
        <time>2014-05-08T11:01:53Z</time>
      </trkpt>
      <trkpt lat="45.37048" lon="4.21076">
        <ele>507.23</ele>
        <time>2014-05-08T11:01:54Z</time>
      </trkpt>
      <trkpt lat="45.37049" lon="4.2107">
        <ele>504.83</ele>
        <time>2014-05-08T11:01:56Z</time>
      </trkpt>
      <trkpt lat="45.37056" lon="4.21052">
        <ele>503.39</ele>
        <time>2014-05-08T11:02:00Z</time>
      </trkpt>
      <trkpt lat="45.37064" lon="4.21034">
        <ele>500.02</ele>
        <time>2014-05-08T11:02:03Z</time>
      </trkpt>
      <trkpt lat="45.37066" lon="4.21024">
        <ele>500.02</ele>
        <time>2014-05-08T11:02:04Z</time>
      </trkpt>
      <trkpt lat="45.37069" lon="4.21015">
        <ele>498.58</ele>
        <time>2014-05-08T11:02:05Z</time>
      </trkpt>
      <trkpt lat="45.37073" lon="4.20998">
        <ele>495.7</ele>
        <time>2014-05-08T11:02:07Z</time>
      </trkpt>
      <trkpt lat="45.37082" lon="4.20975">
        <ele>493.77</ele>
        <time>2014-05-08T11:02:09Z</time>
      </trkpt>
      <trkpt lat="45.37085" lon="4.20965">
        <ele>491.37</ele>
        <time>2014-05-08T11:02:10Z</time>
      </trkpt>
      <trkpt lat="45.37091" lon="4.20946">
        <ele>488.49</ele>
        <time>2014-05-08T11:02:12Z</time>
      </trkpt>
      <trkpt lat="45.37094" lon="4.20937">
        <ele>487.05</ele>
        <time>2014-05-08T11:02:13Z</time>
      </trkpt>
      <trkpt lat="45.37097" lon="4.20907">
        <ele>486.08</ele>
        <time>2014-05-08T11:02:17Z</time>
      </trkpt>
      <trkpt lat="45.37099" lon="4.20884">
        <ele>484.64</ele>
        <time>2014-05-08T11:02:20Z</time>
      </trkpt>
      <trkpt lat="45.37098" lon="4.20876">
        <ele>484.16</ele>
        <time>2014-05-08T11:02:21Z</time>
      </trkpt>
      <trkpt lat="45.37092" lon="4.20843">
        <ele>482.24</ele>
        <time>2014-05-08T11:02:25Z</time>
      </trkpt>
      <trkpt lat="45.37091" lon="4.20825">
        <ele>479.84</ele>
        <time>2014-05-08T11:02:29Z</time>
      </trkpt>
      <trkpt lat="45.3708" lon="4.20784">
        <ele>477.91</ele>
        <time>2014-05-08T11:02:37Z</time>
      </trkpt>
      <trkpt lat="45.3708" lon="4.20779">
        <ele>477.43</ele>
        <time>2014-05-08T11:02:38Z</time>
      </trkpt>
      <trkpt lat="45.37078" lon="4.20763">
        <ele>475.51</ele>
        <time>2014-05-08T11:02:45Z</time>
      </trkpt>
      <trkpt lat="45.3708" lon="4.20758">
        <ele>476.95</ele>
        <time>2014-05-08T11:02:46Z</time>
      </trkpt>
      <trkpt lat="45.37096" lon="4.2073">
        <ele>475.51</ele>
        <time>2014-05-08T11:02:52Z</time>
      </trkpt>
      <trkpt lat="45.37098" lon="4.20724">
        <ele>475.51</ele>
        <time>2014-05-08T11:02:53Z</time>
      </trkpt>
      <trkpt lat="45.37096" lon="4.20716">
        <ele>475.51</ele>
        <time>2014-05-08T11:02:55Z</time>
      </trkpt>
      <trkpt lat="45.37082" lon="4.20703">
        <ele>475.51</ele>
        <time>2014-05-08T11:03:00Z</time>
      </trkpt>
      <trkpt lat="45.3708" lon="4.20698">
        <ele>475.03</ele>
        <time>2014-05-08T11:03:01Z</time>
      </trkpt>
      <trkpt lat="45.37078" lon="4.20693">
        <ele>475.51</ele>
        <time>2014-05-08T11:03:02Z</time>
      </trkpt>
      <trkpt lat="45.37071" lon="4.2067">
        <ele>475.51</ele>
        <time>2014-05-08T11:03:06Z</time>
      </trkpt>
      <trkpt lat="45.37068" lon="4.20664">
        <ele>475.51</ele>
        <time>2014-05-08T11:03:07Z</time>
      </trkpt>
      <trkpt lat="45.37023" lon="4.2061">
        <ele>475.03</ele>
        <time>2014-05-08T11:03:21Z</time>
      </trkpt>
      <trkpt lat="45.36979" lon="4.20509">
        <ele>476.47</ele>
        <time>2014-05-08T11:03:40Z</time>
      </trkpt>
      <trkpt lat="45.36971" lon="4.20484">
        <ele>475.51</ele>
        <time>2014-05-08T11:03:45Z</time>
      </trkpt>
      <trkpt lat="45.36971" lon="4.20479">
        <ele>476.47</ele>
        <time>2014-05-08T11:03:46Z</time>
      </trkpt>
      <trkpt lat="45.36961" lon="4.2045">
        <ele>475.99</ele>
        <time>2014-05-08T11:03:51Z</time>
      </trkpt>
      <trkpt lat="45.36958" lon="4.20445">
        <ele>475.99</ele>
        <time>2014-05-08T11:03:52Z</time>
      </trkpt>
      <trkpt lat="45.36947" lon="4.20432">
        <ele>475.51</ele>
        <time>2014-05-08T11:03:55Z</time>
      </trkpt>
      <trkpt lat="45.36943" lon="4.20427">
        <ele>475.03</ele>
        <time>2014-05-08T11:03:56Z</time>
      </trkpt>
      <trkpt lat="45.36941" lon="4.20421">
        <ele>475.51</ele>
        <time>2014-05-08T11:03:57Z</time>
      </trkpt>
      <trkpt lat="45.36939" lon="4.20414">
        <ele>475.51</ele>
        <time>2014-05-08T11:03:58Z</time>
      </trkpt>
      <trkpt lat="45.36938" lon="4.20408">
        <ele>476.47</ele>
        <time>2014-05-08T11:03:59Z</time>
      </trkpt>
      <trkpt lat="45.36938" lon="4.2028">
        <ele>476.47</ele>
        <time>2014-05-08T11:04:16Z</time>
      </trkpt>
      <trkpt lat="45.36947" lon="4.20193">
        <ele>476.95</ele>
        <time>2014-05-08T11:04:27Z</time>
      </trkpt>
      <trkpt lat="45.36951" lon="4.20167">
        <ele>475.51</ele>
        <time>2014-05-08T11:04:31Z</time>
      </trkpt>
      <trkpt lat="45.36954" lon="4.20161">
        <ele>475.99</ele>
        <time>2014-05-08T11:04:32Z</time>
      </trkpt>
      <trkpt lat="45.36957" lon="4.20154">
        <ele>475.51</ele>
        <time>2014-05-08T11:04:33Z</time>
      </trkpt>
      <trkpt lat="45.36961" lon="4.20143">
        <ele>475.99</ele>
        <time>2014-05-08T11:04:35Z</time>
      </trkpt>
      <trkpt lat="45.36962" lon="4.20136">
        <ele>475.51</ele>
        <time>2014-05-08T11:04:36Z</time>
      </trkpt>
      <trkpt lat="45.36964" lon="4.20129">
        <ele>475.99</ele>
        <time>2014-05-08T11:04:37Z</time>
      </trkpt>
      <trkpt lat="45.36961" lon="4.20123">
        <ele>475.03</ele>
        <time>2014-05-08T11:04:38Z</time>
      </trkpt>
      <trkpt lat="45.36945" lon="4.20044">
        <ele>474.55</ele>
        <time>2014-05-08T11:04:50Z</time>
      </trkpt>
      <trkpt lat="45.36954" lon="4.19872">
        <ele>471.66</ele>
        <time>2014-05-08T11:05:10Z</time>
      </trkpt>
      <trkpt lat="45.36956" lon="4.19853">
        <ele>470.7</ele>
        <time>2014-05-08T11:05:12Z</time>
      </trkpt>
      <trkpt lat="45.36977" lon="4.19658">
        <ele>469.74</ele>
        <time>2014-05-08T11:05:31Z</time>
      </trkpt>
      <trkpt lat="45.36992" lon="4.1949">
        <ele>469.26</ele>
        <time>2014-05-08T11:05:49Z</time>
      </trkpt>
      <trkpt lat="45.36994" lon="4.19451">
        <ele>468.78</ele>
        <time>2014-05-08T11:05:54Z</time>
      </trkpt>
      <trkpt lat="45.36995" lon="4.19443">
        <ele>468.78</ele>
        <time>2014-05-08T11:05:55Z</time>
      </trkpt>
      <trkpt lat="45.36997" lon="4.19436">
        <ele>469.74</ele>
        <time>2014-05-08T11:05:56Z</time>
      </trkpt>
      <trkpt lat="45.36998" lon="4.19428">
        <ele>468.78</ele>
        <time>2014-05-08T11:05:57Z</time>
      </trkpt>
      <trkpt lat="45.36999" lon="4.19421">
        <ele>469.74</ele>
        <time>2014-05-08T11:05:58Z</time>
      </trkpt>
      <trkpt lat="45.36998" lon="4.19413">
        <ele>469.74</ele>
        <time>2014-05-08T11:05:59Z</time>
      </trkpt>
      <trkpt lat="45.36996" lon="4.19406">
        <ele>469.74</ele>
        <time>2014-05-08T11:06:00Z</time>
      </trkpt>
      <trkpt lat="45.36992" lon="4.194">
        <ele>469.26</ele>
        <time>2014-05-08T11:06:01Z</time>
      </trkpt>
      <trkpt lat="45.36958" lon="4.19355">
        <ele>470.7</ele>
        <time>2014-05-08T11:06:12Z</time>
      </trkpt>
      <trkpt lat="45.36909" lon="4.19312">
        <ele>474.07</ele>
        <time>2014-05-08T11:06:28Z</time>
      </trkpt>
      <trkpt lat="45.36875" lon="4.19293">
        <ele>474.07</ele>
        <time>2014-05-08T11:06:43Z</time>
      </trkpt>
      <trkpt lat="45.36875" lon="4.19291">
        <ele>474.07</ele>
        <time>2014-05-08T11:06:45Z</time>
      </trkpt>
      <trkpt lat="45.36875" lon="4.19287">
        <ele>475.99</ele>
        <time>2014-05-08T11:06:47Z</time>
      </trkpt>
      <trkpt lat="45.36878" lon="4.19264">
        <ele>479.35</ele>
        <time>2014-05-08T11:06:59Z</time>
      </trkpt>
      <trkpt lat="45.36878" lon="4.19234">
        <ele>482.24</ele>
        <time>2014-05-08T11:07:13Z</time>
      </trkpt>
      <trkpt lat="45.36877" lon="4.19209">
        <ele>485.6</ele>
        <time>2014-05-08T11:07:28Z</time>
      </trkpt>
      <trkpt lat="45.36873" lon="4.19191">
        <ele>488.49</ele>
        <time>2014-05-08T11:07:42Z</time>
      </trkpt>
      <trkpt lat="45.3687" lon="4.19185">
        <ele>488.97</ele>
        <time>2014-05-08T11:07:46Z</time>
      </trkpt>
      <trkpt lat="45.36857" lon="4.19169">
        <ele>492.81</ele>
        <time>2014-05-08T11:08:00Z</time>
      </trkpt>
      <trkpt lat="45.36851" lon="4.19162">
        <ele>494.26</ele>
        <time>2014-05-08T11:08:05Z</time>
      </trkpt>
      <trkpt lat="45.36837" lon="4.19148">
        <ele>495.7</ele>
        <time>2014-05-08T11:08:18Z</time>
      </trkpt>
      <trkpt lat="45.36836" lon="4.19146">
        <ele>495.22</ele>
        <time>2014-05-08T11:08:19Z</time>
      </trkpt>
      <trkpt lat="45.36835" lon="4.19145">
        <ele>496.18</ele>
        <time>2014-05-08T11:08:20Z</time>
      </trkpt>
      <trkpt lat="45.36834" lon="4.19144">
        <ele>497.14</ele>
        <time>2014-05-08T11:08:21Z</time>
      </trkpt>
      <trkpt lat="45.36833" lon="4.19142">
        <ele>496.66</ele>
        <time>2014-05-08T11:08:22Z</time>
      </trkpt>
      <trkpt lat="45.36832" lon="4.19141">
        <ele>496.18</ele>
        <time>2014-05-08T11:08:23Z</time>
      </trkpt>
      <trkpt lat="45.36812" lon="4.19125">
        <ele>499.54</ele>
        <time>2014-05-08T11:08:38Z</time>
      </trkpt>
      <trkpt lat="45.3681" lon="4.19123">
        <ele>499.54</ele>
        <time>2014-05-08T11:08:39Z</time>
      </trkpt>
      <trkpt lat="45.36787" lon="4.19099">
        <ele>500.5</ele>
        <time>2014-05-08T11:08:57Z</time>
      </trkpt>
      <trkpt lat="45.36764" lon="4.19076">
        <ele>503.87</ele>
        <time>2014-05-08T11:09:15Z</time>
      </trkpt>
      <trkpt lat="45.36746" lon="4.1905">
        <ele>506.75</ele>
        <time>2014-05-08T11:09:31Z</time>
      </trkpt>
      <trkpt lat="45.36734" lon="4.19015">
        <ele>509.16</ele>
        <time>2014-05-08T11:09:48Z</time>
      </trkpt>
      <trkpt lat="45.36736" lon="4.1899">
        <ele>510.6</ele>
        <time>2014-05-08T11:09:59Z</time>
      </trkpt>
      <trkpt lat="45.36735" lon="4.18988">
        <ele>511.08</ele>
        <time>2014-05-08T11:10:00Z</time>
      </trkpt>
      <trkpt lat="45.36734" lon="4.18986">
        <ele>510.6</ele>
        <time>2014-05-08T11:10:01Z</time>
      </trkpt>
      <trkpt lat="45.36732" lon="4.18983">
        <ele>509.64</ele>
        <time>2014-05-08T11:10:02Z</time>
      </trkpt>
      <trkpt lat="45.36731" lon="4.18981">
        <ele>510.6</ele>
        <time>2014-05-08T11:10:03Z</time>
      </trkpt>
      <trkpt lat="45.3673" lon="4.18978">
        <ele>512.04</ele>
        <time>2014-05-08T11:10:04Z</time>
      </trkpt>
      <trkpt lat="45.3673" lon="4.18975">
        <ele>510.6</ele>
        <time>2014-05-08T11:10:05Z</time>
      </trkpt>
      <trkpt lat="45.3673" lon="4.18973">
        <ele>511.08</ele>
        <time>2014-05-08T11:10:06Z</time>
      </trkpt>
      <trkpt lat="45.3673" lon="4.1897">
        <ele>511.56</ele>
        <time>2014-05-08T11:10:07Z</time>
      </trkpt>
      <trkpt lat="45.36732" lon="4.18958">
        <ele>512.04</ele>
        <time>2014-05-08T11:10:11Z</time>
      </trkpt>
      <trkpt lat="45.36736" lon="4.18903">
        <ele>513</ele>
        <time>2014-05-08T11:10:26Z</time>
      </trkpt>
      <trkpt lat="45.36734" lon="4.18852">
        <ele>516.37</ele>
        <time>2014-05-08T11:10:40Z</time>
      </trkpt>
      <trkpt lat="45.3673" lon="4.18836">
        <ele>517.33</ele>
        <time>2014-05-08T11:10:47Z</time>
      </trkpt>
      <trkpt lat="45.36716" lon="4.18819">
        <ele>520.69</ele>
        <time>2014-05-08T11:11:00Z</time>
      </trkpt>
      <trkpt lat="45.36702" lon="4.18801">
        <ele>523.58</ele>
        <time>2014-05-08T11:11:15Z</time>
      </trkpt>
      <trkpt lat="45.367" lon="4.18791">
        <ele>524.06</ele>
        <time>2014-05-08T11:11:20Z</time>
      </trkpt>
      <trkpt lat="45.36699" lon="4.1879">
        <ele>525.02</ele>
        <time>2014-05-08T11:11:21Z</time>
      </trkpt>
      <trkpt lat="45.36698" lon="4.1878">
        <ele>525.98</ele>
        <time>2014-05-08T11:11:27Z</time>
      </trkpt>
      <trkpt lat="45.36698" lon="4.18778">
        <ele>526.46</ele>
        <time>2014-05-08T11:11:28Z</time>
      </trkpt>
      <trkpt lat="45.36701" lon="4.18766">
        <ele>528.86</ele>
        <time>2014-05-08T11:11:34Z</time>
      </trkpt>
      <trkpt lat="45.36709" lon="4.18732">
        <ele>531.27</ele>
        <time>2014-05-08T11:11:54Z</time>
      </trkpt>
      <trkpt lat="45.36708" lon="4.18721">
        <ele>530.79</ele>
        <time>2014-05-08T11:12:28Z</time>
      </trkpt>
      <trkpt lat="45.36707" lon="4.18717">
        <ele>530.3</ele>
        <time>2014-05-08T11:13:02Z</time>
      </trkpt>
      <trkpt lat="45.36707" lon="4.18712">
        <ele>530.3</ele>
        <time>2014-05-08T11:13:39Z</time>
      </trkpt>
      <trkpt lat="45.36707" lon="4.18714">
        <ele>529.34</ele>
        <time>2014-05-08T11:14:18Z</time>
      </trkpt>
      <trkpt lat="45.36711" lon="4.1871">
        <ele>529.82</ele>
        <time>2014-05-08T11:14:54Z</time>
      </trkpt>
      <trkpt lat="45.36711" lon="4.18709">
        <ele>530.3</ele>
        <time>2014-05-08T11:15:07Z</time>
      </trkpt>
      <trkpt lat="45.36712" lon="4.18708">
        <ele>529.34</ele>
        <time>2014-05-08T11:15:24Z</time>
      </trkpt>
      <trkpt lat="45.3671" lon="4.1871">
        <ele>528.86</ele>
        <time>2014-05-08T11:16:01Z</time>
      </trkpt>
      <trkpt lat="45.36712" lon="4.18706">
        <ele>528.86</ele>
        <time>2014-05-08T11:16:34Z</time>
      </trkpt>
      <trkpt lat="45.36714" lon="4.18705">
        <ele>528.38</ele>
        <time>2014-05-08T11:17:12Z</time>
      </trkpt>
      <trkpt lat="45.36713" lon="4.18707">
        <ele>527.42</ele>
        <time>2014-05-08T11:17:39Z</time>
      </trkpt>
      <trkpt lat="45.36715" lon="4.1871">
        <ele>528.38</ele>
        <time>2014-05-08T11:17:46Z</time>
      </trkpt>
      <trkpt lat="45.36728" lon="4.18697">
        <ele>531.27</ele>
        <time>2014-05-08T11:17:59Z</time>
      </trkpt>
      <trkpt lat="45.36744" lon="4.18686">
        <ele>534.63</ele>
        <time>2014-05-08T11:18:12Z</time>
      </trkpt>
      <trkpt lat="45.36764" lon="4.18681">
        <ele>537.51</ele>
        <time>2014-05-08T11:18:29Z</time>
      </trkpt>
      <trkpt lat="45.3678" lon="4.1868">
        <ele>541.36</ele>
        <time>2014-05-08T11:18:46Z</time>
      </trkpt>
      <trkpt lat="45.36794" lon="4.18682">
        <ele>544.72</ele>
        <time>2014-05-08T11:19:02Z</time>
      </trkpt>
      <trkpt lat="45.36807" lon="4.1868">
        <ele>548.09</ele>
        <time>2014-05-08T11:19:16Z</time>
      </trkpt>
      <trkpt lat="45.36824" lon="4.18682">
        <ele>551.93</ele>
        <time>2014-05-08T11:19:32Z</time>
      </trkpt>
      <trkpt lat="45.36844" lon="4.18687">
        <ele>555.3</ele>
        <time>2014-05-08T11:19:45Z</time>
      </trkpt>
      <trkpt lat="45.3686" lon="4.18689">
        <ele>558.18</ele>
        <time>2014-05-08T11:19:59Z</time>
      </trkpt>
      <trkpt lat="45.36863" lon="4.18691">
        <ele>559.62</ele>
        <time>2014-05-08T11:20:02Z</time>
      </trkpt>
      <trkpt lat="45.36874" lon="4.18699">
        <ele>561.55</ele>
        <time>2014-05-08T11:20:12Z</time>
      </trkpt>
      <trkpt lat="45.36876" lon="4.187">
        <ele>559.62</ele>
        <time>2014-05-08T11:20:13Z</time>
      </trkpt>
      <trkpt lat="45.36877" lon="4.187">
        <ele>561.07</ele>
        <time>2014-05-08T11:20:14Z</time>
      </trkpt>
      <trkpt lat="45.36879" lon="4.18702">
        <ele>561.55</ele>
        <time>2014-05-08T11:20:16Z</time>
      </trkpt>
      <trkpt lat="45.36885" lon="4.18706">
        <ele>561.07</ele>
        <time>2014-05-08T11:20:21Z</time>
      </trkpt>
      <trkpt lat="45.36886" lon="4.18707">
        <ele>562.99</ele>
        <time>2014-05-08T11:20:22Z</time>
      </trkpt>
      <trkpt lat="45.36894" lon="4.18714">
        <ele>564.43</ele>
        <time>2014-05-08T11:20:29Z</time>
      </trkpt>
      <trkpt lat="45.36902" lon="4.18722">
        <ele>565.39</ele>
        <time>2014-05-08T11:20:35Z</time>
      </trkpt>
      <trkpt lat="45.36906" lon="4.18725">
        <ele>566.83</ele>
        <time>2014-05-08T11:20:38Z</time>
      </trkpt>
      <trkpt lat="45.36907" lon="4.18726">
        <ele>564.91</ele>
        <time>2014-05-08T11:20:39Z</time>
      </trkpt>
      <trkpt lat="45.36918" lon="4.1873">
        <ele>568.28</ele>
        <time>2014-05-08T11:20:49Z</time>
      </trkpt>
      <trkpt lat="45.36934" lon="4.18734">
        <ele>571.64</ele>
        <time>2014-05-08T11:21:01Z</time>
      </trkpt>
      <trkpt lat="45.36949" lon="4.18747">
        <ele>575.01</ele>
        <time>2014-05-08T11:21:16Z</time>
      </trkpt>
      <trkpt lat="45.36951" lon="4.18748">
        <ele>575.49</ele>
        <time>2014-05-08T11:21:18Z</time>
      </trkpt>
      <trkpt lat="45.36959" lon="4.18757">
        <ele>577.89</ele>
        <time>2014-05-08T11:21:27Z</time>
      </trkpt>
      <trkpt lat="45.36967" lon="4.18768">
        <ele>579.81</ele>
        <time>2014-05-08T11:21:35Z</time>
      </trkpt>
      <trkpt lat="45.36972" lon="4.18775">
        <ele>580.77</ele>
        <time>2014-05-08T11:21:40Z</time>
      </trkpt>
      <trkpt lat="45.36976" lon="4.18779">
        <ele>581.25</ele>
        <time>2014-05-08T11:21:43Z</time>
      </trkpt>
      <trkpt lat="45.36989" lon="4.18791">
        <ele>584.14</ele>
        <time>2014-05-08T11:21:54Z</time>
      </trkpt>
      <trkpt lat="45.3702" lon="4.1881">
        <ele>587.5</ele>
        <time>2014-05-08T11:22:12Z</time>
      </trkpt>
      <trkpt lat="45.37044" lon="4.18822">
        <ele>591.35</ele>
        <time>2014-05-08T11:22:27Z</time>
      </trkpt>
      <trkpt lat="45.37064" lon="4.18824">
        <ele>594.71</ele>
        <time>2014-05-08T11:22:42Z</time>
      </trkpt>
      <trkpt lat="45.37068" lon="4.18825">
        <ele>594.71</ele>
        <time>2014-05-08T11:22:46Z</time>
      </trkpt>
      <trkpt lat="45.37073" lon="4.1883">
        <ele>596.15</ele>
        <time>2014-05-08T11:22:52Z</time>
      </trkpt>
      <trkpt lat="45.37085" lon="4.18835">
        <ele>598.08</ele>
        <time>2014-05-08T11:23:01Z</time>
      </trkpt>
      <trkpt lat="45.37106" lon="4.18846">
        <ele>600.48</ele>
        <time>2014-05-08T11:23:18Z</time>
      </trkpt>
      <trkpt lat="45.37123" lon="4.18854">
        <ele>604.33</ele>
        <time>2014-05-08T11:23:33Z</time>
      </trkpt>
      <trkpt lat="45.37134" lon="4.18874">
        <ele>606.25</ele>
        <time>2014-05-08T11:23:47Z</time>
      </trkpt>
      <trkpt lat="45.3714" lon="4.18899">
        <ele>606.73</ele>
        <time>2014-05-08T11:24:05Z</time>
      </trkpt>
      <trkpt lat="45.37141" lon="4.18911">
        <ele>606.25</ele>
        <time>2014-05-08T11:24:09Z</time>
      </trkpt>
      <trkpt lat="45.37142" lon="4.18914">
        <ele>605.77</ele>
        <time>2014-05-08T11:24:10Z</time>
      </trkpt>
      <trkpt lat="45.37176" lon="4.18963">
        <ele>605.29</ele>
        <time>2014-05-08T11:24:23Z</time>
      </trkpt>
      <trkpt lat="45.37213" lon="4.18983">
        <ele>607.69</ele>
        <time>2014-05-08T11:24:36Z</time>
      </trkpt>
      <trkpt lat="45.37216" lon="4.18985">
        <ele>609.13</ele>
        <time>2014-05-08T11:24:37Z</time>
      </trkpt>
      <trkpt lat="45.37243" lon="4.1901">
        <ele>611.54</ele>
        <time>2014-05-08T11:24:51Z</time>
      </trkpt>
      <trkpt lat="45.37245" lon="4.19012">
        <ele>610.09</ele>
        <time>2014-05-08T11:24:52Z</time>
      </trkpt>
      <trkpt lat="45.37253" lon="4.19017">
        <ele>611.54</ele>
        <time>2014-05-08T11:24:56Z</time>
      </trkpt>
      <trkpt lat="45.37255" lon="4.19018">
        <ele>610.09</ele>
        <time>2014-05-08T11:24:57Z</time>
      </trkpt>
      <trkpt lat="45.37257" lon="4.19019">
        <ele>611.54</ele>
        <time>2014-05-08T11:24:58Z</time>
      </trkpt>
      <trkpt lat="45.37261" lon="4.19023">
        <ele>612.02</ele>
        <time>2014-05-08T11:25:00Z</time>
      </trkpt>
      <trkpt lat="45.37271" lon="4.19033">
        <ele>612.98</ele>
        <time>2014-05-08T11:25:07Z</time>
      </trkpt>
      <trkpt lat="45.37282" lon="4.19047">
        <ele>614.42</ele>
        <time>2014-05-08T11:25:16Z</time>
      </trkpt>
      <trkpt lat="45.37285" lon="4.19051">
        <ele>616.82</ele>
        <time>2014-05-08T11:25:19Z</time>
      </trkpt>
      <trkpt lat="45.37286" lon="4.19054">
        <ele>614.9</ele>
        <time>2014-05-08T11:25:20Z</time>
      </trkpt>
      <trkpt lat="45.37288" lon="4.19058">
        <ele>616.34</ele>
        <time>2014-05-08T11:25:22Z</time>
      </trkpt>
      <trkpt lat="45.37303" lon="4.19083">
        <ele>618.26</ele>
        <time>2014-05-08T11:25:34Z</time>
      </trkpt>
      <trkpt lat="45.37306" lon="4.19087">
        <ele>616.82</ele>
        <time>2014-05-08T11:25:36Z</time>
      </trkpt>
      <trkpt lat="45.37309" lon="4.1909">
        <ele>618.26</ele>
        <time>2014-05-08T11:25:38Z</time>
      </trkpt>
      <trkpt lat="45.37336" lon="4.19111">
        <ele>620.67</ele>
        <time>2014-05-08T11:25:54Z</time>
      </trkpt>
      <trkpt lat="45.37345" lon="4.19113">
        <ele>622.11</ele>
        <time>2014-05-08T11:25:59Z</time>
      </trkpt>
      <trkpt lat="45.37357" lon="4.19119">
        <ele>624.03</ele>
        <time>2014-05-08T11:26:06Z</time>
      </trkpt>
      <trkpt lat="45.37385" lon="4.19135">
        <ele>625.96</ele>
        <time>2014-05-08T11:26:20Z</time>
      </trkpt>
      <trkpt lat="45.37419" lon="4.1915">
        <ele>627.88</ele>
        <time>2014-05-08T11:26:36Z</time>
      </trkpt>
      <trkpt lat="45.37433" lon="4.19156">
        <ele>626.44</ele>
        <time>2014-05-08T11:26:42Z</time>
      </trkpt>
      <trkpt lat="45.37435" lon="4.19157">
        <ele>626.92</ele>
        <time>2014-05-08T11:26:43Z</time>
      </trkpt>
      <trkpt lat="45.37436" lon="4.19159">
        <ele>626.92</ele>
        <time>2014-05-08T11:26:44Z</time>
      </trkpt>
      <trkpt lat="45.37438" lon="4.1916">
        <ele>627.88</ele>
        <time>2014-05-08T11:26:45Z</time>
      </trkpt>
      <trkpt lat="45.37439" lon="4.19162">
        <ele>627.4</ele>
        <time>2014-05-08T11:26:46Z</time>
      </trkpt>
      <trkpt lat="45.3744" lon="4.19165">
        <ele>627.88</ele>
        <time>2014-05-08T11:26:50Z</time>
      </trkpt>
      <trkpt lat="45.37443" lon="4.19171">
        <ele>629.8</ele>
        <time>2014-05-08T11:26:54Z</time>
      </trkpt>
      <trkpt lat="45.37445" lon="4.19174">
        <ele>629.8</ele>
        <time>2014-05-08T11:26:56Z</time>
      </trkpt>
      <trkpt lat="45.37446" lon="4.19175">
        <ele>630.76</ele>
        <time>2014-05-08T11:26:57Z</time>
      </trkpt>
      <trkpt lat="45.37466" lon="4.19219">
        <ele>630.28</ele>
        <time>2014-05-08T11:27:11Z</time>
      </trkpt>
      <trkpt lat="45.37475" lon="4.19238">
        <ele>629.32</ele>
        <time>2014-05-08T11:27:16Z</time>
      </trkpt>
      <trkpt lat="45.37506" lon="4.19263">
        <ele>632.68</ele>
        <time>2014-05-08T11:27:28Z</time>
      </trkpt>
      <trkpt lat="45.37533" lon="4.19266">
        <ele>635.57</ele>
        <time>2014-05-08T11:27:40Z</time>
      </trkpt>
      <trkpt lat="45.37558" lon="4.19264">
        <ele>636.53</ele>
        <time>2014-05-08T11:27:53Z</time>
      </trkpt>
      <trkpt lat="45.3757" lon="4.1927">
        <ele>637.49</ele>
        <time>2014-05-08T11:28:00Z</time>
      </trkpt>
      <trkpt lat="45.37572" lon="4.19271">
        <ele>637.01</ele>
        <time>2014-05-08T11:28:01Z</time>
      </trkpt>
      <trkpt lat="45.37574" lon="4.19271">
        <ele>637.01</ele>
        <time>2014-05-08T11:28:02Z</time>
      </trkpt>
      <trkpt lat="45.37608" lon="4.19263">
        <ele>637.01</ele>
        <time>2014-05-08T11:28:15Z</time>
      </trkpt>
      <trkpt lat="45.37642" lon="4.1924">
        <ele>634.13</ele>
        <time>2014-05-08T11:28:23Z</time>
      </trkpt>
      <trkpt lat="45.37647" lon="4.1924">
        <ele>631.72</ele>
        <time>2014-05-08T11:28:24Z</time>
      </trkpt>
      <trkpt lat="45.37653" lon="4.1924">
        <ele>631.72</ele>
        <time>2014-05-08T11:28:25Z</time>
      </trkpt>
      <trkpt lat="45.37658" lon="4.1924">
        <ele>632.2</ele>
        <time>2014-05-08T11:28:26Z</time>
      </trkpt>
      <trkpt lat="45.37664" lon="4.19238">
        <ele>630.76</ele>
        <time>2014-05-08T11:28:27Z</time>
      </trkpt>
      <trkpt lat="45.3767" lon="4.19236">
        <ele>631.72</ele>
        <time>2014-05-08T11:28:28Z</time>
      </trkpt>
      <trkpt lat="45.3768" lon="4.19233">
        <ele>629.32</ele>
        <time>2014-05-08T11:28:30Z</time>
      </trkpt>
      <trkpt lat="45.37685" lon="4.19231">
        <ele>629.8</ele>
        <time>2014-05-08T11:28:31Z</time>
      </trkpt>
      <trkpt lat="45.37688" lon="4.19229">
        <ele>629.32</ele>
        <time>2014-05-08T11:28:32Z</time>
      </trkpt>
      <trkpt lat="45.37691" lon="4.19228">
        <ele>629.8</ele>
        <time>2014-05-08T11:28:33Z</time>
      </trkpt>
      <trkpt lat="45.37693" lon="4.19226">
        <ele>629.8</ele>
        <time>2014-05-08T11:28:34Z</time>
      </trkpt>
      <trkpt lat="45.37695" lon="4.19225">
        <ele>630.76</ele>
        <time>2014-05-08T11:28:35Z</time>
      </trkpt>
      <trkpt lat="45.37706" lon="4.19216">
        <ele>635.09</ele>
        <time>2014-05-08T11:28:43Z</time>
      </trkpt>
      <trkpt lat="45.37708" lon="4.19215">
        <ele>635.09</ele>
        <time>2014-05-08T11:28:44Z</time>
      </trkpt>
      <trkpt lat="45.37711" lon="4.19211">
        <ele>637.01</ele>
        <time>2014-05-08T11:28:47Z</time>
      </trkpt>
      <trkpt lat="45.37718" lon="4.19203">
        <ele>637.01</ele>
        <time>2014-05-08T11:28:58Z</time>
      </trkpt>
      <trkpt lat="45.37725" lon="4.19195">
        <ele>640.38</ele>
        <time>2014-05-08T11:29:15Z</time>
      </trkpt>
      <trkpt lat="45.37725" lon="4.19194">
        <ele>640.38</ele>
        <time>2014-05-08T11:29:16Z</time>
      </trkpt>
      <trkpt lat="45.37727" lon="4.19185">
        <ele>642.3</ele>
        <time>2014-05-08T11:29:33Z</time>
      </trkpt>
      <trkpt lat="45.37728" lon="4.19173">
        <ele>643.74</ele>
        <time>2014-05-08T11:29:48Z</time>
      </trkpt>
      <trkpt lat="45.37727" lon="4.19171">
        <ele>645.66</ele>
        <time>2014-05-08T11:29:50Z</time>
      </trkpt>
      <trkpt lat="45.37724" lon="4.19168">
        <ele>647.1</ele>
        <time>2014-05-08T11:30:06Z</time>
      </trkpt>
      <trkpt lat="45.37724" lon="4.19165">
        <ele>646.14</ele>
        <time>2014-05-08T11:30:12Z</time>
      </trkpt>
      <trkpt lat="45.37723" lon="4.1914">
        <ele>642.78</ele>
        <time>2014-05-08T11:30:19Z</time>
      </trkpt>
      <trkpt lat="45.37723" lon="4.19131">
        <ele>642.78</ele>
        <time>2014-05-08T11:30:21Z</time>
      </trkpt>
      <trkpt lat="45.37726" lon="4.19118">
        <ele>640.38</ele>
        <time>2014-05-08T11:30:25Z</time>
      </trkpt>
      <trkpt lat="45.37728" lon="4.19116">
        <ele>638.93</ele>
        <time>2014-05-08T11:30:27Z</time>
      </trkpt>
      <trkpt lat="45.37733" lon="4.19111">
        <ele>634.61</ele>
        <time>2014-05-08T11:30:32Z</time>
      </trkpt>
      <trkpt lat="45.37734" lon="4.19112">
        <ele>634.61</ele>
        <time>2014-05-08T11:30:33Z</time>
      </trkpt>
      <trkpt lat="45.37738" lon="4.19112">
        <ele>630.76</ele>
        <time>2014-05-08T11:30:36Z</time>
      </trkpt>
      <trkpt lat="45.37742" lon="4.19111">
        <ele>629.32</ele>
        <time>2014-05-08T11:30:37Z</time>
      </trkpt>
      <trkpt lat="45.37759" lon="4.1911">
        <ele>626.92</ele>
        <time>2014-05-08T11:30:40Z</time>
      </trkpt>
      <trkpt lat="45.37765" lon="4.19115">
        <ele>625.96</ele>
        <time>2014-05-08T11:30:43Z</time>
      </trkpt>
      <trkpt lat="45.37767" lon="4.19127">
        <ele>622.11</ele>
        <time>2014-05-08T11:30:46Z</time>
      </trkpt>
      <trkpt lat="45.37773" lon="4.19133">
        <ele>622.11</ele>
        <time>2014-05-08T11:30:47Z</time>
      </trkpt>
      <trkpt lat="45.37777" lon="4.19137">
        <ele>621.63</ele>
        <time>2014-05-08T11:30:48Z</time>
      </trkpt>
      <trkpt lat="45.37781" lon="4.19142">
        <ele>618.75</ele>
        <time>2014-05-08T11:30:52Z</time>
      </trkpt>
      <trkpt lat="45.37788" lon="4.19144">
        <ele>614.42</ele>
        <time>2014-05-08T11:31:00Z</time>
      </trkpt>
      <trkpt lat="45.37788" lon="4.19145">
        <ele>613.94</ele>
        <time>2014-05-08T11:31:01Z</time>
      </trkpt>
      <trkpt lat="45.37791" lon="4.19141">
        <ele>612.98</ele>
        <time>2014-05-08T11:31:03Z</time>
      </trkpt>
      <trkpt lat="45.37797" lon="4.19134">
        <ele>612.5</ele>
        <time>2014-05-08T11:31:05Z</time>
      </trkpt>
      <trkpt lat="45.37822" lon="4.19112">
        <ele>610.57</ele>
        <time>2014-05-08T11:31:11Z</time>
      </trkpt>
      <trkpt lat="45.37831" lon="4.19111">
        <ele>610.09</ele>
        <time>2014-05-08T11:31:12Z</time>
      </trkpt>
      <trkpt lat="45.37838" lon="4.19109">
        <ele>609.61</ele>
        <time>2014-05-08T11:31:13Z</time>
      </trkpt>
      <trkpt lat="45.37846" lon="4.19108">
        <ele>610.09</ele>
        <time>2014-05-08T11:31:14Z</time>
      </trkpt>
      <trkpt lat="45.37853" lon="4.19107">
        <ele>608.17</ele>
        <time>2014-05-08T11:31:15Z</time>
      </trkpt>
      <trkpt lat="45.37859" lon="4.19107">
        <ele>608.65</ele>
        <time>2014-05-08T11:31:16Z</time>
      </trkpt>
      <trkpt lat="45.37865" lon="4.19107">
        <ele>606.73</ele>
        <time>2014-05-08T11:31:17Z</time>
      </trkpt>
      <trkpt lat="45.37874" lon="4.19108">
        <ele>606.25</ele>
        <time>2014-05-08T11:31:19Z</time>
      </trkpt>
      <trkpt lat="45.37886" lon="4.19118">
        <ele>603.36</ele>
        <time>2014-05-08T11:31:22Z</time>
      </trkpt>
      <trkpt lat="45.37888" lon="4.19122">
        <ele>599.52</ele>
        <time>2014-05-08T11:31:23Z</time>
      </trkpt>
      <trkpt lat="45.37888" lon="4.19126">
        <ele>602.88</ele>
        <time>2014-05-08T11:31:24Z</time>
      </trkpt>
      <trkpt lat="45.37876" lon="4.1914">
        <ele>601.44</ele>
        <time>2014-05-08T11:31:34Z</time>
      </trkpt>
      <trkpt lat="45.37861" lon="4.19164">
        <ele>603.36</ele>
        <time>2014-05-08T11:31:47Z</time>
      </trkpt>
      <trkpt lat="45.37864" lon="4.19193">
        <ele>604.33</ele>
        <time>2014-05-08T11:32:00Z</time>
      </trkpt>
      <trkpt lat="45.37852" lon="4.19216">
        <ele>605.77</ele>
        <time>2014-05-08T11:32:13Z</time>
      </trkpt>
      <trkpt lat="45.3785" lon="4.19224">
        <ele>607.21</ele>
        <time>2014-05-08T11:32:18Z</time>
      </trkpt>
      <trkpt lat="45.37846" lon="4.19234">
        <ele>610.57</ele>
        <time>2014-05-08T11:32:26Z</time>
      </trkpt>
      <trkpt lat="45.37845" lon="4.19249">
        <ele>613.94</ele>
        <time>2014-05-08T11:32:36Z</time>
      </trkpt>
      <trkpt lat="45.37845" lon="4.19251">
        <ele>613.94</ele>
        <time>2014-05-08T11:32:37Z</time>
      </trkpt>
      <trkpt lat="45.37844" lon="4.19259">
        <ele>614.42</ele>
        <time>2014-05-08T11:32:41Z</time>
      </trkpt>
      <trkpt lat="45.37841" lon="4.19295">
        <ele>616.82</ele>
        <time>2014-05-08T11:32:56Z</time>
      </trkpt>
      <trkpt lat="45.37841" lon="4.19314">
        <ele>618.26</ele>
        <time>2014-05-08T11:33:04Z</time>
      </trkpt>
      <trkpt lat="45.37833" lon="4.19326">
        <ele>619.71</ele>
        <time>2014-05-08T11:33:12Z</time>
      </trkpt>
      <trkpt lat="45.37827" lon="4.19337">
        <ele>618.75</ele>
        <time>2014-05-08T11:33:34Z</time>
      </trkpt>
      <trkpt lat="45.37828" lon="4.19351">
        <ele>621.15</ele>
        <time>2014-05-08T11:33:51Z</time>
      </trkpt>
      <trkpt lat="45.37834" lon="4.19356">
        <ele>623.07</ele>
        <time>2014-05-08T11:34:07Z</time>
      </trkpt>
      <trkpt lat="45.3784" lon="4.19348">
        <ele>624.51</ele>
        <time>2014-05-08T11:34:23Z</time>
      </trkpt>
      <trkpt lat="45.37843" lon="4.19344">
        <ele>625.47</ele>
        <time>2014-05-08T11:34:29Z</time>
      </trkpt>
      <trkpt lat="45.37852" lon="4.19335">
        <ele>626.92</ele>
        <time>2014-05-08T11:34:47Z</time>
      </trkpt>
      <trkpt lat="45.3786" lon="4.19331">
        <ele>629.8</ele>
        <time>2014-05-08T11:34:57Z</time>
      </trkpt>
      <trkpt lat="45.37871" lon="4.19326">
        <ele>631.24</ele>
        <time>2014-05-08T11:35:13Z</time>
      </trkpt>
      <trkpt lat="45.37876" lon="4.19324">
        <ele>632.68</ele>
        <time>2014-05-08T11:35:20Z</time>
      </trkpt>
      <trkpt lat="45.3788" lon="4.19324">
        <ele>633.17</ele>
        <time>2014-05-08T11:35:40Z</time>
      </trkpt>
      <trkpt lat="45.37888" lon="4.19326">
        <ele>635.09</ele>
        <time>2014-05-08T11:35:58Z</time>
      </trkpt>
      <trkpt lat="45.37896" lon="4.19333">
        <ele>637.49</ele>
        <time>2014-05-08T11:36:20Z</time>
      </trkpt>
      <trkpt lat="45.37911" lon="4.19337">
        <ele>641.34</ele>
        <time>2014-05-08T11:36:35Z</time>
      </trkpt>
      <trkpt lat="45.3792" lon="4.19338">
        <ele>643.26</ele>
        <time>2014-05-08T11:36:49Z</time>
      </trkpt>
      <trkpt lat="45.37923" lon="4.19337">
        <ele>644.22</ele>
        <time>2014-05-08T11:36:55Z</time>
      </trkpt>
      <trkpt lat="45.37933" lon="4.19341">
        <ele>645.66</ele>
        <time>2014-05-08T11:37:11Z</time>
      </trkpt>
      <trkpt lat="45.37938" lon="4.19342">
        <ele>647.59</ele>
        <time>2014-05-08T11:37:29Z</time>
      </trkpt>
      <trkpt lat="45.37949" lon="4.19343">
        <ele>650.95</ele>
        <time>2014-05-08T11:37:48Z</time>
      </trkpt>
      <trkpt lat="45.37953" lon="4.19346">
        <ele>654.31</ele>
        <time>2014-05-08T11:38:05Z</time>
      </trkpt>
      <trkpt lat="45.37947" lon="4.19361">
        <ele>655.76</ele>
        <time>2014-05-08T11:38:24Z</time>
      </trkpt>
      <trkpt lat="45.37946" lon="4.19371">
        <ele>657.2</ele>
        <time>2014-05-08T11:38:33Z</time>
      </trkpt>
      <trkpt lat="45.37942" lon="4.19384">
        <ele>659.6</ele>
        <time>2014-05-08T11:38:48Z</time>
      </trkpt>
      <trkpt lat="45.37943" lon="4.19387">
        <ele>659.12</ele>
        <time>2014-05-08T11:38:58Z</time>
      </trkpt>
      <trkpt lat="45.37939" lon="4.19398">
        <ele>659.6</ele>
        <time>2014-05-08T11:39:05Z</time>
      </trkpt>
      <trkpt lat="45.37938" lon="4.19422">
        <ele>661.04</ele>
        <time>2014-05-08T11:39:18Z</time>
      </trkpt>
      <trkpt lat="45.37954" lon="4.19429">
        <ele>665.37</ele>
        <time>2014-05-08T11:39:31Z</time>
      </trkpt>
      <trkpt lat="45.37955" lon="4.19428">
        <ele>665.85</ele>
        <time>2014-05-08T11:39:32Z</time>
      </trkpt>
      <trkpt lat="45.37977" lon="4.19416">
        <ele>666.81</ele>
        <time>2014-05-08T11:39:49Z</time>
      </trkpt>
      <trkpt lat="45.37979" lon="4.19417">
        <ele>667.77</ele>
        <time>2014-05-08T11:39:51Z</time>
      </trkpt>
      <trkpt lat="45.37985" lon="4.19418">
        <ele>669.7</ele>
        <time>2014-05-08T11:39:56Z</time>
      </trkpt>
      <trkpt lat="45.37987" lon="4.1942">
        <ele>669.7</ele>
        <time>2014-05-08T11:39:59Z</time>
      </trkpt>
      <trkpt lat="45.37999" lon="4.19421">
        <ele>672.58</ele>
        <time>2014-05-08T11:40:10Z</time>
      </trkpt>
      <trkpt lat="45.38018" lon="4.19415">
        <ele>673.54</ele>
        <time>2014-05-08T11:40:25Z</time>
      </trkpt>
      <trkpt lat="45.38025" lon="4.19417">
        <ele>678.35</ele>
        <time>2014-05-08T11:40:34Z</time>
      </trkpt>
      <trkpt lat="45.38028" lon="4.1942">
        <ele>678.35</ele>
        <time>2014-05-08T11:40:39Z</time>
      </trkpt>
      <trkpt lat="45.38036" lon="4.19423">
        <ele>680.27</ele>
        <time>2014-05-08T11:40:45Z</time>
      </trkpt>
      <trkpt lat="45.38049" lon="4.1943">
        <ele>681.71</ele>
        <time>2014-05-08T11:40:55Z</time>
      </trkpt>
      <trkpt lat="45.3805" lon="4.19441">
        <ele>682.19</ele>
        <time>2014-05-08T11:41:03Z</time>
      </trkpt>
      <trkpt lat="45.38066" lon="4.19461">
        <ele>684.12</ele>
        <time>2014-05-08T11:41:20Z</time>
      </trkpt>
      <trkpt lat="45.38074" lon="4.1948">
        <ele>683.15</ele>
        <time>2014-05-08T11:41:38Z</time>
      </trkpt>
      <trkpt lat="45.38082" lon="4.19484">
        <ele>683.15</ele>
        <time>2014-05-08T11:42:08Z</time>
      </trkpt>
      <trkpt lat="45.3808" lon="4.19478">
        <ele>681.23</ele>
        <time>2014-05-08T11:42:26Z</time>
      </trkpt>
      <trkpt lat="45.38082" lon="4.19481">
        <ele>682.19</ele>
        <time>2014-05-08T11:43:00Z</time>
      </trkpt>
      <trkpt lat="45.3808" lon="4.19473">
        <ele>682.19</ele>
        <time>2014-05-08T11:43:35Z</time>
      </trkpt>
      <trkpt lat="45.38079" lon="4.19473">
        <ele>682.19</ele>
        <time>2014-05-08T11:43:36Z</time>
      </trkpt>
      <trkpt lat="45.38079" lon="4.19471">
        <ele>680.27</ele>
        <time>2014-05-08T11:43:44Z</time>
      </trkpt>
      <trkpt lat="45.38077" lon="4.19472">
        <ele>680.75</ele>
        <time>2014-05-08T11:43:57Z</time>
      </trkpt>
      <trkpt lat="45.38078" lon="4.19473">
        <ele>680.75</ele>
        <time>2014-05-08T11:44:32Z</time>
      </trkpt>
      <trkpt lat="45.38075" lon="4.19472">
        <ele>682.67</ele>
        <time>2014-05-08T11:44:47Z</time>
      </trkpt>
      <trkpt lat="45.38071" lon="4.19478">
        <ele>682.19</ele>
        <time>2014-05-08T11:45:04Z</time>
      </trkpt>
      <trkpt lat="45.38077" lon="4.19476">
        <ele>681.71</ele>
        <time>2014-05-08T11:45:18Z</time>
      </trkpt>
      <trkpt lat="45.38077" lon="4.1947">
        <ele>681.23</ele>
        <time>2014-05-08T11:45:39Z</time>
      </trkpt>
      <trkpt lat="45.38079" lon="4.1947">
        <ele>680.75</ele>
        <time>2014-05-08T11:46:09Z</time>
      </trkpt>
      <trkpt lat="45.38075" lon="4.1948">
        <ele>680.75</ele>
        <time>2014-05-08T11:46:29Z</time>
      </trkpt>
      <trkpt lat="45.38078" lon="4.19482">
        <ele>680.27</ele>
        <time>2014-05-08T11:46:52Z</time>
      </trkpt>
      <trkpt lat="45.3808" lon="4.19471">
        <ele>680.27</ele>
        <time>2014-05-08T11:47:16Z</time>
      </trkpt>
      <trkpt lat="45.38077" lon="4.19468">
        <ele>680.27</ele>
        <time>2014-05-08T11:47:37Z</time>
      </trkpt>
      <trkpt lat="45.38071" lon="4.19463">
        <ele>679.31</ele>
        <time>2014-05-08T11:48:07Z</time>
      </trkpt>
      <trkpt lat="45.38075" lon="4.19471">
        <ele>680.27</ele>
        <time>2014-05-08T11:48:17Z</time>
      </trkpt>
      <trkpt lat="45.38076" lon="4.19468">
        <ele>679.79</ele>
        <time>2014-05-08T11:48:38Z</time>
      </trkpt>
      <trkpt lat="45.38078" lon="4.19473">
        <ele>680.27</ele>
        <time>2014-05-08T11:48:43Z</time>
      </trkpt>
      <trkpt lat="45.38075" lon="4.19469">
        <ele>679.31</ele>
        <time>2014-05-08T11:49:06Z</time>
      </trkpt>
      <trkpt lat="45.38075" lon="4.19475">
        <ele>678.83</ele>
        <time>2014-05-08T11:49:29Z</time>
      </trkpt>
      <trkpt lat="45.38077" lon="4.19469">
        <ele>677.87</ele>
        <time>2014-05-08T11:49:57Z</time>
      </trkpt>
      <trkpt lat="45.38082" lon="4.19471">
        <ele>679.31</ele>
        <time>2014-05-08T11:50:30Z</time>
      </trkpt>
      <trkpt lat="45.38083" lon="4.19474">
        <ele>677.87</ele>
        <time>2014-05-08T11:50:48Z</time>
      </trkpt>
      <trkpt lat="45.38083" lon="4.19475">
        <ele>678.83</ele>
        <time>2014-05-08T11:50:50Z</time>
      </trkpt>
      <trkpt lat="45.38076" lon="4.1948">
        <ele>678.35</ele>
        <time>2014-05-08T11:50:56Z</time>
      </trkpt>
      <trkpt lat="45.38044" lon="4.19505">
        <ele>677.87</ele>
        <time>2014-05-08T11:51:06Z</time>
      </trkpt>
      <trkpt lat="45.38034" lon="4.19518">
        <ele>675.94</ele>
        <time>2014-05-08T11:51:09Z</time>
      </trkpt>
      <trkpt lat="45.38003" lon="4.1956">
        <ele>672.1</ele>
        <time>2014-05-08T11:51:16Z</time>
      </trkpt>
      <trkpt lat="45.37985" lon="4.19586">
        <ele>669.7</ele>
        <time>2014-05-08T11:51:20Z</time>
      </trkpt>
      <trkpt lat="45.37982" lon="4.19593">
        <ele>670.66</ele>
        <time>2014-05-08T11:51:21Z</time>
      </trkpt>
      <trkpt lat="45.37978" lon="4.196">
        <ele>670.18</ele>
        <time>2014-05-08T11:51:22Z</time>
      </trkpt>
      <trkpt lat="45.37975" lon="4.19607">
        <ele>670.18</ele>
        <time>2014-05-08T11:51:23Z</time>
      </trkpt>
      <trkpt lat="45.37971" lon="4.19614">
        <ele>669.7</ele>
        <time>2014-05-08T11:51:24Z</time>
      </trkpt>
      <trkpt lat="45.37968" lon="4.19621">
        <ele>668.25</ele>
        <time>2014-05-08T11:51:25Z</time>
      </trkpt>
      <trkpt lat="45.37965" lon="4.19628">
        <ele>667.77</ele>
        <time>2014-05-08T11:51:26Z</time>
      </trkpt>
      <trkpt lat="45.37962" lon="4.19636">
        <ele>667.29</ele>
        <time>2014-05-08T11:51:27Z</time>
      </trkpt>
      <trkpt lat="45.37959" lon="4.19654">
        <ele>664.41</ele>
        <time>2014-05-08T11:51:29Z</time>
      </trkpt>
      <trkpt lat="45.37955" lon="4.19671">
        <ele>660.08</ele>
        <time>2014-05-08T11:51:31Z</time>
      </trkpt>
      <trkpt lat="45.37953" lon="4.19687">
        <ele>658.16</ele>
        <time>2014-05-08T11:51:33Z</time>
      </trkpt>
      <trkpt lat="45.37953" lon="4.19695">
        <ele>657.2</ele>
        <time>2014-05-08T11:51:34Z</time>
      </trkpt>
      <trkpt lat="45.37954" lon="4.19703">
        <ele>656.72</ele>
        <time>2014-05-08T11:51:35Z</time>
      </trkpt>
      <trkpt lat="45.37957" lon="4.1971">
        <ele>655.28</ele>
        <time>2014-05-08T11:51:36Z</time>
      </trkpt>
      <trkpt lat="45.3796" lon="4.19714">
        <ele>655.28</ele>
        <time>2014-05-08T11:51:37Z</time>
      </trkpt>
      <trkpt lat="45.37964" lon="4.19716">
        <ele>655.76</ele>
        <time>2014-05-08T11:51:38Z</time>
      </trkpt>
      <trkpt lat="45.37968" lon="4.19718">
        <ele>655.28</ele>
        <time>2014-05-08T11:51:39Z</time>
      </trkpt>
      <trkpt lat="45.37972" lon="4.19719">
        <ele>656.24</ele>
        <time>2014-05-08T11:51:40Z</time>
      </trkpt>
      <trkpt lat="45.37975" lon="4.19721">
        <ele>655.28</ele>
        <time>2014-05-08T11:51:41Z</time>
      </trkpt>
      <trkpt lat="45.37977" lon="4.19724">
        <ele>656.24</ele>
        <time>2014-05-08T11:51:42Z</time>
      </trkpt>
      <trkpt lat="45.37979" lon="4.19728">
        <ele>655.28</ele>
        <time>2014-05-08T11:51:43Z</time>
      </trkpt>
      <trkpt lat="45.37981" lon="4.19732">
        <ele>654.8</ele>
        <time>2014-05-08T11:51:44Z</time>
      </trkpt>
      <trkpt lat="45.37983" lon="4.19736">
        <ele>653.83</ele>
        <time>2014-05-08T11:51:45Z</time>
      </trkpt>
      <trkpt lat="45.37989" lon="4.1975">
        <ele>649.03</ele>
        <time>2014-05-08T11:51:48Z</time>
      </trkpt>
      <trkpt lat="45.38" lon="4.19765">
        <ele>645.66</ele>
        <time>2014-05-08T11:51:51Z</time>
      </trkpt>
      <trkpt lat="45.38003" lon="4.19769">
        <ele>644.7</ele>
        <time>2014-05-08T11:51:52Z</time>
      </trkpt>
      <trkpt lat="45.38012" lon="4.19779">
        <ele>641.34</ele>
        <time>2014-05-08T11:51:54Z</time>
      </trkpt>
      <trkpt lat="45.38017" lon="4.19783">
        <ele>639.41</ele>
        <time>2014-05-08T11:51:55Z</time>
      </trkpt>
      <trkpt lat="45.38025" lon="4.19792">
        <ele>637.97</ele>
        <time>2014-05-08T11:51:57Z</time>
      </trkpt>
      <trkpt lat="45.38028" lon="4.19797">
        <ele>637.49</ele>
        <time>2014-05-08T11:51:58Z</time>
      </trkpt>
      <trkpt lat="45.38029" lon="4.19802">
        <ele>636.53</ele>
        <time>2014-05-08T11:51:59Z</time>
      </trkpt>
      <trkpt lat="45.38028" lon="4.19819">
        <ele>633.17</ele>
        <time>2014-05-08T11:52:02Z</time>
      </trkpt>
      <trkpt lat="45.38029" lon="4.19828">
        <ele>632.68</ele>
        <time>2014-05-08T11:52:03Z</time>
      </trkpt>
      <trkpt lat="45.38034" lon="4.19854">
        <ele>628.36</ele>
        <time>2014-05-08T11:52:06Z</time>
      </trkpt>
      <trkpt lat="45.38034" lon="4.19878">
        <ele>624.03</ele>
        <time>2014-05-08T11:52:09Z</time>
      </trkpt>
      <trkpt lat="45.38029" lon="4.19893">
        <ele>622.11</ele>
        <time>2014-05-08T11:52:12Z</time>
      </trkpt>
      <trkpt lat="45.38027" lon="4.19897">
        <ele>621.15</ele>
        <time>2014-05-08T11:52:13Z</time>
      </trkpt>
      <trkpt lat="45.38026" lon="4.19902">
        <ele>620.67</ele>
        <time>2014-05-08T11:52:14Z</time>
      </trkpt>
      <trkpt lat="45.38025" lon="4.19908">
        <ele>618.26</ele>
        <time>2014-05-08T11:52:15Z</time>
      </trkpt>
      <trkpt lat="45.38024" lon="4.19912">
        <ele>618.26</ele>
        <time>2014-05-08T11:52:16Z</time>
      </trkpt>
      <trkpt lat="45.38025" lon="4.19917">
        <ele>617.3</ele>
        <time>2014-05-08T11:52:17Z</time>
      </trkpt>
      <trkpt lat="45.38027" lon="4.19922">
        <ele>615.38</ele>
        <time>2014-05-08T11:52:18Z</time>
      </trkpt>
      <trkpt lat="45.38026" lon="4.19934">
        <ele>613.46</ele>
        <time>2014-05-08T11:52:20Z</time>
      </trkpt>
      <trkpt lat="45.38024" lon="4.19941">
        <ele>611.54</ele>
        <time>2014-05-08T11:52:21Z</time>
      </trkpt>
      <trkpt lat="45.38022" lon="4.19948">
        <ele>611.54</ele>
        <time>2014-05-08T11:52:22Z</time>
      </trkpt>
      <trkpt lat="45.38019" lon="4.19954">
        <ele>611.06</ele>
        <time>2014-05-08T11:52:23Z</time>
      </trkpt>
      <trkpt lat="45.38017" lon="4.19959">
        <ele>608.17</ele>
        <time>2014-05-08T11:52:24Z</time>
      </trkpt>
      <trkpt lat="45.38016" lon="4.19962">
        <ele>606.73</ele>
        <time>2014-05-08T11:52:25Z</time>
      </trkpt>
      <trkpt lat="45.38016" lon="4.19964">
        <ele>606.73</ele>
        <time>2014-05-08T11:52:26Z</time>
      </trkpt>
      <trkpt lat="45.38013" lon="4.19972">
        <ele>605.29</ele>
        <time>2014-05-08T11:52:39Z</time>
      </trkpt>
      <trkpt lat="45.38012" lon="4.19974">
        <ele>605.77</ele>
        <time>2014-05-08T11:52:44Z</time>
      </trkpt>
      <trkpt lat="45.38011" lon="4.19975">
        <ele>604.33</ele>
        <time>2014-05-08T11:52:45Z</time>
      </trkpt>
      <trkpt lat="45.38004" lon="4.19989">
        <ele>603.85</ele>
        <time>2014-05-08T11:52:49Z</time>
      </trkpt>
      <trkpt lat="45.37995" lon="4.19999">
        <ele>600.48</ele>
        <time>2014-05-08T11:52:53Z</time>
      </trkpt>
      <trkpt lat="45.37991" lon="4.2">
        <ele>600.48</ele>
        <time>2014-05-08T11:52:54Z</time>
      </trkpt>
      <trkpt lat="45.37977" lon="4.19996">
        <ele>597.6</ele>
        <time>2014-05-08T11:52:58Z</time>
      </trkpt>
      <trkpt lat="45.37974" lon="4.19998">
        <ele>598.56</ele>
        <time>2014-05-08T11:52:59Z</time>
      </trkpt>
      <trkpt lat="45.37972" lon="4.20001">
        <ele>597.6</ele>
        <time>2014-05-08T11:53:00Z</time>
      </trkpt>
      <trkpt lat="45.3797" lon="4.20004">
        <ele>596.15</ele>
        <time>2014-05-08T11:53:01Z</time>
      </trkpt>
      <trkpt lat="45.37969" lon="4.20007">
        <ele>596.64</ele>
        <time>2014-05-08T11:53:02Z</time>
      </trkpt>
      <trkpt lat="45.37969" lon="4.2001">
        <ele>596.15</ele>
        <time>2014-05-08T11:53:03Z</time>
      </trkpt>
      <trkpt lat="45.3797" lon="4.20014">
        <ele>595.67</ele>
        <time>2014-05-08T11:53:04Z</time>
      </trkpt>
      <trkpt lat="45.37972" lon="4.20019">
        <ele>594.23</ele>
        <time>2014-05-08T11:53:05Z</time>
      </trkpt>
      <trkpt lat="45.37975" lon="4.20024">
        <ele>593.27</ele>
        <time>2014-05-08T11:53:06Z</time>
      </trkpt>
      <trkpt lat="45.37982" lon="4.20034">
        <ele>590.87</ele>
        <time>2014-05-08T11:53:08Z</time>
      </trkpt>
      <trkpt lat="45.37985" lon="4.2004">
        <ele>589.43</ele>
        <time>2014-05-08T11:53:09Z</time>
      </trkpt>
      <trkpt lat="45.37992" lon="4.20052">
        <ele>586.54</ele>
        <time>2014-05-08T11:53:11Z</time>
      </trkpt>
      <trkpt lat="45.38002" lon="4.20069">
        <ele>583.18</ele>
        <time>2014-05-08T11:53:14Z</time>
      </trkpt>
      <trkpt lat="45.38006" lon="4.20076">
        <ele>581.25</ele>
        <time>2014-05-08T11:53:15Z</time>
      </trkpt>
      <trkpt lat="45.38009" lon="4.20083">
        <ele>581.73</ele>
        <time>2014-05-08T11:53:16Z</time>
      </trkpt>
      <trkpt lat="45.38012" lon="4.20087">
        <ele>579.33</ele>
        <time>2014-05-08T11:53:17Z</time>
      </trkpt>
      <trkpt lat="45.38016" lon="4.2009">
        <ele>578.37</ele>
        <time>2014-05-08T11:53:18Z</time>
      </trkpt>
      <trkpt lat="45.38022" lon="4.20092">
        <ele>577.89</ele>
        <time>2014-05-08T11:53:19Z</time>
      </trkpt>
      <trkpt lat="45.3803" lon="4.20089">
        <ele>576.93</ele>
        <time>2014-05-08T11:53:21Z</time>
      </trkpt>
      <trkpt lat="45.38034" lon="4.20087">
        <ele>576.93</ele>
        <time>2014-05-08T11:53:22Z</time>
      </trkpt>
      <trkpt lat="45.38044" lon="4.20083">
        <ele>574.53</ele>
        <time>2014-05-08T11:53:26Z</time>
      </trkpt>
      <trkpt lat="45.38046" lon="4.20084">
        <ele>574.53</ele>
        <time>2014-05-08T11:53:27Z</time>
      </trkpt>
      <trkpt lat="45.38048" lon="4.20087">
        <ele>574.04</ele>
        <time>2014-05-08T11:53:28Z</time>
      </trkpt>
      <trkpt lat="45.38049" lon="4.2009">
        <ele>574.04</ele>
        <time>2014-05-08T11:53:29Z</time>
      </trkpt>
      <trkpt lat="45.38049" lon="4.20095">
        <ele>573.56</ele>
        <time>2014-05-08T11:53:30Z</time>
      </trkpt>
      <trkpt lat="45.38049" lon="4.20101">
        <ele>571.64</ele>
        <time>2014-05-08T11:53:31Z</time>
      </trkpt>
      <trkpt lat="45.3805" lon="4.20115">
        <ele>569.72</ele>
        <time>2014-05-08T11:53:33Z</time>
      </trkpt>
      <trkpt lat="45.38049" lon="4.20121">
        <ele>568.28</ele>
        <time>2014-05-08T11:53:34Z</time>
      </trkpt>
      <trkpt lat="45.38047" lon="4.20127">
        <ele>567.32</ele>
        <time>2014-05-08T11:53:35Z</time>
      </trkpt>
      <trkpt lat="45.38042" lon="4.20137">
        <ele>564.91</ele>
        <time>2014-05-08T11:53:37Z</time>
      </trkpt>
      <trkpt lat="45.38036" lon="4.20153">
        <ele>561.07</ele>
        <time>2014-05-08T11:53:40Z</time>
      </trkpt>
      <trkpt lat="45.38035" lon="4.20157">
        <ele>561.07</ele>
        <time>2014-05-08T11:53:41Z</time>
      </trkpt>
      <trkpt lat="45.38032" lon="4.20166">
        <ele>559.14</ele>
        <time>2014-05-08T11:53:43Z</time>
      </trkpt>
      <trkpt lat="45.38031" lon="4.2018">
        <ele>556.74</ele>
        <time>2014-05-08T11:53:46Z</time>
      </trkpt>
      <trkpt lat="45.38033" lon="4.20187">
        <ele>554.34</ele>
        <time>2014-05-08T11:53:49Z</time>
      </trkpt>
      <trkpt lat="45.38035" lon="4.20188">
        <ele>553.38</ele>
        <time>2014-05-08T11:53:50Z</time>
      </trkpt>
      <trkpt lat="45.38037" lon="4.20189">
        <ele>552.41</ele>
        <time>2014-05-08T11:53:51Z</time>
      </trkpt>
      <trkpt lat="45.3804" lon="4.20192">
        <ele>551.45</ele>
        <time>2014-05-08T11:53:52Z</time>
      </trkpt>
      <trkpt lat="45.38044" lon="4.20195">
        <ele>550.97</ele>
        <time>2014-05-08T11:53:53Z</time>
      </trkpt>
      <trkpt lat="45.38047" lon="4.20197">
        <ele>550.49</ele>
        <time>2014-05-08T11:53:54Z</time>
      </trkpt>
      <trkpt lat="45.38048" lon="4.202">
        <ele>549.53</ele>
        <time>2014-05-08T11:53:55Z</time>
      </trkpt>
      <trkpt lat="45.38047" lon="4.20205">
        <ele>548.09</ele>
        <time>2014-05-08T11:53:56Z</time>
      </trkpt>
      <trkpt lat="45.38047" lon="4.20209">
        <ele>548.09</ele>
        <time>2014-05-08T11:53:57Z</time>
      </trkpt>
      <trkpt lat="45.38045" lon="4.20212">
        <ele>545.69</ele>
        <time>2014-05-08T11:53:58Z</time>
      </trkpt>
      <trkpt lat="45.38043" lon="4.20216">
        <ele>545.69</ele>
        <time>2014-05-08T11:53:59Z</time>
      </trkpt>
      <trkpt lat="45.38038" lon="4.20221">
        <ele>544.24</ele>
        <time>2014-05-08T11:54:00Z</time>
      </trkpt>
      <trkpt lat="45.38029" lon="4.20232">
        <ele>543.28</ele>
        <time>2014-05-08T11:54:02Z</time>
      </trkpt>
      <trkpt lat="45.38019" lon="4.20245">
        <ele>541.36</ele>
        <time>2014-05-08T11:54:04Z</time>
      </trkpt>
      <trkpt lat="45.38006" lon="4.20261">
        <ele>537.99</ele>
        <time>2014-05-08T11:54:07Z</time>
      </trkpt>
      <trkpt lat="45.38002" lon="4.20265">
        <ele>538.48</ele>
        <time>2014-05-08T11:54:08Z</time>
      </trkpt>
      <trkpt lat="45.37996" lon="4.20273">
        <ele>535.11</ele>
        <time>2014-05-08T11:54:11Z</time>
      </trkpt>
      <trkpt lat="45.37987" lon="4.20283">
        <ele>532.71</ele>
        <time>2014-05-08T11:54:16Z</time>
      </trkpt>
      <trkpt lat="45.37987" lon="4.20285">
        <ele>531.27</ele>
        <time>2014-05-08T11:54:17Z</time>
      </trkpt>
      <trkpt lat="45.37986" lon="4.20286">
        <ele>530.79</ele>
        <time>2014-05-08T11:54:18Z</time>
      </trkpt>
      <trkpt lat="45.37986" lon="4.20288">
        <ele>530.79</ele>
        <time>2014-05-08T11:54:19Z</time>
      </trkpt>
      <trkpt lat="45.37986" lon="4.2029">
        <ele>530.3</ele>
        <time>2014-05-08T11:54:20Z</time>
      </trkpt>
      <trkpt lat="45.37991" lon="4.20306">
        <ele>526.94</ele>
        <time>2014-05-08T11:54:23Z</time>
      </trkpt>
      <trkpt lat="45.37993" lon="4.20312">
        <ele>526.94</ele>
        <time>2014-05-08T11:54:24Z</time>
      </trkpt>
      <trkpt lat="45.38" lon="4.20329">
        <ele>523.58</ele>
        <time>2014-05-08T11:54:27Z</time>
      </trkpt>
      <trkpt lat="45.38003" lon="4.20336">
        <ele>522.13</ele>
        <time>2014-05-08T11:54:29Z</time>
      </trkpt>
      <trkpt lat="45.38005" lon="4.20339">
        <ele>520.69</ele>
        <time>2014-05-08T11:54:30Z</time>
      </trkpt>
      <trkpt lat="45.38007" lon="4.2034">
        <ele>520.69</ele>
        <time>2014-05-08T11:54:31Z</time>
      </trkpt>
      <trkpt lat="45.38011" lon="4.2034">
        <ele>519.73</ele>
        <time>2014-05-08T11:54:32Z</time>
      </trkpt>
      <trkpt lat="45.38014" lon="4.2034">
        <ele>519.25</ele>
        <time>2014-05-08T11:54:33Z</time>
      </trkpt>
      <trkpt lat="45.38017" lon="4.2034">
        <ele>518.29</ele>
        <time>2014-05-08T11:54:34Z</time>
      </trkpt>
      <trkpt lat="45.3802" lon="4.20341">
        <ele>518.29</ele>
        <time>2014-05-08T11:54:35Z</time>
      </trkpt>
      <trkpt lat="45.38022" lon="4.20343">
        <ele>517.81</ele>
        <time>2014-05-08T11:54:36Z</time>
      </trkpt>
      <trkpt lat="45.38023" lon="4.20345">
        <ele>516.37</ele>
        <time>2014-05-08T11:54:37Z</time>
      </trkpt>
      <trkpt lat="45.38022" lon="4.20351">
        <ele>515.88</ele>
        <time>2014-05-08T11:54:42Z</time>
      </trkpt>
      <trkpt lat="45.38022" lon="4.20353">
        <ele>515.4</ele>
        <time>2014-05-08T11:54:43Z</time>
      </trkpt>
      <trkpt lat="45.38014" lon="4.20362">
        <ele>513.48</ele>
        <time>2014-05-08T11:54:46Z</time>
      </trkpt>
      <trkpt lat="45.37999" lon="4.20382">
        <ele>508.67</ele>
        <time>2014-05-08T11:54:50Z</time>
      </trkpt>
      <trkpt lat="45.37987" lon="4.20398">
        <ele>505.31</ele>
        <time>2014-05-08T11:54:55Z</time>
      </trkpt>
      <trkpt lat="45.3798" lon="4.20408">
        <ele>503.39</ele>
        <time>2014-05-08T11:54:58Z</time>
      </trkpt>
      <trkpt lat="45.37979" lon="4.20411">
        <ele>502.43</ele>
        <time>2014-05-08T11:54:59Z</time>
      </trkpt>
      <trkpt lat="45.37979" lon="4.20413">
        <ele>501.46</ele>
        <time>2014-05-08T11:55:00Z</time>
      </trkpt>
      <trkpt lat="45.37979" lon="4.20415">
        <ele>500.98</ele>
        <time>2014-05-08T11:55:01Z</time>
      </trkpt>
      <trkpt lat="45.3798" lon="4.20416">
        <ele>499.54</ele>
        <time>2014-05-08T11:55:02Z</time>
      </trkpt>
      <trkpt lat="45.37983" lon="4.20418">
        <ele>498.1</ele>
        <time>2014-05-08T11:55:03Z</time>
      </trkpt>
      <trkpt lat="45.37984" lon="4.20419">
        <ele>496.66</ele>
        <time>2014-05-08T11:55:04Z</time>
      </trkpt>
      <trkpt lat="45.37985" lon="4.20418">
        <ele>495.7</ele>
        <time>2014-05-08T11:55:05Z</time>
      </trkpt>
      <trkpt lat="45.37987" lon="4.20416">
        <ele>496.18</ele>
        <time>2014-05-08T11:55:06Z</time>
      </trkpt>
      <trkpt lat="45.37992" lon="4.20416">
        <ele>495.7</ele>
        <time>2014-05-08T11:55:07Z</time>
      </trkpt>
      <trkpt lat="45.37998" lon="4.20414">
        <ele>495.7</ele>
        <time>2014-05-08T11:55:08Z</time>
      </trkpt>
      <trkpt lat="45.38031" lon="4.20396">
        <ele>492.81</ele>
        <time>2014-05-08T11:55:13Z</time>
      </trkpt>
      <trkpt lat="45.38053" lon="4.20383">
        <ele>489.93</ele>
        <time>2014-05-08T11:55:16Z</time>
      </trkpt>
      <trkpt lat="45.38059" lon="4.20381">
        <ele>488.01</ele>
        <time>2014-05-08T11:55:17Z</time>
      </trkpt>
      <trkpt lat="45.38065" lon="4.2038">
        <ele>488.01</ele>
        <time>2014-05-08T11:55:18Z</time>
      </trkpt>
      <trkpt lat="45.38077" lon="4.20377">
        <ele>485.12</ele>
        <time>2014-05-08T11:55:20Z</time>
      </trkpt>
      <trkpt lat="45.38083" lon="4.20374">
        <ele>484.64</ele>
        <time>2014-05-08T11:55:21Z</time>
      </trkpt>
      <trkpt lat="45.38098" lon="4.20363">
        <ele>479.84</ele>
        <time>2014-05-08T11:55:24Z</time>
      </trkpt>
      <trkpt lat="45.38101" lon="4.20361">
        <ele>479.35</ele>
        <time>2014-05-08T11:55:25Z</time>
      </trkpt>
      <trkpt lat="45.38103" lon="4.20361">
        <ele>478.87</ele>
        <time>2014-05-08T11:55:26Z</time>
      </trkpt>
      <trkpt lat="45.38105" lon="4.20363">
        <ele>478.87</ele>
        <time>2014-05-08T11:55:28Z</time>
      </trkpt>
      <trkpt lat="45.38105" lon="4.20365">
        <ele>476.95</ele>
        <time>2014-05-08T11:55:29Z</time>
      </trkpt>
      <trkpt lat="45.38105" lon="4.20369">
        <ele>477.43</ele>
        <time>2014-05-08T11:55:30Z</time>
      </trkpt>
      <trkpt lat="45.381" lon="4.20385">
        <ele>475.99</ele>
        <time>2014-05-08T11:55:33Z</time>
      </trkpt>
      <trkpt lat="45.38091" lon="4.20405">
        <ele>474.55</ele>
        <time>2014-05-08T11:55:37Z</time>
      </trkpt>
      <trkpt lat="45.38072" lon="4.20417">
        <ele>478.39</ele>
        <time>2014-05-08T11:55:47Z</time>
      </trkpt>
      <trkpt lat="45.3806" lon="4.20442">
        <ele>475.51</ele>
        <time>2014-05-08T11:55:54Z</time>
      </trkpt>
      <trkpt lat="45.38035" lon="4.20508">
        <ele>476.95</ele>
        <time>2014-05-08T11:56:08Z</time>
      </trkpt>
      <trkpt lat="45.38018" lon="4.2055">
        <ele>477.91</ele>
        <time>2014-05-08T11:56:18Z</time>
      </trkpt>
      <trkpt lat="45.38014" lon="4.20555">
        <ele>478.87</ele>
        <time>2014-05-08T11:56:19Z</time>
      </trkpt>
      <trkpt lat="45.38008" lon="4.20559">
        <ele>476.47</ele>
        <time>2014-05-08T11:56:20Z</time>
      </trkpt>
      <trkpt lat="45.38004" lon="4.20564">
        <ele>476.47</ele>
        <time>2014-05-08T11:56:21Z</time>
      </trkpt>
      <trkpt lat="45.38001" lon="4.20569">
        <ele>476.47</ele>
        <time>2014-05-08T11:56:22Z</time>
      </trkpt>
      <trkpt lat="45.37977" lon="4.20634">
        <ele>475.51</ele>
        <time>2014-05-08T11:56:33Z</time>
      </trkpt>
      <trkpt lat="45.37975" lon="4.20639">
        <ele>476.47</ele>
        <time>2014-05-08T11:56:34Z</time>
      </trkpt>
      <trkpt lat="45.37973" lon="4.20644">
        <ele>475.03</ele>
        <time>2014-05-08T11:56:35Z</time>
      </trkpt>
      <trkpt lat="45.37971" lon="4.20648">
        <ele>475.51</ele>
        <time>2014-05-08T11:56:36Z</time>
      </trkpt>
      <trkpt lat="45.37969" lon="4.20649">
        <ele>475.51</ele>
        <time>2014-05-08T11:56:37Z</time>
      </trkpt>
      <trkpt lat="45.37956" lon="4.20664">
        <ele>472.63</ele>
        <time>2014-05-08T11:56:42Z</time>
      </trkpt>
      <trkpt lat="45.37952" lon="4.20666">
        <ele>473.11</ele>
        <time>2014-05-08T11:56:45Z</time>
      </trkpt>
      <trkpt lat="45.37947" lon="4.20668">
        <ele>471.66</ele>
        <time>2014-05-08T11:56:50Z</time>
      </trkpt>
      <trkpt lat="45.37949" lon="4.20659">
        <ele>470.7</ele>
        <time>2014-05-08T11:56:52Z</time>
      </trkpt>
      <trkpt lat="45.37953" lon="4.20654">
        <ele>470.22</ele>
        <time>2014-05-08T11:56:53Z</time>
      </trkpt>
      <trkpt lat="45.37956" lon="4.20647">
        <ele>469.26</ele>
        <time>2014-05-08T11:56:54Z</time>
      </trkpt>
      <trkpt lat="45.37958" lon="4.2064">
        <ele>468.78</ele>
        <time>2014-05-08T11:56:55Z</time>
      </trkpt>
      <trkpt lat="45.37958" lon="4.20632">
        <ele>468.3</ele>
        <time>2014-05-08T11:56:56Z</time>
      </trkpt>
      <trkpt lat="45.37956" lon="4.20626">
        <ele>467.82</ele>
        <time>2014-05-08T11:56:57Z</time>
      </trkpt>
      <trkpt lat="45.37953" lon="4.20621">
        <ele>467.34</ele>
        <time>2014-05-08T11:56:58Z</time>
      </trkpt>
      <trkpt lat="45.3795" lon="4.20617">
        <ele>467.34</ele>
        <time>2014-05-08T11:56:59Z</time>
      </trkpt>
      <trkpt lat="45.37946" lon="4.20614">
        <ele>467.82</ele>
        <time>2014-05-08T11:57:00Z</time>
      </trkpt>
      <trkpt lat="45.37942" lon="4.20612">
        <ele>467.82</ele>
        <time>2014-05-08T11:57:01Z</time>
      </trkpt>
      <trkpt lat="45.37938" lon="4.20612">
        <ele>467.34</ele>
        <time>2014-05-08T11:57:02Z</time>
      </trkpt>
      <trkpt lat="45.37935" lon="4.20612">
        <ele>467.34</ele>
        <time>2014-05-08T11:57:03Z</time>
      </trkpt>
      <trkpt lat="45.37932" lon="4.20611">
        <ele>467.82</ele>
        <time>2014-05-08T11:57:04Z</time>
      </trkpt>
      <trkpt lat="45.37905" lon="4.20592">
        <ele>470.22</ele>
        <time>2014-05-08T11:57:17Z</time>
      </trkpt>
      <trkpt lat="45.37885" lon="4.20542">
        <ele>471.66</ele>
        <time>2014-05-08T11:57:30Z</time>
      </trkpt>
      <trkpt lat="45.37851" lon="4.20457">
        <ele>473.11</ele>
        <time>2014-05-08T11:57:51Z</time>
      </trkpt>
      <trkpt lat="45.37833" lon="4.20385">
        <ele>473.11</ele>
        <time>2014-05-08T11:58:07Z</time>
      </trkpt>
      <trkpt lat="45.37806" lon="4.20311">
        <ele>471.66</ele>
        <time>2014-05-08T11:58:23Z</time>
      </trkpt>
      <trkpt lat="45.37783" lon="4.20221">
        <ele>470.7</ele>
        <time>2014-05-08T11:58:39Z</time>
      </trkpt>
      <trkpt lat="45.37749" lon="4.20138">
        <ele>471.18</ele>
        <time>2014-05-08T11:58:56Z</time>
      </trkpt>
      <trkpt lat="45.37711" lon="4.20069">
        <ele>471.66</ele>
        <time>2014-05-08T11:59:10Z</time>
      </trkpt>
      <trkpt lat="45.37655" lon="4.19985">
        <ele>469.74</ele>
        <time>2014-05-08T11:59:24Z</time>
      </trkpt>
      <trkpt lat="45.37616" lon="4.19885">
        <ele>468.78</ele>
        <time>2014-05-08T11:59:39Z</time>
      </trkpt>
      <trkpt lat="45.37608" lon="4.1985">
        <ele>467.82</ele>
        <time>2014-05-08T11:59:44Z</time>
      </trkpt>
      <trkpt lat="45.37605" lon="4.19844">
        <ele>467.34</ele>
        <time>2014-05-08T11:59:45Z</time>
      </trkpt>
      <trkpt lat="45.37603" lon="4.19839">
        <ele>466.86</ele>
        <time>2014-05-08T11:59:46Z</time>
      </trkpt>
      <trkpt lat="45.37539" lon="4.19768">
        <ele>465.9</ele>
        <time>2014-05-08T12:00:02Z</time>
      </trkpt>
      <trkpt lat="45.37471" lon="4.19693">
        <ele>464.93</ele>
        <time>2014-05-08T12:00:19Z</time>
      </trkpt>
      <trkpt lat="45.37394" lon="4.1962">
        <ele>462.53</ele>
        <time>2014-05-08T12:00:37Z</time>
      </trkpt>
      <trkpt lat="45.37346" lon="4.19585">
        <ele>459.17</ele>
        <time>2014-05-08T12:00:46Z</time>
      </trkpt>
      <trkpt lat="45.37258" lon="4.19569">
        <ele>455.8</ele>
        <time>2014-05-08T12:00:57Z</time>
      </trkpt>
      <trkpt lat="45.3716" lon="4.19564">
        <ele>453.4</ele>
        <time>2014-05-08T12:01:12Z</time>
      </trkpt>
      <trkpt lat="45.37095" lon="4.19574">
        <ele>451.96</ele>
        <time>2014-05-08T12:01:24Z</time>
      </trkpt>
      <trkpt lat="45.37015" lon="4.19562">
        <ele>452.92</ele>
        <time>2014-05-08T12:01:40Z</time>
      </trkpt>
      <trkpt lat="45.36989" lon="4.19553">
        <ele>453.4</ele>
        <time>2014-05-08T12:01:46Z</time>
      </trkpt>
      <trkpt lat="45.36985" lon="4.19551">
        <ele>453.4</ele>
        <time>2014-05-08T12:01:47Z</time>
      </trkpt>
      <trkpt lat="45.36941" lon="4.19511">
        <ele>454.84</ele>
        <time>2014-05-08T12:02:02Z</time>
      </trkpt>
      <trkpt lat="45.36936" lon="4.19476">
        <ele>457.24</ele>
        <time>2014-05-08T12:02:15Z</time>
      </trkpt>
      <trkpt lat="45.36929" lon="4.19441">
        <ele>461.09</ele>
        <time>2014-05-08T12:02:29Z</time>
      </trkpt>
      <trkpt lat="45.36928" lon="4.19438">
        <ele>460.61</ele>
        <time>2014-05-08T12:02:30Z</time>
      </trkpt>
      <trkpt lat="45.36927" lon="4.19425">
        <ele>462.53</ele>
        <time>2014-05-08T12:02:36Z</time>
      </trkpt>
      <trkpt lat="45.36928" lon="4.19422">
        <ele>462.53</ele>
        <time>2014-05-08T12:02:37Z</time>
      </trkpt>
      <trkpt lat="45.3693" lon="4.1942">
        <ele>462.53</ele>
        <time>2014-05-08T12:02:38Z</time>
      </trkpt>
      <trkpt lat="45.36932" lon="4.19417">
        <ele>462.53</ele>
        <time>2014-05-08T12:02:39Z</time>
      </trkpt>
      <trkpt lat="45.36933" lon="4.19415">
        <ele>462.53</ele>
        <time>2014-05-08T12:02:40Z</time>
      </trkpt>
      <trkpt lat="45.36935" lon="4.19412">
        <ele>462.05</ele>
        <time>2014-05-08T12:02:41Z</time>
      </trkpt>
      <trkpt lat="45.36951" lon="4.19395">
        <ele>464.93</ele>
        <time>2014-05-08T12:02:53Z</time>
      </trkpt>
      <trkpt lat="45.36976" lon="4.19404">
        <ele>466.86</ele>
        <time>2014-05-08T12:03:07Z</time>
      </trkpt>
      <trkpt lat="45.36997" lon="4.19404">
        <ele>465.9</ele>
        <time>2014-05-08T12:03:17Z</time>
      </trkpt>
      <trkpt lat="45.36997" lon="4.19402">
        <ele>466.86</ele>
        <time>2014-05-08T12:03:18Z</time>
      </trkpt>
      <trkpt lat="45.36997" lon="4.194">
        <ele>466.38</ele>
        <time>2014-05-08T12:03:19Z</time>
      </trkpt>
      <trkpt lat="45.36997" lon="4.19398">
        <ele>467.34</ele>
        <time>2014-05-08T12:03:20Z</time>
      </trkpt>
      <trkpt lat="45.36997" lon="4.19396">
        <ele>465.9</ele>
        <time>2014-05-08T12:03:21Z</time>
      </trkpt>
      <trkpt lat="45.36996" lon="4.19394">
        <ele>467.34</ele>
        <time>2014-05-08T12:03:22Z</time>
      </trkpt>
      <trkpt lat="45.36995" lon="4.19392">
        <ele>466.86</ele>
        <time>2014-05-08T12:03:23Z</time>
      </trkpt>
      <trkpt lat="45.3697" lon="4.19356">
        <ele>467.82</ele>
        <time>2014-05-08T12:03:37Z</time>
      </trkpt>
      <trkpt lat="45.36925" lon="4.19321">
        <ele>470.22</ele>
        <time>2014-05-08T12:03:58Z</time>
      </trkpt>
      <trkpt lat="45.36887" lon="4.19298">
        <ele>471.66</ele>
        <time>2014-05-08T12:04:16Z</time>
      </trkpt>
      <trkpt lat="45.36883" lon="4.19292">
        <ele>472.14</ele>
        <time>2014-05-08T12:04:19Z</time>
      </trkpt>
      <trkpt lat="45.36883" lon="4.1929">
        <ele>471.66</ele>
        <time>2014-05-08T12:04:20Z</time>
      </trkpt>
      <trkpt lat="45.36883" lon="4.19289">
        <ele>472.63</ele>
        <time>2014-05-08T12:04:21Z</time>
      </trkpt>
      <trkpt lat="45.36883" lon="4.19287">
        <ele>472.14</ele>
        <time>2014-05-08T12:04:22Z</time>
      </trkpt>
      <trkpt lat="45.36883" lon="4.19286">
        <ele>473.11</ele>
        <time>2014-05-08T12:04:23Z</time>
      </trkpt>
      <trkpt lat="45.36882" lon="4.19284">
        <ele>474.07</ele>
        <time>2014-05-08T12:04:24Z</time>
      </trkpt>
      <trkpt lat="45.36883" lon="4.1926">
        <ele>477.43</ele>
        <time>2014-05-08T12:04:39Z</time>
      </trkpt>
      <trkpt lat="45.36883" lon="4.19258">
        <ele>477.43</ele>
        <time>2014-05-08T12:04:40Z</time>
      </trkpt>
      <trkpt lat="45.36884" lon="4.19232">
        <ele>480.8</ele>
        <time>2014-05-08T12:04:55Z</time>
      </trkpt>
      <trkpt lat="45.36885" lon="4.19209">
        <ele>483.68</ele>
        <time>2014-05-08T12:05:08Z</time>
      </trkpt>
      <trkpt lat="45.36879" lon="4.19185">
        <ele>487.53</ele>
        <time>2014-05-08T12:05:24Z</time>
      </trkpt>
      <trkpt lat="45.36875" lon="4.19178">
        <ele>488.49</ele>
        <time>2014-05-08T12:05:29Z</time>
      </trkpt>
      <trkpt lat="45.36868" lon="4.19169">
        <ele>489.93</ele>
        <time>2014-05-08T12:05:36Z</time>
      </trkpt>
      <trkpt lat="45.36856" lon="4.19157">
        <ele>492.81</ele>
        <time>2014-05-08T12:05:47Z</time>
      </trkpt>
      <trkpt lat="45.36842" lon="4.19136">
        <ele>495.22</ele>
        <time>2014-05-08T12:06:03Z</time>
      </trkpt>
      <trkpt lat="45.36822" lon="4.19119">
        <ele>496.66</ele>
        <time>2014-05-08T12:06:18Z</time>
      </trkpt>
      <trkpt lat="45.36794" lon="4.19099">
        <ele>500.02</ele>
        <time>2014-05-08T12:06:35Z</time>
      </trkpt>
      <trkpt lat="45.36768" lon="4.19068">
        <ele>502.43</ele>
        <time>2014-05-08T12:06:52Z</time>
      </trkpt>
      <trkpt lat="45.36752" lon="4.19033">
        <ele>504.35</ele>
        <time>2014-05-08T12:07:07Z</time>
      </trkpt>
      <trkpt lat="45.36745" lon="4.19011">
        <ele>506.75</ele>
        <time>2014-05-08T12:07:17Z</time>
      </trkpt>
      <trkpt lat="45.36741" lon="4.18966">
        <ele>508.19</ele>
        <time>2014-05-08T12:07:32Z</time>
      </trkpt>
      <trkpt lat="45.36742" lon="4.1896">
        <ele>508.19</ele>
        <time>2014-05-08T12:07:34Z</time>
      </trkpt>
      <trkpt lat="45.36741" lon="4.18958">
        <ele>508.19</ele>
        <time>2014-05-08T12:07:35Z</time>
      </trkpt>
      <trkpt lat="45.3674" lon="4.18956">
        <ele>509.16</ele>
        <time>2014-05-08T12:07:36Z</time>
      </trkpt>
      <trkpt lat="45.36737" lon="4.18944">
        <ele>508.67</ele>
        <time>2014-05-08T12:07:42Z</time>
      </trkpt>
      <trkpt lat="45.36737" lon="4.18942">
        <ele>508.67</ele>
        <time>2014-05-08T12:07:43Z</time>
      </trkpt>
      <trkpt lat="45.36738" lon="4.18939">
        <ele>508.67</ele>
        <time>2014-05-08T12:07:44Z</time>
      </trkpt>
      <trkpt lat="45.36744" lon="4.18894">
        <ele>510.6</ele>
        <time>2014-05-08T12:07:59Z</time>
      </trkpt>
      <trkpt lat="45.36742" lon="4.18851">
        <ele>513.48</ele>
        <time>2014-05-08T12:08:15Z</time>
      </trkpt>
      <trkpt lat="45.36737" lon="4.18828">
        <ele>516.37</ele>
        <time>2014-05-08T12:08:26Z</time>
      </trkpt>
      <trkpt lat="45.36722" lon="4.18808">
        <ele>519.73</ele>
        <time>2014-05-08T12:08:41Z</time>
      </trkpt>
      <trkpt lat="45.36714" lon="4.18795">
        <ele>521.17</ele>
        <time>2014-05-08T12:08:49Z</time>
      </trkpt>
      <trkpt lat="45.36708" lon="4.18766">
        <ele>524.54</ele>
        <time>2014-05-08T12:09:04Z</time>
      </trkpt>
      <trkpt lat="45.36703" lon="4.18744">
        <ele>526.94</ele>
        <time>2014-05-08T12:09:11Z</time>
      </trkpt>
      <trkpt lat="45.36704" lon="4.1874">
        <ele>525.5</ele>
        <time>2014-05-08T12:09:12Z</time>
      </trkpt>
      <trkpt lat="45.36706" lon="4.18737">
        <ele>526.94</ele>
        <time>2014-05-08T12:09:13Z</time>
      </trkpt>
      <trkpt lat="45.36707" lon="4.18735">
        <ele>526.46</ele>
        <time>2014-05-08T12:09:14Z</time>
      </trkpt>
      <trkpt lat="45.36716" lon="4.18699">
        <ele>527.9</ele>
        <time>2014-05-08T12:09:30Z</time>
      </trkpt>
      <trkpt lat="45.36734" lon="4.18678">
        <ele>526.94</ele>
        <time>2014-05-08T12:09:40Z</time>
      </trkpt>
      <trkpt lat="45.36779" lon="4.18645">
        <ele>524.54</ele>
        <time>2014-05-08T12:09:52Z</time>
      </trkpt>
      <trkpt lat="45.36819" lon="4.18625">
        <ele>520.69</ele>
        <time>2014-05-08T12:09:59Z</time>
      </trkpt>
      <trkpt lat="45.36892" lon="4.18597">
        <ele>520.21</ele>
        <time>2014-05-08T12:10:12Z</time>
      </trkpt>
      <trkpt lat="45.36925" lon="4.18576">
        <ele>520.21</ele>
        <time>2014-05-08T12:10:26Z</time>
      </trkpt>
      <trkpt lat="45.36959" lon="4.18542">
        <ele>520.69</ele>
        <time>2014-05-08T12:10:39Z</time>
      </trkpt>
      <trkpt lat="45.36981" lon="4.185">
        <ele>521.17</ele>
        <time>2014-05-08T12:10:52Z</time>
      </trkpt>
      <trkpt lat="45.3702" lon="4.18451">
        <ele>521.65</ele>
        <time>2014-05-08T12:11:08Z</time>
      </trkpt>
      <trkpt lat="45.37037" lon="4.18423">
        <ele>521.17</ele>
        <time>2014-05-08T12:11:20Z</time>
      </trkpt>
      <trkpt lat="45.37052" lon="4.18403">
        <ele>522.61</ele>
        <time>2014-05-08T12:11:33Z</time>
      </trkpt>
      <trkpt lat="45.37051" lon="4.18403">
        <ele>523.09</ele>
        <time>2014-05-08T12:11:35Z</time>
      </trkpt>
      <trkpt lat="45.3704" lon="4.18402">
        <ele>526.46</ele>
        <time>2014-05-08T12:11:44Z</time>
      </trkpt>
      <trkpt lat="45.37037" lon="4.18401">
        <ele>528.38</ele>
        <time>2014-05-08T12:11:47Z</time>
      </trkpt>
      <trkpt lat="45.37032" lon="4.18399">
        <ele>529.82</ele>
        <time>2014-05-08T12:11:52Z</time>
      </trkpt>
      <trkpt lat="45.37024" lon="4.18397">
        <ele>532.23</ele>
        <time>2014-05-08T12:11:59Z</time>
      </trkpt>
      <trkpt lat="45.37018" lon="4.18391">
        <ele>532.23</ele>
        <time>2014-05-08T12:12:14Z</time>
      </trkpt>
      <trkpt lat="45.37012" lon="4.18381">
        <ele>535.11</ele>
        <time>2014-05-08T12:12:24Z</time>
      </trkpt>
      <trkpt lat="45.37019" lon="4.18373">
        <ele>534.63</ele>
        <time>2014-05-08T12:12:51Z</time>
      </trkpt>
      <trkpt lat="45.37011" lon="4.18373">
        <ele>535.11</ele>
        <time>2014-05-08T12:13:14Z</time>
      </trkpt>
      <trkpt lat="45.36994" lon="4.18374">
        <ele>538.96</ele>
        <time>2014-05-08T12:13:26Z</time>
      </trkpt>
      <trkpt lat="45.36973" lon="4.18384">
        <ele>540.88</ele>
        <time>2014-05-08T12:13:42Z</time>
      </trkpt>
      <trkpt lat="45.36955" lon="4.18393">
        <ele>543.76</ele>
        <time>2014-05-08T12:13:54Z</time>
      </trkpt>
      <trkpt lat="45.36942" lon="4.184">
        <ele>547.13</ele>
        <time>2014-05-08T12:14:06Z</time>
      </trkpt>
      <trkpt lat="45.36906" lon="4.18415">
        <ele>549.53</ele>
        <time>2014-05-08T12:14:27Z</time>
      </trkpt>
      <trkpt lat="45.36896" lon="4.18416">
        <ele>550.01</ele>
        <time>2014-05-08T12:14:31Z</time>
      </trkpt>
      <trkpt lat="45.36894" lon="4.18416">
        <ele>549.05</ele>
        <time>2014-05-08T12:14:32Z</time>
      </trkpt>
      <trkpt lat="45.36892" lon="4.18416">
        <ele>550.01</ele>
        <time>2014-05-08T12:14:33Z</time>
      </trkpt>
      <trkpt lat="45.36871" lon="4.18412">
        <ele>552.9</ele>
        <time>2014-05-08T12:14:49Z</time>
      </trkpt>
      <trkpt lat="45.36862" lon="4.1841">
        <ele>554.34</ele>
        <time>2014-05-08T12:14:59Z</time>
      </trkpt>
      <trkpt lat="45.36861" lon="4.1841">
        <ele>555.78</ele>
        <time>2014-05-08T12:15:04Z</time>
      </trkpt>
      <trkpt lat="45.36861" lon="4.18411">
        <ele>554.82</ele>
        <time>2014-05-08T12:15:05Z</time>
      </trkpt>
      <trkpt lat="45.3686" lon="4.18417">
        <ele>554.82</ele>
        <time>2014-05-08T12:15:09Z</time>
      </trkpt>
      <trkpt lat="45.36845" lon="4.18449">
        <ele>554.34</ele>
        <time>2014-05-08T12:15:20Z</time>
      </trkpt>
      <trkpt lat="45.36836" lon="4.18455">
        <ele>555.3</ele>
        <time>2014-05-08T12:15:23Z</time>
      </trkpt>
      <trkpt lat="45.36832" lon="4.18457">
        <ele>552.41</ele>
        <time>2014-05-08T12:15:24Z</time>
      </trkpt>
      <trkpt lat="45.36788" lon="4.18485">
        <ele>554.34</ele>
        <time>2014-05-08T12:15:38Z</time>
      </trkpt>
      <trkpt lat="45.36745" lon="4.1851">
        <ele>556.74</ele>
        <time>2014-05-08T12:15:51Z</time>
      </trkpt>
      <trkpt lat="45.36744" lon="4.18508">
        <ele>558.18</ele>
        <time>2014-05-08T12:15:54Z</time>
      </trkpt>
      <trkpt lat="45.36758" lon="4.18491">
        <ele>562.03</ele>
        <time>2014-05-08T12:16:10Z</time>
      </trkpt>
      <trkpt lat="45.3677" lon="4.1848">
        <ele>564.43</ele>
        <time>2014-05-08T12:16:23Z</time>
      </trkpt>
      <trkpt lat="45.36782" lon="4.18467">
        <ele>567.32</ele>
        <time>2014-05-08T12:16:35Z</time>
      </trkpt>
      <trkpt lat="45.36794" lon="4.18456">
        <ele>570.2</ele>
        <time>2014-05-08T12:16:48Z</time>
      </trkpt>
      <trkpt lat="45.36799" lon="4.18449">
        <ele>571.16</ele>
        <time>2014-05-08T12:16:54Z</time>
      </trkpt>
      <trkpt lat="45.368" lon="4.18444">
        <ele>572.12</ele>
        <time>2014-05-08T12:16:57Z</time>
      </trkpt>
      <trkpt lat="45.368" lon="4.18443">
        <ele>573.08</ele>
        <time>2014-05-08T12:16:58Z</time>
      </trkpt>
      <trkpt lat="45.36802" lon="4.18435">
        <ele>572.12</ele>
        <time>2014-05-08T12:17:02Z</time>
      </trkpt>
      <trkpt lat="45.36802" lon="4.18433">
        <ele>573.56</ele>
        <time>2014-05-08T12:17:03Z</time>
      </trkpt>
      <trkpt lat="45.36803" lon="4.18422">
        <ele>575.97</ele>
        <time>2014-05-08T12:17:10Z</time>
      </trkpt>
      <trkpt lat="45.36802" lon="4.1841">
        <ele>577.89</ele>
        <time>2014-05-08T12:17:17Z</time>
      </trkpt>
      <trkpt lat="45.36802" lon="4.18405">
        <ele>577.89</ele>
        <time>2014-05-08T12:17:20Z</time>
      </trkpt>
      <trkpt lat="45.36802" lon="4.1838">
        <ele>581.25</ele>
        <time>2014-05-08T12:17:34Z</time>
      </trkpt>
      <trkpt lat="45.368" lon="4.18369">
        <ele>581.73</ele>
        <time>2014-05-08T12:17:39Z</time>
      </trkpt>
      <trkpt lat="45.368" lon="4.18367">
        <ele>581.73</ele>
        <time>2014-05-08T12:17:40Z</time>
      </trkpt>
      <trkpt lat="45.36799" lon="4.1834">
        <ele>585.1</ele>
        <time>2014-05-08T12:17:56Z</time>
      </trkpt>
      <trkpt lat="45.36798" lon="4.18334">
        <ele>586.06</ele>
        <time>2014-05-08T12:18:00Z</time>
      </trkpt>
      <trkpt lat="45.36803" lon="4.18325">
        <ele>589.91</ele>
        <time>2014-05-08T12:18:09Z</time>
      </trkpt>
      <trkpt lat="45.36801" lon="4.18327">
        <ele>586.06</ele>
        <time>2014-05-08T12:18:16Z</time>
      </trkpt>
      <trkpt lat="45.36802" lon="4.18316">
        <ele>589.43</ele>
        <time>2014-05-08T12:18:38Z</time>
      </trkpt>
      <trkpt lat="45.36798" lon="4.1833">
        <ele>588.95</ele>
        <time>2014-05-08T12:19:07Z</time>
      </trkpt>
      <trkpt lat="45.36796" lon="4.18311">
        <ele>590.39</ele>
        <time>2014-05-08T12:19:39Z</time>
      </trkpt>
      <trkpt lat="45.36801" lon="4.18318">
        <ele>590.39</ele>
        <time>2014-05-08T12:20:09Z</time>
      </trkpt>
      <trkpt lat="45.36804" lon="4.18309">
        <ele>592.79</ele>
        <time>2014-05-08T12:20:37Z</time>
      </trkpt>
      <trkpt lat="45.36807" lon="4.18306">
        <ele>593.27</ele>
        <time>2014-05-08T12:20:41Z</time>
      </trkpt>
      <trkpt lat="45.36819" lon="4.18295">
        <ele>595.19</ele>
        <time>2014-05-08T12:20:56Z</time>
      </trkpt>
      <trkpt lat="45.36828" lon="4.18294">
        <ele>597.6</ele>
        <time>2014-05-08T12:21:05Z</time>
      </trkpt>
      <trkpt lat="45.36838" lon="4.18295">
        <ele>600.96</ele>
        <time>2014-05-08T12:21:16Z</time>
      </trkpt>
      <trkpt lat="45.36852" lon="4.18299">
        <ele>604.33</ele>
        <time>2014-05-08T12:21:29Z</time>
      </trkpt>
      <trkpt lat="45.36863" lon="4.18304">
        <ele>607.69</ele>
        <time>2014-05-08T12:21:41Z</time>
      </trkpt>
      <trkpt lat="45.36865" lon="4.18304">
        <ele>606.73</ele>
        <time>2014-05-08T12:21:43Z</time>
      </trkpt>
      <trkpt lat="45.36874" lon="4.18304">
        <ele>608.65</ele>
        <time>2014-05-08T12:21:49Z</time>
      </trkpt>
      <trkpt lat="45.36881" lon="4.18304">
        <ele>609.61</ele>
        <time>2014-05-08T12:21:53Z</time>
      </trkpt>
      <trkpt lat="45.36894" lon="4.18303">
        <ele>611.54</ele>
        <time>2014-05-08T12:22:02Z</time>
      </trkpt>
      <trkpt lat="45.36906" lon="4.18297">
        <ele>614.9</ele>
        <time>2014-05-08T12:22:14Z</time>
      </trkpt>
      <trkpt lat="45.3692" lon="4.18302">
        <ele>615.38</ele>
        <time>2014-05-08T12:22:31Z</time>
      </trkpt>
      <trkpt lat="45.36926" lon="4.18288">
        <ele>617.3</ele>
        <time>2014-05-08T12:22:53Z</time>
      </trkpt>
      <trkpt lat="45.36932" lon="4.18274">
        <ele>616.34</ele>
        <time>2014-05-08T12:23:05Z</time>
      </trkpt>
      <trkpt lat="45.36933" lon="4.18274">
        <ele>617.78</ele>
        <time>2014-05-08T12:23:09Z</time>
      </trkpt>
      <trkpt lat="45.36938" lon="4.18267">
        <ele>617.78</ele>
        <time>2014-05-08T12:23:19Z</time>
      </trkpt>
      <trkpt lat="45.36938" lon="4.18266">
        <ele>615.86</ele>
        <time>2014-05-08T12:23:21Z</time>
      </trkpt>
      <trkpt lat="45.36939" lon="4.18264">
        <ele>617.3</ele>
        <time>2014-05-08T12:23:25Z</time>
      </trkpt>
      <trkpt lat="45.36927" lon="4.18262">
        <ele>619.23</ele>
        <time>2014-05-08T12:23:47Z</time>
      </trkpt>
      <trkpt lat="45.36927" lon="4.18254">
        <ele>619.23</ele>
        <time>2014-05-08T12:24:17Z</time>
      </trkpt>
      <trkpt lat="45.3692" lon="4.18246">
        <ele>619.23</ele>
        <time>2014-05-08T12:24:44Z</time>
      </trkpt>
      <trkpt lat="45.36916" lon="4.18239">
        <ele>619.23</ele>
        <time>2014-05-08T12:25:04Z</time>
      </trkpt>
      <trkpt lat="45.36924" lon="4.1823">
        <ele>622.59</ele>
        <time>2014-05-08T12:25:11Z</time>
      </trkpt>
      <trkpt lat="45.36928" lon="4.18227">
        <ele>623.55</ele>
        <time>2014-05-08T12:25:15Z</time>
      </trkpt>
      <trkpt lat="45.3694" lon="4.18213">
        <ele>626.44</ele>
        <time>2014-05-08T12:25:30Z</time>
      </trkpt>
      <trkpt lat="45.3695" lon="4.18195">
        <ele>630.28</ele>
        <time>2014-05-08T12:25:42Z</time>
      </trkpt>
      <trkpt lat="45.36962" lon="4.18175">
        <ele>632.68</ele>
        <time>2014-05-08T12:25:59Z</time>
      </trkpt>
      <trkpt lat="45.36963" lon="4.18174">
        <ele>632.2</ele>
        <time>2014-05-08T12:26:00Z</time>
      </trkpt>
      <trkpt lat="45.36963" lon="4.18172">
        <ele>634.13</ele>
        <time>2014-05-08T12:26:01Z</time>
      </trkpt>
      <trkpt lat="45.36967" lon="4.18148">
        <ele>636.05</ele>
        <time>2014-05-08T12:26:14Z</time>
      </trkpt>
      <trkpt lat="45.36969" lon="4.18137">
        <ele>637.97</ele>
        <time>2014-05-08T12:26:18Z</time>
      </trkpt>
      <trkpt lat="45.36956" lon="4.1811">
        <ele>639.89</ele>
        <time>2014-05-08T12:26:35Z</time>
      </trkpt>
      <trkpt lat="45.36949" lon="4.18101">
        <ele>641.34</ele>
        <time>2014-05-08T12:26:42Z</time>
      </trkpt>
      <trkpt lat="45.36936" lon="4.18082">
        <ele>642.78</ele>
        <time>2014-05-08T12:26:55Z</time>
      </trkpt>
      <trkpt lat="45.36923" lon="4.18063">
        <ele>643.26</ele>
        <time>2014-05-08T12:27:14Z</time>
      </trkpt>
      <trkpt lat="45.36923" lon="4.18045">
        <ele>644.22</ele>
        <time>2014-05-08T12:27:25Z</time>
      </trkpt>
      <trkpt lat="45.36924" lon="4.18039">
        <ele>643.74</ele>
        <time>2014-05-08T12:27:28Z</time>
      </trkpt>
      <trkpt lat="45.36937" lon="4.18011">
        <ele>646.62</ele>
        <time>2014-05-08T12:27:44Z</time>
      </trkpt>
      <trkpt lat="45.36939" lon="4.18007">
        <ele>647.1</ele>
        <time>2014-05-08T12:27:46Z</time>
      </trkpt>
      <trkpt lat="45.3695" lon="4.17983">
        <ele>649.99</ele>
        <time>2014-05-08T12:28:00Z</time>
      </trkpt>
      <trkpt lat="45.36957" lon="4.17967">
        <ele>652.39</ele>
        <time>2014-05-08T12:28:09Z</time>
      </trkpt>
      <trkpt lat="45.36966" lon="4.17927">
        <ele>655.76</ele>
        <time>2014-05-08T12:28:28Z</time>
      </trkpt>
      <trkpt lat="45.36967" lon="4.17925">
        <ele>654.8</ele>
        <time>2014-05-08T12:28:29Z</time>
      </trkpt>
      <trkpt lat="45.36975" lon="4.17906">
        <ele>656.24</ele>
        <time>2014-05-08T12:28:41Z</time>
      </trkpt>
      <trkpt lat="45.36975" lon="4.17903">
        <ele>655.76</ele>
        <time>2014-05-08T12:28:42Z</time>
      </trkpt>
      <trkpt lat="45.36978" lon="4.17866">
        <ele>657.2</ele>
        <time>2014-05-08T12:28:58Z</time>
      </trkpt>
      <trkpt lat="45.36979" lon="4.17831">
        <ele>660.08</ele>
        <time>2014-05-08T12:29:12Z</time>
      </trkpt>
      <trkpt lat="45.36982" lon="4.17798">
        <ele>662.97</ele>
        <time>2014-05-08T12:29:26Z</time>
      </trkpt>
      <trkpt lat="45.36984" lon="4.17762">
        <ele>663.93</ele>
        <time>2014-05-08T12:29:41Z</time>
      </trkpt>
      <trkpt lat="45.36988" lon="4.17744">
        <ele>667.29</ele>
        <time>2014-05-08T12:29:51Z</time>
      </trkpt>
      <trkpt lat="45.36988" lon="4.17721">
        <ele>669.7</ele>
        <time>2014-05-08T12:30:06Z</time>
      </trkpt>
      <trkpt lat="45.36994" lon="4.17707">
        <ele>673.06</ele>
        <time>2014-05-08T12:30:19Z</time>
      </trkpt>
      <trkpt lat="45.36999" lon="4.17695">
        <ele>674.5</ele>
        <time>2014-05-08T12:30:27Z</time>
      </trkpt>
      <trkpt lat="45.37" lon="4.17691">
        <ele>674.02</ele>
        <time>2014-05-08T12:30:29Z</time>
      </trkpt>
      <trkpt lat="45.37003" lon="4.17676">
        <ele>673.54</ele>
        <time>2014-05-08T12:30:44Z</time>
      </trkpt>
      <trkpt lat="45.37004" lon="4.17667">
        <ele>677.87</ele>
        <time>2014-05-08T12:30:54Z</time>
      </trkpt>
      <trkpt lat="45.37011" lon="4.17644">
        <ele>679.79</ele>
        <time>2014-05-08T12:31:14Z</time>
      </trkpt>
      <trkpt lat="45.37018" lon="4.17632">
        <ele>681.23</ele>
        <time>2014-05-08T12:31:22Z</time>
      </trkpt>
      <trkpt lat="45.37017" lon="4.17615">
        <ele>682.67</ele>
        <time>2014-05-08T12:31:33Z</time>
      </trkpt>
      <trkpt lat="45.37014" lon="4.17598">
        <ele>685.08</ele>
        <time>2014-05-08T12:31:49Z</time>
      </trkpt>
      <trkpt lat="45.37016" lon="4.17589">
        <ele>686.04</ele>
        <time>2014-05-08T12:32:08Z</time>
      </trkpt>
      <trkpt lat="45.37015" lon="4.17586">
        <ele>687</ele>
        <time>2014-05-08T12:32:10Z</time>
      </trkpt>
      <trkpt lat="45.37015" lon="4.17578">
        <ele>687.96</ele>
        <time>2014-05-08T12:32:25Z</time>
      </trkpt>
      <trkpt lat="45.37018" lon="4.17564">
        <ele>688.92</ele>
        <time>2014-05-08T12:32:45Z</time>
      </trkpt>
      <trkpt lat="45.37019" lon="4.17556">
        <ele>690.36</ele>
        <time>2014-05-08T12:33:05Z</time>
      </trkpt>
      <trkpt lat="45.37017" lon="4.17547">
        <ele>693.73</ele>
        <time>2014-05-08T12:33:17Z</time>
      </trkpt>
      <trkpt lat="45.37017" lon="4.17529">
        <ele>694.69</ele>
        <time>2014-05-08T12:33:37Z</time>
      </trkpt>
      <trkpt lat="45.37015" lon="4.17518">
        <ele>698.53</ele>
        <time>2014-05-08T12:33:51Z</time>
      </trkpt>
      <trkpt lat="45.37015" lon="4.17516">
        <ele>698.53</ele>
        <time>2014-05-08T12:33:55Z</time>
      </trkpt>
      <trkpt lat="45.37021" lon="4.17503">
        <ele>700.94</ele>
        <time>2014-05-08T12:34:11Z</time>
      </trkpt>
      <trkpt lat="45.3703" lon="4.17495">
        <ele>702.86</ele>
        <time>2014-05-08T12:34:32Z</time>
      </trkpt>
      <trkpt lat="45.37045" lon="4.17489">
        <ele>706.23</ele>
        <time>2014-05-08T12:34:49Z</time>
      </trkpt>
      <trkpt lat="45.37046" lon="4.17477">
        <ele>707.67</ele>
        <time>2014-05-08T12:35:06Z</time>
      </trkpt>
      <trkpt lat="45.37041" lon="4.17457">
        <ele>709.59</ele>
        <time>2014-05-08T12:35:28Z</time>
      </trkpt>
      <trkpt lat="45.37039" lon="4.17444">
        <ele>712.95</ele>
        <time>2014-05-08T12:35:41Z</time>
      </trkpt>
      <trkpt lat="45.37038" lon="4.17427">
        <ele>714.4</ele>
        <time>2014-05-08T12:35:57Z</time>
      </trkpt>
      <trkpt lat="45.37045" lon="4.1741">
        <ele>716.32</ele>
        <time>2014-05-08T12:36:17Z</time>
      </trkpt>
      <trkpt lat="45.37045" lon="4.17405">
        <ele>718.72</ele>
        <time>2014-05-08T12:36:21Z</time>
      </trkpt>
      <trkpt lat="45.37045" lon="4.1739">
        <ele>719.68</ele>
        <time>2014-05-08T12:36:39Z</time>
      </trkpt>
      <trkpt lat="45.37042" lon="4.17373">
        <ele>719.68</ele>
        <time>2014-05-08T12:37:05Z</time>
      </trkpt>
      <trkpt lat="45.3704" lon="4.17354">
        <ele>723.05</ele>
        <time>2014-05-08T12:37:26Z</time>
      </trkpt>
      <trkpt lat="45.37049" lon="4.1732">
        <ele>724.49</ele>
        <time>2014-05-08T12:37:45Z</time>
      </trkpt>
      <trkpt lat="45.37049" lon="4.17313">
        <ele>724.97</ele>
        <time>2014-05-08T12:37:47Z</time>
      </trkpt>
      <trkpt lat="45.37045" lon="4.1726">
        <ele>724.49</ele>
        <time>2014-05-08T12:38:00Z</time>
      </trkpt>
      <trkpt lat="45.37036" lon="4.17221">
        <ele>723.53</ele>
        <time>2014-05-08T12:38:07Z</time>
      </trkpt>
      <trkpt lat="45.37026" lon="4.17163">
        <ele>724.01</ele>
        <time>2014-05-08T12:38:20Z</time>
      </trkpt>
      <trkpt lat="45.37025" lon="4.17118">
        <ele>727.37</ele>
        <time>2014-05-08T12:38:31Z</time>
      </trkpt>
      <trkpt lat="45.37025" lon="4.17116">
        <ele>727.86</ele>
        <time>2014-05-08T12:38:32Z</time>
      </trkpt>
      <trkpt lat="45.37015" lon="4.17073">
        <ele>728.82</ele>
        <time>2014-05-08T12:38:47Z</time>
      </trkpt>
      <trkpt lat="45.37015" lon="4.1707">
        <ele>729.3</ele>
        <time>2014-05-08T12:38:48Z</time>
      </trkpt>
      <trkpt lat="45.37017" lon="4.17067">
        <ele>728.34</ele>
        <time>2014-05-08T12:38:49Z</time>
      </trkpt>
      <trkpt lat="45.37019" lon="4.17064">
        <ele>728.82</ele>
        <time>2014-05-08T12:38:50Z</time>
      </trkpt>
      <trkpt lat="45.37021" lon="4.17061">
        <ele>730.26</ele>
        <time>2014-05-08T12:38:51Z</time>
      </trkpt>
      <trkpt lat="45.37041" lon="4.17031">
        <ele>730.26</ele>
        <time>2014-05-08T12:39:04Z</time>
      </trkpt>
      <trkpt lat="45.37051" lon="4.16989">
        <ele>733.14</ele>
        <time>2014-05-08T12:39:17Z</time>
      </trkpt>
      <trkpt lat="45.37053" lon="4.16967">
        <ele>734.1</ele>
        <time>2014-05-08T12:39:24Z</time>
      </trkpt>
      <trkpt lat="45.3704" lon="4.16914">
        <ele>734.1</ele>
        <time>2014-05-08T12:39:37Z</time>
      </trkpt>
      <trkpt lat="45.37038" lon="4.16908">
        <ele>734.58</ele>
        <time>2014-05-08T12:39:38Z</time>
      </trkpt>
      <trkpt lat="45.37007" lon="4.16838">
        <ele>732.18</ele>
        <time>2014-05-08T12:39:54Z</time>
      </trkpt>
      <trkpt lat="45.36999" lon="4.16782">
        <ele>732.18</ele>
        <time>2014-05-08T12:40:07Z</time>
      </trkpt>
      <trkpt lat="45.37" lon="4.16752">
        <ele>733.62</ele>
        <time>2014-05-08T12:40:15Z</time>
      </trkpt>
      <trkpt lat="45.37001" lon="4.16748">
        <ele>731.7</ele>
        <time>2014-05-08T12:40:16Z</time>
      </trkpt>
      <trkpt lat="45.37031" lon="4.16687">
        <ele>734.58</ele>
        <time>2014-05-08T12:40:32Z</time>
      </trkpt>
      <trkpt lat="45.37052" lon="4.16637">
        <ele>735.55</ele>
        <time>2014-05-08T12:40:47Z</time>
      </trkpt>
      <trkpt lat="45.37064" lon="4.16622">
        <ele>737.47</ele>
        <time>2014-05-08T12:40:53Z</time>
      </trkpt>
      <trkpt lat="45.3709" lon="4.16591">
        <ele>739.39</ele>
        <time>2014-05-08T12:41:06Z</time>
      </trkpt>
      <trkpt lat="45.3711" lon="4.16568">
        <ele>742.76</ele>
        <time>2014-05-08T12:41:17Z</time>
      </trkpt>
      <trkpt lat="45.37124" lon="4.16532">
        <ele>745.16</ele>
        <time>2014-05-08T12:41:31Z</time>
      </trkpt>
      <trkpt lat="45.37126" lon="4.16478">
        <ele>747.08</ele>
        <time>2014-05-08T12:41:47Z</time>
      </trkpt>
      <trkpt lat="45.37139" lon="4.16433">
        <ele>747.56</ele>
        <time>2014-05-08T12:42:00Z</time>
      </trkpt>
      <trkpt lat="45.37148" lon="4.16387">
        <ele>750.93</ele>
        <time>2014-05-08T12:42:13Z</time>
      </trkpt>
      <trkpt lat="45.37153" lon="4.16355">
        <ele>751.89</ele>
        <time>2014-05-08T12:42:22Z</time>
      </trkpt>
      <trkpt lat="45.37168" lon="4.16302">
        <ele>754.77</ele>
        <time>2014-05-08T12:42:38Z</time>
      </trkpt>
      <trkpt lat="45.37187" lon="4.16253">
        <ele>752.85</ele>
        <time>2014-05-08T12:42:51Z</time>
      </trkpt>
      <trkpt lat="45.37212" lon="4.16197">
        <ele>752.85</ele>
        <time>2014-05-08T12:43:03Z</time>
      </trkpt>
      <trkpt lat="45.37229" lon="4.16117">
        <ele>751.89</ele>
        <time>2014-05-08T12:43:18Z</time>
      </trkpt>
      <trkpt lat="45.37258" lon="4.16036">
        <ele>751.89</ele>
        <time>2014-05-08T12:43:33Z</time>
      </trkpt>
      <trkpt lat="45.37283" lon="4.15963">
        <ele>752.85</ele>
        <time>2014-05-08T12:43:50Z</time>
      </trkpt>
      <trkpt lat="45.37303" lon="4.15917">
        <ele>754.29</ele>
        <time>2014-05-08T12:44:05Z</time>
      </trkpt>
      <trkpt lat="45.37306" lon="4.15912">
        <ele>755.25</ele>
        <time>2014-05-08T12:44:07Z</time>
      </trkpt>
      <trkpt lat="45.37328" lon="4.15859">
        <ele>755.25</ele>
        <time>2014-05-08T12:44:23Z</time>
      </trkpt>
      <trkpt lat="45.37352" lon="4.1581">
        <ele>755.25</ele>
        <time>2014-05-08T12:44:40Z</time>
      </trkpt>
      <trkpt lat="45.37372" lon="4.15765">
        <ele>758.62</ele>
        <time>2014-05-08T12:44:54Z</time>
      </trkpt>
      <trkpt lat="45.37375" lon="4.15754">
        <ele>758.62</ele>
        <time>2014-05-08T12:44:58Z</time>
      </trkpt>
      <trkpt lat="45.37375" lon="4.1575">
        <ele>757.66</ele>
        <time>2014-05-08T12:44:59Z</time>
      </trkpt>
      <trkpt lat="45.37384" lon="4.15691">
        <ele>758.62</ele>
        <time>2014-05-08T12:45:15Z</time>
      </trkpt>
      <trkpt lat="45.37401" lon="4.15632">
        <ele>759.1</ele>
        <time>2014-05-08T12:45:29Z</time>
      </trkpt>
      <trkpt lat="45.37394" lon="4.15594">
        <ele>760.54</ele>
        <time>2014-05-08T12:45:42Z</time>
      </trkpt>
      <trkpt lat="45.37381" lon="4.1555">
        <ele>761.02</ele>
        <time>2014-05-08T12:45:56Z</time>
      </trkpt>
      <trkpt lat="45.37377" lon="4.1552">
        <ele>762.46</ele>
        <time>2014-05-08T12:46:08Z</time>
      </trkpt>
      <trkpt lat="45.37371" lon="4.15485">
        <ele>764.39</ele>
        <time>2014-05-08T12:46:21Z</time>
      </trkpt>
      <trkpt lat="45.37363" lon="4.15458">
        <ele>768.23</ele>
        <time>2014-05-08T12:46:35Z</time>
      </trkpt>
      <trkpt lat="45.37368" lon="4.15428">
        <ele>768.23</ele>
        <time>2014-05-08T12:46:47Z</time>
      </trkpt>
      <trkpt lat="45.37372" lon="4.15408">
        <ele>772.08</ele>
        <time>2014-05-08T12:46:57Z</time>
      </trkpt>
      <trkpt lat="45.37377" lon="4.15368">
        <ele>774</ele>
        <time>2014-05-08T12:47:15Z</time>
      </trkpt>
      <trkpt lat="45.37383" lon="4.15352">
        <ele>774.48</ele>
        <time>2014-05-08T12:47:23Z</time>
      </trkpt>
      <trkpt lat="45.37387" lon="4.15341">
        <ele>775.44</ele>
        <time>2014-05-08T12:47:28Z</time>
      </trkpt>
      <trkpt lat="45.37395" lon="4.1531">
        <ele>779.29</ele>
        <time>2014-05-08T12:47:42Z</time>
      </trkpt>
      <trkpt lat="45.37404" lon="4.15283">
        <ele>780.25</ele>
        <time>2014-05-08T12:47:54Z</time>
      </trkpt>
      <trkpt lat="45.37407" lon="4.15268">
        <ele>781.21</ele>
        <time>2014-05-08T12:47:59Z</time>
      </trkpt>
      <trkpt lat="45.37435" lon="4.15229">
        <ele>780.25</ele>
        <time>2014-05-08T12:48:15Z</time>
      </trkpt>
      <trkpt lat="45.37437" lon="4.15225">
        <ele>781.69</ele>
        <time>2014-05-08T12:48:16Z</time>
      </trkpt>
      <trkpt lat="45.37449" lon="4.15203">
        <ele>781.21</ele>
        <time>2014-05-08T12:48:25Z</time>
      </trkpt>
      <trkpt lat="45.37457" lon="4.15193">
        <ele>784.09</ele>
        <time>2014-05-08T12:48:30Z</time>
      </trkpt>
      <trkpt lat="45.37464" lon="4.15183">
        <ele>782.17</ele>
        <time>2014-05-08T12:48:35Z</time>
      </trkpt>
      <trkpt lat="45.37467" lon="4.15176">
        <ele>783.61</ele>
        <time>2014-05-08T12:48:38Z</time>
      </trkpt>
      <trkpt lat="45.37478" lon="4.15151">
        <ele>785.05</ele>
        <time>2014-05-08T12:48:49Z</time>
      </trkpt>
      <trkpt lat="45.37479" lon="4.15149">
        <ele>784.09</ele>
        <time>2014-05-08T12:48:50Z</time>
      </trkpt>
      <trkpt lat="45.3748" lon="4.15145">
        <ele>784.09</ele>
        <time>2014-05-08T12:48:51Z</time>
      </trkpt>
      <trkpt lat="45.37486" lon="4.15133">
        <ele>785.53</ele>
        <time>2014-05-08T12:48:55Z</time>
      </trkpt>
      <trkpt lat="45.37491" lon="4.15108">
        <ele>787.46</ele>
        <time>2014-05-08T12:49:04Z</time>
      </trkpt>
      <trkpt lat="45.37492" lon="4.15107">
        <ele>787.46</ele>
        <time>2014-05-08T12:49:05Z</time>
      </trkpt>
      <trkpt lat="45.37507" lon="4.15065">
        <ele>790.34</ele>
        <time>2014-05-08T12:49:16Z</time>
      </trkpt>
      <trkpt lat="45.37508" lon="4.15063">
        <ele>790.82</ele>
        <time>2014-05-08T12:49:17Z</time>
      </trkpt>
      <trkpt lat="45.37526" lon="4.15039">
        <ele>792.74</ele>
        <time>2014-05-08T12:49:32Z</time>
      </trkpt>
      <trkpt lat="45.37529" lon="4.15036">
        <ele>792.26</ele>
        <time>2014-05-08T12:49:35Z</time>
      </trkpt>
      <trkpt lat="45.3753" lon="4.15034">
        <ele>795.15</ele>
        <time>2014-05-08T12:49:36Z</time>
      </trkpt>
      <trkpt lat="45.3753" lon="4.15032">
        <ele>792.74</ele>
        <time>2014-05-08T12:49:37Z</time>
      </trkpt>
      <trkpt lat="45.3753" lon="4.15029">
        <ele>793.22</ele>
        <time>2014-05-08T12:49:38Z</time>
      </trkpt>
      <trkpt lat="45.3753" lon="4.15027">
        <ele>792.26</ele>
        <time>2014-05-08T12:49:39Z</time>
      </trkpt>
      <trkpt lat="45.37531" lon="4.15024">
        <ele>792.26</ele>
        <time>2014-05-08T12:49:40Z</time>
      </trkpt>
      <trkpt lat="45.37531" lon="4.15021">
        <ele>793.22</ele>
        <time>2014-05-08T12:49:41Z</time>
      </trkpt>
      <trkpt lat="45.37531" lon="4.15018">
        <ele>793.22</ele>
        <time>2014-05-08T12:49:42Z</time>
      </trkpt>
      <trkpt lat="45.37531" lon="4.15016">
        <ele>792.26</ele>
        <time>2014-05-08T12:49:43Z</time>
      </trkpt>
      <trkpt lat="45.37542" lon="4.14979">
        <ele>793.22</ele>
        <time>2014-05-08T12:49:55Z</time>
      </trkpt>
      <trkpt lat="45.37543" lon="4.14972">
        <ele>792.26</ele>
        <time>2014-05-08T12:49:58Z</time>
      </trkpt>
      <trkpt lat="45.37533" lon="4.14929">
        <ele>792.26</ele>
        <time>2014-05-08T12:50:10Z</time>
      </trkpt>
      <trkpt lat="45.37535" lon="4.14864">
        <ele>789.38</ele>
        <time>2014-05-08T12:50:21Z</time>
      </trkpt>
      <trkpt lat="45.3755" lon="4.14791">
        <ele>788.42</ele>
        <time>2014-05-08T12:50:36Z</time>
      </trkpt>
      <trkpt lat="45.37551" lon="4.14768">
        <ele>789.86</ele>
        <time>2014-05-08T12:50:43Z</time>
      </trkpt>
      <trkpt lat="45.37552" lon="4.14756">
        <ele>789.86</ele>
        <time>2014-05-08T12:51:03Z</time>
      </trkpt>
      <trkpt lat="45.3755" lon="4.14752">
        <ele>789.38</ele>
        <time>2014-05-08T12:51:14Z</time>
      </trkpt>
      <trkpt lat="45.3755" lon="4.14748">
        <ele>792.26</ele>
        <time>2014-05-08T12:51:25Z</time>
      </trkpt>
      <trkpt lat="45.37549" lon="4.14748">
        <ele>793.22</ele>
        <time>2014-05-08T12:51:27Z</time>
      </trkpt>
      <trkpt lat="45.37548" lon="4.14739">
        <ele>794.67</ele>
        <time>2014-05-08T12:51:47Z</time>
      </trkpt>
      <trkpt lat="45.37548" lon="4.14728">
        <ele>796.59</ele>
        <time>2014-05-08T12:52:07Z</time>
      </trkpt>
      <trkpt lat="45.37547" lon="4.14721">
        <ele>798.51</ele>
        <time>2014-05-08T12:52:24Z</time>
      </trkpt>
      <trkpt lat="45.37545" lon="4.14701">
        <ele>801.88</ele>
        <time>2014-05-08T12:52:42Z</time>
      </trkpt>
      <trkpt lat="45.37546" lon="4.14701">
        <ele>802.36</ele>
        <time>2014-05-08T12:52:43Z</time>
      </trkpt>
      <trkpt lat="45.37547" lon="4.1469">
        <ele>802.36</ele>
        <time>2014-05-08T12:52:57Z</time>
      </trkpt>
      <trkpt lat="45.37547" lon="4.14682">
        <ele>806.2</ele>
        <time>2014-05-08T12:53:15Z</time>
      </trkpt>
      <trkpt lat="45.37547" lon="4.14682">
        <ele>803.32</ele>
        <time>2014-05-08T12:53:18Z</time>
      </trkpt>
      <trkpt lat="45.37547" lon="4.14681">
        <ele>802.36</ele>
        <time>2014-05-08T12:53:31Z</time>
      </trkpt>
      <trkpt lat="45.37545" lon="4.14681">
        <ele>801.88</ele>
        <time>2014-05-08T12:54:14Z</time>
      </trkpt>
      <trkpt lat="45.37545" lon="4.14679">
        <ele>801.4</ele>
        <time>2014-05-08T12:54:58Z</time>
      </trkpt>
      <trkpt lat="45.37547" lon="4.14681">
        <ele>802.36</ele>
        <time>2014-05-08T12:55:11Z</time>
      </trkpt>
      <trkpt lat="45.37549" lon="4.14686">
        <ele>801.88</ele>
        <time>2014-05-08T12:55:33Z</time>
      </trkpt>
      <trkpt lat="45.37552" lon="4.14683">
        <ele>800.92</ele>
        <time>2014-05-08T12:56:02Z</time>
      </trkpt>
      <trkpt lat="45.37553" lon="4.14683">
        <ele>801.4</ele>
        <time>2014-05-08T12:56:19Z</time>
      </trkpt>
      <trkpt lat="45.37549" lon="4.14679">
        <ele>801.88</ele>
        <time>2014-05-08T12:56:28Z</time>
      </trkpt>
      <trkpt lat="45.37548" lon="4.14677">
        <ele>801.4</ele>
        <time>2014-05-08T12:56:29Z</time>
      </trkpt>
      <trkpt lat="45.37545" lon="4.14653">
        <ele>803.8</ele>
        <time>2014-05-08T12:56:40Z</time>
      </trkpt>
      <trkpt lat="45.37534" lon="4.14638">
        <ele>804.28</ele>
        <time>2014-05-08T12:56:52Z</time>
      </trkpt>
      <trkpt lat="45.37519" lon="4.14632">
        <ele>803.8</ele>
        <time>2014-05-08T12:57:05Z</time>
      </trkpt>
      <trkpt lat="45.3749" lon="4.14638">
        <ele>802.36</ele>
        <time>2014-05-08T12:57:12Z</time>
      </trkpt>
      <trkpt lat="45.37485" lon="4.14642">
        <ele>800.92</ele>
        <time>2014-05-08T12:57:14Z</time>
      </trkpt>
      <trkpt lat="45.37483" lon="4.14645">
        <ele>800.92</ele>
        <time>2014-05-08T12:57:15Z</time>
      </trkpt>
      <trkpt lat="45.37481" lon="4.14648">
        <ele>798.99</ele>
        <time>2014-05-08T12:57:16Z</time>
      </trkpt>
      <trkpt lat="45.37479" lon="4.14652">
        <ele>798.99</ele>
        <time>2014-05-08T12:57:17Z</time>
      </trkpt>
      <trkpt lat="45.37473" lon="4.14666">
        <ele>795.15</ele>
        <time>2014-05-08T12:57:20Z</time>
      </trkpt>
      <trkpt lat="45.37471" lon="4.14678">
        <ele>791.78</ele>
        <time>2014-05-08T12:57:22Z</time>
      </trkpt>
      <trkpt lat="45.37466" lon="4.14685">
        <ele>790.82</ele>
        <time>2014-05-08T12:57:24Z</time>
      </trkpt>
      <trkpt lat="45.37462" lon="4.14688">
        <ele>790.34</ele>
        <time>2014-05-08T12:57:25Z</time>
      </trkpt>
      <trkpt lat="45.37448" lon="4.14696">
        <ele>787.94</ele>
        <time>2014-05-08T12:57:29Z</time>
      </trkpt>
      <trkpt lat="45.37444" lon="4.14695">
        <ele>787.46</ele>
        <time>2014-05-08T12:57:30Z</time>
      </trkpt>
      <trkpt lat="45.3744" lon="4.14694">
        <ele>786.02</ele>
        <time>2014-05-08T12:57:31Z</time>
      </trkpt>
      <trkpt lat="45.37435" lon="4.1469">
        <ele>786.5</ele>
        <time>2014-05-08T12:57:32Z</time>
      </trkpt>
      <trkpt lat="45.37425" lon="4.14684">
        <ele>782.65</ele>
        <time>2014-05-08T12:57:34Z</time>
      </trkpt>
      <trkpt lat="45.37421" lon="4.1468">
        <ele>782.17</ele>
        <time>2014-05-08T12:57:35Z</time>
      </trkpt>
      <trkpt lat="45.37402" lon="4.14662">
        <ele>777.84</ele>
        <time>2014-05-08T12:57:39Z</time>
      </trkpt>
      <trkpt lat="45.37392" lon="4.14655">
        <ele>775.92</ele>
        <time>2014-05-08T12:57:41Z</time>
      </trkpt>
      <trkpt lat="45.37388" lon="4.14652">
        <ele>774.48</ele>
        <time>2014-05-08T12:57:42Z</time>
      </trkpt>
      <trkpt lat="45.37384" lon="4.14651">
        <ele>773.04</ele>
        <time>2014-05-08T12:57:43Z</time>
      </trkpt>
      <trkpt lat="45.37381" lon="4.14651">
        <ele>774</ele>
        <time>2014-05-08T12:57:44Z</time>
      </trkpt>
      <trkpt lat="45.37377" lon="4.14652">
        <ele>773.04</ele>
        <time>2014-05-08T12:57:45Z</time>
      </trkpt>
      <trkpt lat="45.37375" lon="4.14653">
        <ele>772.56</ele>
        <time>2014-05-08T12:57:46Z</time>
      </trkpt>
      <trkpt lat="45.37372" lon="4.14654">
        <ele>771.11</ele>
        <time>2014-05-08T12:57:48Z</time>
      </trkpt>
      <trkpt lat="45.37355" lon="4.14663">
        <ele>767.27</ele>
        <time>2014-05-08T12:57:55Z</time>
      </trkpt>
      <trkpt lat="45.37348" lon="4.14669">
        <ele>765.83</ele>
        <time>2014-05-08T12:57:58Z</time>
      </trkpt>
      <trkpt lat="45.3734" lon="4.14676">
        <ele>762.46</ele>
        <time>2014-05-08T12:58:01Z</time>
      </trkpt>
      <trkpt lat="45.37335" lon="4.14677">
        <ele>761.02</ele>
        <time>2014-05-08T12:58:05Z</time>
      </trkpt>
      <trkpt lat="45.37334" lon="4.14677">
        <ele>759.58</ele>
        <time>2014-05-08T12:58:06Z</time>
      </trkpt>
      <trkpt lat="45.3733" lon="4.14672">
        <ele>760.06</ele>
        <time>2014-05-08T12:58:11Z</time>
      </trkpt>
      <trkpt lat="45.37328" lon="4.14671">
        <ele>760.06</ele>
        <time>2014-05-08T12:58:12Z</time>
      </trkpt>
      <trkpt lat="45.37327" lon="4.1467">
        <ele>759.1</ele>
        <time>2014-05-08T12:58:13Z</time>
      </trkpt>
      <trkpt lat="45.37327" lon="4.1467">
        <ele>757.66</ele>
        <time>2014-05-08T12:58:14Z</time>
      </trkpt>
      <trkpt lat="45.37326" lon="4.14671">
        <ele>758.62</ele>
        <time>2014-05-08T12:58:15Z</time>
      </trkpt>
      <trkpt lat="45.37325" lon="4.14672">
        <ele>758.14</ele>
        <time>2014-05-08T12:58:16Z</time>
      </trkpt>
      <trkpt lat="45.37324" lon="4.14672">
        <ele>758.14</ele>
        <time>2014-05-08T12:58:17Z</time>
      </trkpt>
      <trkpt lat="45.37322" lon="4.14675">
        <ele>757.18</ele>
        <time>2014-05-08T12:58:30Z</time>
      </trkpt>
      <trkpt lat="45.37318" lon="4.14677">
        <ele>756.21</ele>
        <time>2014-05-08T12:58:45Z</time>
      </trkpt>
      <trkpt lat="45.37317" lon="4.14679">
        <ele>756.21</ele>
        <time>2014-05-08T12:58:46Z</time>
      </trkpt>
      <trkpt lat="45.37315" lon="4.14681">
        <ele>756.21</ele>
        <time>2014-05-08T12:58:47Z</time>
      </trkpt>
      <trkpt lat="45.37286" lon="4.14698">
        <ele>752.85</ele>
        <time>2014-05-08T12:58:54Z</time>
      </trkpt>
      <trkpt lat="45.37227" lon="4.14721">
        <ele>749.49</ele>
        <time>2014-05-08T12:59:04Z</time>
      </trkpt>
      <trkpt lat="45.37221" lon="4.14723">
        <ele>749.49</ele>
        <time>2014-05-08T12:59:05Z</time>
      </trkpt>
      <trkpt lat="45.37202" lon="4.14731">
        <ele>745.64</ele>
        <time>2014-05-08T12:59:08Z</time>
      </trkpt>
      <trkpt lat="45.37196" lon="4.14734">
        <ele>746.12</ele>
        <time>2014-05-08T12:59:09Z</time>
      </trkpt>
      <trkpt lat="45.37169" lon="4.14748">
        <ele>742.28</ele>
        <time>2014-05-08T12:59:13Z</time>
      </trkpt>
      <trkpt lat="45.3714" lon="4.14763">
        <ele>739.39</ele>
        <time>2014-05-08T12:59:17Z</time>
      </trkpt>
      <trkpt lat="45.37127" lon="4.14769">
        <ele>735.55</ele>
        <time>2014-05-08T12:59:19Z</time>
      </trkpt>
      <trkpt lat="45.37115" lon="4.14774">
        <ele>735.07</ele>
        <time>2014-05-08T12:59:21Z</time>
      </trkpt>
      <trkpt lat="45.37095" lon="4.14783">
        <ele>731.7</ele>
        <time>2014-05-08T12:59:24Z</time>
      </trkpt>
      <trkpt lat="45.3709" lon="4.14786">
        <ele>729.3</ele>
        <time>2014-05-08T12:59:25Z</time>
      </trkpt>
      <trkpt lat="45.37085" lon="4.14787">
        <ele>729.3</ele>
        <time>2014-05-08T12:59:26Z</time>
      </trkpt>
      <trkpt lat="45.37081" lon="4.14787">
        <ele>728.82</ele>
        <time>2014-05-08T12:59:27Z</time>
      </trkpt>
      <trkpt lat="45.37077" lon="4.14784">
        <ele>728.34</ele>
        <time>2014-05-08T12:59:28Z</time>
      </trkpt>
      <trkpt lat="45.37075" lon="4.14782">
        <ele>727.37</ele>
        <time>2014-05-08T12:59:29Z</time>
      </trkpt>
      <trkpt lat="45.37048" lon="4.14759">
        <ele>724.01</ele>
        <time>2014-05-08T12:59:34Z</time>
      </trkpt>
      <trkpt lat="45.37043" lon="4.14755">
        <ele>723.53</ele>
        <time>2014-05-08T12:59:35Z</time>
      </trkpt>
      <trkpt lat="45.37028" lon="4.14741">
        <ele>721.13</ele>
        <time>2014-05-08T12:59:38Z</time>
      </trkpt>
      <trkpt lat="45.37012" lon="4.1473">
        <ele>717.28</ele>
        <time>2014-05-08T12:59:41Z</time>
      </trkpt>
      <trkpt lat="45.37007" lon="4.14727">
        <ele>716.32</ele>
        <time>2014-05-08T12:59:42Z</time>
      </trkpt>
      <trkpt lat="45.36997" lon="4.14721">
        <ele>714.88</ele>
        <time>2014-05-08T12:59:44Z</time>
      </trkpt>
      <trkpt lat="45.36957" lon="4.14697">
        <ele>711.51</ele>
        <time>2014-05-08T12:59:51Z</time>
      </trkpt>
      <trkpt lat="45.36889" lon="4.14678">
        <ele>709.59</ele>
        <time>2014-05-08T13:00:03Z</time>
      </trkpt>
      <trkpt lat="45.36879" lon="4.14678">
        <ele>708.63</ele>
        <time>2014-05-08T13:00:05Z</time>
      </trkpt>
      <trkpt lat="45.3687" lon="4.14678">
        <ele>708.63</ele>
        <time>2014-05-08T13:00:07Z</time>
      </trkpt>
      <trkpt lat="45.36866" lon="4.14674">
        <ele>707.19</ele>
        <time>2014-05-08T13:00:08Z</time>
      </trkpt>
      <trkpt lat="45.36858" lon="4.14668">
        <ele>706.71</ele>
        <time>2014-05-08T13:00:10Z</time>
      </trkpt>
      <trkpt lat="45.36855" lon="4.14664">
        <ele>705.26</ele>
        <time>2014-05-08T13:00:11Z</time>
      </trkpt>
      <trkpt lat="45.36847" lon="4.14654">
        <ele>704.3</ele>
        <time>2014-05-08T13:00:13Z</time>
      </trkpt>
      <trkpt lat="45.36829" lon="4.14619">
        <ele>699.5</ele>
        <time>2014-05-08T13:00:19Z</time>
      </trkpt>
      <trkpt lat="45.36826" lon="4.14613">
        <ele>699.98</ele>
        <time>2014-05-08T13:00:20Z</time>
      </trkpt>
      <trkpt lat="45.36817" lon="4.14593">
        <ele>697.09</ele>
        <time>2014-05-08T13:00:23Z</time>
      </trkpt>
      <trkpt lat="45.36815" lon="4.14586">
        <ele>696.13</ele>
        <time>2014-05-08T13:00:24Z</time>
      </trkpt>
      <trkpt lat="45.36809" lon="4.14563">
        <ele>692.77</ele>
        <time>2014-05-08T13:00:27Z</time>
      </trkpt>
      <trkpt lat="45.368" lon="4.14527">
        <ele>688.92</ele>
        <time>2014-05-08T13:00:33Z</time>
      </trkpt>
      <trkpt lat="45.36799" lon="4.14517">
        <ele>687.96</ele>
        <time>2014-05-08T13:00:35Z</time>
      </trkpt>
      <trkpt lat="45.36792" lon="4.14495">
        <ele>684.12</ele>
        <time>2014-05-08T13:00:41Z</time>
      </trkpt>
      <trkpt lat="45.3678" lon="4.14484">
        <ele>680.75</ele>
        <time>2014-05-08T13:00:46Z</time>
      </trkpt>
      <trkpt lat="45.36775" lon="4.14484">
        <ele>680.75</ele>
        <time>2014-05-08T13:00:47Z</time>
      </trkpt>
      <trkpt lat="45.36752" lon="4.14488">
        <ele>677.39</ele>
        <time>2014-05-08T13:00:52Z</time>
      </trkpt>
      <trkpt lat="45.36729" lon="4.14495">
        <ele>674.02</ele>
        <time>2014-05-08T13:00:58Z</time>
      </trkpt>
      <trkpt lat="45.36713" lon="4.14502">
        <ele>669.7</ele>
        <time>2014-05-08T13:01:03Z</time>
      </trkpt>
      <trkpt lat="45.36711" lon="4.14504">
        <ele>670.18</ele>
        <time>2014-05-08T13:01:04Z</time>
      </trkpt>
      <trkpt lat="45.367" lon="4.14513">
        <ele>666.81</ele>
        <time>2014-05-08T13:01:10Z</time>
      </trkpt>
      <trkpt lat="45.36698" lon="4.14515">
        <ele>666.33</ele>
        <time>2014-05-08T13:01:11Z</time>
      </trkpt>
      <trkpt lat="45.36686" lon="4.14522">
        <ele>662.97</ele>
        <time>2014-05-08T13:01:18Z</time>
      </trkpt>
      <trkpt lat="45.36685" lon="4.14523">
        <ele>662.97</ele>
        <time>2014-05-08T13:01:19Z</time>
      </trkpt>
      <trkpt lat="45.36684" lon="4.14526">
        <ele>661.04</ele>
        <time>2014-05-08T13:01:20Z</time>
      </trkpt>
      <trkpt lat="45.36683" lon="4.14529">
        <ele>661.04</ele>
        <time>2014-05-08T13:01:21Z</time>
      </trkpt>
      <trkpt lat="45.36682" lon="4.14532">
        <ele>660.56</ele>
        <time>2014-05-08T13:01:22Z</time>
      </trkpt>
      <trkpt lat="45.36681" lon="4.14535">
        <ele>659.12</ele>
        <time>2014-05-08T13:01:23Z</time>
      </trkpt>
      <trkpt lat="45.36681" lon="4.1454">
        <ele>661.04</ele>
        <time>2014-05-08T13:01:24Z</time>
      </trkpt>
      <trkpt lat="45.36679" lon="4.14547">
        <ele>657.68</ele>
        <time>2014-05-08T13:01:26Z</time>
      </trkpt>
      <trkpt lat="45.36678" lon="4.14549">
        <ele>658.16</ele>
        <time>2014-05-08T13:01:27Z</time>
      </trkpt>
      <trkpt lat="45.3667" lon="4.14556">
        <ele>656.72</ele>
        <time>2014-05-08T13:01:32Z</time>
      </trkpt>
      <trkpt lat="45.36664" lon="4.14553">
        <ele>655.76</ele>
        <time>2014-05-08T13:01:34Z</time>
      </trkpt>
      <trkpt lat="45.36663" lon="4.14556">
        <ele>654.8</ele>
        <time>2014-05-08T13:01:35Z</time>
      </trkpt>
      <trkpt lat="45.36652" lon="4.14559">
        <ele>652.39</ele>
        <time>2014-05-08T13:01:40Z</time>
      </trkpt>
      <trkpt lat="45.3665" lon="4.14555">
        <ele>652.39</ele>
        <time>2014-05-08T13:01:41Z</time>
      </trkpt>
      <trkpt lat="45.36648" lon="4.14555">
        <ele>650.95</ele>
        <time>2014-05-08T13:01:42Z</time>
      </trkpt>
      <trkpt lat="45.36647" lon="4.14531">
        <ele>648.07</ele>
        <time>2014-05-08T13:01:51Z</time>
      </trkpt>
      <trkpt lat="45.36648" lon="4.14529">
        <ele>647.1</ele>
        <time>2014-05-08T13:01:52Z</time>
      </trkpt>
      <trkpt lat="45.36647" lon="4.14526">
        <ele>647.1</ele>
        <time>2014-05-08T13:01:53Z</time>
      </trkpt>
      <trkpt lat="45.3664" lon="4.14522">
        <ele>644.7</ele>
        <time>2014-05-08T13:01:59Z</time>
      </trkpt>
      <trkpt lat="45.36638" lon="4.14527">
        <ele>643.74</ele>
        <time>2014-05-08T13:02:02Z</time>
      </trkpt>
      <trkpt lat="45.36628" lon="4.14554">
        <ele>640.38</ele>
        <time>2014-05-08T13:02:11Z</time>
      </trkpt>
      <trkpt lat="45.36624" lon="4.14561">
        <ele>639.41</ele>
        <time>2014-05-08T13:02:14Z</time>
      </trkpt>
      <trkpt lat="45.36623" lon="4.14563">
        <ele>638.93</ele>
        <time>2014-05-08T13:02:15Z</time>
      </trkpt>
      <trkpt lat="45.36614" lon="4.14562">
        <ele>636.53</ele>
        <time>2014-05-08T13:02:18Z</time>
      </trkpt>
      <trkpt lat="45.36612" lon="4.14562">
        <ele>637.97</ele>
        <time>2014-05-08T13:02:19Z</time>
      </trkpt>
      <trkpt lat="45.36609" lon="4.14567">
        <ele>635.09</ele>
        <time>2014-05-08T13:02:22Z</time>
      </trkpt>
      <trkpt lat="45.36609" lon="4.1458">
        <ele>631.24</ele>
        <time>2014-05-08T13:02:31Z</time>
      </trkpt>
      <trkpt lat="45.36611" lon="4.14591">
        <ele>627.88</ele>
        <time>2014-05-08T13:02:36Z</time>
      </trkpt>
      <trkpt lat="45.36612" lon="4.146">
        <ele>626.92</ele>
        <time>2014-05-08T13:02:40Z</time>
      </trkpt>
      <trkpt lat="45.36614" lon="4.14615">
        <ele>623.07</ele>
        <time>2014-05-08T13:02:44Z</time>
      </trkpt>
      <trkpt lat="45.36615" lon="4.14617">
        <ele>623.07</ele>
        <time>2014-05-08T13:02:45Z</time>
      </trkpt>
      <trkpt lat="45.36624" lon="4.1464">
        <ele>619.23</ele>
        <time>2014-05-08T13:02:51Z</time>
      </trkpt>
      <trkpt lat="45.36627" lon="4.1467">
        <ele>615.38</ele>
        <time>2014-05-08T13:02:58Z</time>
      </trkpt>
      <trkpt lat="45.36626" lon="4.14689">
        <ele>612.02</ele>
        <time>2014-05-08T13:03:03Z</time>
      </trkpt>
      <trkpt lat="45.36626" lon="4.14695">
        <ele>611.54</ele>
        <time>2014-05-08T13:03:06Z</time>
      </trkpt>
      <trkpt lat="45.36625" lon="4.14708">
        <ele>609.13</ele>
        <time>2014-05-08T13:03:11Z</time>
      </trkpt>
      <trkpt lat="45.36623" lon="4.14719">
        <ele>605.77</ele>
        <time>2014-05-08T13:03:16Z</time>
      </trkpt>
      <trkpt lat="45.3662" lon="4.14735">
        <ele>602.4</ele>
        <time>2014-05-08T13:03:23Z</time>
      </trkpt>
      <trkpt lat="45.3662" lon="4.14737">
        <ele>602.4</ele>
        <time>2014-05-08T13:03:24Z</time>
      </trkpt>
      <trkpt lat="45.36618" lon="4.14741">
        <ele>600.96</ele>
        <time>2014-05-08T13:03:28Z</time>
      </trkpt>
      <trkpt lat="45.36609" lon="4.14741">
        <ele>598.08</ele>
        <time>2014-05-08T13:03:32Z</time>
      </trkpt>
      <trkpt lat="45.36596" lon="4.14784">
        <ele>595.67</ele>
        <time>2014-05-08T13:03:42Z</time>
      </trkpt>
      <trkpt lat="45.36602" lon="4.14804">
        <ele>594.71</ele>
        <time>2014-05-08T13:03:46Z</time>
      </trkpt>
      <trkpt lat="45.36603" lon="4.14814">
        <ele>594.23</ele>
        <time>2014-05-08T13:03:48Z</time>
      </trkpt>
      <trkpt lat="45.36603" lon="4.14819">
        <ele>593.75</ele>
        <time>2014-05-08T13:03:49Z</time>
      </trkpt>
      <trkpt lat="45.36603" lon="4.14823">
        <ele>593.27</ele>
        <time>2014-05-08T13:03:50Z</time>
      </trkpt>
      <trkpt lat="45.36603" lon="4.14829">
        <ele>593.75</ele>
        <time>2014-05-08T13:03:51Z</time>
      </trkpt>
      <trkpt lat="45.36603" lon="4.14834">
        <ele>593.75</ele>
        <time>2014-05-08T13:03:52Z</time>
      </trkpt>
      <trkpt lat="45.36602" lon="4.1484">
        <ele>593.27</ele>
        <time>2014-05-08T13:03:53Z</time>
      </trkpt>
      <trkpt lat="45.36602" lon="4.14845">
        <ele>593.27</ele>
        <time>2014-05-08T13:03:54Z</time>
      </trkpt>
      <trkpt lat="45.366" lon="4.14849">
        <ele>593.75</ele>
        <time>2014-05-08T13:03:55Z</time>
      </trkpt>
      <trkpt lat="45.36598" lon="4.14853">
        <ele>592.31</ele>
        <time>2014-05-08T13:03:56Z</time>
      </trkpt>
      <trkpt lat="45.36596" lon="4.14858">
        <ele>592.79</ele>
        <time>2014-05-08T13:03:57Z</time>
      </trkpt>
      <trkpt lat="45.36595" lon="4.14863">
        <ele>591.83</ele>
        <time>2014-05-08T13:03:58Z</time>
      </trkpt>
      <trkpt lat="45.36594" lon="4.14869">
        <ele>592.31</ele>
        <time>2014-05-08T13:03:59Z</time>
      </trkpt>
      <trkpt lat="45.36575" lon="4.14901">
        <ele>591.35</ele>
        <time>2014-05-08T13:04:08Z</time>
      </trkpt>
      <trkpt lat="45.36566" lon="4.14928">
        <ele>590.87</ele>
        <time>2014-05-08T13:04:20Z</time>
      </trkpt>
      <trkpt lat="45.36544" lon="4.14979">
        <ele>587.5</ele>
        <time>2014-05-08T13:04:32Z</time>
      </trkpt>
      <trkpt lat="45.36527" lon="4.15021">
        <ele>588.46</ele>
        <time>2014-05-08T13:04:47Z</time>
      </trkpt>
      <trkpt lat="45.36516" lon="4.15037">
        <ele>587.5</ele>
        <time>2014-05-08T13:05:00Z</time>
      </trkpt>
      <trkpt lat="45.36514" lon="4.1504">
        <ele>587.98</ele>
        <time>2014-05-08T13:05:03Z</time>
      </trkpt>
      <trkpt lat="45.36501" lon="4.15096">
        <ele>586.06</ele>
        <time>2014-05-08T13:05:16Z</time>
      </trkpt>
      <trkpt lat="45.36491" lon="4.15139">
        <ele>585.1</ele>
        <time>2014-05-08T13:05:27Z</time>
      </trkpt>
      <trkpt lat="45.36489" lon="4.15142">
        <ele>584.62</ele>
        <time>2014-05-08T13:05:30Z</time>
      </trkpt>
      <trkpt lat="45.36489" lon="4.15144">
        <ele>585.58</ele>
        <time>2014-05-08T13:05:31Z</time>
      </trkpt>
      <trkpt lat="45.3649" lon="4.15146">
        <ele>583.66</ele>
        <time>2014-05-08T13:05:32Z</time>
      </trkpt>
      <trkpt lat="45.36492" lon="4.15211">
        <ele>581.73</ele>
        <time>2014-05-08T13:05:50Z</time>
      </trkpt>
      <trkpt lat="45.36491" lon="4.15258">
        <ele>580.29</ele>
        <time>2014-05-08T13:06:03Z</time>
      </trkpt>
      <trkpt lat="45.36476" lon="4.15304">
        <ele>579.81</ele>
        <time>2014-05-08T13:06:18Z</time>
      </trkpt>
      <trkpt lat="45.36455" lon="4.15367">
        <ele>578.85</ele>
        <time>2014-05-08T13:06:33Z</time>
      </trkpt>
      <trkpt lat="45.36455" lon="4.15378">
        <ele>579.81</ele>
        <time>2014-05-08T13:06:35Z</time>
      </trkpt>
      <trkpt lat="45.36439" lon="4.15413">
        <ele>580.77</ele>
        <time>2014-05-08T13:06:51Z</time>
      </trkpt>
      <trkpt lat="45.36402" lon="4.1546">
        <ele>582.22</ele>
        <time>2014-05-08T13:07:09Z</time>
      </trkpt>
      <trkpt lat="45.36391" lon="4.15478">
        <ele>584.14</ele>
        <time>2014-05-08T13:07:25Z</time>
      </trkpt>
      <trkpt lat="45.36367" lon="4.15487">
        <ele>585.1</ele>
        <time>2014-05-08T13:07:41Z</time>
      </trkpt>
      <trkpt lat="45.36367" lon="4.15486">
        <ele>585.58</ele>
        <time>2014-05-08T13:07:43Z</time>
      </trkpt>
      <trkpt lat="45.36359" lon="4.15498">
        <ele>587.02</ele>
        <time>2014-05-08T13:07:48Z</time>
      </trkpt>
      <trkpt lat="45.36332" lon="4.15561">
        <ele>590.39</ele>
        <time>2014-05-08T13:08:05Z</time>
      </trkpt>
      <trkpt lat="45.36332" lon="4.15568">
        <ele>589.91</ele>
        <time>2014-05-08T13:08:07Z</time>
      </trkpt>
      <trkpt lat="45.36331" lon="4.15571">
        <ele>590.39</ele>
        <time>2014-05-08T13:08:08Z</time>
      </trkpt>
      <trkpt lat="45.3633" lon="4.15573">
        <ele>590.87</ele>
        <time>2014-05-08T13:08:09Z</time>
      </trkpt>
      <trkpt lat="45.3633" lon="4.15575">
        <ele>589.91</ele>
        <time>2014-05-08T13:08:10Z</time>
      </trkpt>
      <trkpt lat="45.36327" lon="4.15575">
        <ele>590.87</ele>
        <time>2014-05-08T13:08:11Z</time>
      </trkpt>
      <trkpt lat="45.36311" lon="4.15606">
        <ele>591.83</ele>
        <time>2014-05-08T13:08:24Z</time>
      </trkpt>
      <trkpt lat="45.363" lon="4.15629">
        <ele>592.31</ele>
        <time>2014-05-08T13:08:31Z</time>
      </trkpt>
      <trkpt lat="45.36298" lon="4.15637">
        <ele>592.31</ele>
        <time>2014-05-08T13:08:33Z</time>
      </trkpt>
      <trkpt lat="45.36295" lon="4.15639">
        <ele>593.75</ele>
        <time>2014-05-08T13:08:34Z</time>
      </trkpt>
      <trkpt lat="45.36276" lon="4.15696">
        <ele>593.75</ele>
        <time>2014-05-08T13:08:47Z</time>
      </trkpt>
      <trkpt lat="45.36257" lon="4.15704">
        <ele>593.75</ele>
        <time>2014-05-08T13:08:50Z</time>
      </trkpt>
      <trkpt lat="45.3623" lon="4.15721">
        <ele>594.71</ele>
        <time>2014-05-08T13:09:03Z</time>
      </trkpt>
      <trkpt lat="45.36221" lon="4.15729">
        <ele>595.19</ele>
        <time>2014-05-08T13:09:08Z</time>
      </trkpt>
      <trkpt lat="45.36177" lon="4.1576">
        <ele>597.12</ele>
        <time>2014-05-08T13:09:23Z</time>
      </trkpt>
      <trkpt lat="45.36173" lon="4.15763">
        <ele>597.12</ele>
        <time>2014-05-08T13:09:25Z</time>
      </trkpt>
      <trkpt lat="45.36162" lon="4.15759">
        <ele>598.08</ele>
        <time>2014-05-08T13:09:34Z</time>
      </trkpt>
      <trkpt lat="45.36115" lon="4.15738">
        <ele>600</ele>
        <time>2014-05-08T13:09:51Z</time>
      </trkpt>
      <trkpt lat="45.36113" lon="4.15722">
        <ele>600.48</ele>
        <time>2014-05-08T13:09:56Z</time>
      </trkpt>
      <trkpt lat="45.36109" lon="4.15721">
        <ele>600.48</ele>
        <time>2014-05-08T13:09:57Z</time>
      </trkpt>
      <trkpt lat="45.36097" lon="4.15722">
        <ele>600.48</ele>
        <time>2014-05-08T13:09:59Z</time>
      </trkpt>
      <trkpt lat="45.36078" lon="4.15695">
        <ele>602.4</ele>
        <time>2014-05-08T13:10:12Z</time>
      </trkpt>
      <trkpt lat="45.36072" lon="4.15683">
        <ele>603.36</ele>
        <time>2014-05-08T13:10:18Z</time>
      </trkpt>
      <trkpt lat="45.3607" lon="4.15682">
        <ele>602.88</ele>
        <time>2014-05-08T13:10:19Z</time>
      </trkpt>
      <trkpt lat="45.36062" lon="4.15673">
        <ele>604.33</ele>
        <time>2014-05-08T13:10:25Z</time>
      </trkpt>
      <trkpt lat="45.36057" lon="4.15687">
        <ele>605.77</ele>
        <time>2014-05-08T13:10:39Z</time>
      </trkpt>
      <trkpt lat="45.36047" lon="4.15731">
        <ele>606.73</ele>
        <time>2014-05-08T13:10:53Z</time>
      </trkpt>
      <trkpt lat="45.36043" lon="4.15743">
        <ele>606.73</ele>
        <time>2014-05-08T13:10:57Z</time>
      </trkpt>
      <trkpt lat="45.36042" lon="4.15746">
        <ele>608.17</ele>
        <time>2014-05-08T13:10:58Z</time>
      </trkpt>
      <trkpt lat="45.36041" lon="4.1575">
        <ele>608.17</ele>
        <time>2014-05-08T13:10:59Z</time>
      </trkpt>
      <trkpt lat="45.36029" lon="4.15786">
        <ele>608.65</ele>
        <time>2014-05-08T13:11:12Z</time>
      </trkpt>
      <trkpt lat="45.36001" lon="4.15851">
        <ele>610.57</ele>
        <time>2014-05-08T13:11:29Z</time>
      </trkpt>
      <trkpt lat="45.35976" lon="4.15866">
        <ele>612.5</ele>
        <time>2014-05-08T13:11:44Z</time>
      </trkpt>
      <trkpt lat="45.3596" lon="4.15857">
        <ele>614.9</ele>
        <time>2014-05-08T13:11:59Z</time>
      </trkpt>
      <trkpt lat="45.35957" lon="4.15855">
        <ele>615.86</ele>
        <time>2014-05-08T13:12:01Z</time>
      </trkpt>
      <trkpt lat="45.35948" lon="4.15849">
        <ele>616.34</ele>
        <time>2014-05-08T13:12:04Z</time>
      </trkpt>
      <trkpt lat="45.35894" lon="4.15879">
        <ele>616.82</ele>
        <time>2014-05-08T13:12:18Z</time>
      </trkpt>
      <trkpt lat="45.35889" lon="4.15881">
        <ele>617.3</ele>
        <time>2014-05-08T13:12:20Z</time>
      </trkpt>
      <trkpt lat="45.35877" lon="4.15887">
        <ele>617.3</ele>
        <time>2014-05-08T13:12:23Z</time>
      </trkpt>
      <trkpt lat="45.35826" lon="4.15929">
        <ele>618.26</ele>
        <time>2014-05-08T13:12:36Z</time>
      </trkpt>
      <trkpt lat="45.35798" lon="4.15923">
        <ele>617.78</ele>
        <time>2014-05-08T13:12:46Z</time>
      </trkpt>
      <trkpt lat="45.35768" lon="4.15883">
        <ele>617.3</ele>
        <time>2014-05-08T13:13:01Z</time>
      </trkpt>
      <trkpt lat="45.35743" lon="4.15808">
        <ele>619.23</ele>
        <time>2014-05-08T13:13:20Z</time>
      </trkpt>
      <trkpt lat="45.35732" lon="4.15792">
        <ele>621.63</ele>
        <time>2014-05-08T13:13:27Z</time>
      </trkpt>
      <trkpt lat="45.35711" lon="4.15772">
        <ele>624.99</ele>
        <time>2014-05-08T13:13:39Z</time>
      </trkpt>
      <trkpt lat="45.35669" lon="4.15748">
        <ele>627.4</ele>
        <time>2014-05-08T13:13:57Z</time>
      </trkpt>
      <trkpt lat="45.35663" lon="4.15741">
        <ele>627.88</ele>
        <time>2014-05-08T13:14:01Z</time>
      </trkpt>
      <trkpt lat="45.35663" lon="4.15739">
        <ele>628.36</ele>
        <time>2014-05-08T13:14:02Z</time>
      </trkpt>
      <trkpt lat="45.35663" lon="4.15738">
        <ele>628.36</ele>
        <time>2014-05-08T13:14:03Z</time>
      </trkpt>
      <trkpt lat="45.35663" lon="4.15737">
        <ele>627.88</ele>
        <time>2014-05-08T13:14:04Z</time>
      </trkpt>
      <trkpt lat="45.35665" lon="4.15736">
        <ele>629.8</ele>
        <time>2014-05-08T13:14:05Z</time>
      </trkpt>
      <trkpt lat="45.35666" lon="4.15736">
        <ele>628.84</ele>
        <time>2014-05-08T13:14:06Z</time>
      </trkpt>
      <trkpt lat="45.35702" lon="4.15727">
        <ele>630.28</ele>
        <time>2014-05-08T13:14:22Z</time>
      </trkpt>
      <trkpt lat="45.35729" lon="4.15712">
        <ele>633.17</ele>
        <time>2014-05-08T13:14:36Z</time>
      </trkpt>
      <trkpt lat="45.35754" lon="4.15712">
        <ele>635.57</ele>
        <time>2014-05-08T13:14:52Z</time>
      </trkpt>
      <trkpt lat="45.35771" lon="4.15729">
        <ele>636.53</ele>
        <time>2014-05-08T13:15:09Z</time>
      </trkpt>
      <trkpt lat="45.35774" lon="4.15731">
        <ele>638.45</ele>
        <time>2014-05-08T13:15:12Z</time>
      </trkpt>
      <trkpt lat="45.3579" lon="4.15739">
        <ele>641.82</ele>
        <time>2014-05-08T13:15:24Z</time>
      </trkpt>
      <trkpt lat="45.35791" lon="4.15739">
        <ele>641.82</ele>
        <time>2014-05-08T13:15:25Z</time>
      </trkpt>
      <trkpt lat="45.35814" lon="4.15739">
        <ele>645.66</ele>
        <time>2014-05-08T13:15:42Z</time>
      </trkpt>
      <trkpt lat="45.35815" lon="4.15739">
        <ele>645.66</ele>
        <time>2014-05-08T13:15:43Z</time>
      </trkpt>
      <trkpt lat="45.35835" lon="4.15725">
        <ele>649.03</ele>
        <time>2014-05-08T13:15:58Z</time>
      </trkpt>
      <trkpt lat="45.35849" lon="4.15709">
        <ele>649.99</ele>
        <time>2014-05-08T13:16:16Z</time>
      </trkpt>
      <trkpt lat="45.35849" lon="4.15703">
        <ele>650.47</ele>
        <time>2014-05-08T13:16:41Z</time>
      </trkpt>
      <trkpt lat="45.3585" lon="4.15691">
        <ele>651.91</ele>
        <time>2014-05-08T13:16:58Z</time>
      </trkpt>
      <trkpt lat="45.35845" lon="4.15681">
        <ele>652.87</ele>
        <time>2014-05-08T13:17:14Z</time>
      </trkpt>
      <trkpt lat="45.35846" lon="4.15673">
        <ele>654.8</ele>
        <time>2014-05-08T13:17:35Z</time>
      </trkpt>
      <trkpt lat="45.35844" lon="4.15661">
        <ele>657.2</ele>
        <time>2014-05-08T13:17:50Z</time>
      </trkpt>
      <trkpt lat="45.35846" lon="4.15642">
        <ele>659.12</ele>
        <time>2014-05-08T13:18:09Z</time>
      </trkpt>
      <trkpt lat="45.35844" lon="4.15637">
        <ele>660.56</ele>
        <time>2014-05-08T13:18:26Z</time>
      </trkpt>
      <trkpt lat="45.35842" lon="4.15629">
        <ele>661.04</ele>
        <time>2014-05-08T13:18:46Z</time>
      </trkpt>
      <trkpt lat="45.35841" lon="4.15613">
        <ele>662.97</ele>
        <time>2014-05-08T13:19:10Z</time>
      </trkpt>
      <trkpt lat="45.35841" lon="4.15604">
        <ele>663.93</ele>
        <time>2014-05-08T13:19:18Z</time>
      </trkpt>
      <trkpt lat="45.3584" lon="4.15584">
        <ele>665.85</ele>
        <time>2014-05-08T13:19:36Z</time>
      </trkpt>
      <trkpt lat="45.3584" lon="4.15582">
        <ele>666.81</ele>
        <time>2014-05-08T13:19:38Z</time>
      </trkpt>
      <trkpt lat="45.35839" lon="4.15552">
        <ele>669.7</ele>
        <time>2014-05-08T13:20:00Z</time>
      </trkpt>
      <trkpt lat="45.35839" lon="4.15536">
        <ele>670.18</ele>
        <time>2014-05-08T13:20:13Z</time>
      </trkpt>
      <trkpt lat="45.35837" lon="4.15517">
        <ele>672.58</ele>
        <time>2014-05-08T13:20:32Z</time>
      </trkpt>
      <trkpt lat="45.35835" lon="4.15507">
        <ele>674.98</ele>
        <time>2014-05-08T13:20:53Z</time>
      </trkpt>
      <trkpt lat="45.35836" lon="4.15491">
        <ele>675.46</ele>
        <time>2014-05-08T13:21:11Z</time>
      </trkpt>
      <trkpt lat="45.35845" lon="4.15477">
        <ele>679.31</ele>
        <time>2014-05-08T13:21:28Z</time>
      </trkpt>
      <trkpt lat="45.35849" lon="4.15467">
        <ele>680.27</ele>
        <time>2014-05-08T13:21:47Z</time>
      </trkpt>
      <trkpt lat="45.35851" lon="4.1546">
        <ele>683.63</ele>
        <time>2014-05-08T13:22:07Z</time>
      </trkpt>
      <trkpt lat="45.35851" lon="4.15446">
        <ele>686.04</ele>
        <time>2014-05-08T13:22:23Z</time>
      </trkpt>
      <trkpt lat="45.35853" lon="4.15434">
        <ele>687.96</ele>
        <time>2014-05-08T13:22:47Z</time>
      </trkpt>
      <trkpt lat="45.3586" lon="4.15409">
        <ele>689.4</ele>
        <time>2014-05-08T13:23:07Z</time>
      </trkpt>
      <trkpt lat="45.35871" lon="4.15389">
        <ele>692.29</ele>
        <time>2014-05-08T13:23:30Z</time>
      </trkpt>
      <trkpt lat="45.35877" lon="4.15374">
        <ele>695.65</ele>
        <time>2014-05-08T13:23:44Z</time>
      </trkpt>
      <trkpt lat="45.35888" lon="4.15354">
        <ele>697.09</ele>
        <time>2014-05-08T13:24:03Z</time>
      </trkpt>
      <trkpt lat="45.35896" lon="4.15341">
        <ele>698.53</ele>
        <time>2014-05-08T13:24:20Z</time>
      </trkpt>
      <trkpt lat="45.359" lon="4.15334">
        <ele>699.02</ele>
        <time>2014-05-08T13:24:38Z</time>
      </trkpt>
      <trkpt lat="45.35902" lon="4.15332">
        <ele>699.5</ele>
        <time>2014-05-08T13:24:39Z</time>
      </trkpt>
      <trkpt lat="45.35916" lon="4.15291">
        <ele>699.5</ele>
        <time>2014-05-08T13:24:51Z</time>
      </trkpt>
      <trkpt lat="45.35929" lon="4.1523">
        <ele>699.98</ele>
        <time>2014-05-08T13:25:08Z</time>
      </trkpt>
      <trkpt lat="45.35933" lon="4.15189">
        <ele>699.98</ele>
        <time>2014-05-08T13:25:20Z</time>
      </trkpt>
      <trkpt lat="45.35935" lon="4.15137">
        <ele>698.53</ele>
        <time>2014-05-08T13:25:32Z</time>
      </trkpt>
      <trkpt lat="45.35952" lon="4.15076">
        <ele>700.94</ele>
        <time>2014-05-08T13:25:48Z</time>
      </trkpt>
      <trkpt lat="45.35965" lon="4.15025">
        <ele>703.82</ele>
        <time>2014-05-08T13:26:03Z</time>
      </trkpt>
      <trkpt lat="45.35983" lon="4.14976">
        <ele>704.78</ele>
        <time>2014-05-08T13:26:19Z</time>
      </trkpt>
      <trkpt lat="45.36004" lon="4.14935">
        <ele>704.78</ele>
        <time>2014-05-08T13:26:35Z</time>
      </trkpt>
      <trkpt lat="45.36018" lon="4.14906">
        <ele>707.19</ele>
        <time>2014-05-08T13:26:48Z</time>
      </trkpt>
      <trkpt lat="45.36022" lon="4.14893">
        <ele>708.63</ele>
        <time>2014-05-08T13:26:56Z</time>
      </trkpt>
      <trkpt lat="45.36022" lon="4.1489">
        <ele>709.59</ele>
        <time>2014-05-08T13:26:57Z</time>
      </trkpt>
      <trkpt lat="45.36025" lon="4.14866">
        <ele>711.99</ele>
        <time>2014-05-08T13:27:08Z</time>
      </trkpt>
      <trkpt lat="45.3603" lon="4.1484">
        <ele>715.36</ele>
        <time>2014-05-08T13:27:20Z</time>
      </trkpt>
      <trkpt lat="45.36046" lon="4.14815">
        <ele>716.8</ele>
        <time>2014-05-08T13:27:35Z</time>
      </trkpt>
      <trkpt lat="45.36071" lon="4.14798">
        <ele>718.24</ele>
        <time>2014-05-08T13:27:52Z</time>
      </trkpt>
      <trkpt lat="45.36103" lon="4.14783">
        <ele>719.68</ele>
        <time>2014-05-08T13:28:06Z</time>
      </trkpt>
      <trkpt lat="45.36125" lon="4.14748">
        <ele>721.61</ele>
        <time>2014-05-08T13:28:20Z</time>
      </trkpt>
      <trkpt lat="45.36125" lon="4.14746">
        <ele>721.61</ele>
        <time>2014-05-08T13:28:21Z</time>
      </trkpt>
      <trkpt lat="45.36129" lon="4.14704">
        <ele>723.53</ele>
        <time>2014-05-08T13:28:37Z</time>
      </trkpt>
      <trkpt lat="45.36127" lon="4.14689">
        <ele>724.97</ele>
        <time>2014-05-08T13:28:42Z</time>
      </trkpt>
      <trkpt lat="45.36127" lon="4.14686">
        <ele>723.53</ele>
        <time>2014-05-08T13:28:43Z</time>
      </trkpt>
      <trkpt lat="45.36127" lon="4.14641">
        <ele>724.97</ele>
        <time>2014-05-08T13:28:58Z</time>
      </trkpt>
      <trkpt lat="45.36131" lon="4.14584">
        <ele>726.89</ele>
        <time>2014-05-08T13:29:15Z</time>
      </trkpt>
      <trkpt lat="45.36132" lon="4.14544">
        <ele>730.26</ele>
        <time>2014-05-08T13:29:28Z</time>
      </trkpt>
      <trkpt lat="45.36124" lon="4.14499">
        <ele>733.14</ele>
        <time>2014-05-08T13:29:45Z</time>
      </trkpt>
      <trkpt lat="45.36128" lon="4.14459">
        <ele>735.55</ele>
        <time>2014-05-08T13:29:59Z</time>
      </trkpt>
      <trkpt lat="45.36133" lon="4.14417">
        <ele>737.47</ele>
        <time>2014-05-08T13:30:15Z</time>
      </trkpt>
      <trkpt lat="45.36134" lon="4.14393">
        <ele>739.39</ele>
        <time>2014-05-08T13:30:23Z</time>
      </trkpt>
      <trkpt lat="45.3613" lon="4.14351">
        <ele>742.28</ele>
        <time>2014-05-08T13:30:37Z</time>
      </trkpt>
      <trkpt lat="45.36122" lon="4.14313">
        <ele>742.28</ele>
        <time>2014-05-08T13:30:51Z</time>
      </trkpt>
      <trkpt lat="45.36118" lon="4.14255">
        <ele>744.68</ele>
        <time>2014-05-08T13:31:09Z</time>
      </trkpt>
      <trkpt lat="45.36123" lon="4.14208">
        <ele>745.64</ele>
        <time>2014-05-08T13:31:23Z</time>
      </trkpt>
      <trkpt lat="45.36126" lon="4.1416">
        <ele>749</ele>
        <time>2014-05-08T13:31:39Z</time>
      </trkpt>
      <trkpt lat="45.3613" lon="4.14113">
        <ele>751.41</ele>
        <time>2014-05-08T13:31:54Z</time>
      </trkpt>
      <trkpt lat="45.36151" lon="4.14079">
        <ele>754.77</ele>
        <time>2014-05-08T13:32:09Z</time>
      </trkpt>
      <trkpt lat="45.36178" lon="4.14052">
        <ele>754.77</ele>
        <time>2014-05-08T13:32:23Z</time>
      </trkpt>
      <trkpt lat="45.36218" lon="4.14019">
        <ele>753.81</ele>
        <time>2014-05-08T13:32:37Z</time>
      </trkpt>
      <trkpt lat="45.36266" lon="4.13984">
        <ele>754.77</ele>
        <time>2014-05-08T13:32:53Z</time>
      </trkpt>
      <trkpt lat="45.36301" lon="4.13964">
        <ele>757.18</ele>
        <time>2014-05-08T13:33:06Z</time>
      </trkpt>
      <trkpt lat="45.36336" lon="4.13933">
        <ele>759.1</ele>
        <time>2014-05-08T13:33:21Z</time>
      </trkpt>
      <trkpt lat="45.36374" lon="4.13885">
        <ele>755.25</ele>
        <time>2014-05-08T13:33:34Z</time>
      </trkpt>
      <trkpt lat="45.36378" lon="4.13879">
        <ele>755.25</ele>
        <time>2014-05-08T13:33:35Z</time>
      </trkpt>
      <trkpt lat="45.36425" lon="4.13802">
        <ele>752.37</ele>
        <time>2014-05-08T13:33:46Z</time>
      </trkpt>
      <trkpt lat="45.36434" lon="4.13785">
        <ele>751.41</ele>
        <time>2014-05-08T13:33:48Z</time>
      </trkpt>
      <trkpt lat="45.36439" lon="4.13778">
        <ele>750.93</ele>
        <time>2014-05-08T13:33:49Z</time>
      </trkpt>
      <trkpt lat="45.36444" lon="4.13771">
        <ele>750.93</ele>
        <time>2014-05-08T13:33:50Z</time>
      </trkpt>
      <trkpt lat="45.36491" lon="4.13713">
        <ele>750.93</ele>
        <time>2014-05-08T13:34:00Z</time>
      </trkpt>
      <trkpt lat="45.36499" lon="4.13697">
        <ele>754.77</ele>
        <time>2014-05-08T13:34:08Z</time>
      </trkpt>
      <trkpt lat="45.36504" lon="4.13655">
        <ele>758.14</ele>
        <time>2014-05-08T13:34:22Z</time>
      </trkpt>
      <trkpt lat="45.36485" lon="4.13621">
        <ele>758.14</ele>
        <time>2014-05-08T13:34:36Z</time>
      </trkpt>
      <trkpt lat="45.36463" lon="4.1357">
        <ele>758.62</ele>
        <time>2014-05-08T13:34:51Z</time>
      </trkpt>
      <trkpt lat="45.36433" lon="4.13526">
        <ele>760.54</ele>
        <time>2014-05-08T13:35:06Z</time>
      </trkpt>
      <trkpt lat="45.36428" lon="4.1351">
        <ele>758.62</ele>
        <time>2014-05-08T13:35:11Z</time>
      </trkpt>
      <trkpt lat="45.36443" lon="4.13495">
        <ele>755.25</ele>
        <time>2014-05-08T13:35:16Z</time>
      </trkpt>
      <trkpt lat="45.3645" lon="4.13492">
        <ele>754.29</ele>
        <time>2014-05-08T13:35:18Z</time>
      </trkpt>
      <trkpt lat="45.3647" lon="4.13482">
        <ele>751.89</ele>
        <time>2014-05-08T13:35:23Z</time>
      </trkpt>
      <trkpt lat="45.36483" lon="4.13487">
        <ele>752.37</ele>
        <time>2014-05-08T13:35:36Z</time>
      </trkpt>
      <trkpt lat="45.36484" lon="4.13491">
        <ele>751.41</ele>
        <time>2014-05-08T13:35:53Z</time>
      </trkpt>
      <trkpt lat="45.36485" lon="4.13496">
        <ele>750.93</ele>
        <time>2014-05-08T13:36:09Z</time>
      </trkpt>
      <trkpt lat="45.36484" lon="4.13505">
        <ele>751.41</ele>
        <time>2014-05-08T13:36:32Z</time>
      </trkpt>
      <trkpt lat="45.36485" lon="4.13507">
        <ele>750.45</ele>
        <time>2014-05-08T13:36:53Z</time>
      </trkpt>
      <trkpt lat="45.36486" lon="4.13503">
        <ele>750.93</ele>
        <time>2014-05-08T13:37:09Z</time>
      </trkpt>
      <trkpt lat="45.36487" lon="4.13502">
        <ele>750.45</ele>
        <time>2014-05-08T13:37:28Z</time>
      </trkpt>
      <trkpt lat="45.36486" lon="4.13503">
        <ele>749</ele>
        <time>2014-05-08T13:37:39Z</time>
      </trkpt>
    </trkseg>
  </trk>
</gpx>